<?xml version="1.0" encoding="UTF-8"?>
<gpx version="1.1" creator="https://www.youtrack.es" xsi:schemaLocation="http://www.topografix.com/GPX/1/1 http://www.topografix.com/GPX/1/1/gpx.xsd http://www.garmin.com/xmlschemas/GpxExtensions/v3 http://www.garmin.com/xmlschemas/GpxExtensionsv3.xsd http://www.garmin.com/xmlschemas/TrackPointExtension/v1 http://www.garmin.com/xmlschemas/TrackPointExtensionv1.xsd" xmlns:gpxtpx="http://www.garmin.com/xmlschemas/TrackPointExtension/v1" xmlns:gpxx="http://www.garmin.com/xmlschemas/GpxExtensions/v3" xmlns:xsi="http://www.w3.org/2001/XMLSchema-instance">
  <metadata>
    <author>
      <name>Javier García Leiva</name>
      <email id="javiergarcialeiva" domain="gmail.com"/>
    </author>
    <link href="https://www.youtrack.es">
      <text>YouTrack.es</text>
    </link>
    <time>2026-05-08T21:26:29Z</time>
  </metadata>
  <trk>
    <src>https://www.youtrack.es</src>
    <link href="https://www.youtrack.es/ruta/15885-circular-a-la-garganta-de-la-hoz-desde-rute">
      <text>YouTrack.es</text>
    </link>
    <trkseg>
      <trkpt lat="37.327754" lon="-4.363476">
        <ele>686.546</ele>
        <time>1989-12-30T23:59:59Z</time>
      </trkpt>
      <trkpt lat="37.327709" lon="-4.363388">
        <ele>694.788</ele>
        <time>1989-12-30T23:59:59Z</time>
      </trkpt>
      <trkpt lat="37.327369" lon="-4.363081">
        <ele>686.516</ele>
        <time>1989-12-30T23:59:59Z</time>
      </trkpt>
      <trkpt lat="37.327079" lon="-4.362534">
        <ele>690.407</ele>
        <time>1989-12-30T23:59:59Z</time>
      </trkpt>
      <trkpt lat="37.326827" lon="-4.362419">
        <ele>699.018</ele>
        <time>1989-12-30T23:59:59Z</time>
      </trkpt>
      <trkpt lat="37.326640" lon="-4.362374">
        <ele>702.956</ele>
        <time>1989-12-30T23:59:59Z</time>
      </trkpt>
      <trkpt lat="37.326421" lon="-4.362083">
        <ele>705.774</ele>
        <time>1989-12-30T23:59:59Z</time>
      </trkpt>
      <trkpt lat="37.326334" lon="-4.362032">
        <ele>709.625</ele>
        <time>1989-12-30T23:59:59Z</time>
      </trkpt>
      <trkpt lat="37.326054" lon="-4.361763">
        <ele>707.796</ele>
        <time>1989-12-30T23:59:59Z</time>
      </trkpt>
      <trkpt lat="37.325987" lon="-4.361659">
        <ele>705.345</ele>
        <time>1989-12-30T23:59:59Z</time>
      </trkpt>
      <trkpt lat="37.325871" lon="-4.361295">
        <ele>707.774</ele>
        <time>1989-12-30T23:59:59Z</time>
      </trkpt>
      <trkpt lat="37.325868" lon="-4.361165">
        <ele>708.663</ele>
        <time>1989-12-30T23:59:59Z</time>
      </trkpt>
      <trkpt lat="37.325609" lon="-4.360898">
        <ele>701.444</ele>
        <time>1989-12-30T23:59:59Z</time>
      </trkpt>
      <trkpt lat="37.325561" lon="-4.360787">
        <ele>697.118</ele>
        <time>1989-12-30T23:59:59Z</time>
      </trkpt>
      <trkpt lat="37.325576" lon="-4.360661">
        <ele>694.707</ele>
        <time>1989-12-30T23:59:59Z</time>
      </trkpt>
      <trkpt lat="37.325546" lon="-4.360536">
        <ele>692.850</ele>
        <time>1989-12-30T23:59:59Z</time>
      </trkpt>
      <trkpt lat="37.325465" lon="-4.360306">
        <ele>692.868</ele>
        <time>1989-12-30T23:59:59Z</time>
      </trkpt>
      <trkpt lat="37.325440" lon="-4.360160">
        <ele>694.756</ele>
        <time>1989-12-30T23:59:59Z</time>
      </trkpt>
      <trkpt lat="37.325375" lon="-4.360024">
        <ele>694.717</ele>
        <time>1989-12-30T23:59:59Z</time>
      </trkpt>
      <trkpt lat="37.325247" lon="-4.359431">
        <ele>692.828</ele>
        <time>1989-12-30T23:59:59Z</time>
      </trkpt>
      <trkpt lat="37.325113" lon="-4.359165">
        <ele>691.867</ele>
        <time>1989-12-30T23:59:59Z</time>
      </trkpt>
      <trkpt lat="37.324963" lon="-4.358952">
        <ele>688.016</ele>
        <time>1989-12-30T23:59:59Z</time>
      </trkpt>
      <trkpt lat="37.324825" lon="-4.358529">
        <ele>689.926</ele>
        <time>1989-12-30T23:59:59Z</time>
      </trkpt>
      <trkpt lat="37.324619" lon="-4.358080">
        <ele>692.347</ele>
        <time>1989-12-30T23:59:59Z</time>
      </trkpt>
      <trkpt lat="37.324455" lon="-4.357851">
        <ele>694.711</ele>
        <time>1989-12-30T23:59:59Z</time>
      </trkpt>
      <trkpt lat="37.324422" lon="-4.357731">
        <ele>697.607</ele>
        <time>1989-12-30T23:59:59Z</time>
      </trkpt>
      <trkpt lat="37.324295" lon="-4.357539">
        <ele>695.726</ele>
        <time>1989-12-30T23:59:59Z</time>
      </trkpt>
      <trkpt lat="37.324246" lon="-4.357425">
        <ele>699.564</ele>
        <time>1989-12-30T23:59:59Z</time>
      </trkpt>
      <trkpt lat="37.324081" lon="-4.357242">
        <ele>703.382</ele>
        <time>1989-12-30T23:59:59Z</time>
      </trkpt>
      <trkpt lat="37.324034" lon="-4.357136">
        <ele>706.243</ele>
        <time>1989-12-30T23:59:59Z</time>
      </trkpt>
      <trkpt lat="37.323784" lon="-4.356927">
        <ele>701.974</ele>
        <time>1989-12-30T23:59:59Z</time>
      </trkpt>
      <trkpt lat="37.323659" lon="-4.356751">
        <ele>701.473</ele>
        <time>1989-12-30T23:59:59Z</time>
      </trkpt>
      <trkpt lat="37.323306" lon="-4.356508">
        <ele>702.942</ele>
        <time>1989-12-30T23:59:59Z</time>
      </trkpt>
      <trkpt lat="37.323112" lon="-4.356243">
        <ele>697.119</ele>
        <time>1989-12-30T23:59:59Z</time>
      </trkpt>
      <trkpt lat="37.323021" lon="-4.356174">
        <ele>693.209</ele>
        <time>1989-12-30T23:59:59Z</time>
      </trkpt>
      <trkpt lat="37.322934" lon="-4.356049">
        <ele>690.419</ele>
        <time>1989-12-30T23:59:59Z</time>
      </trkpt>
      <trkpt lat="37.322888" lon="-4.355898">
        <ele>688.007</ele>
        <time>1989-12-30T23:59:59Z</time>
      </trkpt>
      <trkpt lat="37.322854" lon="-4.355506">
        <ele>682.255</ele>
        <time>1989-12-30T23:59:59Z</time>
      </trkpt>
      <trkpt lat="37.322902" lon="-4.354855">
        <ele>678.343</ele>
        <time>1989-12-30T23:59:59Z</time>
      </trkpt>
      <trkpt lat="37.322877" lon="-4.354704">
        <ele>677.431</ele>
        <time>1989-12-30T23:59:59Z</time>
      </trkpt>
      <trkpt lat="37.322908" lon="-4.354573">
        <ele>676.482</ele>
        <time>1989-12-30T23:59:59Z</time>
      </trkpt>
      <trkpt lat="37.322885" lon="-4.354448">
        <ele>675.053</ele>
        <time>1989-12-30T23:59:59Z</time>
      </trkpt>
      <trkpt lat="37.322728" lon="-4.354151">
        <ele>662.062</ele>
        <time>1989-12-30T23:59:59Z</time>
      </trkpt>
      <trkpt lat="37.322645" lon="-4.354053">
        <ele>661.551</ele>
        <time>1989-12-30T23:59:59Z</time>
      </trkpt>
      <trkpt lat="37.322602" lon="-4.353942">
        <ele>661.576</ele>
        <time>1989-12-30T23:59:59Z</time>
      </trkpt>
      <trkpt lat="37.322464" lon="-4.353762">
        <ele>657.290</ele>
        <time>1989-12-30T23:59:59Z</time>
      </trkpt>
      <trkpt lat="37.322307" lon="-4.353428">
        <ele>656.719</ele>
        <time>1989-12-30T23:59:59Z</time>
      </trkpt>
      <trkpt lat="37.322153" lon="-4.353250">
        <ele>656.707</ele>
        <time>1989-12-30T23:59:59Z</time>
      </trkpt>
      <trkpt lat="37.322036" lon="-4.353230">
        <ele>652.441</ele>
        <time>1989-12-30T23:59:59Z</time>
      </trkpt>
      <trkpt lat="37.321920" lon="-4.353126">
        <ele>652.479</ele>
        <time>1989-12-30T23:59:59Z</time>
      </trkpt>
      <trkpt lat="37.321803" lon="-4.353087">
        <ele>651.937</ele>
        <time>1989-12-30T23:59:59Z</time>
      </trkpt>
      <trkpt lat="37.321600" lon="-4.352891">
        <ele>653.468</ele>
        <time>1989-12-30T23:59:59Z</time>
      </trkpt>
      <trkpt lat="37.321492" lon="-4.352839">
        <ele>649.559</ele>
        <time>1989-12-30T23:59:59Z</time>
      </trkpt>
      <trkpt lat="37.321278" lon="-4.352639">
        <ele>645.778</ele>
        <time>1989-12-30T23:59:59Z</time>
      </trkpt>
      <trkpt lat="37.321029" lon="-4.352546">
        <ele>643.767</ele>
        <time>1989-12-30T23:59:59Z</time>
      </trkpt>
      <trkpt lat="37.320955" lon="-4.352435">
        <ele>644.744</ele>
        <time>1989-12-30T23:59:59Z</time>
      </trkpt>
      <trkpt lat="37.320864" lon="-4.352357">
        <ele>645.205</ele>
        <time>1989-12-30T23:59:59Z</time>
      </trkpt>
      <trkpt lat="37.320834" lon="-4.352178">
        <ele>642.315</ele>
        <time>1989-12-30T23:59:59Z</time>
      </trkpt>
      <trkpt lat="37.320841" lon="-4.352045">
        <ele>641.307</ele>
        <time>1989-12-30T23:59:59Z</time>
      </trkpt>
      <trkpt lat="37.320760" lon="-4.351642">
        <ele>638.538</ele>
        <time>1989-12-30T23:59:59Z</time>
      </trkpt>
      <trkpt lat="37.320540" lon="-4.351350">
        <ele>633.256</ele>
        <time>1989-12-30T23:59:59Z</time>
      </trkpt>
      <trkpt lat="37.320340" lon="-4.351200">
        <ele>632.214</ele>
        <time>1989-12-30T23:59:59Z</time>
      </trkpt>
      <trkpt lat="37.320257" lon="-4.351079">
        <ele>635.155</ele>
        <time>1989-12-30T23:59:59Z</time>
      </trkpt>
      <trkpt lat="37.320172" lon="-4.350995">
        <ele>635.136</ele>
        <time>1989-12-30T23:59:59Z</time>
      </trkpt>
      <trkpt lat="37.320105" lon="-4.350885">
        <ele>635.685</ele>
        <time>1989-12-30T23:59:59Z</time>
      </trkpt>
      <trkpt lat="37.319995" lon="-4.350627">
        <ele>636.024</ele>
        <time>1989-12-30T23:59:59Z</time>
      </trkpt>
      <trkpt lat="37.319983" lon="-4.350470">
        <ele>634.168</ele>
        <time>1989-12-30T23:59:59Z</time>
      </trkpt>
      <trkpt lat="37.319916" lon="-4.350325">
        <ele>634.142</ele>
        <time>1989-12-30T23:59:59Z</time>
      </trkpt>
      <trkpt lat="37.319671" lon="-4.350079">
        <ele>630.826</ele>
        <time>1989-12-30T23:59:59Z</time>
      </trkpt>
      <trkpt lat="37.319483" lon="-4.349984">
        <ele>626.407</ele>
        <time>1989-12-30T23:59:59Z</time>
      </trkpt>
      <trkpt lat="37.319403" lon="-4.349990">
        <ele>624.090</ele>
        <time>1989-12-30T23:59:59Z</time>
      </trkpt>
      <trkpt lat="37.319327" lon="-4.349923">
        <ele>619.748</ele>
        <time>1989-12-30T23:59:59Z</time>
      </trkpt>
      <trkpt lat="37.319259" lon="-4.349576">
        <ele>613.986</ele>
        <time>1989-12-30T23:59:59Z</time>
      </trkpt>
      <trkpt lat="37.319085" lon="-4.349248">
        <ele>609.627</ele>
        <time>1989-12-30T23:59:59Z</time>
      </trkpt>
      <trkpt lat="37.318985" lon="-4.349155">
        <ele>612.018</ele>
        <time>1989-12-30T23:59:59Z</time>
      </trkpt>
      <trkpt lat="37.318877" lon="-4.349111">
        <ele>613.997</ele>
        <time>1989-12-30T23:59:59Z</time>
      </trkpt>
      <trkpt lat="37.318716" lon="-4.348986">
        <ele>608.226</ele>
        <time>1989-12-30T23:59:59Z</time>
      </trkpt>
      <trkpt lat="37.318561" lon="-4.348826">
        <ele>604.379</ele>
        <time>1989-12-30T23:59:59Z</time>
      </trkpt>
      <trkpt lat="37.318461" lon="-4.348771">
        <ele>600.005</ele>
        <time>1989-12-30T23:59:59Z</time>
      </trkpt>
      <trkpt lat="37.318393" lon="-4.348621">
        <ele>591.825</ele>
        <time>1989-12-30T23:59:59Z</time>
      </trkpt>
      <trkpt lat="37.318131" lon="-4.348199">
        <ele>586.107</ele>
        <time>1989-12-30T23:59:59Z</time>
      </trkpt>
      <trkpt lat="37.317754" lon="-4.347232">
        <ele>577.481</ele>
        <time>1989-12-30T23:59:59Z</time>
      </trkpt>
      <trkpt lat="37.317640" lon="-4.347027">
        <ele>579.839</ele>
        <time>1989-12-30T23:59:59Z</time>
      </trkpt>
      <trkpt lat="37.317536" lon="-4.346754">
        <ele>585.687</ele>
        <time>1989-12-30T23:59:59Z</time>
      </trkpt>
      <trkpt lat="37.317358" lon="-4.346566">
        <ele>584.628</ele>
        <time>1989-12-30T23:59:59Z</time>
      </trkpt>
      <trkpt lat="37.316958" lon="-4.346323">
        <ele>587.539</ele>
        <time>1989-12-30T23:59:59Z</time>
      </trkpt>
      <trkpt lat="37.316854" lon="-4.346284">
        <ele>588.078</ele>
        <time>1989-12-30T23:59:59Z</time>
      </trkpt>
      <trkpt lat="37.316660" lon="-4.346143">
        <ele>581.367</ele>
        <time>1989-12-30T23:59:59Z</time>
      </trkpt>
      <trkpt lat="37.316598" lon="-4.346047">
        <ele>580.856</ele>
        <time>1989-12-30T23:59:59Z</time>
      </trkpt>
      <trkpt lat="37.316663" lon="-4.345848">
        <ele>578.959</ele>
        <time>1989-12-30T23:59:59Z</time>
      </trkpt>
      <trkpt lat="37.316665" lon="-4.345696">
        <ele>579.814</ele>
        <time>1989-12-30T23:59:59Z</time>
      </trkpt>
      <trkpt lat="37.316733" lon="-4.345457">
        <ele>571.607</ele>
        <time>1989-12-30T23:59:59Z</time>
      </trkpt>
      <trkpt lat="37.316752" lon="-4.344799">
        <ele>564.079</ele>
        <time>1989-12-30T23:59:59Z</time>
      </trkpt>
      <trkpt lat="37.316698" lon="-4.344536">
        <ele>563.597</ele>
        <time>1989-12-30T23:59:59Z</time>
      </trkpt>
      <trkpt lat="37.316710" lon="-4.344418">
        <ele>564.075</ele>
        <time>1989-12-30T23:59:59Z</time>
      </trkpt>
      <trkpt lat="37.316659" lon="-4.344120">
        <ele>559.176</ele>
        <time>1989-12-30T23:59:59Z</time>
      </trkpt>
      <trkpt lat="37.316537" lon="-4.343752">
        <ele>552.467</ele>
        <time>1989-12-30T23:59:59Z</time>
      </trkpt>
      <trkpt lat="37.316434" lon="-4.343764">
        <ele>551.966</ele>
        <time>1989-12-30T23:59:59Z</time>
      </trkpt>
      <trkpt lat="37.316170" lon="-4.343481">
        <ele>549.135</ele>
        <time>1989-12-30T23:59:59Z</time>
      </trkpt>
      <trkpt lat="37.315962" lon="-4.343330">
        <ele>542.899</ele>
        <time>1989-12-30T23:59:59Z</time>
      </trkpt>
      <trkpt lat="37.315531" lon="-4.342922">
        <ele>533.207</ele>
        <time>1989-12-30T23:59:59Z</time>
      </trkpt>
      <trkpt lat="37.315381" lon="-4.342490">
        <ele>529.827</ele>
        <time>1989-12-30T23:59:59Z</time>
      </trkpt>
      <trkpt lat="37.315327" lon="-4.342254">
        <ele>523.107</ele>
        <time>1989-12-30T23:59:59Z</time>
      </trkpt>
      <trkpt lat="37.315349" lon="-4.342046">
        <ele>510.183</ele>
        <time>1989-12-30T23:59:59Z</time>
      </trkpt>
      <trkpt lat="37.315218" lon="-4.341738">
        <ele>515.911</ele>
        <time>1989-12-30T23:59:59Z</time>
      </trkpt>
      <trkpt lat="37.315047" lon="-4.341609">
        <ele>520.239</ele>
        <time>1989-12-30T23:59:59Z</time>
      </trkpt>
      <trkpt lat="37.314841" lon="-4.341383">
        <ele>518.390</ele>
        <time>1989-12-30T23:59:59Z</time>
      </trkpt>
      <trkpt lat="37.314542" lon="-4.340987">
        <ele>504.311</ele>
        <time>1989-12-30T23:59:59Z</time>
      </trkpt>
      <trkpt lat="37.314354" lon="-4.340638">
        <ele>505.330</ele>
        <time>1989-12-30T23:59:59Z</time>
      </trkpt>
      <trkpt lat="37.314287" lon="-4.340390">
        <ele>504.319</ele>
        <time>1989-12-30T23:59:59Z</time>
      </trkpt>
      <trkpt lat="37.314329" lon="-4.340032">
        <ele>498.651</ele>
        <time>1989-12-30T23:59:59Z</time>
      </trkpt>
      <trkpt lat="37.314263" lon="-4.339743">
        <ele>490.401</ele>
        <time>1989-12-30T23:59:59Z</time>
      </trkpt>
      <trkpt lat="37.314007" lon="-4.339240">
        <ele>490.411</ele>
        <time>1989-12-30T23:59:59Z</time>
      </trkpt>
      <trkpt lat="37.313743" lon="-4.338868">
        <ele>490.407</ele>
        <time>1989-12-30T23:59:59Z</time>
      </trkpt>
      <trkpt lat="37.313613" lon="-4.338534">
        <ele>489.919</ele>
        <time>1989-12-30T23:59:59Z</time>
      </trkpt>
      <trkpt lat="37.313580" lon="-4.338299">
        <ele>489.997</ele>
        <time>1989-12-30T23:59:59Z</time>
      </trkpt>
      <trkpt lat="37.313623" lon="-4.337825">
        <ele>486.685</ele>
        <time>1989-12-30T23:59:59Z</time>
      </trkpt>
      <trkpt lat="37.313717" lon="-4.337225">
        <ele>483.756</ele>
        <time>1989-12-30T23:59:59Z</time>
      </trkpt>
      <trkpt lat="37.313725" lon="-4.336975">
        <ele>483.247</ele>
        <time>1989-12-30T23:59:59Z</time>
      </trkpt>
      <trkpt lat="37.313678" lon="-4.336612">
        <ele>481.826</ele>
        <time>1989-12-30T23:59:59Z</time>
      </trkpt>
      <trkpt lat="37.313673" lon="-4.336374">
        <ele>480.855</ele>
        <time>1989-12-30T23:59:59Z</time>
      </trkpt>
      <trkpt lat="37.313733" lon="-4.335887">
        <ele>479.824</ele>
        <time>1989-12-30T23:59:59Z</time>
      </trkpt>
      <trkpt lat="37.313817" lon="-4.335406">
        <ele>479.404</ele>
        <time>1989-12-30T23:59:59Z</time>
      </trkpt>
      <trkpt lat="37.313821" lon="-4.334920">
        <ele>478.914</ele>
        <time>1989-12-30T23:59:59Z</time>
      </trkpt>
      <trkpt lat="37.313695" lon="-4.334455">
        <ele>479.407</ele>
        <time>1989-12-30T23:59:59Z</time>
      </trkpt>
      <trkpt lat="37.313494" lon="-4.333880">
        <ele>477.926</ele>
        <time>1989-12-30T23:59:59Z</time>
      </trkpt>
      <trkpt lat="37.313463" lon="-4.333639">
        <ele>475.594</ele>
        <time>1989-12-30T23:59:59Z</time>
      </trkpt>
      <trkpt lat="37.313462" lon="-4.333387">
        <ele>473.622</ele>
        <time>1989-12-30T23:59:59Z</time>
      </trkpt>
      <trkpt lat="37.313474" lon="-4.333147">
        <ele>470.243</ele>
        <time>1989-12-30T23:59:59Z</time>
      </trkpt>
      <trkpt lat="37.313551" lon="-4.332679">
        <ele>464.914</ele>
        <time>1989-12-30T23:59:59Z</time>
      </trkpt>
      <trkpt lat="37.313714" lon="-4.332260">
        <ele>462.123</ele>
        <time>1989-12-30T23:59:59Z</time>
      </trkpt>
      <trkpt lat="37.313956" lon="-4.332086">
        <ele>456.862</ele>
        <time>1989-12-30T23:59:59Z</time>
      </trkpt>
      <trkpt lat="37.314139" lon="-4.332031">
        <ele>453.436</ele>
        <time>1989-12-30T23:59:59Z</time>
      </trkpt>
      <trkpt lat="37.314310" lon="-4.332050">
        <ele>453.417</ele>
        <time>1989-12-30T23:59:59Z</time>
      </trkpt>
      <trkpt lat="37.314384" lon="-4.332024">
        <ele>456.318</ele>
        <time>1989-12-30T23:59:59Z</time>
      </trkpt>
      <trkpt lat="37.314471" lon="-4.332066">
        <ele>456.307</ele>
        <time>1989-12-30T23:59:59Z</time>
      </trkpt>
      <trkpt lat="37.314673" lon="-4.332084">
        <ele>453.937</ele>
        <time>1989-12-30T23:59:59Z</time>
      </trkpt>
      <trkpt lat="37.315263" lon="-4.332023">
        <ele>455.325</ele>
        <time>1989-12-30T23:59:59Z</time>
      </trkpt>
      <trkpt lat="37.315440" lon="-4.331919">
        <ele>455.863</ele>
        <time>1989-12-30T23:59:59Z</time>
      </trkpt>
      <trkpt lat="37.315784" lon="-4.331663">
        <ele>460.174</ele>
        <time>1989-12-30T23:59:59Z</time>
      </trkpt>
      <trkpt lat="37.316012" lon="-4.331443">
        <ele>461.155</ele>
        <time>1989-12-30T23:59:59Z</time>
      </trkpt>
      <trkpt lat="37.316301" lon="-4.331313">
        <ele>459.284</ele>
        <time>1989-12-30T23:59:59Z</time>
      </trkpt>
      <trkpt lat="37.316470" lon="-4.331203">
        <ele>459.263</ele>
        <time>1989-12-30T23:59:59Z</time>
      </trkpt>
      <trkpt lat="37.316799" lon="-4.330706">
        <ele>458.292</ele>
        <time>1989-12-30T23:59:59Z</time>
      </trkpt>
      <trkpt lat="37.316797" lon="-4.330582">
        <ele>458.273</ele>
        <time>1989-12-30T23:59:59Z</time>
      </trkpt>
      <trkpt lat="37.316823" lon="-4.330472">
        <ele>458.720</ele>
        <time>1989-12-30T23:59:59Z</time>
      </trkpt>
      <trkpt lat="37.316881" lon="-4.330412">
        <ele>459.607</ele>
        <time>1989-12-30T23:59:59Z</time>
      </trkpt>
      <trkpt lat="37.316981" lon="-4.330053">
        <ele>456.893</ele>
        <time>1989-12-30T23:59:59Z</time>
      </trkpt>
      <trkpt lat="37.317105" lon="-4.329833">
        <ele>458.791</ele>
        <time>1989-12-30T23:59:59Z</time>
      </trkpt>
      <trkpt lat="37.317428" lon="-4.329380">
        <ele>456.389</ele>
        <time>1989-12-30T23:59:59Z</time>
      </trkpt>
      <trkpt lat="37.317502" lon="-4.329322">
        <ele>458.720</ele>
        <time>1989-12-30T23:59:59Z</time>
      </trkpt>
      <trkpt lat="37.317582" lon="-4.329232">
        <ele>459.251</ele>
        <time>1989-12-30T23:59:59Z</time>
      </trkpt>
      <trkpt lat="37.318027" lon="-4.328971">
        <ele>455.330</ele>
        <time>1989-12-30T23:59:59Z</time>
      </trkpt>
      <trkpt lat="37.318312" lon="-4.328844">
        <ele>454.889</ele>
        <time>1989-12-30T23:59:59Z</time>
      </trkpt>
      <trkpt lat="37.318495" lon="-4.328707">
        <ele>454.479</ele>
        <time>1989-12-30T23:59:59Z</time>
      </trkpt>
      <trkpt lat="37.318867" lon="-4.328298">
        <ele>453.405</ele>
        <time>1989-12-30T23:59:59Z</time>
      </trkpt>
      <trkpt lat="37.319052" lon="-4.328023">
        <ele>450.025</ele>
        <time>1989-12-30T23:59:59Z</time>
      </trkpt>
      <trkpt lat="37.319405" lon="-4.327784">
        <ele>454.807</ele>
        <time>1989-12-30T23:59:59Z</time>
      </trkpt>
      <trkpt lat="37.319602" lon="-4.327752">
        <ele>452.991</ele>
        <time>1989-12-30T23:59:59Z</time>
      </trkpt>
      <trkpt lat="37.319928" lon="-4.327752">
        <ele>458.279</ele>
        <time>1989-12-30T23:59:59Z</time>
      </trkpt>
      <trkpt lat="37.320141" lon="-4.327702">
        <ele>458.267</ele>
        <time>1989-12-30T23:59:59Z</time>
      </trkpt>
      <trkpt lat="37.320509" lon="-4.327532">
        <ele>454.858</ele>
        <time>1989-12-30T23:59:59Z</time>
      </trkpt>
      <trkpt lat="37.321044" lon="-4.327528">
        <ele>453.999</ele>
        <time>1989-12-30T23:59:59Z</time>
      </trkpt>
      <trkpt lat="37.321149" lon="-4.327464">
        <ele>456.888</ele>
        <time>1989-12-30T23:59:59Z</time>
      </trkpt>
      <trkpt lat="37.321226" lon="-4.327513">
        <ele>460.187</ele>
        <time>1989-12-30T23:59:59Z</time>
      </trkpt>
      <trkpt lat="37.321318" lon="-4.327282">
        <ele>442.872</ele>
        <time>1989-12-30T23:59:59Z</time>
      </trkpt>
      <trkpt lat="37.321433" lon="-4.327380">
        <ele>441.413</ele>
        <time>1989-12-30T23:59:59Z</time>
      </trkpt>
      <trkpt lat="37.321618" lon="-4.327358">
        <ele>451.514</ele>
        <time>1989-12-30T23:59:59Z</time>
      </trkpt>
      <trkpt lat="37.321742" lon="-4.327319">
        <ele>464.507</ele>
        <time>1989-12-30T23:59:59Z</time>
      </trkpt>
      <trkpt lat="37.321853" lon="-4.327375">
        <ele>463.541</ele>
        <time>1989-12-30T23:59:59Z</time>
      </trkpt>
      <trkpt lat="37.321982" lon="-4.327362">
        <ele>468.819</ele>
        <time>1989-12-30T23:59:59Z</time>
      </trkpt>
      <trkpt lat="37.322237" lon="-4.327225">
        <ele>483.737</ele>
        <time>1989-12-30T23:59:59Z</time>
      </trkpt>
      <trkpt lat="37.322239" lon="-4.327154">
        <ele>487.098</ele>
        <time>1989-12-30T23:59:59Z</time>
      </trkpt>
      <trkpt lat="37.322424" lon="-4.327061">
        <ele>483.289</ele>
        <time>1989-12-30T23:59:59Z</time>
      </trkpt>
      <trkpt lat="37.322556" lon="-4.327042">
        <ele>496.228</ele>
        <time>1989-12-30T23:59:59Z</time>
      </trkpt>
      <trkpt lat="37.322493" lon="-4.326855">
        <ele>511.667</ele>
        <time>1989-12-30T23:59:59Z</time>
      </trkpt>
      <trkpt lat="37.322711" lon="-4.326350">
        <ele>515.437</ele>
        <time>1989-12-30T23:59:59Z</time>
      </trkpt>
      <trkpt lat="37.322786" lon="-4.326116">
        <ele>513.049</ele>
        <time>1989-12-30T23:59:59Z</time>
      </trkpt>
      <trkpt lat="37.322986" lon="-4.326149">
        <ele>549.113</ele>
        <time>1989-12-30T23:59:59Z</time>
      </trkpt>
      <trkpt lat="37.323101" lon="-4.326017">
        <ele>537.007</ele>
        <time>1989-12-30T23:59:59Z</time>
      </trkpt>
      <trkpt lat="37.323020" lon="-4.325880">
        <ele>547.167</ele>
        <time>1989-12-30T23:59:59Z</time>
      </trkpt>
      <trkpt lat="37.323136" lon="-4.325678">
        <ele>551.975</ele>
        <time>1989-12-30T23:59:59Z</time>
      </trkpt>
      <trkpt lat="37.323283" lon="-4.325600">
        <ele>539.423</ele>
        <time>1989-12-30T23:59:59Z</time>
      </trkpt>
      <trkpt lat="37.323488" lon="-4.325620">
        <ele>546.674</ele>
        <time>1989-12-30T23:59:59Z</time>
      </trkpt>
      <trkpt lat="37.323615" lon="-4.325441">
        <ele>557.715</ele>
        <time>1989-12-30T23:59:59Z</time>
      </trkpt>
      <trkpt lat="37.323655" lon="-4.325162">
        <ele>555.844</ele>
        <time>1989-12-30T23:59:59Z</time>
      </trkpt>
      <trkpt lat="37.323706" lon="-4.324993">
        <ele>557.263</ele>
        <time>1989-12-30T23:59:59Z</time>
      </trkpt>
      <trkpt lat="37.323677" lon="-4.324801">
        <ele>584.624</ele>
        <time>1989-12-30T23:59:59Z</time>
      </trkpt>
      <trkpt lat="37.323703" lon="-4.324669">
        <ele>596.204</ele>
        <time>1989-12-30T23:59:59Z</time>
      </trkpt>
      <trkpt lat="37.323699" lon="-4.324556">
        <ele>590.914</ele>
        <time>1989-12-30T23:59:59Z</time>
      </trkpt>
      <trkpt lat="37.323818" lon="-4.324053">
        <ele>589.407</ele>
        <time>1989-12-30T23:59:59Z</time>
      </trkpt>
      <trkpt lat="37.323879" lon="-4.323648">
        <ele>626.956</ele>
        <time>1989-12-30T23:59:59Z</time>
      </trkpt>
      <trkpt lat="37.323971" lon="-4.323448">
        <ele>616.854</ele>
        <time>1989-12-30T23:59:59Z</time>
      </trkpt>
      <trkpt lat="37.323973" lon="-4.322785">
        <ele>573.142</ele>
        <time>1989-12-30T23:59:59Z</time>
      </trkpt>
      <trkpt lat="37.324081" lon="-4.322349">
        <ele>560.673</ele>
        <time>1989-12-30T23:59:59Z</time>
      </trkpt>
      <trkpt lat="37.324250" lon="-4.322102">
        <ele>564.944</ele>
        <time>1989-12-30T23:59:59Z</time>
      </trkpt>
      <trkpt lat="37.324302" lon="-4.321788">
        <ele>567.343</ele>
        <time>1989-12-30T23:59:59Z</time>
      </trkpt>
      <trkpt lat="37.324365" lon="-4.321665">
        <ele>566.472</ele>
        <time>1989-12-30T23:59:59Z</time>
      </trkpt>
      <trkpt lat="37.324270" lon="-4.321093">
        <ele>576.496</ele>
        <time>1989-12-30T23:59:59Z</time>
      </trkpt>
      <trkpt lat="37.324642" lon="-4.321572">
        <ele>578.431</ele>
        <time>1989-12-30T23:59:59Z</time>
      </trkpt>
      <trkpt lat="37.325074" lon="-4.321453">
        <ele>588.524</ele>
        <time>1989-12-30T23:59:59Z</time>
      </trkpt>
      <trkpt lat="37.325332" lon="-4.321456">
        <ele>591.807</ele>
        <time>1989-12-30T23:59:59Z</time>
      </trkpt>
      <trkpt lat="37.325390" lon="-4.321370">
        <ele>591.813</ele>
        <time>1989-12-30T23:59:59Z</time>
      </trkpt>
      <trkpt lat="37.325423" lon="-4.321185">
        <ele>591.381</ele>
        <time>1989-12-30T23:59:59Z</time>
      </trkpt>
      <trkpt lat="37.325541" lon="-4.321137">
        <ele>586.549</ele>
        <time>1989-12-30T23:59:59Z</time>
      </trkpt>
      <trkpt lat="37.325578" lon="-4.320776">
        <ele>578.970</ele>
        <time>1989-12-30T23:59:59Z</time>
      </trkpt>
      <trkpt lat="37.325702" lon="-4.320629">
        <ele>569.291</ele>
        <time>1989-12-30T23:59:59Z</time>
      </trkpt>
      <trkpt lat="37.325845" lon="-4.320189">
        <ele>574.050</ele>
        <time>1989-12-30T23:59:59Z</time>
      </trkpt>
      <trkpt lat="37.326108" lon="-4.320496">
        <ele>605.869</ele>
        <time>1989-12-30T23:59:59Z</time>
      </trkpt>
      <trkpt lat="37.326264" lon="-4.320534">
        <ele>614.418</ele>
        <time>1989-12-30T23:59:59Z</time>
      </trkpt>
      <trkpt lat="37.326336" lon="-4.320616">
        <ele>622.698</ele>
        <time>1989-12-30T23:59:59Z</time>
      </trkpt>
      <trkpt lat="37.326444" lon="-4.320636">
        <ele>628.417</ele>
        <time>1989-12-30T23:59:59Z</time>
      </trkpt>
      <trkpt lat="37.326550" lon="-4.320626">
        <ele>635.607</ele>
        <time>1989-12-30T23:59:59Z</time>
      </trkpt>
      <trkpt lat="37.326706" lon="-4.320810">
        <ele>636.085</ele>
        <time>1989-12-30T23:59:59Z</time>
      </trkpt>
      <trkpt lat="37.326719" lon="-4.320927">
        <ele>634.673</ele>
        <time>1989-12-30T23:59:59Z</time>
      </trkpt>
      <trkpt lat="37.326864" lon="-4.321277">
        <ele>636.091</ele>
        <time>1989-12-30T23:59:59Z</time>
      </trkpt>
      <trkpt lat="37.327243" lon="-4.321840">
        <ele>650.022</ele>
        <time>1989-12-30T23:59:59Z</time>
      </trkpt>
      <trkpt lat="37.327362" lon="-4.322148">
        <ele>659.653</ele>
        <time>1989-12-30T23:59:59Z</time>
      </trkpt>
      <trkpt lat="37.327352" lon="-4.322275">
        <ele>666.342</ele>
        <time>1989-12-30T23:59:59Z</time>
      </trkpt>
      <trkpt lat="37.327499" lon="-4.322461">
        <ele>666.371</ele>
        <time>1989-12-30T23:59:59Z</time>
      </trkpt>
      <trkpt lat="37.327592" lon="-4.322677">
        <ele>674.092</ele>
        <time>1989-12-30T23:59:59Z</time>
      </trkpt>
      <trkpt lat="37.327559" lon="-4.322741">
        <ele>677.973</ele>
        <time>1989-12-30T23:59:59Z</time>
      </trkpt>
      <trkpt lat="37.327588" lon="-4.322839">
        <ele>683.620</ele>
        <time>1989-12-30T23:59:59Z</time>
      </trkpt>
      <trkpt lat="37.327617" lon="-4.323515">
        <ele>696.607</ele>
        <time>1989-12-30T23:59:59Z</time>
      </trkpt>
      <trkpt lat="37.327777" lon="-4.323950">
        <ele>706.793</ele>
        <time>1989-12-30T23:59:59Z</time>
      </trkpt>
      <trkpt lat="37.327787" lon="-4.324066">
        <ele>707.261</ele>
        <time>1989-12-30T23:59:59Z</time>
      </trkpt>
      <trkpt lat="37.327884" lon="-4.324423">
        <ele>708.149</ele>
        <time>1989-12-30T23:59:59Z</time>
      </trkpt>
      <trkpt lat="37.327835" lon="-4.324659">
        <ele>708.140</ele>
        <time>1989-12-30T23:59:59Z</time>
      </trkpt>
      <trkpt lat="37.327868" lon="-4.324895">
        <ele>714.431</ele>
        <time>1989-12-30T23:59:59Z</time>
      </trkpt>
      <trkpt lat="37.327942" lon="-4.325144">
        <ele>711.510</ele>
        <time>1989-12-30T23:59:59Z</time>
      </trkpt>
      <trkpt lat="37.328069" lon="-4.325347">
        <ele>713.479</ele>
        <time>1989-12-30T23:59:59Z</time>
      </trkpt>
      <trkpt lat="37.328100" lon="-4.325827">
        <ele>718.736</ele>
        <time>1989-12-30T23:59:59Z</time>
      </trkpt>
      <trkpt lat="37.328060" lon="-4.325939">
        <ele>715.817</ele>
        <time>1989-12-30T23:59:59Z</time>
      </trkpt>
      <trkpt lat="37.328085" lon="-4.326041">
        <ele>717.818</ele>
        <time>1989-12-30T23:59:59Z</time>
      </trkpt>
      <trkpt lat="37.328188" lon="-4.326258">
        <ele>723.507</ele>
        <time>1989-12-30T23:59:59Z</time>
      </trkpt>
      <trkpt lat="37.328250" lon="-4.326616">
        <ele>727.917</ele>
        <time>1989-12-30T23:59:59Z</time>
      </trkpt>
      <trkpt lat="37.328138" lon="-4.326993">
        <ele>726.475</ele>
        <time>1989-12-30T23:59:59Z</time>
      </trkpt>
      <trkpt lat="37.328208" lon="-4.327256">
        <ele>733.173</ele>
        <time>1989-12-30T23:59:59Z</time>
      </trkpt>
      <trkpt lat="37.328180" lon="-4.327378">
        <ele>733.184</ele>
        <time>1989-12-30T23:59:59Z</time>
      </trkpt>
      <trkpt lat="37.328185" lon="-4.327508">
        <ele>736.575</ele>
        <time>1989-12-30T23:59:59Z</time>
      </trkpt>
      <trkpt lat="37.328242" lon="-4.328156">
        <ele>748.074</ele>
        <time>1989-12-30T23:59:59Z</time>
      </trkpt>
      <trkpt lat="37.328283" lon="-4.328239">
        <ele>750.043</ele>
        <time>1989-12-30T23:59:59Z</time>
      </trkpt>
      <trkpt lat="37.328430" lon="-4.328294">
        <ele>754.374</ele>
        <time>1989-12-30T23:59:59Z</time>
      </trkpt>
      <trkpt lat="37.328532" lon="-4.328487">
        <ele>756.256</ele>
        <time>1989-12-30T23:59:59Z</time>
      </trkpt>
      <trkpt lat="37.328535" lon="-4.328825">
        <ele>758.121</ele>
        <time>1989-12-30T23:59:59Z</time>
      </trkpt>
      <trkpt lat="37.328596" lon="-4.328929">
        <ele>758.607</ele>
        <time>1989-12-30T23:59:59Z</time>
      </trkpt>
      <trkpt lat="37.328753" lon="-4.329603">
        <ele>768.761</ele>
        <time>1989-12-30T23:59:59Z</time>
      </trkpt>
      <trkpt lat="37.328861" lon="-4.329804">
        <ele>771.659</ele>
        <time>1989-12-30T23:59:59Z</time>
      </trkpt>
      <trkpt lat="37.328862" lon="-4.329912">
        <ele>775.097</ele>
        <time>1989-12-30T23:59:59Z</time>
      </trkpt>
      <trkpt lat="37.328982" lon="-4.330371">
        <ele>775.468</ele>
        <time>1989-12-30T23:59:59Z</time>
      </trkpt>
      <trkpt lat="37.329063" lon="-4.330466">
        <ele>772.669</ele>
        <time>1989-12-30T23:59:59Z</time>
      </trkpt>
      <trkpt lat="37.329087" lon="-4.330572">
        <ele>771.668</ele>
        <time>1989-12-30T23:59:59Z</time>
      </trkpt>
      <trkpt lat="37.329151" lon="-4.330616">
        <ele>774.037</ele>
        <time>1989-12-30T23:59:59Z</time>
      </trkpt>
      <trkpt lat="37.329210" lon="-4.330692">
        <ele>777.472</ele>
        <time>1989-12-30T23:59:59Z</time>
      </trkpt>
      <trkpt lat="37.329265" lon="-4.330803">
        <ele>777.413</ele>
        <time>1989-12-30T23:59:59Z</time>
      </trkpt>
      <trkpt lat="37.329268" lon="-4.330912">
        <ele>776.414</ele>
        <time>1989-12-30T23:59:59Z</time>
      </trkpt>
      <trkpt lat="37.329364" lon="-4.331136">
        <ele>775.007</ele>
        <time>1989-12-30T23:59:59Z</time>
      </trkpt>
      <trkpt lat="37.329629" lon="-4.331255">
        <ele>789.421</ele>
        <time>1989-12-30T23:59:59Z</time>
      </trkpt>
      <trkpt lat="37.329638" lon="-4.331385">
        <ele>786.089</ele>
        <time>1989-12-30T23:59:59Z</time>
      </trkpt>
      <trkpt lat="37.329706" lon="-4.331482">
        <ele>785.517</ele>
        <time>1989-12-30T23:59:59Z</time>
      </trkpt>
      <trkpt lat="37.329717" lon="-4.331594">
        <ele>789.438</ele>
        <time>1989-12-30T23:59:59Z</time>
      </trkpt>
      <trkpt lat="37.329675" lon="-4.331736">
        <ele>793.749</ele>
        <time>1989-12-30T23:59:59Z</time>
      </trkpt>
      <trkpt lat="37.329713" lon="-4.331907">
        <ele>799.098</ele>
        <time>1989-12-30T23:59:59Z</time>
      </trkpt>
      <trkpt lat="37.329813" lon="-4.331989">
        <ele>791.877</ele>
        <time>1989-12-30T23:59:59Z</time>
      </trkpt>
      <trkpt lat="37.329743" lon="-4.332059">
        <ele>794.277</ele>
        <time>1989-12-30T23:59:59Z</time>
      </trkpt>
      <trkpt lat="37.329840" lon="-4.332057">
        <ele>794.261</ele>
        <time>1989-12-30T23:59:59Z</time>
      </trkpt>
      <trkpt lat="37.329909" lon="-4.332026">
        <ele>795.627</ele>
        <time>1989-12-30T23:59:59Z</time>
      </trkpt>
      <trkpt lat="37.329917" lon="-4.332081">
        <ele>794.707</ele>
        <time>1989-12-30T23:59:59Z</time>
      </trkpt>
      <trkpt lat="37.330010" lon="-4.332102">
        <ele>793.751</ele>
        <time>1989-12-30T23:59:59Z</time>
      </trkpt>
      <trkpt lat="37.330010" lon="-4.332369">
        <ele>808.679</ele>
        <time>1989-12-30T23:59:59Z</time>
      </trkpt>
      <trkpt lat="37.330112" lon="-4.332580">
        <ele>806.747</ele>
        <time>1989-12-30T23:59:59Z</time>
      </trkpt>
      <trkpt lat="37.330196" lon="-4.332656">
        <ele>802.428</ele>
        <time>1989-12-30T23:59:59Z</time>
      </trkpt>
      <trkpt lat="37.330351" lon="-4.333003">
        <ele>810.549</ele>
        <time>1989-12-30T23:59:59Z</time>
      </trkpt>
      <trkpt lat="37.330530" lon="-4.333161">
        <ele>807.678</ele>
        <time>1989-12-30T23:59:59Z</time>
      </trkpt>
      <trkpt lat="37.330689" lon="-4.333360">
        <ele>812.047</ele>
        <time>1989-12-30T23:59:59Z</time>
      </trkpt>
      <trkpt lat="37.330744" lon="-4.333476">
        <ele>815.387</ele>
        <time>1989-12-30T23:59:59Z</time>
      </trkpt>
      <trkpt lat="37.331248" lon="-4.333837">
        <ele>828.842</ele>
        <time>1989-12-30T23:59:59Z</time>
      </trkpt>
      <trkpt lat="37.331327" lon="-4.334120">
        <ele>839.826</ele>
        <time>1989-12-30T23:59:59Z</time>
      </trkpt>
      <trkpt lat="37.331559" lon="-4.334453">
        <ele>837.007</ele>
        <time>1989-12-30T23:59:59Z</time>
      </trkpt>
      <trkpt lat="37.331602" lon="-4.334601">
        <ele>848.582</ele>
        <time>1989-12-30T23:59:59Z</time>
      </trkpt>
      <trkpt lat="37.331692" lon="-4.334717">
        <ele>849.070</ele>
        <time>1989-12-30T23:59:59Z</time>
      </trkpt>
      <trkpt lat="37.331816" lon="-4.334771">
        <ele>846.618</ele>
        <time>1989-12-30T23:59:59Z</time>
      </trkpt>
      <trkpt lat="37.331900" lon="-4.334912">
        <ele>849.529</ele>
        <time>1989-12-30T23:59:59Z</time>
      </trkpt>
      <trkpt lat="37.331836" lon="-4.335031">
        <ele>852.850</ele>
        <time>1989-12-30T23:59:59Z</time>
      </trkpt>
      <trkpt lat="37.331729" lon="-4.335088">
        <ele>858.129</ele>
        <time>1989-12-30T23:59:59Z</time>
      </trkpt>
      <trkpt lat="37.331633" lon="-4.335223">
        <ele>864.888</ele>
        <time>1989-12-30T23:59:59Z</time>
      </trkpt>
      <trkpt lat="37.331578" lon="-4.335351">
        <ele>868.227</ele>
        <time>1989-12-30T23:59:59Z</time>
      </trkpt>
      <trkpt lat="37.331486" lon="-4.335449">
        <ele>872.168</ele>
        <time>1989-12-30T23:59:59Z</time>
      </trkpt>
      <trkpt lat="37.331443" lon="-4.335646">
        <ele>876.914</ele>
        <time>1989-12-30T23:59:59Z</time>
      </trkpt>
      <trkpt lat="37.331378" lon="-4.335722">
        <ele>881.707</ele>
        <time>1989-12-30T23:59:59Z</time>
      </trkpt>
      <trkpt lat="37.331478" lon="-4.335857">
        <ele>860.576</ele>
        <time>1989-12-30T23:59:59Z</time>
      </trkpt>
      <trkpt lat="37.331401" lon="-4.335832">
        <ele>857.254</ele>
        <time>1989-12-30T23:59:59Z</time>
      </trkpt>
      <trkpt lat="37.331246" lon="-4.335961">
        <ele>877.872</ele>
        <time>1989-12-30T23:59:59Z</time>
      </trkpt>
      <trkpt lat="37.331179" lon="-4.336175">
        <ele>882.193</ele>
        <time>1989-12-30T23:59:59Z</time>
      </trkpt>
      <trkpt lat="37.331112" lon="-4.336277">
        <ele>886.594</ele>
        <time>1989-12-30T23:59:59Z</time>
      </trkpt>
      <trkpt lat="37.331073" lon="-4.336388">
        <ele>887.943</ele>
        <time>1989-12-30T23:59:59Z</time>
      </trkpt>
      <trkpt lat="37.331007" lon="-4.336453">
        <ele>895.162</ele>
        <time>1989-12-30T23:59:59Z</time>
      </trkpt>
      <trkpt lat="37.330927" lon="-4.336674">
        <ele>887.932</ele>
        <time>1989-12-30T23:59:59Z</time>
      </trkpt>
      <trkpt lat="37.330842" lon="-4.336761">
        <ele>888.492</ele>
        <time>1989-12-30T23:59:59Z</time>
      </trkpt>
      <trkpt lat="37.330827" lon="-4.336873">
        <ele>885.011</ele>
        <time>1989-12-30T23:59:59Z</time>
      </trkpt>
      <trkpt lat="37.330670" lon="-4.337444">
        <ele>874.007</ele>
        <time>1989-12-30T23:59:59Z</time>
      </trkpt>
      <trkpt lat="37.330406" lon="-4.337998">
        <ele>873.027</ele>
        <time>1989-12-30T23:59:59Z</time>
      </trkpt>
      <trkpt lat="37.330248" lon="-4.338473">
        <ele>868.725</ele>
        <time>1989-12-30T23:59:59Z</time>
      </trkpt>
      <trkpt lat="37.330125" lon="-4.338692">
        <ele>870.643</ele>
        <time>1989-12-30T23:59:59Z</time>
      </trkpt>
      <trkpt lat="37.329379" lon="-4.340328">
        <ele>862.424</ele>
        <time>1989-12-30T23:59:59Z</time>
      </trkpt>
      <trkpt lat="37.329356" lon="-4.340446">
        <ele>858.635</ele>
        <time>1989-12-30T23:59:59Z</time>
      </trkpt>
      <trkpt lat="37.329203" lon="-4.340866">
        <ele>862.934</ele>
        <time>1989-12-30T23:59:59Z</time>
      </trkpt>
      <trkpt lat="37.328949" lon="-4.341330">
        <ele>866.363</ele>
        <time>1989-12-30T23:59:59Z</time>
      </trkpt>
      <trkpt lat="37.328881" lon="-4.341419">
        <ele>863.973</ele>
        <time>1989-12-30T23:59:59Z</time>
      </trkpt>
      <trkpt lat="37.328765" lon="-4.341808">
        <ele>855.285</ele>
        <time>1989-12-30T23:59:59Z</time>
      </trkpt>
      <trkpt lat="37.328707" lon="-4.341951">
        <ele>854.713</ele>
        <time>1989-12-30T23:59:59Z</time>
      </trkpt>
      <trkpt lat="37.328571" lon="-4.342255">
        <ele>852.807</ele>
        <time>1989-12-30T23:59:59Z</time>
      </trkpt>
      <trkpt lat="37.328422" lon="-4.342481">
        <ele>854.361</ele>
        <time>1989-12-30T23:59:59Z</time>
      </trkpt>
      <trkpt lat="37.328318" lon="-4.342938">
        <ele>851.429</ele>
        <time>1989-12-30T23:59:59Z</time>
      </trkpt>
      <trkpt lat="37.328267" lon="-4.343082">
        <ele>845.647</ele>
        <time>1989-12-30T23:59:59Z</time>
      </trkpt>
      <trkpt lat="37.328090" lon="-4.343360">
        <ele>847.168</ele>
        <time>1989-12-30T23:59:59Z</time>
      </trkpt>
      <trkpt lat="37.328029" lon="-4.343512">
        <ele>845.649</ele>
        <time>1989-12-30T23:59:59Z</time>
      </trkpt>
      <trkpt lat="37.327986" lon="-4.343653">
        <ele>844.218</ele>
        <time>1989-12-30T23:59:59Z</time>
      </trkpt>
      <trkpt lat="37.327962" lon="-4.343972">
        <ele>822.527</ele>
        <time>1989-12-30T23:59:59Z</time>
      </trkpt>
      <trkpt lat="37.327779" lon="-4.344197">
        <ele>835.038</ele>
        <time>1989-12-30T23:59:59Z</time>
      </trkpt>
      <trkpt lat="37.327584" lon="-4.344514">
        <ele>838.970</ele>
        <time>1989-12-30T23:59:59Z</time>
      </trkpt>
      <trkpt lat="37.327504" lon="-4.344614">
        <ele>840.317</ele>
        <time>1989-12-30T23:59:59Z</time>
      </trkpt>
      <trkpt lat="37.327404" lon="-4.344983">
        <ele>831.707</ele>
        <time>1989-12-30T23:59:59Z</time>
      </trkpt>
      <trkpt lat="37.327283" lon="-4.345217">
        <ele>827.457</ele>
        <time>1989-12-30T23:59:59Z</time>
      </trkpt>
      <trkpt lat="37.327198" lon="-4.345469">
        <ele>823.525</ele>
        <time>1989-12-30T23:59:59Z</time>
      </trkpt>
      <trkpt lat="37.326903" lon="-4.346209">
        <ele>819.233</ele>
        <time>1989-12-30T23:59:59Z</time>
      </trkpt>
      <trkpt lat="37.326729" lon="-4.346402">
        <ele>819.294</ele>
        <time>1989-12-30T23:59:59Z</time>
      </trkpt>
      <trkpt lat="37.326526" lon="-4.346521">
        <ele>823.075</ele>
        <time>1989-12-30T23:59:59Z</time>
      </trkpt>
      <trkpt lat="37.326320" lon="-4.346815">
        <ele>813.424</ele>
        <time>1989-12-30T23:59:59Z</time>
      </trkpt>
      <trkpt lat="37.326102" lon="-4.347011">
        <ele>812.093</ele>
        <time>1989-12-30T23:59:59Z</time>
      </trkpt>
      <trkpt lat="37.325909" lon="-4.347499">
        <ele>805.262</ele>
        <time>1989-12-30T23:59:59Z</time>
      </trkpt>
      <trkpt lat="37.325972" lon="-4.347831">
        <ele>794.783</ele>
        <time>1989-12-30T23:59:59Z</time>
      </trkpt>
      <trkpt lat="37.325976" lon="-4.348013">
        <ele>796.611</ele>
        <time>1989-12-30T23:59:59Z</time>
      </trkpt>
      <trkpt lat="37.325932" lon="-4.348143">
        <ele>794.207</ele>
        <time>1989-12-30T23:59:59Z</time>
      </trkpt>
      <trkpt lat="37.325874" lon="-4.348242">
        <ele>791.390</ele>
        <time>1989-12-30T23:59:59Z</time>
      </trkpt>
      <trkpt lat="37.325596" lon="-4.348412">
        <ele>786.598</ele>
        <time>1989-12-30T23:59:59Z</time>
      </trkpt>
      <trkpt lat="37.325390" lon="-4.348574">
        <ele>772.116</ele>
        <time>1989-12-30T23:59:59Z</time>
      </trkpt>
      <trkpt lat="37.325277" lon="-4.348695">
        <ele>753.857</ele>
        <time>1989-12-30T23:59:59Z</time>
      </trkpt>
      <trkpt lat="37.325199" lon="-4.348806">
        <ele>743.798</ele>
        <time>1989-12-30T23:59:59Z</time>
      </trkpt>
      <trkpt lat="37.324804" lon="-4.349115">
        <ele>705.327</ele>
        <time>1989-12-30T23:59:59Z</time>
      </trkpt>
      <trkpt lat="37.324708" lon="-4.349226">
        <ele>693.716</ele>
        <time>1989-12-30T23:59:59Z</time>
      </trkpt>
      <trkpt lat="37.324641" lon="-4.349368">
        <ele>681.239</ele>
        <time>1989-12-30T23:59:59Z</time>
      </trkpt>
      <trkpt lat="37.324554" lon="-4.349851">
        <ele>674.501</ele>
        <time>1989-12-30T23:59:59Z</time>
      </trkpt>
      <trkpt lat="37.324731" lon="-4.350450">
        <ele>668.721</ele>
        <time>1989-12-30T23:59:59Z</time>
      </trkpt>
      <trkpt lat="37.324821" lon="-4.351152">
        <ele>672.607</ele>
        <time>1989-12-30T23:59:59Z</time>
      </trkpt>
      <trkpt lat="37.324883" lon="-4.351250">
        <ele>692.857</ele>
        <time>1989-12-30T23:59:59Z</time>
      </trkpt>
      <trkpt lat="37.324909" lon="-4.351362">
        <ele>693.795</ele>
        <time>1989-12-30T23:59:59Z</time>
      </trkpt>
      <trkpt lat="37.325121" lon="-4.351726">
        <ele>730.753</ele>
        <time>1989-12-30T23:59:59Z</time>
      </trkpt>
      <trkpt lat="37.325187" lon="-4.352029">
        <ele>731.754</ele>
        <time>1989-12-30T23:59:59Z</time>
      </trkpt>
      <trkpt lat="37.325280" lon="-4.352301">
        <ele>729.865</ele>
        <time>1989-12-30T23:59:59Z</time>
      </trkpt>
      <trkpt lat="37.325422" lon="-4.353164">
        <ele>737.954</ele>
        <time>1989-12-30T23:59:59Z</time>
      </trkpt>
      <trkpt lat="37.325607" lon="-4.353531">
        <ele>743.713</ele>
        <time>1989-12-30T23:59:59Z</time>
      </trkpt>
      <trkpt lat="37.325846" lon="-4.353847">
        <ele>748.519</ele>
        <time>1989-12-30T23:59:59Z</time>
      </trkpt>
      <trkpt lat="37.326038" lon="-4.354005">
        <ele>747.609</ele>
        <time>1989-12-30T23:59:59Z</time>
      </trkpt>
      <trkpt lat="37.326238" lon="-4.354282">
        <ele>748.019</ele>
        <time>1989-12-30T23:59:59Z</time>
      </trkpt>
      <trkpt lat="37.326415" lon="-4.354199">
        <ele>756.707</ele>
        <time>1989-12-30T23:59:59Z</time>
      </trkpt>
      <trkpt lat="37.326632" lon="-4.354149">
        <ele>768.255</ele>
        <time>1989-12-30T23:59:59Z</time>
      </trkpt>
      <trkpt lat="37.326799" lon="-4.354202">
        <ele>776.443</ele>
        <time>1989-12-30T23:59:59Z</time>
      </trkpt>
      <trkpt lat="37.326851" lon="-4.354296">
        <ele>784.151</ele>
        <time>1989-12-30T23:59:59Z</time>
      </trkpt>
      <trkpt lat="37.326783" lon="-4.354223">
        <ele>804.372</ele>
        <time>1989-12-30T23:59:59Z</time>
      </trkpt>
      <trkpt lat="37.326931" lon="-4.354171">
        <ele>787.543</ele>
        <time>1989-12-30T23:59:59Z</time>
      </trkpt>
      <trkpt lat="37.326636" lon="-4.354189">
        <ele>812.512</ele>
        <time>1989-12-30T23:59:59Z</time>
      </trkpt>
      <trkpt lat="37.326783" lon="-4.354275">
        <ele>779.811</ele>
        <time>1989-12-30T23:59:59Z</time>
      </trkpt>
      <trkpt lat="37.326698" lon="-4.354337">
        <ele>766.354</ele>
        <time>1989-12-30T23:59:59Z</time>
      </trkpt>
      <trkpt lat="37.326497" lon="-4.354319">
        <ele>762.056</ele>
        <time>1989-12-30T23:59:59Z</time>
      </trkpt>
      <trkpt lat="37.326387" lon="-4.354413">
        <ele>764.911</ele>
        <time>1989-12-30T23:59:59Z</time>
      </trkpt>
      <trkpt lat="37.326241" lon="-4.354614">
        <ele>753.307</ele>
        <time>1989-12-30T23:59:59Z</time>
      </trkpt>
      <trkpt lat="37.326066" lon="-4.354644">
        <ele>753.369</ele>
        <time>1989-12-30T23:59:59Z</time>
      </trkpt>
      <trkpt lat="37.325792" lon="-4.354892">
        <ele>750.957</ele>
        <time>1989-12-30T23:59:59Z</time>
      </trkpt>
      <trkpt lat="37.325739" lon="-4.354968">
        <ele>751.445</ele>
        <time>1989-12-30T23:59:59Z</time>
      </trkpt>
      <trkpt lat="37.325755" lon="-4.355091">
        <ele>752.416</ele>
        <time>1989-12-30T23:59:59Z</time>
      </trkpt>
      <trkpt lat="37.325890" lon="-4.355343">
        <ele>753.397</ele>
        <time>1989-12-30T23:59:59Z</time>
      </trkpt>
      <trkpt lat="37.326117" lon="-4.355641">
        <ele>750.986</ele>
        <time>1989-12-30T23:59:59Z</time>
      </trkpt>
      <trkpt lat="37.326167" lon="-4.355765">
        <ele>751.955</ele>
        <time>1989-12-30T23:59:59Z</time>
      </trkpt>
      <trkpt lat="37.326227" lon="-4.356067">
        <ele>744.255</ele>
        <time>1989-12-30T23:59:59Z</time>
      </trkpt>
      <trkpt lat="37.326237" lon="-4.356231">
        <ele>747.107</ele>
        <time>1989-12-30T23:59:59Z</time>
      </trkpt>
      <trkpt lat="37.326377" lon="-4.356569">
        <ele>737.517</ele>
        <time>1989-12-30T23:59:59Z</time>
      </trkpt>
      <trkpt lat="37.326413" lon="-4.356889">
        <ele>737.007</ele>
        <time>1989-12-30T23:59:59Z</time>
      </trkpt>
      <trkpt lat="37.326401" lon="-4.357019">
        <ele>733.159</ele>
        <time>1989-12-30T23:59:59Z</time>
      </trkpt>
      <trkpt lat="37.326427" lon="-4.357147">
        <ele>733.147</ele>
        <time>1989-12-30T23:59:59Z</time>
      </trkpt>
      <trkpt lat="37.326410" lon="-4.357291">
        <ele>734.645</ele>
        <time>1989-12-30T23:59:59Z</time>
      </trkpt>
      <trkpt lat="37.326418" lon="-4.357437">
        <ele>734.646</ele>
        <time>1989-12-30T23:59:59Z</time>
      </trkpt>
      <trkpt lat="37.326637" lon="-4.357867">
        <ele>725.957</ele>
        <time>1989-12-30T23:59:59Z</time>
      </trkpt>
      <trkpt lat="37.326624" lon="-4.357994">
        <ele>725.066</ele>
        <time>1989-12-30T23:59:59Z</time>
      </trkpt>
      <trkpt lat="37.326562" lon="-4.358234">
        <ele>718.265</ele>
        <time>1989-12-30T23:59:59Z</time>
      </trkpt>
      <trkpt lat="37.326226" lon="-4.358840">
        <ele>716.313</ele>
        <time>1989-12-30T23:59:59Z</time>
      </trkpt>
      <trkpt lat="37.325939" lon="-4.359116">
        <ele>715.443</ele>
        <time>1989-12-30T23:59:59Z</time>
      </trkpt>
      <trkpt lat="37.325840" lon="-4.359356">
        <ele>716.307</ele>
        <time>1989-12-30T23:59:59Z</time>
      </trkpt>
      <trkpt lat="37.325830" lon="-4.359480">
        <ele>715.407</ele>
        <time>1989-12-30T23:59:59Z</time>
      </trkpt>
      <trkpt lat="37.325738" lon="-4.359714">
        <ele>713.095</ele>
        <time>1989-12-30T23:59:59Z</time>
      </trkpt>
      <trkpt lat="37.325717" lon="-4.359852">
        <ele>714.983</ele>
        <time>1989-12-30T23:59:59Z</time>
      </trkpt>
      <trkpt lat="37.325865" lon="-4.360492">
        <ele>714.441</ele>
        <time>1989-12-30T23:59:59Z</time>
      </trkpt>
      <trkpt lat="37.325910" lon="-4.360627">
        <ele>715.452</ele>
        <time>1989-12-30T23:59:59Z</time>
      </trkpt>
      <trkpt lat="37.326019" lon="-4.360786">
        <ele>710.173</ele>
        <time>1989-12-30T23:59:59Z</time>
      </trkpt>
      <trkpt lat="37.326183" lon="-4.361384">
        <ele>710.672</ele>
        <time>1989-12-30T23:59:59Z</time>
      </trkpt>
      <trkpt lat="37.326186" lon="-4.361502">
        <ele>710.671</ele>
        <time>1989-12-30T23:59:59Z</time>
      </trkpt>
      <trkpt lat="37.326113" lon="-4.361707">
        <ele>715.449</ele>
        <time>1989-12-30T23:59:59Z</time>
      </trkpt>
      <trkpt lat="37.326132" lon="-4.361836">
        <ele>712.502</ele>
        <time>1989-12-30T23:59:59Z</time>
      </trkpt>
      <trkpt lat="37.326332" lon="-4.362085">
        <ele>707.722</ele>
        <time>1989-12-30T23:59:59Z</time>
      </trkpt>
      <trkpt lat="37.326407" lon="-4.362237">
        <ele>709.107</ele>
        <time>1989-12-30T23:59:59Z</time>
      </trkpt>
      <trkpt lat="37.326418" lon="-4.362378">
        <ele>705.348</ele>
        <time>1989-12-30T23:59:59Z</time>
      </trkpt>
      <trkpt lat="37.326602" lon="-4.362474">
        <ele>713.046</ele>
        <time>1989-12-30T23:59:59Z</time>
      </trkpt>
      <trkpt lat="37.326748" lon="-4.362456">
        <ele>711.594</ele>
        <time>1989-12-30T23:59:59Z</time>
      </trkpt>
      <trkpt lat="37.326978" lon="-4.362504">
        <ele>702.435</ele>
        <time>1989-12-30T23:59:59Z</time>
      </trkpt>
      <trkpt lat="37.327074" lon="-4.362573">
        <ele>695.226</ele>
        <time>1989-12-30T23:59:59Z</time>
      </trkpt>
      <trkpt lat="37.327296" lon="-4.362958">
        <ele>689.965</ele>
        <time>1989-12-30T23:59:59Z</time>
      </trkpt>
      <trkpt lat="37.327307" lon="-4.363070">
        <ele>688.954</ele>
        <time>1989-12-30T23:59:59Z</time>
      </trkpt>
      <trkpt lat="37.327727" lon="-4.363482">
        <ele>688.033</ele>
        <time>1989-12-30T23:59:59Z</time>
      </trkpt>
      <trkpt lat="37.327247" lon="-4.364160">
        <ele>689.478</ele>
        <time>2017-01-08T08:29:15Z</time>
      </trkpt>
      <trkpt lat="37.327247" lon="-4.364159">
        <ele>689.433</ele>
        <time>2017-01-08T08:29:16Z</time>
      </trkpt>
      <trkpt lat="37.327249" lon="-4.364157">
        <ele>689.426</ele>
        <time>2017-01-08T08:29:17Z</time>
      </trkpt>
      <trkpt lat="37.327246" lon="-4.364170">
        <ele>689.408</ele>
        <time>2017-01-08T08:29:47Z</time>
      </trkpt>
      <trkpt lat="37.327273" lon="-4.364209">
        <ele>688.428</ele>
        <time>2017-01-08T08:30:04Z</time>
      </trkpt>
      <trkpt lat="37.327290" lon="-4.364211">
        <ele>688.483</ele>
        <time>2017-01-08T08:30:13Z</time>
      </trkpt>
      <trkpt lat="37.327280" lon="-4.364253">
        <ele>688.457</ele>
        <time>2017-01-08T08:30:25Z</time>
      </trkpt>
      <trkpt lat="37.327256" lon="-4.364203">
        <ele>688.442</ele>
        <time>2017-01-08T08:30:43Z</time>
      </trkpt>
      <trkpt lat="37.327261" lon="-4.364205">
        <ele>688.431</ele>
        <time>2017-01-08T08:31:02Z</time>
      </trkpt>
      <trkpt lat="37.327249" lon="-4.364186">
        <ele>688.426</ele>
        <time>2017-01-08T08:31:23Z</time>
      </trkpt>
      <trkpt lat="37.327243" lon="-4.364206">
        <ele>688.920</ele>
        <time>2017-01-08T08:31:39Z</time>
      </trkpt>
      <trkpt lat="37.327256" lon="-4.364217">
        <ele>688.927</ele>
        <time>2017-01-08T08:31:55Z</time>
      </trkpt>
      <trkpt lat="37.327221" lon="-4.364227">
        <ele>688.466</ele>
        <time>2017-01-08T08:32:26Z</time>
      </trkpt>
      <trkpt lat="37.327183" lon="-4.364226">
        <ele>688.029</ele>
        <time>2017-01-08T08:32:44Z</time>
      </trkpt>
      <trkpt lat="37.327142" lon="-4.364099">
        <ele>689.421</ele>
        <time>2017-01-08T08:32:58Z</time>
      </trkpt>
      <trkpt lat="37.327130" lon="-4.364040">
        <ele>689.408</ele>
        <time>2017-01-08T08:33:03Z</time>
      </trkpt>
      <trkpt lat="37.327132" lon="-4.363825">
        <ele>689.997</ele>
        <time>2017-01-08T08:33:17Z</time>
      </trkpt>
      <trkpt lat="37.327122" lon="-4.363576">
        <ele>691.342</ele>
        <time>2017-01-08T08:33:33Z</time>
      </trkpt>
      <trkpt lat="37.327102" lon="-4.363435">
        <ele>691.896</ele>
        <time>2017-01-08T08:33:45Z</time>
      </trkpt>
      <trkpt lat="37.327100" lon="-4.363407">
        <ele>691.821</ele>
        <time>2017-01-08T08:33:47Z</time>
      </trkpt>
      <trkpt lat="37.327078" lon="-4.363302">
        <ele>692.830</ele>
        <time>2017-01-08T08:33:55Z</time>
      </trkpt>
      <trkpt lat="37.327076" lon="-4.363055">
        <ele>693.755</ele>
        <time>2017-01-08T08:34:08Z</time>
      </trkpt>
      <trkpt lat="37.327054" lon="-4.362855">
        <ele>694.289</ele>
        <time>2017-01-08T08:34:21Z</time>
      </trkpt>
      <trkpt lat="37.327056" lon="-4.362662">
        <ele>695.266</ele>
        <time>2017-01-08T08:34:36Z</time>
      </trkpt>
      <trkpt lat="37.326966" lon="-4.362692">
        <ele>696.132</ele>
        <time>2017-01-08T08:34:49Z</time>
      </trkpt>
      <trkpt lat="37.326722" lon="-4.362372">
        <ele>698.592</ele>
        <time>2017-01-08T08:35:05Z</time>
      </trkpt>
      <trkpt lat="37.326651" lon="-4.362298">
        <ele>699.511</ele>
        <time>2017-01-08T08:35:11Z</time>
      </trkpt>
      <trkpt lat="37.326628" lon="-4.362240">
        <ele>700.008</ele>
        <time>2017-01-08T08:35:16Z</time>
      </trkpt>
      <trkpt lat="37.326573" lon="-4.362180">
        <ele>700.554</ele>
        <time>2017-01-08T08:35:25Z</time>
      </trkpt>
      <trkpt lat="37.326378" lon="-4.362038">
        <ele>702.419</ele>
        <time>2017-01-08T08:35:40Z</time>
      </trkpt>
      <trkpt lat="37.326254" lon="-4.361880">
        <ele>703.863</ele>
        <time>2017-01-08T08:35:53Z</time>
      </trkpt>
      <trkpt lat="37.326116" lon="-4.361623">
        <ele>704.848</ele>
        <time>2017-01-08T08:36:10Z</time>
      </trkpt>
      <trkpt lat="37.326013" lon="-4.361499">
        <ele>705.877</ele>
        <time>2017-01-08T08:36:24Z</time>
      </trkpt>
      <trkpt lat="37.325999" lon="-4.361436">
        <ele>705.842</ele>
        <time>2017-01-08T08:36:28Z</time>
      </trkpt>
      <trkpt lat="37.325928" lon="-4.361288">
        <ele>706.286</ele>
        <time>2017-01-08T08:36:38Z</time>
      </trkpt>
      <trkpt lat="37.325864" lon="-4.360960">
        <ele>706.263</ele>
        <time>2017-01-08T08:36:57Z</time>
      </trkpt>
      <trkpt lat="37.325865" lon="-4.360940">
        <ele>706.223</ele>
        <time>2017-01-08T08:37:01Z</time>
      </trkpt>
      <trkpt lat="37.325845" lon="-4.360802">
        <ele>706.283</ele>
        <time>2017-01-08T08:37:10Z</time>
      </trkpt>
      <trkpt lat="37.325801" lon="-4.360831">
        <ele>703.811</ele>
        <time>2017-01-08T08:37:22Z</time>
      </trkpt>
      <trkpt lat="37.325765" lon="-4.360862">
        <ele>702.408</ele>
        <time>2017-01-08T08:37:26Z</time>
      </trkpt>
      <trkpt lat="37.325757" lon="-4.360883">
        <ele>701.953</ele>
        <time>2017-01-08T08:37:40Z</time>
      </trkpt>
      <trkpt lat="37.325722" lon="-4.360898">
        <ele>701.968</ele>
        <time>2017-01-08T08:37:50Z</time>
      </trkpt>
      <trkpt lat="37.325676" lon="-4.360940">
        <ele>700.972</ele>
        <time>2017-01-08T08:38:02Z</time>
      </trkpt>
      <trkpt lat="37.325624" lon="-4.360900">
        <ele>700.027</ele>
        <time>2017-01-08T08:38:16Z</time>
      </trkpt>
      <trkpt lat="37.325602" lon="-4.360845">
        <ele>698.536</ele>
        <time>2017-01-08T08:38:32Z</time>
      </trkpt>
      <trkpt lat="37.325615" lon="-4.360857">
        <ele>698.551</ele>
        <time>2017-01-08T08:38:53Z</time>
      </trkpt>
      <trkpt lat="37.325619" lon="-4.360851">
        <ele>698.525</ele>
        <time>2017-01-08T08:39:15Z</time>
      </trkpt>
      <trkpt lat="37.325611" lon="-4.360847">
        <ele>698.592</ele>
        <time>2017-01-08T08:39:24Z</time>
      </trkpt>
      <trkpt lat="37.325476" lon="-4.360542">
        <ele>695.283</ele>
        <time>2017-01-08T08:39:43Z</time>
      </trkpt>
      <trkpt lat="37.325438" lon="-4.360417">
        <ele>692.825</ele>
        <time>2017-01-08T08:39:51Z</time>
      </trkpt>
      <trkpt lat="37.325425" lon="-4.360362">
        <ele>698.517</ele>
        <time>2017-01-08T08:39:54Z</time>
      </trkpt>
      <trkpt lat="37.325394" lon="-4.360259">
        <ele>693.308</ele>
        <time>2017-01-08T08:40:02Z</time>
      </trkpt>
      <trkpt lat="37.325334" lon="-4.360080">
        <ele>691.829</ele>
        <time>2017-01-08T08:40:14Z</time>
      </trkpt>
      <trkpt lat="37.325268" lon="-4.359779">
        <ele>690.444</ele>
        <time>2017-01-08T08:40:33Z</time>
      </trkpt>
      <trkpt lat="37.325233" lon="-4.359527">
        <ele>688.918</ele>
        <time>2017-01-08T08:40:48Z</time>
      </trkpt>
      <trkpt lat="37.325235" lon="-4.359509">
        <ele>688.983</ele>
        <time>2017-01-08T08:40:49Z</time>
      </trkpt>
      <trkpt lat="37.325204" lon="-4.359395">
        <ele>688.462</ele>
        <time>2017-01-08T08:40:56Z</time>
      </trkpt>
      <trkpt lat="37.325086" lon="-4.359164">
        <ele>688.057</ele>
        <time>2017-01-08T08:41:12Z</time>
      </trkpt>
      <trkpt lat="37.324978" lon="-4.358987">
        <ele>688.021</ele>
        <time>2017-01-08T08:41:26Z</time>
      </trkpt>
      <trkpt lat="37.324852" lon="-4.358764">
        <ele>688.958</ele>
        <time>2017-01-08T08:41:42Z</time>
      </trkpt>
      <trkpt lat="37.324756" lon="-4.358492">
        <ele>689.913</ele>
        <time>2017-01-08T08:41:59Z</time>
      </trkpt>
      <trkpt lat="37.324663" lon="-4.358236">
        <ele>690.443</ele>
        <time>2017-01-08T08:42:15Z</time>
      </trkpt>
      <trkpt lat="37.324585" lon="-4.358059">
        <ele>690.407</ele>
        <time>2017-01-08T08:42:27Z</time>
      </trkpt>
      <trkpt lat="37.324438" lon="-4.357840">
        <ele>691.308</ele>
        <time>2017-01-08T08:42:44Z</time>
      </trkpt>
      <trkpt lat="37.324334" lon="-4.357697">
        <ele>691.822</ele>
        <time>2017-01-08T08:42:55Z</time>
      </trkpt>
      <trkpt lat="37.324180" lon="-4.357492">
        <ele>692.347</ele>
        <time>2017-01-08T08:43:11Z</time>
      </trkpt>
      <trkpt lat="37.324059" lon="-4.357330">
        <ele>692.871</ele>
        <time>2017-01-08T08:43:24Z</time>
      </trkpt>
      <trkpt lat="37.323905" lon="-4.357147">
        <ele>693.796</ele>
        <time>2017-01-08T08:43:40Z</time>
      </trkpt>
      <trkpt lat="37.323718" lon="-4.356945">
        <ele>694.765</ele>
        <time>2017-01-08T08:43:57Z</time>
      </trkpt>
      <trkpt lat="37.323566" lon="-4.356781">
        <ele>695.790</ele>
        <time>2017-01-08T08:44:12Z</time>
      </trkpt>
      <trkpt lat="37.323409" lon="-4.356636">
        <ele>696.134</ele>
        <time>2017-01-08T08:44:28Z</time>
      </trkpt>
      <trkpt lat="37.323261" lon="-4.356491">
        <ele>696.141</ele>
        <time>2017-01-08T08:44:43Z</time>
      </trkpt>
      <trkpt lat="37.323210" lon="-4.356454">
        <ele>694.785</ele>
        <time>2017-01-08T08:44:48Z</time>
      </trkpt>
      <trkpt lat="37.323014" lon="-4.356298">
        <ele>691.389</ele>
        <time>2017-01-08T08:45:05Z</time>
      </trkpt>
      <trkpt lat="37.322884" lon="-4.356141">
        <ele>688.417</ele>
        <time>2017-01-08T08:45:18Z</time>
      </trkpt>
      <trkpt lat="37.322809" lon="-4.355983">
        <ele>684.608</ele>
        <time>2017-01-08T08:45:30Z</time>
      </trkpt>
      <trkpt lat="37.322790" lon="-4.355815">
        <ele>681.279</ele>
        <time>2017-01-08T08:45:41Z</time>
      </trkpt>
      <trkpt lat="37.322782" lon="-4.355593">
        <ele>678.434</ele>
        <time>2017-01-08T08:45:54Z</time>
      </trkpt>
      <trkpt lat="37.322806" lon="-4.355380">
        <ele>675.068</ele>
        <time>2017-01-08T08:46:08Z</time>
      </trkpt>
      <trkpt lat="37.322831" lon="-4.355134">
        <ele>672.173</ele>
        <time>2017-01-08T08:46:24Z</time>
      </trkpt>
      <trkpt lat="37.322842" lon="-4.354850">
        <ele>668.742</ele>
        <time>2017-01-08T08:46:41Z</time>
      </trkpt>
      <trkpt lat="37.322854" lon="-4.354610">
        <ele>666.887</ele>
        <time>2017-01-08T08:46:57Z</time>
      </trkpt>
      <trkpt lat="37.322817" lon="-4.354411">
        <ele>664.421</ele>
        <time>2017-01-08T08:47:11Z</time>
      </trkpt>
      <trkpt lat="37.322677" lon="-4.354228">
        <ele>662.028</ele>
        <time>2017-01-08T08:47:27Z</time>
      </trkpt>
      <trkpt lat="37.322618" lon="-4.354144">
        <ele>660.164</ele>
        <time>2017-01-08T08:47:39Z</time>
      </trkpt>
      <trkpt lat="37.322477" lon="-4.353934">
        <ele>658.206</ele>
        <time>2017-01-08T08:47:56Z</time>
      </trkpt>
      <trkpt lat="37.322393" lon="-4.353754">
        <ele>656.716</ele>
        <time>2017-01-08T08:48:12Z</time>
      </trkpt>
      <trkpt lat="37.322361" lon="-4.353699">
        <ele>655.808</ele>
        <time>2017-01-08T08:48:25Z</time>
      </trkpt>
      <trkpt lat="37.322365" lon="-4.353698">
        <ele>655.817</ele>
        <time>2017-01-08T08:48:28Z</time>
      </trkpt>
      <trkpt lat="37.322261" lon="-4.353474">
        <ele>654.862</ele>
        <time>2017-01-08T08:48:42Z</time>
      </trkpt>
      <trkpt lat="37.321973" lon="-4.353245">
        <ele>653.416</ele>
        <time>2017-01-08T08:49:02Z</time>
      </trkpt>
      <trkpt lat="37.321919" lon="-4.353204">
        <ele>652.921</ele>
        <time>2017-01-08T08:49:17Z</time>
      </trkpt>
      <trkpt lat="37.321726" lon="-4.353058">
        <ele>651.420</ele>
        <time>2017-01-08T08:49:32Z</time>
      </trkpt>
      <trkpt lat="37.321687" lon="-4.353001">
        <ele>651.085</ele>
        <time>2017-01-08T08:49:41Z</time>
      </trkpt>
      <trkpt lat="37.321447" lon="-4.352820">
        <ele>648.659</ele>
        <time>2017-01-08T08:49:55Z</time>
      </trkpt>
      <trkpt lat="37.321243" lon="-4.352688">
        <ele>645.266</ele>
        <time>2017-01-08T08:50:08Z</time>
      </trkpt>
      <trkpt lat="37.321168" lon="-4.352663">
        <ele>640.965</ele>
        <time>2017-01-08T08:50:13Z</time>
      </trkpt>
      <trkpt lat="37.321152" lon="-4.352660">
        <ele>640.968</ele>
        <time>2017-01-08T08:50:14Z</time>
      </trkpt>
      <trkpt lat="37.321142" lon="-4.352658">
        <ele>647.614</ele>
        <time>2017-01-08T08:50:15Z</time>
      </trkpt>
      <trkpt lat="37.321131" lon="-4.352653">
        <ele>643.708</ele>
        <time>2017-01-08T08:50:16Z</time>
      </trkpt>
      <trkpt lat="37.320885" lon="-4.352513">
        <ele>640.487</ele>
        <time>2017-01-08T08:50:36Z</time>
      </trkpt>
      <trkpt lat="37.320778" lon="-4.352296">
        <ele>638.942</ele>
        <time>2017-01-08T08:50:52Z</time>
      </trkpt>
      <trkpt lat="37.320789" lon="-4.352034">
        <ele>638.526</ele>
        <time>2017-01-08T08:51:08Z</time>
      </trkpt>
      <trkpt lat="37.320764" lon="-4.351720">
        <ele>638.061</ele>
        <time>2017-01-08T08:51:25Z</time>
      </trkpt>
      <trkpt lat="37.320632" lon="-4.351479">
        <ele>637.040</ele>
        <time>2017-01-08T08:51:43Z</time>
      </trkpt>
      <trkpt lat="37.320470" lon="-4.351284">
        <ele>636.165</ele>
        <time>2017-01-08T08:51:58Z</time>
      </trkpt>
      <trkpt lat="37.320269" lon="-4.351104">
        <ele>635.169</ele>
        <time>2017-01-08T08:52:16Z</time>
      </trkpt>
      <trkpt lat="37.320175" lon="-4.351029">
        <ele>634.676</ele>
        <time>2017-01-08T08:52:27Z</time>
      </trkpt>
      <trkpt lat="37.320031" lon="-4.350809">
        <ele>633.797</ele>
        <time>2017-01-08T08:52:44Z</time>
      </trkpt>
      <trkpt lat="37.319967" lon="-4.350531">
        <ele>633.723</ele>
        <time>2017-01-08T08:53:01Z</time>
      </trkpt>
      <trkpt lat="37.319893" lon="-4.350290">
        <ele>632.725</ele>
        <time>2017-01-08T08:53:16Z</time>
      </trkpt>
      <trkpt lat="37.319868" lon="-4.350258">
        <ele>632.208</ele>
        <time>2017-01-08T08:53:26Z</time>
      </trkpt>
      <trkpt lat="37.319853" lon="-4.350255">
        <ele>632.250</ele>
        <time>2017-01-08T08:53:27Z</time>
      </trkpt>
      <trkpt lat="37.319839" lon="-4.350250">
        <ele>631.725</ele>
        <time>2017-01-08T08:53:28Z</time>
      </trkpt>
      <trkpt lat="37.319826" lon="-4.350244">
        <ele>631.769</ele>
        <time>2017-01-08T08:53:29Z</time>
      </trkpt>
      <trkpt lat="37.319745" lon="-4.350188">
        <ele>630.814</ele>
        <time>2017-01-08T08:53:42Z</time>
      </trkpt>
      <trkpt lat="37.319711" lon="-4.350164">
        <ele>629.893</ele>
        <time>2017-01-08T08:53:51Z</time>
      </trkpt>
      <trkpt lat="37.319698" lon="-4.350159">
        <ele>629.888</ele>
        <time>2017-01-08T08:53:52Z</time>
      </trkpt>
      <trkpt lat="37.319649" lon="-4.350137">
        <ele>628.872</ele>
        <time>2017-01-08T08:53:56Z</time>
      </trkpt>
      <trkpt lat="37.319637" lon="-4.350134">
        <ele>628.489</ele>
        <time>2017-01-08T08:53:57Z</time>
      </trkpt>
      <trkpt lat="37.319625" lon="-4.350132">
        <ele>628.459</ele>
        <time>2017-01-08T08:53:58Z</time>
      </trkpt>
      <trkpt lat="37.319610" lon="-4.350127">
        <ele>627.903</ele>
        <time>2017-01-08T08:53:59Z</time>
      </trkpt>
      <trkpt lat="37.319592" lon="-4.350120">
        <ele>627.423</ele>
        <time>2017-01-08T08:54:00Z</time>
      </trkpt>
      <trkpt lat="37.319574" lon="-4.350112">
        <ele>626.908</ele>
        <time>2017-01-08T08:54:01Z</time>
      </trkpt>
      <trkpt lat="37.319556" lon="-4.350101">
        <ele>626.976</ele>
        <time>2017-01-08T08:54:02Z</time>
      </trkpt>
      <trkpt lat="37.319540" lon="-4.350092">
        <ele>626.431</ele>
        <time>2017-01-08T08:54:03Z</time>
      </trkpt>
      <trkpt lat="37.319456" lon="-4.350063">
        <ele>624.535</ele>
        <time>2017-01-08T08:54:08Z</time>
      </trkpt>
      <trkpt lat="37.319342" lon="-4.350002">
        <ele>621.290</ele>
        <time>2017-01-08T08:54:16Z</time>
      </trkpt>
      <trkpt lat="37.319255" lon="-4.349863">
        <ele>617.889</ele>
        <time>2017-01-08T08:54:26Z</time>
      </trkpt>
      <trkpt lat="37.319194" lon="-4.349631">
        <ele>614.424</ele>
        <time>2017-01-08T08:54:40Z</time>
      </trkpt>
      <trkpt lat="37.319079" lon="-4.349348">
        <ele>611.138</ele>
        <time>2017-01-08T08:54:56Z</time>
      </trkpt>
      <trkpt lat="37.318895" lon="-4.349143">
        <ele>607.775</ele>
        <time>2017-01-08T08:55:12Z</time>
      </trkpt>
      <trkpt lat="37.318698" lon="-4.349015">
        <ele>604.891</ele>
        <time>2017-01-08T08:55:26Z</time>
      </trkpt>
      <trkpt lat="37.318527" lon="-4.348873">
        <ele>601.481</ele>
        <time>2017-01-08T08:55:40Z</time>
      </trkpt>
      <trkpt lat="37.318402" lon="-4.348733">
        <ele>598.619</ele>
        <time>2017-01-08T08:55:53Z</time>
      </trkpt>
      <trkpt lat="37.318284" lon="-4.348593">
        <ele>595.208</ele>
        <time>2017-01-08T08:56:06Z</time>
      </trkpt>
      <trkpt lat="37.318183" lon="-4.348432">
        <ele>591.820</ele>
        <time>2017-01-08T08:56:18Z</time>
      </trkpt>
      <trkpt lat="37.318043" lon="-4.348242">
        <ele>589.035</ele>
        <time>2017-01-08T08:56:32Z</time>
      </trkpt>
      <trkpt lat="37.317922" lon="-4.347995">
        <ele>585.629</ele>
        <time>2017-01-08T08:56:48Z</time>
      </trkpt>
      <trkpt lat="37.317815" lon="-4.347743">
        <ele>582.714</ele>
        <time>2017-01-08T08:57:03Z</time>
      </trkpt>
      <trkpt lat="37.317676" lon="-4.347387">
        <ele>579.383</ele>
        <time>2017-01-08T08:57:24Z</time>
      </trkpt>
      <trkpt lat="37.317529" lon="-4.347062">
        <ele>577.428</ele>
        <time>2017-01-08T08:57:44Z</time>
      </trkpt>
      <trkpt lat="37.317385" lon="-4.346799">
        <ele>576.052</ele>
        <time>2017-01-08T08:58:02Z</time>
      </trkpt>
      <trkpt lat="37.317200" lon="-4.346584">
        <ele>575.099</ele>
        <time>2017-01-08T08:58:21Z</time>
      </trkpt>
      <trkpt lat="37.316993" lon="-4.346482">
        <ele>574.019</ele>
        <time>2017-01-08T08:58:37Z</time>
      </trkpt>
      <trkpt lat="37.316794" lon="-4.346357">
        <ele>574.009</ele>
        <time>2017-01-08T08:58:53Z</time>
      </trkpt>
      <trkpt lat="37.316593" lon="-4.346192">
        <ele>573.119</ele>
        <time>2017-01-08T08:59:11Z</time>
      </trkpt>
      <trkpt lat="37.316526" lon="-4.345987">
        <ele>571.608</ele>
        <time>2017-01-08T08:59:26Z</time>
      </trkpt>
      <trkpt lat="37.316568" lon="-4.345745">
        <ele>568.322</ele>
        <time>2017-01-08T08:59:42Z</time>
      </trkpt>
      <trkpt lat="37.316638" lon="-4.345529">
        <ele>564.997</ele>
        <time>2017-01-08T08:59:58Z</time>
      </trkpt>
      <trkpt lat="37.316694" lon="-4.345286">
        <ele>561.631</ele>
        <time>2017-01-08T09:00:13Z</time>
      </trkpt>
      <trkpt lat="37.316707" lon="-4.345211">
        <ele>560.666</ele>
        <time>2017-01-08T09:00:19Z</time>
      </trkpt>
      <trkpt lat="37.316699" lon="-4.345193">
        <ele>560.685</ele>
        <time>2017-01-08T09:00:24Z</time>
      </trkpt>
      <trkpt lat="37.316696" lon="-4.345177">
        <ele>560.630</ele>
        <time>2017-01-08T09:00:25Z</time>
      </trkpt>
      <trkpt lat="37.316695" lon="-4.345160">
        <ele>560.174</ele>
        <time>2017-01-08T09:00:26Z</time>
      </trkpt>
      <trkpt lat="37.316693" lon="-4.345140">
        <ele>560.171</ele>
        <time>2017-01-08T09:00:27Z</time>
      </trkpt>
      <trkpt lat="37.316690" lon="-4.345121">
        <ele>560.138</ele>
        <time>2017-01-08T09:00:28Z</time>
      </trkpt>
      <trkpt lat="37.316647" lon="-4.344785">
        <ele>556.770</ele>
        <time>2017-01-08T09:00:45Z</time>
      </trkpt>
      <trkpt lat="37.316590" lon="-4.344439">
        <ele>554.317</ele>
        <time>2017-01-08T09:01:03Z</time>
      </trkpt>
      <trkpt lat="37.316563" lon="-4.344195">
        <ele>551.508</ele>
        <time>2017-01-08T09:01:17Z</time>
      </trkpt>
      <trkpt lat="37.316493" lon="-4.344013">
        <ele>549.534</ele>
        <time>2017-01-08T09:01:30Z</time>
      </trkpt>
      <trkpt lat="37.316420" lon="-4.343868">
        <ele>547.669</ele>
        <time>2017-01-08T09:01:41Z</time>
      </trkpt>
      <trkpt lat="37.316413" lon="-4.343855">
        <ele>547.183</ele>
        <time>2017-01-08T09:01:42Z</time>
      </trkpt>
      <trkpt lat="37.316407" lon="-4.343840">
        <ele>547.188</ele>
        <time>2017-01-08T09:01:43Z</time>
      </trkpt>
      <trkpt lat="37.316259" lon="-4.343668">
        <ele>544.237</ele>
        <time>2017-01-08T09:01:59Z</time>
      </trkpt>
      <trkpt lat="37.316090" lon="-4.343507">
        <ele>541.442</ele>
        <time>2017-01-08T09:02:15Z</time>
      </trkpt>
      <trkpt lat="37.315931" lon="-4.343381">
        <ele>538.516</ele>
        <time>2017-01-08T09:02:28Z</time>
      </trkpt>
      <trkpt lat="37.315766" lon="-4.343251">
        <ele>535.113</ele>
        <time>2017-01-08T09:02:41Z</time>
      </trkpt>
      <trkpt lat="37.315602" lon="-4.343106">
        <ele>532.293</ele>
        <time>2017-01-08T09:02:55Z</time>
      </trkpt>
      <trkpt lat="37.315441" lon="-4.342923">
        <ele>528.965</ele>
        <time>2017-01-08T09:03:10Z</time>
      </trkpt>
      <trkpt lat="37.315361" lon="-4.342720">
        <ele>526.021</ele>
        <time>2017-01-08T09:03:22Z</time>
      </trkpt>
      <trkpt lat="37.315322" lon="-4.342514">
        <ele>522.108</ele>
        <time>2017-01-08T09:03:34Z</time>
      </trkpt>
      <trkpt lat="37.315291" lon="-4.342306">
        <ele>519.390</ele>
        <time>2017-01-08T09:03:46Z</time>
      </trkpt>
      <trkpt lat="37.315273" lon="-4.342071">
        <ele>516.465</ele>
        <time>2017-01-08T09:04:00Z</time>
      </trkpt>
      <trkpt lat="37.315212" lon="-4.341770">
        <ele>513.069</ele>
        <time>2017-01-08T09:04:17Z</time>
      </trkpt>
      <trkpt lat="37.315034" lon="-4.341659">
        <ele>511.174</ele>
        <time>2017-01-08T09:04:32Z</time>
      </trkpt>
      <trkpt lat="37.315022" lon="-4.341651">
        <ele>511.193</ele>
        <time>2017-01-08T09:04:33Z</time>
      </trkpt>
      <trkpt lat="37.315007" lon="-4.341644">
        <ele>511.118</ele>
        <time>2017-01-08T09:04:34Z</time>
      </trkpt>
      <trkpt lat="37.314993" lon="-4.341634">
        <ele>511.182</ele>
        <time>2017-01-08T09:04:35Z</time>
      </trkpt>
      <trkpt lat="37.314980" lon="-4.341627">
        <ele>510.679</ele>
        <time>2017-01-08T09:04:36Z</time>
      </trkpt>
      <trkpt lat="37.314968" lon="-4.341623">
        <ele>510.671</ele>
        <time>2017-01-08T09:04:37Z</time>
      </trkpt>
      <trkpt lat="37.314955" lon="-4.341614">
        <ele>510.641</ele>
        <time>2017-01-08T09:04:38Z</time>
      </trkpt>
      <trkpt lat="37.314782" lon="-4.341451">
        <ele>508.215</ele>
        <time>2017-01-08T09:04:53Z</time>
      </trkpt>
      <trkpt lat="37.314608" lon="-4.341198">
        <ele>505.308</ele>
        <time>2017-01-08T09:05:12Z</time>
      </trkpt>
      <trkpt lat="37.314435" lon="-4.340959">
        <ele>503.428</ele>
        <time>2017-01-08T09:05:29Z</time>
      </trkpt>
      <trkpt lat="37.314284" lon="-4.340703">
        <ele>501.523</ele>
        <time>2017-01-08T09:05:46Z</time>
      </trkpt>
      <trkpt lat="37.314239" lon="-4.340555">
        <ele>500.537</ele>
        <time>2017-01-08T09:05:56Z</time>
      </trkpt>
      <trkpt lat="37.314233" lon="-4.340539">
        <ele>500.022</ele>
        <time>2017-01-08T09:05:57Z</time>
      </trkpt>
      <trkpt lat="37.314229" lon="-4.340522">
        <ele>500.031</ele>
        <time>2017-01-08T09:05:58Z</time>
      </trkpt>
      <trkpt lat="37.314226" lon="-4.340503">
        <ele>500.016</ele>
        <time>2017-01-08T09:05:59Z</time>
      </trkpt>
      <trkpt lat="37.314224" lon="-4.340483">
        <ele>499.570</ele>
        <time>2017-01-08T09:06:00Z</time>
      </trkpt>
      <trkpt lat="37.314238" lon="-4.340224">
        <ele>496.257</ele>
        <time>2017-01-08T09:06:15Z</time>
      </trkpt>
      <trkpt lat="37.314290" lon="-4.339985">
        <ele>492.842</ele>
        <time>2017-01-08T09:06:29Z</time>
      </trkpt>
      <trkpt lat="37.314218" lon="-4.339713">
        <ele>489.922</ele>
        <time>2017-01-08T09:06:45Z</time>
      </trkpt>
      <trkpt lat="37.314111" lon="-4.339497">
        <ele>488.514</ele>
        <time>2017-01-08T09:07:00Z</time>
      </trkpt>
      <trkpt lat="37.313967" lon="-4.339262">
        <ele>487.108</ele>
        <time>2017-01-08T09:07:18Z</time>
      </trkpt>
      <trkpt lat="37.313886" lon="-4.339135">
        <ele>486.165</ele>
        <time>2017-01-08T09:07:27Z</time>
      </trkpt>
      <trkpt lat="37.313726" lon="-4.338870">
        <ele>484.660</ele>
        <time>2017-01-08T09:07:45Z</time>
      </trkpt>
      <trkpt lat="37.313621" lon="-4.338637">
        <ele>483.294</ele>
        <time>2017-01-08T09:07:59Z</time>
      </trkpt>
      <trkpt lat="37.313566" lon="-4.338292">
        <ele>481.369</ele>
        <time>2017-01-08T09:08:17Z</time>
      </trkpt>
      <trkpt lat="37.313596" lon="-4.338023">
        <ele>480.368</ele>
        <time>2017-01-08T09:08:32Z</time>
      </trkpt>
      <trkpt lat="37.313630" lon="-4.337809">
        <ele>479.453</ele>
        <time>2017-01-08T09:08:47Z</time>
      </trkpt>
      <trkpt lat="37.313659" lon="-4.337583">
        <ele>478.477</ele>
        <time>2017-01-08T09:09:01Z</time>
      </trkpt>
      <trkpt lat="37.313692" lon="-4.337339">
        <ele>477.494</ele>
        <time>2017-01-08T09:09:15Z</time>
      </trkpt>
      <trkpt lat="37.313712" lon="-4.337061">
        <ele>476.584</ele>
        <time>2017-01-08T09:09:32Z</time>
      </trkpt>
      <trkpt lat="37.313668" lon="-4.336742">
        <ele>475.507</ele>
        <time>2017-01-08T09:09:50Z</time>
      </trkpt>
      <trkpt lat="37.313649" lon="-4.336449">
        <ele>474.617</ele>
        <time>2017-01-08T09:10:07Z</time>
      </trkpt>
      <trkpt lat="37.313675" lon="-4.336205">
        <ele>473.608</ele>
        <time>2017-01-08T09:10:21Z</time>
      </trkpt>
      <trkpt lat="37.313715" lon="-4.335897">
        <ele>473.119</ele>
        <time>2017-01-08T09:10:38Z</time>
      </trkpt>
      <trkpt lat="37.313744" lon="-4.335626">
        <ele>472.674</ele>
        <time>2017-01-08T09:10:53Z</time>
      </trkpt>
      <trkpt lat="37.313797" lon="-4.335341">
        <ele>472.148</ele>
        <time>2017-01-08T09:11:10Z</time>
      </trkpt>
      <trkpt lat="37.313811" lon="-4.335056">
        <ele>471.743</ele>
        <time>2017-01-08T09:11:26Z</time>
      </trkpt>
      <trkpt lat="37.313804" lon="-4.335016">
        <ele>471.732</ele>
        <time>2017-01-08T09:11:29Z</time>
      </trkpt>
      <trkpt lat="37.313800" lon="-4.334999">
        <ele>471.737</ele>
        <time>2017-01-08T09:11:30Z</time>
      </trkpt>
      <trkpt lat="37.313797" lon="-4.334983">
        <ele>471.271</ele>
        <time>2017-01-08T09:11:31Z</time>
      </trkpt>
      <trkpt lat="37.313794" lon="-4.334967">
        <ele>471.278</ele>
        <time>2017-01-08T09:11:32Z</time>
      </trkpt>
      <trkpt lat="37.313789" lon="-4.334949">
        <ele>471.264</ele>
        <time>2017-01-08T09:11:33Z</time>
      </trkpt>
      <trkpt lat="37.313786" lon="-4.334932">
        <ele>471.206</ele>
        <time>2017-01-08T09:11:34Z</time>
      </trkpt>
      <trkpt lat="37.313782" lon="-4.334914">
        <ele>471.216</ele>
        <time>2017-01-08T09:11:35Z</time>
      </trkpt>
      <trkpt lat="37.313705" lon="-4.334592">
        <ele>471.208</ele>
        <time>2017-01-08T09:11:54Z</time>
      </trkpt>
      <trkpt lat="37.313617" lon="-4.334332">
        <ele>471.237</ele>
        <time>2017-01-08T09:12:09Z</time>
      </trkpt>
      <trkpt lat="37.313496" lon="-4.333986">
        <ele>470.292</ele>
        <time>2017-01-08T09:12:29Z</time>
      </trkpt>
      <trkpt lat="37.313470" lon="-4.333814">
        <ele>469.326</ele>
        <time>2017-01-08T09:12:41Z</time>
      </trkpt>
      <trkpt lat="37.313446" lon="-4.333487">
        <ele>466.931</ele>
        <time>2017-01-08T09:12:58Z</time>
      </trkpt>
      <trkpt lat="37.313457" lon="-4.333230">
        <ele>464.580</ele>
        <time>2017-01-08T09:13:14Z</time>
      </trkpt>
      <trkpt lat="37.313486" lon="-4.333073">
        <ele>459.715</ele>
        <time>2017-01-08T09:13:24Z</time>
      </trkpt>
      <trkpt lat="37.313488" lon="-4.333046">
        <ele>467.369</ele>
        <time>2017-01-08T09:13:26Z</time>
      </trkpt>
      <trkpt lat="37.313490" lon="-4.333034">
        <ele>462.116</ele>
        <time>2017-01-08T09:13:27Z</time>
      </trkpt>
      <trkpt lat="37.313530" lon="-4.332777">
        <ele>458.776</ele>
        <time>2017-01-08T09:13:41Z</time>
      </trkpt>
      <trkpt lat="37.313595" lon="-4.332477">
        <ele>455.390</ele>
        <time>2017-01-08T09:13:58Z</time>
      </trkpt>
      <trkpt lat="37.313629" lon="-4.332413">
        <ele>454.819</ele>
        <time>2017-01-08T09:14:03Z</time>
      </trkpt>
      <trkpt lat="37.313637" lon="-4.332401">
        <ele>454.808</ele>
        <time>2017-01-08T09:14:04Z</time>
      </trkpt>
      <trkpt lat="37.313645" lon="-4.332388">
        <ele>454.458</ele>
        <time>2017-01-08T09:14:05Z</time>
      </trkpt>
      <trkpt lat="37.313652" lon="-4.332375">
        <ele>454.493</ele>
        <time>2017-01-08T09:14:06Z</time>
      </trkpt>
      <trkpt lat="37.313659" lon="-4.332363">
        <ele>454.467</ele>
        <time>2017-01-08T09:14:07Z</time>
      </trkpt>
      <trkpt lat="37.313667" lon="-4.332352">
        <ele>454.432</ele>
        <time>2017-01-08T09:14:08Z</time>
      </trkpt>
      <trkpt lat="37.313675" lon="-4.332340">
        <ele>453.971</ele>
        <time>2017-01-08T09:14:09Z</time>
      </trkpt>
      <trkpt lat="37.313868" lon="-4.332169">
        <ele>452.036</ele>
        <time>2017-01-08T09:14:26Z</time>
      </trkpt>
      <trkpt lat="37.314034" lon="-4.332113">
        <ele>449.150</ele>
        <time>2017-01-08T09:14:41Z</time>
      </trkpt>
      <trkpt lat="37.314111" lon="-4.332064">
        <ele>449.137</ele>
        <time>2017-01-08T09:14:54Z</time>
      </trkpt>
      <trkpt lat="37.314370" lon="-4.332068">
        <ele>448.618</ele>
        <time>2017-01-08T09:15:13Z</time>
      </trkpt>
      <trkpt lat="37.314531" lon="-4.332087">
        <ele>454.898</ele>
        <time>2017-01-08T09:15:25Z</time>
      </trkpt>
      <trkpt lat="37.314534" lon="-4.332090">
        <ele>450.517</ele>
        <time>2017-01-08T09:15:26Z</time>
      </trkpt>
      <trkpt lat="37.314546" lon="-4.332093">
        <ele>450.008</ele>
        <time>2017-01-08T09:15:27Z</time>
      </trkpt>
      <trkpt lat="37.314562" lon="-4.332096">
        <ele>450.062</ele>
        <time>2017-01-08T09:15:28Z</time>
      </trkpt>
      <trkpt lat="37.314745" lon="-4.332083">
        <ele>450.017</ele>
        <time>2017-01-08T09:15:40Z</time>
      </trkpt>
      <trkpt lat="37.314958" lon="-4.332064">
        <ele>450.041</ele>
        <time>2017-01-08T09:15:55Z</time>
      </trkpt>
      <trkpt lat="37.315097" lon="-4.332084">
        <ele>450.026</ele>
        <time>2017-01-08T09:16:09Z</time>
      </trkpt>
      <trkpt lat="37.315152" lon="-4.332071">
        <ele>451.065</ele>
        <time>2017-01-08T09:16:13Z</time>
      </trkpt>
      <trkpt lat="37.315452" lon="-4.331969">
        <ele>452.020</ele>
        <time>2017-01-08T09:16:32Z</time>
      </trkpt>
      <trkpt lat="37.315565" lon="-4.331882">
        <ele>452.974</ele>
        <time>2017-01-08T09:16:44Z</time>
      </trkpt>
      <trkpt lat="37.315570" lon="-4.331873">
        <ele>452.951</ele>
        <time>2017-01-08T09:16:45Z</time>
      </trkpt>
      <trkpt lat="37.315579" lon="-4.331864">
        <ele>452.961</ele>
        <time>2017-01-08T09:16:46Z</time>
      </trkpt>
      <trkpt lat="37.315590" lon="-4.331854">
        <ele>452.921</ele>
        <time>2017-01-08T09:16:47Z</time>
      </trkpt>
      <trkpt lat="37.315806" lon="-4.331681">
        <ele>453.913</ele>
        <time>2017-01-08T09:17:05Z</time>
      </trkpt>
      <trkpt lat="37.315860" lon="-4.331618">
        <ele>454.408</ele>
        <time>2017-01-08T09:17:14Z</time>
      </trkpt>
      <trkpt lat="37.315869" lon="-4.331608">
        <ele>454.457</ele>
        <time>2017-01-08T09:17:15Z</time>
      </trkpt>
      <trkpt lat="37.315928" lon="-4.331542">
        <ele>454.422</ele>
        <time>2017-01-08T09:17:27Z</time>
      </trkpt>
      <trkpt lat="37.315938" lon="-4.331531">
        <ele>454.486</ele>
        <time>2017-01-08T09:17:28Z</time>
      </trkpt>
      <trkpt lat="37.315947" lon="-4.331519">
        <ele>454.471</ele>
        <time>2017-01-08T09:17:29Z</time>
      </trkpt>
      <trkpt lat="37.315958" lon="-4.331508">
        <ele>454.430</ele>
        <time>2017-01-08T09:17:30Z</time>
      </trkpt>
      <trkpt lat="37.315969" lon="-4.331499">
        <ele>454.495</ele>
        <time>2017-01-08T09:17:31Z</time>
      </trkpt>
      <trkpt lat="37.315981" lon="-4.331494">
        <ele>454.469</ele>
        <time>2017-01-08T09:17:32Z</time>
      </trkpt>
      <trkpt lat="37.315991" lon="-4.331489">
        <ele>454.466</ele>
        <time>2017-01-08T09:17:33Z</time>
      </trkpt>
      <trkpt lat="37.316003" lon="-4.331481">
        <ele>454.466</ele>
        <time>2017-01-08T09:17:34Z</time>
      </trkpt>
      <trkpt lat="37.316213" lon="-4.331364">
        <ele>454.429</ele>
        <time>2017-01-08T09:17:48Z</time>
      </trkpt>
      <trkpt lat="37.316441" lon="-4.331209">
        <ele>454.421</ele>
        <time>2017-01-08T09:18:06Z</time>
      </trkpt>
      <trkpt lat="37.316464" lon="-4.331195">
        <ele>453.908</ele>
        <time>2017-01-08T09:18:15Z</time>
      </trkpt>
      <trkpt lat="37.316479" lon="-4.331182">
        <ele>454.447</ele>
        <time>2017-01-08T09:18:17Z</time>
      </trkpt>
      <trkpt lat="37.316488" lon="-4.331168">
        <ele>454.462</ele>
        <time>2017-01-08T09:18:18Z</time>
      </trkpt>
      <trkpt lat="37.316496" lon="-4.331157">
        <ele>454.496</ele>
        <time>2017-01-08T09:18:19Z</time>
      </trkpt>
      <trkpt lat="37.316502" lon="-4.331146">
        <ele>454.461</ele>
        <time>2017-01-08T09:18:20Z</time>
      </trkpt>
      <trkpt lat="37.316508" lon="-4.331133">
        <ele>454.420</ele>
        <time>2017-01-08T09:18:21Z</time>
      </trkpt>
      <trkpt lat="37.316610" lon="-4.330998">
        <ele>453.955</ele>
        <time>2017-01-08T09:18:35Z</time>
      </trkpt>
      <trkpt lat="37.316615" lon="-4.330990">
        <ele>453.999</ele>
        <time>2017-01-08T09:18:36Z</time>
      </trkpt>
      <trkpt lat="37.316622" lon="-4.330974">
        <ele>453.946</ele>
        <time>2017-01-08T09:18:37Z</time>
      </trkpt>
      <trkpt lat="37.316744" lon="-4.330749">
        <ele>454.467</ele>
        <time>2017-01-08T09:18:53Z</time>
      </trkpt>
      <trkpt lat="37.316757" lon="-4.330737">
        <ele>454.481</ele>
        <time>2017-01-08T09:18:56Z</time>
      </trkpt>
      <trkpt lat="37.316769" lon="-4.330713">
        <ele>454.419</ele>
        <time>2017-01-08T09:18:58Z</time>
      </trkpt>
      <trkpt lat="37.316787" lon="-4.330566">
        <ele>452.908</ele>
        <time>2017-01-08T09:19:09Z</time>
      </trkpt>
      <trkpt lat="37.316793" lon="-4.330564">
        <ele>454.497</ele>
        <time>2017-01-08T09:19:17Z</time>
      </trkpt>
      <trkpt lat="37.316790" lon="-4.330534">
        <ele>452.942</ele>
        <time>2017-01-08T09:19:43Z</time>
      </trkpt>
      <trkpt lat="37.316798" lon="-4.330523">
        <ele>452.976</ele>
        <time>2017-01-08T09:19:44Z</time>
      </trkpt>
      <trkpt lat="37.316861" lon="-4.330429">
        <ele>452.941</ele>
        <time>2017-01-08T09:19:52Z</time>
      </trkpt>
      <trkpt lat="37.316863" lon="-4.330413">
        <ele>452.930</ele>
        <time>2017-01-08T09:19:53Z</time>
      </trkpt>
      <trkpt lat="37.316863" lon="-4.330397">
        <ele>452.915</ele>
        <time>2017-01-08T09:19:54Z</time>
      </trkpt>
      <trkpt lat="37.316877" lon="-4.330297">
        <ele>452.919</ele>
        <time>2017-01-08T09:20:02Z</time>
      </trkpt>
      <trkpt lat="37.316901" lon="-4.330265">
        <ele>452.986</ele>
        <time>2017-01-08T09:20:12Z</time>
      </trkpt>
      <trkpt lat="37.316907" lon="-4.330244">
        <ele>452.996</ele>
        <time>2017-01-08T09:20:28Z</time>
      </trkpt>
      <trkpt lat="37.316942" lon="-4.330125">
        <ele>452.431</ele>
        <time>2017-01-08T09:20:52Z</time>
      </trkpt>
      <trkpt lat="37.316990" lon="-4.330031">
        <ele>452.424</ele>
        <time>2017-01-08T09:21:06Z</time>
      </trkpt>
      <trkpt lat="37.317018" lon="-4.329995">
        <ele>452.408</ele>
        <time>2017-01-08T09:21:13Z</time>
      </trkpt>
      <trkpt lat="37.317027" lon="-4.329984">
        <ele>452.430</ele>
        <time>2017-01-08T09:21:14Z</time>
      </trkpt>
      <trkpt lat="37.317088" lon="-4.329882">
        <ele>452.425</ele>
        <time>2017-01-08T09:21:26Z</time>
      </trkpt>
      <trkpt lat="37.317221" lon="-4.329694">
        <ele>452.429</ele>
        <time>2017-01-08T09:21:41Z</time>
      </trkpt>
      <trkpt lat="37.317353" lon="-4.329483">
        <ele>452.084</ele>
        <time>2017-01-08T09:21:56Z</time>
      </trkpt>
      <trkpt lat="37.317476" lon="-4.329325">
        <ele>450.533</ele>
        <time>2017-01-08T09:22:08Z</time>
      </trkpt>
      <trkpt lat="37.317490" lon="-4.329317">
        <ele>450.538</ele>
        <time>2017-01-08T09:22:09Z</time>
      </trkpt>
      <trkpt lat="37.317502" lon="-4.329306">
        <ele>449.192</ele>
        <time>2017-01-08T09:22:10Z</time>
      </trkpt>
      <trkpt lat="37.317514" lon="-4.329289">
        <ele>448.689</ele>
        <time>2017-01-08T09:22:11Z</time>
      </trkpt>
      <trkpt lat="37.317526" lon="-4.329272">
        <ele>448.659</ele>
        <time>2017-01-08T09:22:12Z</time>
      </trkpt>
      <trkpt lat="37.317538" lon="-4.329261">
        <ele>451.503</ele>
        <time>2017-01-08T09:22:13Z</time>
      </trkpt>
      <trkpt lat="37.317553" lon="-4.329254">
        <ele>450.023</ele>
        <time>2017-01-08T09:22:14Z</time>
      </trkpt>
      <trkpt lat="37.317566" lon="-4.329250">
        <ele>450.008</ele>
        <time>2017-01-08T09:22:15Z</time>
      </trkpt>
      <trkpt lat="37.317580" lon="-4.329240">
        <ele>449.616</ele>
        <time>2017-01-08T09:22:16Z</time>
      </trkpt>
      <trkpt lat="37.317595" lon="-4.329226">
        <ele>449.651</ele>
        <time>2017-01-08T09:22:17Z</time>
      </trkpt>
      <trkpt lat="37.317609" lon="-4.329215">
        <ele>449.685</ele>
        <time>2017-01-08T09:22:18Z</time>
      </trkpt>
      <trkpt lat="37.317624" lon="-4.329206">
        <ele>449.660</ele>
        <time>2017-01-08T09:22:19Z</time>
      </trkpt>
      <trkpt lat="37.317638" lon="-4.329199">
        <ele>449.619</ele>
        <time>2017-01-08T09:22:20Z</time>
      </trkpt>
      <trkpt lat="37.317724" lon="-4.329144">
        <ele>449.614</ele>
        <time>2017-01-08T09:22:32Z</time>
      </trkpt>
      <trkpt lat="37.317783" lon="-4.329093">
        <ele>449.668</ele>
        <time>2017-01-08T09:22:45Z</time>
      </trkpt>
      <trkpt lat="37.317993" lon="-4.329016">
        <ele>449.645</ele>
        <time>2017-01-08T09:22:59Z</time>
      </trkpt>
      <trkpt lat="37.318211" lon="-4.328903">
        <ele>451.044</ele>
        <time>2017-01-08T09:23:14Z</time>
      </trkpt>
      <trkpt lat="37.318439" lon="-4.328775">
        <ele>451.005</ele>
        <time>2017-01-08T09:23:32Z</time>
      </trkpt>
      <trkpt lat="37.318580" lon="-4.328657">
        <ele>451.015</ele>
        <time>2017-01-08T09:23:47Z</time>
      </trkpt>
      <trkpt lat="37.318589" lon="-4.328649">
        <ele>451.008</ele>
        <time>2017-01-08T09:23:48Z</time>
      </trkpt>
      <trkpt lat="37.318691" lon="-4.328504">
        <ele>452.965</ele>
        <time>2017-01-08T09:24:01Z</time>
      </trkpt>
      <trkpt lat="37.318719" lon="-4.328497">
        <ele>451.560</ele>
        <time>2017-01-08T09:24:15Z</time>
      </trkpt>
      <trkpt lat="37.318735" lon="-4.328471">
        <ele>451.524</ele>
        <time>2017-01-08T09:24:18Z</time>
      </trkpt>
      <trkpt lat="37.318741" lon="-4.328459">
        <ele>451.599</ele>
        <time>2017-01-08T09:24:19Z</time>
      </trkpt>
      <trkpt lat="37.318793" lon="-4.328400">
        <ele>451.018</ele>
        <time>2017-01-08T09:24:28Z</time>
      </trkpt>
      <trkpt lat="37.318802" lon="-4.328385">
        <ele>451.033</ele>
        <time>2017-01-08T09:24:29Z</time>
      </trkpt>
      <trkpt lat="37.318811" lon="-4.328375">
        <ele>451.077</ele>
        <time>2017-01-08T09:24:30Z</time>
      </trkpt>
      <trkpt lat="37.318822" lon="-4.328365">
        <ele>451.064</ele>
        <time>2017-01-08T09:24:31Z</time>
      </trkpt>
      <trkpt lat="37.318836" lon="-4.328352">
        <ele>451.063</ele>
        <time>2017-01-08T09:24:32Z</time>
      </trkpt>
      <trkpt lat="37.318852" lon="-4.328339">
        <ele>451.044</ele>
        <time>2017-01-08T09:24:33Z</time>
      </trkpt>
      <trkpt lat="37.318996" lon="-4.328127">
        <ele>450.518</ele>
        <time>2017-01-08T09:24:47Z</time>
      </trkpt>
      <trkpt lat="37.319107" lon="-4.327999">
        <ele>449.608</ele>
        <time>2017-01-08T09:24:57Z</time>
      </trkpt>
      <trkpt lat="37.319174" lon="-4.327972">
        <ele>449.657</ele>
        <time>2017-01-08T09:25:02Z</time>
      </trkpt>
      <trkpt lat="37.319186" lon="-4.327964">
        <ele>449.672</ele>
        <time>2017-01-08T09:25:03Z</time>
      </trkpt>
      <trkpt lat="37.319211" lon="-4.327949">
        <ele>449.616</ele>
        <time>2017-01-08T09:25:05Z</time>
      </trkpt>
      <trkpt lat="37.319225" lon="-4.327941">
        <ele>449.691</ele>
        <time>2017-01-08T09:25:06Z</time>
      </trkpt>
      <trkpt lat="37.319238" lon="-4.327930">
        <ele>449.620</ele>
        <time>2017-01-08T09:25:07Z</time>
      </trkpt>
      <trkpt lat="37.319284" lon="-4.327896">
        <ele>449.635</ele>
        <time>2017-01-08T09:25:11Z</time>
      </trkpt>
      <trkpt lat="37.319300" lon="-4.327891">
        <ele>449.679</ele>
        <time>2017-01-08T09:25:12Z</time>
      </trkpt>
      <trkpt lat="37.319402" lon="-4.327847">
        <ele>450.566</ele>
        <time>2017-01-08T09:25:19Z</time>
      </trkpt>
      <trkpt lat="37.319559" lon="-4.327800">
        <ele>451.549</ele>
        <time>2017-01-08T09:25:34Z</time>
      </trkpt>
      <trkpt lat="37.319717" lon="-4.327799">
        <ele>451.002</ele>
        <time>2017-01-08T09:25:47Z</time>
      </trkpt>
      <trkpt lat="37.319841" lon="-4.327769">
        <ele>451.522</ele>
        <time>2017-01-08T09:25:59Z</time>
      </trkpt>
      <trkpt lat="37.320140" lon="-4.327709">
        <ele>451.508</ele>
        <time>2017-01-08T09:26:16Z</time>
      </trkpt>
      <trkpt lat="37.320255" lon="-4.327667">
        <ele>451.595</ele>
        <time>2017-01-08T09:26:23Z</time>
      </trkpt>
      <trkpt lat="37.320270" lon="-4.327659">
        <ele>451.580</ele>
        <time>2017-01-08T09:26:24Z</time>
      </trkpt>
      <trkpt lat="37.320288" lon="-4.327652">
        <ele>451.584</ele>
        <time>2017-01-08T09:26:25Z</time>
      </trkpt>
      <trkpt lat="37.320384" lon="-4.327618">
        <ele>452.059</ele>
        <time>2017-01-08T09:26:31Z</time>
      </trkpt>
      <trkpt lat="37.320577" lon="-4.327550">
        <ele>451.548</ele>
        <time>2017-01-08T09:26:47Z</time>
      </trkpt>
      <trkpt lat="37.320653" lon="-4.327562">
        <ele>450.593</ele>
        <time>2017-01-08T09:26:53Z</time>
      </trkpt>
      <trkpt lat="37.320792" lon="-4.327538">
        <ele>451.597</ele>
        <time>2017-01-08T09:27:08Z</time>
      </trkpt>
      <trkpt lat="37.320904" lon="-4.327549">
        <ele>451.524</ele>
        <time>2017-01-08T09:27:21Z</time>
      </trkpt>
      <trkpt lat="37.321106" lon="-4.327553">
        <ele>451.556</ele>
        <time>2017-01-08T09:27:37Z</time>
      </trkpt>
      <trkpt lat="37.321157" lon="-4.327509">
        <ele>452.059</ele>
        <time>2017-01-08T09:27:51Z</time>
      </trkpt>
      <trkpt lat="37.321207" lon="-4.327442">
        <ele>452.014</ele>
        <time>2017-01-08T09:28:03Z</time>
      </trkpt>
      <trkpt lat="37.321236" lon="-4.327419">
        <ele>451.508</ele>
        <time>2017-01-08T09:28:07Z</time>
      </trkpt>
      <trkpt lat="37.321255" lon="-4.327404">
        <ele>451.576</ele>
        <time>2017-01-08T09:28:09Z</time>
      </trkpt>
      <trkpt lat="37.321265" lon="-4.327396">
        <ele>451.521</ele>
        <time>2017-01-08T09:28:10Z</time>
      </trkpt>
      <trkpt lat="37.321276" lon="-4.327384">
        <ele>451.555</ele>
        <time>2017-01-08T09:28:11Z</time>
      </trkpt>
      <trkpt lat="37.321292" lon="-4.327373">
        <ele>451.530</ele>
        <time>2017-01-08T09:28:12Z</time>
      </trkpt>
      <trkpt lat="37.321304" lon="-4.327359">
        <ele>451.549</ele>
        <time>2017-01-08T09:28:13Z</time>
      </trkpt>
      <trkpt lat="37.321341" lon="-4.327313">
        <ele>451.524</ele>
        <time>2017-01-08T09:28:18Z</time>
      </trkpt>
      <trkpt lat="37.321365" lon="-4.327301">
        <ele>452.428</ele>
        <time>2017-01-08T09:28:31Z</time>
      </trkpt>
      <trkpt lat="37.321388" lon="-4.327356">
        <ele>452.495</ele>
        <time>2017-01-08T09:28:45Z</time>
      </trkpt>
      <trkpt lat="37.321408" lon="-4.327361">
        <ele>452.468</ele>
        <time>2017-01-08T09:28:47Z</time>
      </trkpt>
      <trkpt lat="37.321463" lon="-4.327358">
        <ele>452.442</ele>
        <time>2017-01-08T09:28:52Z</time>
      </trkpt>
      <trkpt lat="37.321553" lon="-4.327358">
        <ele>452.426</ele>
        <time>2017-01-08T09:29:04Z</time>
      </trkpt>
      <trkpt lat="37.321616" lon="-4.327308">
        <ele>455.308</ele>
        <time>2017-01-08T09:29:15Z</time>
      </trkpt>
      <trkpt lat="37.321734" lon="-4.327306">
        <ele>458.747</ele>
        <time>2017-01-08T09:29:29Z</time>
      </trkpt>
      <trkpt lat="37.321748" lon="-4.327346">
        <ele>459.792</ele>
        <time>2017-01-08T09:29:44Z</time>
      </trkpt>
      <trkpt lat="37.321795" lon="-4.327341">
        <ele>459.786</ele>
        <time>2017-01-08T09:29:56Z</time>
      </trkpt>
      <trkpt lat="37.321824" lon="-4.327365">
        <ele>459.751</ele>
        <time>2017-01-08T09:30:00Z</time>
      </trkpt>
      <trkpt lat="37.321853" lon="-4.327386">
        <ele>461.150</ele>
        <time>2017-01-08T09:30:09Z</time>
      </trkpt>
      <trkpt lat="37.321884" lon="-4.327388">
        <ele>463.035</ele>
        <time>2017-01-08T09:30:24Z</time>
      </trkpt>
      <trkpt lat="37.321972" lon="-4.327382">
        <ele>464.919</ele>
        <time>2017-01-08T09:30:41Z</time>
      </trkpt>
      <trkpt lat="37.322005" lon="-4.327359">
        <ele>466.946</ele>
        <time>2017-01-08T09:30:54Z</time>
      </trkpt>
      <trkpt lat="37.322033" lon="-4.327312">
        <ele>466.482</ele>
        <time>2017-01-08T09:31:15Z</time>
      </trkpt>
      <trkpt lat="37.322097" lon="-4.327291">
        <ele>467.343</ele>
        <time>2017-01-08T09:31:26Z</time>
      </trkpt>
      <trkpt lat="37.322095" lon="-4.327268">
        <ele>467.817</ele>
        <time>2017-01-08T09:31:36Z</time>
      </trkpt>
      <trkpt lat="37.322079" lon="-4.327292">
        <ele>467.808</ele>
        <time>2017-01-08T09:31:53Z</time>
      </trkpt>
      <trkpt lat="37.322053" lon="-4.327284">
        <ele>467.339</ele>
        <time>2017-01-08T09:32:21Z</time>
      </trkpt>
      <trkpt lat="37.322061" lon="-4.327293">
        <ele>467.384</ele>
        <time>2017-01-08T09:32:44Z</time>
      </trkpt>
      <trkpt lat="37.322101" lon="-4.327273">
        <ele>468.358</ele>
        <time>2017-01-08T09:32:58Z</time>
      </trkpt>
      <trkpt lat="37.322179" lon="-4.327235">
        <ele>469.323</ele>
        <time>2017-01-08T09:33:13Z</time>
      </trkpt>
      <trkpt lat="37.322192" lon="-4.327238">
        <ele>469.392</ele>
        <time>2017-01-08T09:33:26Z</time>
      </trkpt>
      <trkpt lat="37.322148" lon="-4.327155">
        <ele>469.717</ele>
        <time>2017-01-08T09:33:42Z</time>
      </trkpt>
      <trkpt lat="37.322212" lon="-4.327194">
        <ele>470.281</ele>
        <time>2017-01-08T09:33:53Z</time>
      </trkpt>
      <trkpt lat="37.322203" lon="-4.327216">
        <ele>468.878</ele>
        <time>2017-01-08T09:34:06Z</time>
      </trkpt>
      <trkpt lat="37.322220" lon="-4.327199">
        <ele>469.743</ele>
        <time>2017-01-08T09:34:15Z</time>
      </trkpt>
      <trkpt lat="37.322240" lon="-4.327182">
        <ele>471.264</ele>
        <time>2017-01-08T09:34:21Z</time>
      </trkpt>
      <trkpt lat="37.322249" lon="-4.327157">
        <ele>472.110</ele>
        <time>2017-01-08T09:34:36Z</time>
      </trkpt>
      <trkpt lat="37.322273" lon="-4.327242">
        <ele>472.108</ele>
        <time>2017-01-08T09:35:01Z</time>
      </trkpt>
      <trkpt lat="37.322327" lon="-4.327178">
        <ele>472.635</ele>
        <time>2017-01-08T09:35:27Z</time>
      </trkpt>
      <trkpt lat="37.322318" lon="-4.327112">
        <ele>473.170</ele>
        <time>2017-01-08T09:35:44Z</time>
      </trkpt>
      <trkpt lat="37.322352" lon="-4.327120">
        <ele>474.184</ele>
        <time>2017-01-08T09:35:57Z</time>
      </trkpt>
      <trkpt lat="37.322383" lon="-4.327077">
        <ele>475.069</ele>
        <time>2017-01-08T09:36:14Z</time>
      </trkpt>
      <trkpt lat="37.322436" lon="-4.327061">
        <ele>478.468</ele>
        <time>2017-01-08T09:36:25Z</time>
      </trkpt>
      <trkpt lat="37.322503" lon="-4.327046">
        <ele>481.373</ele>
        <time>2017-01-08T09:36:36Z</time>
      </trkpt>
      <trkpt lat="37.322521" lon="-4.327005">
        <ele>484.287</ele>
        <time>2017-01-08T09:36:48Z</time>
      </trkpt>
      <trkpt lat="37.322506" lon="-4.327039">
        <ele>484.624</ele>
        <time>2017-01-08T09:37:06Z</time>
      </trkpt>
      <trkpt lat="37.322553" lon="-4.327022">
        <ele>487.518</ele>
        <time>2017-01-08T09:37:28Z</time>
      </trkpt>
      <trkpt lat="37.322551" lon="-4.327018">
        <ele>488.598</ele>
        <time>2017-01-08T09:37:43Z</time>
      </trkpt>
      <trkpt lat="37.322565" lon="-4.327023">
        <ele>491.417</ele>
        <time>2017-01-08T09:37:56Z</time>
      </trkpt>
      <trkpt lat="37.322564" lon="-4.327015">
        <ele>488.008</ele>
        <time>2017-01-08T09:37:57Z</time>
      </trkpt>
      <trkpt lat="37.322594" lon="-4.327016">
        <ele>489.592</ele>
        <time>2017-01-08T09:38:05Z</time>
      </trkpt>
      <trkpt lat="37.322648" lon="-4.327038">
        <ele>492.837</ele>
        <time>2017-01-08T09:38:16Z</time>
      </trkpt>
      <trkpt lat="37.322620" lon="-4.326973">
        <ele>493.351</ele>
        <time>2017-01-08T09:38:33Z</time>
      </trkpt>
      <trkpt lat="37.322662" lon="-4.326946">
        <ele>496.716</ele>
        <time>2017-01-08T09:38:48Z</time>
      </trkpt>
      <trkpt lat="37.322654" lon="-4.326997">
        <ele>497.195</ele>
        <time>2017-01-08T09:39:07Z</time>
      </trkpt>
      <trkpt lat="37.322629" lon="-4.326952">
        <ele>497.140</ele>
        <time>2017-01-08T09:39:23Z</time>
      </trkpt>
      <trkpt lat="37.322614" lon="-4.326892">
        <ele>498.164</ele>
        <time>2017-01-08T09:39:44Z</time>
      </trkpt>
      <trkpt lat="37.322579" lon="-4.326839">
        <ele>499.531</ele>
        <time>2017-01-08T09:39:59Z</time>
      </trkpt>
      <trkpt lat="37.322603" lon="-4.326822">
        <ele>499.517</ele>
        <time>2017-01-08T09:40:12Z</time>
      </trkpt>
      <trkpt lat="37.322610" lon="-4.326782">
        <ele>501.587</ele>
        <time>2017-01-08T09:40:18Z</time>
      </trkpt>
      <trkpt lat="37.322642" lon="-4.326709">
        <ele>504.815</ele>
        <time>2017-01-08T09:40:29Z</time>
      </trkpt>
      <trkpt lat="37.322639" lon="-4.326630">
        <ele>506.808</ele>
        <time>2017-01-08T09:40:41Z</time>
      </trkpt>
      <trkpt lat="37.322650" lon="-4.326663">
        <ele>506.842</ele>
        <time>2017-01-08T09:40:57Z</time>
      </trkpt>
      <trkpt lat="37.322670" lon="-4.326666">
        <ele>505.377</ele>
        <time>2017-01-08T09:41:12Z</time>
      </trkpt>
      <trkpt lat="37.322670" lon="-4.326668">
        <ele>508.731</ele>
        <time>2017-01-08T09:41:13Z</time>
      </trkpt>
      <trkpt lat="37.322673" lon="-4.326668">
        <ele>506.876</ele>
        <time>2017-01-08T09:41:14Z</time>
      </trkpt>
      <trkpt lat="37.322675" lon="-4.326591">
        <ele>508.245</ele>
        <time>2017-01-08T09:41:23Z</time>
      </trkpt>
      <trkpt lat="37.322657" lon="-4.326471">
        <ele>508.270</ele>
        <time>2017-01-08T09:41:35Z</time>
      </trkpt>
      <trkpt lat="37.322654" lon="-4.326437">
        <ele>508.224</ele>
        <time>2017-01-08T09:41:39Z</time>
      </trkpt>
      <trkpt lat="37.322682" lon="-4.326365">
        <ele>508.771</ele>
        <time>2017-01-08T09:41:52Z</time>
      </trkpt>
      <trkpt lat="37.322695" lon="-4.326319">
        <ele>508.786</ele>
        <time>2017-01-08T09:42:05Z</time>
      </trkpt>
      <trkpt lat="37.322747" lon="-4.326382">
        <ele>508.260</ele>
        <time>2017-01-08T09:42:23Z</time>
      </trkpt>
      <trkpt lat="37.322741" lon="-4.326388">
        <ele>511.126</ele>
        <time>2017-01-08T09:42:24Z</time>
      </trkpt>
      <trkpt lat="37.322730" lon="-4.326437">
        <ele>509.208</ele>
        <time>2017-01-08T09:42:49Z</time>
      </trkpt>
      <trkpt lat="37.322716" lon="-4.326323">
        <ele>508.779</ele>
        <time>2017-01-08T09:43:10Z</time>
      </trkpt>
      <trkpt lat="37.322745" lon="-4.326333">
        <ele>510.194</ele>
        <time>2017-01-08T09:43:15Z</time>
      </trkpt>
      <trkpt lat="37.322809" lon="-4.326279">
        <ele>514.098</ele>
        <time>2017-01-08T09:43:30Z</time>
      </trkpt>
      <trkpt lat="37.322932" lon="-4.326380">
        <ele>514.933</ele>
        <time>2017-01-08T09:43:49Z</time>
      </trkpt>
      <trkpt lat="37.322948" lon="-4.326400">
        <ele>516.912</ele>
        <time>2017-01-08T09:44:00Z</time>
      </trkpt>
      <trkpt lat="37.322987" lon="-4.326397">
        <ele>519.397</ele>
        <time>2017-01-08T09:44:16Z</time>
      </trkpt>
      <trkpt lat="37.323014" lon="-4.326370">
        <ele>520.211</ele>
        <time>2017-01-08T09:44:32Z</time>
      </trkpt>
      <trkpt lat="37.323041" lon="-4.326304">
        <ele>522.138</ele>
        <time>2017-01-08T09:44:48Z</time>
      </trkpt>
      <trkpt lat="37.323042" lon="-4.326267">
        <ele>522.676</ele>
        <time>2017-01-08T09:45:07Z</time>
      </trkpt>
      <trkpt lat="37.322991" lon="-4.326232">
        <ele>519.390</ele>
        <time>2017-01-08T09:45:21Z</time>
      </trkpt>
      <trkpt lat="37.322997" lon="-4.326240">
        <ele>526.519</ele>
        <time>2017-01-08T09:45:22Z</time>
      </trkpt>
      <trkpt lat="37.323000" lon="-4.326247">
        <ele>522.608</ele>
        <time>2017-01-08T09:45:23Z</time>
      </trkpt>
      <trkpt lat="37.322980" lon="-4.326166">
        <ele>520.758</ele>
        <time>2017-01-08T09:45:35Z</time>
      </trkpt>
      <trkpt lat="37.322974" lon="-4.326086">
        <ele>521.253</ele>
        <time>2017-01-08T09:45:50Z</time>
      </trkpt>
      <trkpt lat="37.323016" lon="-4.326156">
        <ele>521.277</ele>
        <time>2017-01-08T09:46:11Z</time>
      </trkpt>
      <trkpt lat="37.323037" lon="-4.326124">
        <ele>521.232</ele>
        <time>2017-01-08T09:46:29Z</time>
      </trkpt>
      <trkpt lat="37.323039" lon="-4.326107">
        <ele>522.121</ele>
        <time>2017-01-08T09:46:32Z</time>
      </trkpt>
      <trkpt lat="37.323065" lon="-4.326057">
        <ele>525.576</ele>
        <time>2017-01-08T09:46:42Z</time>
      </trkpt>
      <trkpt lat="37.323123" lon="-4.326088">
        <ele>527.970</ele>
        <time>2017-01-08T09:46:54Z</time>
      </trkpt>
      <trkpt lat="37.323128" lon="-4.326015">
        <ele>529.817</ele>
        <time>2017-01-08T09:47:07Z</time>
      </trkpt>
      <trkpt lat="37.323144" lon="-4.325955">
        <ele>529.862</ele>
        <time>2017-01-08T09:47:25Z</time>
      </trkpt>
      <trkpt lat="37.323050" lon="-4.325930">
        <ele>530.883</ele>
        <time>2017-01-08T09:47:35Z</time>
      </trkpt>
      <trkpt lat="37.323034" lon="-4.325919">
        <ele>533.711</ele>
        <time>2017-01-08T09:47:49Z</time>
      </trkpt>
      <trkpt lat="37.323056" lon="-4.325878">
        <ele>536.608</ele>
        <time>2017-01-08T09:48:01Z</time>
      </trkpt>
      <trkpt lat="37.323177" lon="-4.325896">
        <ele>536.677</ele>
        <time>2017-01-08T09:48:18Z</time>
      </trkpt>
      <trkpt lat="37.323182" lon="-4.325852">
        <ele>535.612</ele>
        <time>2017-01-08T09:48:31Z</time>
      </trkpt>
      <trkpt lat="37.323154" lon="-4.325918">
        <ele>536.676</ele>
        <time>2017-01-08T09:48:43Z</time>
      </trkpt>
      <trkpt lat="37.323122" lon="-4.325897">
        <ele>535.691</ele>
        <time>2017-01-08T09:49:00Z</time>
      </trkpt>
      <trkpt lat="37.323149" lon="-4.325892">
        <ele>535.120</ele>
        <time>2017-01-08T09:49:13Z</time>
      </trkpt>
      <trkpt lat="37.323155" lon="-4.325854">
        <ele>535.115</ele>
        <time>2017-01-08T09:49:42Z</time>
      </trkpt>
      <trkpt lat="37.323084" lon="-4.325887">
        <ele>536.179</ele>
        <time>2017-01-08T09:49:53Z</time>
      </trkpt>
      <trkpt lat="37.323083" lon="-4.325892">
        <ele>536.176</ele>
        <time>2017-01-08T09:49:54Z</time>
      </trkpt>
      <trkpt lat="37.323173" lon="-4.325996">
        <ele>536.697</ele>
        <time>2017-01-08T09:50:18Z</time>
      </trkpt>
      <trkpt lat="37.323169" lon="-4.325983">
        <ele>536.623</ele>
        <time>2017-01-08T09:50:31Z</time>
      </trkpt>
      <trkpt lat="37.323160" lon="-4.325967">
        <ele>536.625</ele>
        <time>2017-01-08T09:50:39Z</time>
      </trkpt>
      <trkpt lat="37.323166" lon="-4.325983">
        <ele>536.608</ele>
        <time>2017-01-08T09:50:51Z</time>
      </trkpt>
      <trkpt lat="37.323169" lon="-4.325935">
        <ele>536.610</ele>
        <time>2017-01-08T09:51:14Z</time>
      </trkpt>
      <trkpt lat="37.323221" lon="-4.325939">
        <ele>537.045</ele>
        <time>2017-01-08T09:51:29Z</time>
      </trkpt>
      <trkpt lat="37.323271" lon="-4.325970">
        <ele>536.149</ele>
        <time>2017-01-08T09:51:38Z</time>
      </trkpt>
      <trkpt lat="37.323302" lon="-4.326041">
        <ele>536.134</ele>
        <time>2017-01-08T09:52:04Z</time>
      </trkpt>
      <trkpt lat="37.323188" lon="-4.325943">
        <ele>536.143</ele>
        <time>2017-01-08T09:52:23Z</time>
      </trkpt>
      <trkpt lat="37.323142" lon="-4.325909">
        <ele>529.828</ele>
        <time>2017-01-08T09:52:49Z</time>
      </trkpt>
      <trkpt lat="37.323143" lon="-4.325913">
        <ele>541.862</ele>
        <time>2017-01-08T09:52:50Z</time>
      </trkpt>
      <trkpt lat="37.323143" lon="-4.325920">
        <ele>536.189</ele>
        <time>2017-01-08T09:52:51Z</time>
      </trkpt>
      <trkpt lat="37.323149" lon="-4.325807">
        <ele>535.132</ele>
        <time>2017-01-08T09:53:05Z</time>
      </trkpt>
      <trkpt lat="37.323213" lon="-4.325780">
        <ele>533.792</ele>
        <time>2017-01-08T09:53:20Z</time>
      </trkpt>
      <trkpt lat="37.323265" lon="-4.325824">
        <ele>533.211</ele>
        <time>2017-01-08T09:53:34Z</time>
      </trkpt>
      <trkpt lat="37.323278" lon="-4.325827">
        <ele>534.608</ele>
        <time>2017-01-08T09:53:38Z</time>
      </trkpt>
      <trkpt lat="37.323255" lon="-4.325786">
        <ele>534.624</ele>
        <time>2017-01-08T09:53:58Z</time>
      </trkpt>
      <trkpt lat="37.323316" lon="-4.325760">
        <ele>534.689</ele>
        <time>2017-01-08T09:54:10Z</time>
      </trkpt>
      <trkpt lat="37.323395" lon="-4.325736">
        <ele>535.623</ele>
        <time>2017-01-08T09:54:23Z</time>
      </trkpt>
      <trkpt lat="37.323476" lon="-4.325709">
        <ele>536.168</ele>
        <time>2017-01-08T09:54:42Z</time>
      </trkpt>
      <trkpt lat="37.323419" lon="-4.325707">
        <ele>537.017</ele>
        <time>2017-01-08T09:54:57Z</time>
      </trkpt>
      <trkpt lat="37.323317" lon="-4.325655">
        <ele>537.082</ele>
        <time>2017-01-08T09:55:10Z</time>
      </trkpt>
      <trkpt lat="37.323309" lon="-4.325647">
        <ele>535.626</ele>
        <time>2017-01-08T09:55:19Z</time>
      </trkpt>
      <trkpt lat="37.323314" lon="-4.325631">
        <ele>537.083</ele>
        <time>2017-01-08T09:55:21Z</time>
      </trkpt>
      <trkpt lat="37.323371" lon="-4.325549">
        <ele>538.556</ele>
        <time>2017-01-08T09:55:33Z</time>
      </trkpt>
      <trkpt lat="37.323462" lon="-4.325513">
        <ele>540.959</ele>
        <time>2017-01-08T09:55:43Z</time>
      </trkpt>
      <trkpt lat="37.323543" lon="-4.325490">
        <ele>543.814</ele>
        <time>2017-01-08T09:55:56Z</time>
      </trkpt>
      <trkpt lat="37.323515" lon="-4.325467">
        <ele>543.808</ele>
        <time>2017-01-08T09:56:11Z</time>
      </trkpt>
      <trkpt lat="37.323555" lon="-4.325406">
        <ele>544.746</ele>
        <time>2017-01-08T09:56:25Z</time>
      </trkpt>
      <trkpt lat="37.323537" lon="-4.325438">
        <ele>545.281</ele>
        <time>2017-01-08T09:56:45Z</time>
      </trkpt>
      <trkpt lat="37.323568" lon="-4.325356">
        <ele>545.285</ele>
        <time>2017-01-08T09:56:58Z</time>
      </trkpt>
      <trkpt lat="37.323555" lon="-4.325281">
        <ele>545.750</ele>
        <time>2017-01-08T09:57:09Z</time>
      </trkpt>
      <trkpt lat="37.323565" lon="-4.325266">
        <ele>544.219</ele>
        <time>2017-01-08T09:57:12Z</time>
      </trkpt>
      <trkpt lat="37.323627" lon="-4.325261">
        <ele>545.734</ele>
        <time>2017-01-08T09:57:25Z</time>
      </trkpt>
      <trkpt lat="37.323680" lon="-4.325190">
        <ele>546.758</ele>
        <time>2017-01-08T09:57:37Z</time>
      </trkpt>
      <trkpt lat="37.323731" lon="-4.325135">
        <ele>544.715</ele>
        <time>2017-01-08T09:57:49Z</time>
      </trkpt>
      <trkpt lat="37.323737" lon="-4.325122">
        <ele>544.782</ele>
        <time>2017-01-08T09:58:09Z</time>
      </trkpt>
      <trkpt lat="37.323782" lon="-4.325062">
        <ele>544.743</ele>
        <time>2017-01-08T09:58:20Z</time>
      </trkpt>
      <trkpt lat="37.323796" lon="-4.325001">
        <ele>544.717</ele>
        <time>2017-01-08T09:58:28Z</time>
      </trkpt>
      <trkpt lat="37.323807" lon="-4.324905">
        <ele>545.708</ele>
        <time>2017-01-08T09:58:38Z</time>
      </trkpt>
      <trkpt lat="37.323822" lon="-4.324853">
        <ele>546.789</ele>
        <time>2017-01-08T09:58:48Z</time>
      </trkpt>
      <trkpt lat="37.323831" lon="-4.324833">
        <ele>546.764</ele>
        <time>2017-01-08T09:59:07Z</time>
      </trkpt>
      <trkpt lat="37.323878" lon="-4.324791">
        <ele>547.678</ele>
        <time>2017-01-08T09:59:19Z</time>
      </trkpt>
      <trkpt lat="37.323883" lon="-4.324795">
        <ele>547.683</ele>
        <time>2017-01-08T09:59:20Z</time>
      </trkpt>
      <trkpt lat="37.323857" lon="-4.324786">
        <ele>547.652</ele>
        <time>2017-01-08T09:59:26Z</time>
      </trkpt>
      <trkpt lat="37.323829" lon="-4.324724">
        <ele>547.657</ele>
        <time>2017-01-08T09:59:40Z</time>
      </trkpt>
      <trkpt lat="37.323834" lon="-4.324718">
        <ele>546.781</ele>
        <time>2017-01-08T09:59:47Z</time>
      </trkpt>
      <trkpt lat="37.323792" lon="-4.324634">
        <ele>544.728</ele>
        <time>2017-01-08T10:00:00Z</time>
      </trkpt>
      <trkpt lat="37.323763" lon="-4.324545">
        <ele>542.832</ele>
        <time>2017-01-08T10:00:13Z</time>
      </trkpt>
      <trkpt lat="37.323762" lon="-4.324475">
        <ele>542.892</ele>
        <time>2017-01-08T10:00:25Z</time>
      </trkpt>
      <trkpt lat="37.323816" lon="-4.324394">
        <ele>542.311</ele>
        <time>2017-01-08T10:00:37Z</time>
      </trkpt>
      <trkpt lat="37.323762" lon="-4.324329">
        <ele>543.808</ele>
        <time>2017-01-08T10:00:49Z</time>
      </trkpt>
      <trkpt lat="37.323724" lon="-4.324255">
        <ele>543.854</ele>
        <time>2017-01-08T10:01:11Z</time>
      </trkpt>
      <trkpt lat="37.323739" lon="-4.324234">
        <ele>540.499</ele>
        <time>2017-01-08T10:01:21Z</time>
      </trkpt>
      <trkpt lat="37.323738" lon="-4.324232">
        <ele>546.263</ele>
        <time>2017-01-08T10:01:22Z</time>
      </trkpt>
      <trkpt lat="37.323738" lon="-4.324230">
        <ele>542.838</ele>
        <time>2017-01-08T10:01:23Z</time>
      </trkpt>
      <trkpt lat="37.323749" lon="-4.324161">
        <ele>542.867</ele>
        <time>2017-01-08T10:01:35Z</time>
      </trkpt>
      <trkpt lat="37.323770" lon="-4.324136">
        <ele>542.872</ele>
        <time>2017-01-08T10:01:45Z</time>
      </trkpt>
      <trkpt lat="37.323779" lon="-4.324080">
        <ele>543.826</ele>
        <time>2017-01-08T10:01:54Z</time>
      </trkpt>
      <trkpt lat="37.323796" lon="-4.324030">
        <ele>543.853</ele>
        <time>2017-01-08T10:02:06Z</time>
      </trkpt>
      <trkpt lat="37.323817" lon="-4.323974">
        <ele>543.395</ele>
        <time>2017-01-08T10:02:22Z</time>
      </trkpt>
      <trkpt lat="37.323890" lon="-4.323951">
        <ele>544.249</ele>
        <time>2017-01-08T10:02:36Z</time>
      </trkpt>
      <trkpt lat="37.323936" lon="-4.323876">
        <ele>544.223</ele>
        <time>2017-01-08T10:02:49Z</time>
      </trkpt>
      <trkpt lat="37.323909" lon="-4.323770">
        <ele>544.708</ele>
        <time>2017-01-08T10:03:02Z</time>
      </trkpt>
      <trkpt lat="37.323907" lon="-4.323759">
        <ele>544.270</ele>
        <time>2017-01-08T10:03:25Z</time>
      </trkpt>
      <trkpt lat="37.323962" lon="-4.323767">
        <ele>544.265</ele>
        <time>2017-01-08T10:03:39Z</time>
      </trkpt>
      <trkpt lat="37.323955" lon="-4.323691">
        <ele>544.729</ele>
        <time>2017-01-08T10:03:53Z</time>
      </trkpt>
      <trkpt lat="37.323975" lon="-4.323665">
        <ele>544.754</ele>
        <time>2017-01-08T10:04:08Z</time>
      </trkpt>
      <trkpt lat="37.323948" lon="-4.323641">
        <ele>544.753</ele>
        <time>2017-01-08T10:04:25Z</time>
      </trkpt>
      <trkpt lat="37.323917" lon="-4.323661">
        <ele>544.788</ele>
        <time>2017-01-08T10:04:38Z</time>
      </trkpt>
      <trkpt lat="37.323911" lon="-4.323625">
        <ele>544.782</ele>
        <time>2017-01-08T10:04:54Z</time>
      </trkpt>
      <trkpt lat="37.323938" lon="-4.323574">
        <ele>545.229</ele>
        <time>2017-01-08T10:05:09Z</time>
      </trkpt>
      <trkpt lat="37.323930" lon="-4.323565">
        <ele>545.229</ele>
        <time>2017-01-08T10:05:29Z</time>
      </trkpt>
      <trkpt lat="37.323914" lon="-4.323544">
        <ele>545.200</ele>
        <time>2017-01-08T10:05:49Z</time>
      </trkpt>
      <trkpt lat="37.323947" lon="-4.323537">
        <ele>545.220</ele>
        <time>2017-01-08T10:06:09Z</time>
      </trkpt>
      <trkpt lat="37.323939" lon="-4.323541">
        <ele>545.708</ele>
        <time>2017-01-08T10:06:24Z</time>
      </trkpt>
      <trkpt lat="37.323948" lon="-4.323503">
        <ele>545.253</ele>
        <time>2017-01-08T10:06:35Z</time>
      </trkpt>
      <trkpt lat="37.323966" lon="-4.323440">
        <ele>545.278</ele>
        <time>2017-01-08T10:06:52Z</time>
      </trkpt>
      <trkpt lat="37.323964" lon="-4.323373">
        <ele>546.222</ele>
        <time>2017-01-08T10:07:07Z</time>
      </trkpt>
      <trkpt lat="37.323951" lon="-4.323308">
        <ele>546.267</ele>
        <time>2017-01-08T10:07:26Z</time>
      </trkpt>
      <trkpt lat="37.323961" lon="-4.323260">
        <ele>545.716</ele>
        <time>2017-01-08T10:07:38Z</time>
      </trkpt>
      <trkpt lat="37.323976" lon="-4.323217">
        <ele>546.741</ele>
        <time>2017-01-08T10:07:51Z</time>
      </trkpt>
      <trkpt lat="37.323912" lon="-4.323113">
        <ele>546.755</ele>
        <time>2017-01-08T10:08:07Z</time>
      </trkpt>
      <trkpt lat="37.323919" lon="-4.323061">
        <ele>546.722</ele>
        <time>2017-01-08T10:08:22Z</time>
      </trkpt>
      <trkpt lat="37.323933" lon="-4.323046">
        <ele>545.244</ele>
        <time>2017-01-08T10:08:38Z</time>
      </trkpt>
      <trkpt lat="37.323914" lon="-4.322993">
        <ele>546.705</ele>
        <time>2017-01-08T10:08:48Z</time>
      </trkpt>
      <trkpt lat="37.323896" lon="-4.322961">
        <ele>548.115</ele>
        <time>2017-01-08T10:09:00Z</time>
      </trkpt>
      <trkpt lat="37.323903" lon="-4.322967">
        <ele>548.108</ele>
        <time>2017-01-08T10:09:16Z</time>
      </trkpt>
      <trkpt lat="37.323875" lon="-4.322972">
        <ele>547.665</ele>
        <time>2017-01-08T10:09:36Z</time>
      </trkpt>
      <trkpt lat="37.323891" lon="-4.322913">
        <ele>548.150</ele>
        <time>2017-01-08T10:09:50Z</time>
      </trkpt>
      <trkpt lat="37.323918" lon="-4.322881">
        <ele>549.114</ele>
        <time>2017-01-08T10:10:03Z</time>
      </trkpt>
      <trkpt lat="37.323961" lon="-4.322822">
        <ele>549.199</ele>
        <time>2017-01-08T10:10:20Z</time>
      </trkpt>
      <trkpt lat="37.323929" lon="-4.322774">
        <ele>549.198</ele>
        <time>2017-01-08T10:10:28Z</time>
      </trkpt>
      <trkpt lat="37.323913" lon="-4.322708">
        <ele>548.653</ele>
        <time>2017-01-08T10:10:40Z</time>
      </trkpt>
      <trkpt lat="37.323918" lon="-4.322642">
        <ele>549.157</ele>
        <time>2017-01-08T10:10:52Z</time>
      </trkpt>
      <trkpt lat="37.323899" lon="-4.322595">
        <ele>549.194</ele>
        <time>2017-01-08T10:11:08Z</time>
      </trkpt>
      <trkpt lat="37.323942" lon="-4.322564">
        <ele>548.625</ele>
        <time>2017-01-08T10:11:26Z</time>
      </trkpt>
      <trkpt lat="37.323972" lon="-4.322502">
        <ele>548.126</ele>
        <time>2017-01-08T10:11:39Z</time>
      </trkpt>
      <trkpt lat="37.323933" lon="-4.322452">
        <ele>549.508</ele>
        <time>2017-01-08T10:11:52Z</time>
      </trkpt>
      <trkpt lat="37.323922" lon="-4.322405">
        <ele>549.508</ele>
        <time>2017-01-08T10:12:06Z</time>
      </trkpt>
      <trkpt lat="37.324001" lon="-4.322379">
        <ele>550.073</ele>
        <time>2017-01-08T10:12:26Z</time>
      </trkpt>
      <trkpt lat="37.324038" lon="-4.322361">
        <ele>551.038</ele>
        <time>2017-01-08T10:12:44Z</time>
      </trkpt>
      <trkpt lat="37.323978" lon="-4.322379">
        <ele>551.012</ele>
        <time>2017-01-08T10:12:58Z</time>
      </trkpt>
      <trkpt lat="37.323917" lon="-4.322371">
        <ele>549.597</ele>
        <time>2017-01-08T10:13:19Z</time>
      </trkpt>
      <trkpt lat="37.323905" lon="-4.322295">
        <ele>549.566</ele>
        <time>2017-01-08T10:13:33Z</time>
      </trkpt>
      <trkpt lat="37.323908" lon="-4.322224">
        <ele>549.581</ele>
        <time>2017-01-08T10:13:47Z</time>
      </trkpt>
      <trkpt lat="37.323947" lon="-4.322199">
        <ele>550.535</ele>
        <time>2017-01-08T10:14:02Z</time>
      </trkpt>
      <trkpt lat="37.324021" lon="-4.322166">
        <ele>551.072</ele>
        <time>2017-01-08T10:14:17Z</time>
      </trkpt>
      <trkpt lat="37.324058" lon="-4.322123">
        <ele>551.519</ele>
        <time>2017-01-08T10:14:31Z</time>
      </trkpt>
      <trkpt lat="37.324059" lon="-4.322073">
        <ele>551.509</ele>
        <time>2017-01-08T10:14:42Z</time>
      </trkpt>
      <trkpt lat="37.324032" lon="-4.321989">
        <ele>551.919</ele>
        <time>2017-01-08T10:14:56Z</time>
      </trkpt>
      <trkpt lat="37.324081" lon="-4.321968">
        <ele>552.408</ele>
        <time>2017-01-08T10:15:11Z</time>
      </trkpt>
      <trkpt lat="37.324118" lon="-4.321916">
        <ele>552.932</ele>
        <time>2017-01-08T10:15:24Z</time>
      </trkpt>
      <trkpt lat="37.324123" lon="-4.321872">
        <ele>553.417</ele>
        <time>2017-01-08T10:15:45Z</time>
      </trkpt>
      <trkpt lat="37.324114" lon="-4.321817">
        <ele>553.481</ele>
        <time>2017-01-08T10:15:59Z</time>
      </trkpt>
      <trkpt lat="37.324137" lon="-4.321868">
        <ele>551.586</ele>
        <time>2017-01-08T10:16:22Z</time>
      </trkpt>
      <trkpt lat="37.324138" lon="-4.321875">
        <ele>551.575</ele>
        <time>2017-01-08T10:16:23Z</time>
      </trkpt>
      <trkpt lat="37.324153" lon="-4.321857">
        <ele>552.490</ele>
        <time>2017-01-08T10:16:36Z</time>
      </trkpt>
      <trkpt lat="37.324189" lon="-4.321839">
        <ele>551.964</ele>
        <time>2017-01-08T10:16:50Z</time>
      </trkpt>
      <trkpt lat="37.324214" lon="-4.321802">
        <ele>552.911</ele>
        <time>2017-01-08T10:17:03Z</time>
      </trkpt>
      <trkpt lat="37.324229" lon="-4.321749">
        <ele>553.461</ele>
        <time>2017-01-08T10:17:16Z</time>
      </trkpt>
      <trkpt lat="37.324262" lon="-4.321732">
        <ele>553.421</ele>
        <time>2017-01-08T10:17:33Z</time>
      </trkpt>
      <trkpt lat="37.324333" lon="-4.321719">
        <ele>554.813</ele>
        <time>2017-01-08T10:17:49Z</time>
      </trkpt>
      <trkpt lat="37.324326" lon="-4.321651">
        <ele>555.308</ele>
        <time>2017-01-08T10:18:03Z</time>
      </trkpt>
      <trkpt lat="37.324311" lon="-4.321628">
        <ele>555.387</ele>
        <time>2017-01-08T10:18:22Z</time>
      </trkpt>
      <trkpt lat="37.324382" lon="-4.321617">
        <ele>555.832</ele>
        <time>2017-01-08T10:18:36Z</time>
      </trkpt>
      <trkpt lat="37.324278" lon="-4.321505">
        <ele>556.796</ele>
        <time>2017-01-08T10:18:57Z</time>
      </trkpt>
      <trkpt lat="37.324293" lon="-4.321506">
        <ele>555.391</ele>
        <time>2017-01-08T10:19:08Z</time>
      </trkpt>
      <trkpt lat="37.324239" lon="-4.321390">
        <ele>555.340</ele>
        <time>2017-01-08T10:19:23Z</time>
      </trkpt>
      <trkpt lat="37.324213" lon="-4.321366">
        <ele>556.735</ele>
        <time>2017-01-08T10:19:40Z</time>
      </trkpt>
      <trkpt lat="37.324250" lon="-4.321371">
        <ele>556.759</ele>
        <time>2017-01-08T10:19:54Z</time>
      </trkpt>
      <trkpt lat="37.324359" lon="-4.321471">
        <ele>555.326</ele>
        <time>2017-01-08T10:20:14Z</time>
      </trkpt>
      <trkpt lat="37.324416" lon="-4.321460">
        <ele>556.366</ele>
        <time>2017-01-08T10:20:25Z</time>
      </trkpt>
      <trkpt lat="37.324537" lon="-4.321600">
        <ele>556.329</ele>
        <time>2017-01-08T10:20:39Z</time>
      </trkpt>
      <trkpt lat="37.324542" lon="-4.321602">
        <ele>558.721</ele>
        <time>2017-01-08T10:20:59Z</time>
      </trkpt>
      <trkpt lat="37.324550" lon="-4.321598">
        <ele>557.208</ele>
        <time>2017-01-08T10:21:01Z</time>
      </trkpt>
      <trkpt lat="37.324583" lon="-4.321574">
        <ele>557.297</ele>
        <time>2017-01-08T10:21:14Z</time>
      </trkpt>
      <trkpt lat="37.324628" lon="-4.321541">
        <ele>557.292</ele>
        <time>2017-01-08T10:21:28Z</time>
      </trkpt>
      <trkpt lat="37.324669" lon="-4.321525">
        <ele>558.726</ele>
        <time>2017-01-08T10:21:41Z</time>
      </trkpt>
      <trkpt lat="37.324722" lon="-4.321535">
        <ele>558.761</ele>
        <time>2017-01-08T10:21:54Z</time>
      </trkpt>
      <trkpt lat="37.324755" lon="-4.321505">
        <ele>559.660</ele>
        <time>2017-01-08T10:22:10Z</time>
      </trkpt>
      <trkpt lat="37.324770" lon="-4.321498">
        <ele>559.625</ele>
        <time>2017-01-08T10:22:23Z</time>
      </trkpt>
      <trkpt lat="37.324779" lon="-4.321480">
        <ele>559.179</ele>
        <time>2017-01-08T10:22:40Z</time>
      </trkpt>
      <trkpt lat="37.324787" lon="-4.321468">
        <ele>559.176</ele>
        <time>2017-01-08T10:22:42Z</time>
      </trkpt>
      <trkpt lat="37.324809" lon="-4.321465">
        <ele>559.122</ele>
        <time>2017-01-08T10:22:55Z</time>
      </trkpt>
      <trkpt lat="37.324849" lon="-4.321454">
        <ele>559.162</ele>
        <time>2017-01-08T10:23:12Z</time>
      </trkpt>
      <trkpt lat="37.324877" lon="-4.321422">
        <ele>559.108</ele>
        <time>2017-01-08T10:23:31Z</time>
      </trkpt>
      <trkpt lat="37.324887" lon="-4.321388">
        <ele>560.608</ele>
        <time>2017-01-08T10:23:37Z</time>
      </trkpt>
      <trkpt lat="37.324945" lon="-4.321364">
        <ele>561.193</ele>
        <time>2017-01-08T10:23:54Z</time>
      </trkpt>
      <trkpt lat="37.324967" lon="-4.321345">
        <ele>560.618</ele>
        <time>2017-01-08T10:24:14Z</time>
      </trkpt>
      <trkpt lat="37.324966" lon="-4.321309">
        <ele>560.692</ele>
        <time>2017-01-08T10:24:27Z</time>
      </trkpt>
      <trkpt lat="37.324946" lon="-4.321310">
        <ele>559.627</ele>
        <time>2017-01-08T10:24:41Z</time>
      </trkpt>
      <trkpt lat="37.324937" lon="-4.321313">
        <ele>558.296</ele>
        <time>2017-01-08T10:24:47Z</time>
      </trkpt>
      <trkpt lat="37.324934" lon="-4.321315">
        <ele>562.541</ele>
        <time>2017-01-08T10:24:48Z</time>
      </trkpt>
      <trkpt lat="37.324935" lon="-4.321315">
        <ele>560.175</ele>
        <time>2017-01-08T10:24:49Z</time>
      </trkpt>
      <trkpt lat="37.324975" lon="-4.321256">
        <ele>560.142</ele>
        <time>2017-01-08T10:25:05Z</time>
      </trkpt>
      <trkpt lat="37.325047" lon="-4.321204">
        <ele>561.165</ele>
        <time>2017-01-08T10:25:19Z</time>
      </trkpt>
      <trkpt lat="37.325098" lon="-4.321208">
        <ele>561.668</ele>
        <time>2017-01-08T10:25:37Z</time>
      </trkpt>
      <trkpt lat="37.325131" lon="-4.321161">
        <ele>561.614</ele>
        <time>2017-01-08T10:25:48Z</time>
      </trkpt>
      <trkpt lat="37.325158" lon="-4.321153">
        <ele>561.608</ele>
        <time>2017-01-08T10:25:52Z</time>
      </trkpt>
      <trkpt lat="37.325239" lon="-4.321109">
        <ele>562.097</ele>
        <time>2017-01-08T10:26:04Z</time>
      </trkpt>
      <trkpt lat="37.325317" lon="-4.321077">
        <ele>562.522</ele>
        <time>2017-01-08T10:26:17Z</time>
      </trkpt>
      <trkpt lat="37.325377" lon="-4.321074">
        <ele>562.546</ele>
        <time>2017-01-08T10:26:33Z</time>
      </trkpt>
      <trkpt lat="37.325392" lon="-4.321005">
        <ele>563.031</ele>
        <time>2017-01-08T10:26:47Z</time>
      </trkpt>
      <trkpt lat="37.325439" lon="-4.320942">
        <ele>563.050</ele>
        <time>2017-01-08T10:27:01Z</time>
      </trkpt>
      <trkpt lat="37.325474" lon="-4.320900">
        <ele>564.055</ele>
        <time>2017-01-08T10:27:15Z</time>
      </trkpt>
      <trkpt lat="37.325528" lon="-4.320840">
        <ele>564.469</ele>
        <time>2017-01-08T10:27:29Z</time>
      </trkpt>
      <trkpt lat="37.325578" lon="-4.320810">
        <ele>564.496</ele>
        <time>2017-01-08T10:27:44Z</time>
      </trkpt>
      <trkpt lat="37.325547" lon="-4.320789">
        <ele>564.925</ele>
        <time>2017-01-08T10:28:01Z</time>
      </trkpt>
      <trkpt lat="37.325553" lon="-4.320761">
        <ele>564.926</ele>
        <time>2017-01-08T10:28:16Z</time>
      </trkpt>
      <trkpt lat="37.325564" lon="-4.320824">
        <ele>564.908</ele>
        <time>2017-01-08T10:28:30Z</time>
      </trkpt>
      <trkpt lat="37.325587" lon="-4.320745">
        <ele>565.408</ele>
        <time>2017-01-08T10:28:42Z</time>
      </trkpt>
      <trkpt lat="37.325607" lon="-4.320633">
        <ele>565.473</ele>
        <time>2017-01-08T10:28:55Z</time>
      </trkpt>
      <trkpt lat="37.325641" lon="-4.320565">
        <ele>565.488</ele>
        <time>2017-01-08T10:29:08Z</time>
      </trkpt>
      <trkpt lat="37.325682" lon="-4.320531">
        <ele>565.912</ele>
        <time>2017-01-08T10:29:22Z</time>
      </trkpt>
      <trkpt lat="37.325688" lon="-4.320460">
        <ele>565.997</ele>
        <time>2017-01-08T10:29:34Z</time>
      </trkpt>
      <trkpt lat="37.325688" lon="-4.320396">
        <ele>566.826</ele>
        <time>2017-01-08T10:29:48Z</time>
      </trkpt>
      <trkpt lat="37.325693" lon="-4.320387">
        <ele>566.491</ele>
        <time>2017-01-08T10:30:01Z</time>
      </trkpt>
      <trkpt lat="37.325702" lon="-4.320395">
        <ele>566.845</ele>
        <time>2017-01-08T10:30:17Z</time>
      </trkpt>
      <trkpt lat="37.325696" lon="-4.320430">
        <ele>566.832</ele>
        <time>2017-01-08T10:30:32Z</time>
      </trkpt>
      <trkpt lat="37.325692" lon="-4.320430">
        <ele>566.845</ele>
        <time>2017-01-08T10:30:45Z</time>
      </trkpt>
      <trkpt lat="37.325681" lon="-4.320442">
        <ele>566.847</ele>
        <time>2017-01-08T10:31:07Z</time>
      </trkpt>
      <trkpt lat="37.325740" lon="-4.320426">
        <ele>567.311</ele>
        <time>2017-01-08T10:31:19Z</time>
      </trkpt>
      <trkpt lat="37.325754" lon="-4.320373">
        <ele>568.308</ele>
        <time>2017-01-08T10:31:32Z</time>
      </trkpt>
      <trkpt lat="37.325827" lon="-4.320339">
        <ele>569.255</ele>
        <time>2017-01-08T10:31:42Z</time>
      </trkpt>
      <trkpt lat="37.325846" lon="-4.320305">
        <ele>570.750</ele>
        <time>2017-01-08T10:31:52Z</time>
      </trkpt>
      <trkpt lat="37.325843" lon="-4.320228">
        <ele>570.764</ele>
        <time>2017-01-08T10:32:04Z</time>
      </trkpt>
      <trkpt lat="37.325833" lon="-4.320178">
        <ele>569.269</ele>
        <time>2017-01-08T10:32:17Z</time>
      </trkpt>
      <trkpt lat="37.325818" lon="-4.320223">
        <ele>569.758</ele>
        <time>2017-01-08T10:32:29Z</time>
      </trkpt>
      <trkpt lat="37.325813" lon="-4.320234">
        <ele>570.753</ele>
        <time>2017-01-08T10:32:47Z</time>
      </trkpt>
      <trkpt lat="37.325772" lon="-4.320233">
        <ele>571.217</ele>
        <time>2017-01-08T10:33:15Z</time>
      </trkpt>
      <trkpt lat="37.325804" lon="-4.320215">
        <ele>571.274</ele>
        <time>2017-01-08T10:33:38Z</time>
      </trkpt>
      <trkpt lat="37.325831" lon="-4.320259">
        <ele>571.228</ele>
        <time>2017-01-08T10:33:53Z</time>
      </trkpt>
      <trkpt lat="37.325817" lon="-4.320280">
        <ele>571.289</ele>
        <time>2017-01-08T10:34:11Z</time>
      </trkpt>
      <trkpt lat="37.325837" lon="-4.320295">
        <ele>571.217</ele>
        <time>2017-01-08T10:34:32Z</time>
      </trkpt>
      <trkpt lat="37.325840" lon="-4.320338">
        <ele>571.208</ele>
        <time>2017-01-08T10:34:55Z</time>
      </trkpt>
      <trkpt lat="37.325817" lon="-4.320343">
        <ele>571.233</ele>
        <time>2017-01-08T10:35:20Z</time>
      </trkpt>
      <trkpt lat="37.325836" lon="-4.320347">
        <ele>572.688</ele>
        <time>2017-01-08T10:35:26Z</time>
      </trkpt>
      <trkpt lat="37.325839" lon="-4.320351">
        <ele>572.632</ele>
        <time>2017-01-08T10:35:27Z</time>
      </trkpt>
      <trkpt lat="37.325877" lon="-4.320371">
        <ele>575.597</ele>
        <time>2017-01-08T10:35:40Z</time>
      </trkpt>
      <trkpt lat="37.325909" lon="-4.320404">
        <ele>577.966</ele>
        <time>2017-01-08T10:35:52Z</time>
      </trkpt>
      <trkpt lat="37.325956" lon="-4.320441">
        <ele>581.361</ele>
        <time>2017-01-08T10:36:03Z</time>
      </trkpt>
      <trkpt lat="37.325967" lon="-4.320456">
        <ele>581.765</ele>
        <time>2017-01-08T10:36:07Z</time>
      </trkpt>
      <trkpt lat="37.325958" lon="-4.320485">
        <ele>583.752</ele>
        <time>2017-01-08T10:36:20Z</time>
      </trkpt>
      <trkpt lat="37.325918" lon="-4.320455">
        <ele>584.144</ele>
        <time>2017-01-08T10:36:43Z</time>
      </trkpt>
      <trkpt lat="37.325969" lon="-4.320476">
        <ele>586.105</ele>
        <time>2017-01-08T10:36:55Z</time>
      </trkpt>
      <trkpt lat="37.326010" lon="-4.320463">
        <ele>588.015</ele>
        <time>2017-01-08T10:37:08Z</time>
      </trkpt>
      <trkpt lat="37.326042" lon="-4.320473">
        <ele>590.408</ele>
        <time>2017-01-08T10:37:20Z</time>
      </trkpt>
      <trkpt lat="37.326083" lon="-4.320485">
        <ele>592.835</ele>
        <time>2017-01-08T10:37:36Z</time>
      </trkpt>
      <trkpt lat="37.326086" lon="-4.320500">
        <ele>595.290</ele>
        <time>2017-01-08T10:37:50Z</time>
      </trkpt>
      <trkpt lat="37.326097" lon="-4.320501">
        <ele>597.114</ele>
        <time>2017-01-08T10:37:59Z</time>
      </trkpt>
      <trkpt lat="37.326105" lon="-4.320503">
        <ele>595.249</ele>
        <time>2017-01-08T10:38:01Z</time>
      </trkpt>
      <trkpt lat="37.326123" lon="-4.320511">
        <ele>596.638</ele>
        <time>2017-01-08T10:38:10Z</time>
      </trkpt>
      <trkpt lat="37.326141" lon="-4.320485">
        <ele>598.123</ele>
        <time>2017-01-08T10:38:24Z</time>
      </trkpt>
      <trkpt lat="37.326163" lon="-4.320518">
        <ele>600.567</ele>
        <time>2017-01-08T10:38:39Z</time>
      </trkpt>
      <trkpt lat="37.326195" lon="-4.320526">
        <ele>603.424</ele>
        <time>2017-01-08T10:38:54Z</time>
      </trkpt>
      <trkpt lat="37.326238" lon="-4.320521">
        <ele>606.786</ele>
        <time>2017-01-08T10:39:06Z</time>
      </trkpt>
      <trkpt lat="37.326246" lon="-4.320520">
        <ele>606.760</ele>
        <time>2017-01-08T10:39:24Z</time>
      </trkpt>
      <trkpt lat="37.326274" lon="-4.320553">
        <ele>608.726</ele>
        <time>2017-01-08T10:39:45Z</time>
      </trkpt>
      <trkpt lat="37.326277" lon="-4.320597">
        <ele>610.108</ele>
        <time>2017-01-08T10:39:56Z</time>
      </trkpt>
      <trkpt lat="37.326325" lon="-4.320594">
        <ele>613.029</ele>
        <time>2017-01-08T10:40:08Z</time>
      </trkpt>
      <trkpt lat="37.326320" lon="-4.320588">
        <ele>616.344</ele>
        <time>2017-01-08T10:40:27Z</time>
      </trkpt>
      <trkpt lat="37.326320" lon="-4.320589">
        <ele>613.518</ele>
        <time>2017-01-08T10:40:28Z</time>
      </trkpt>
      <trkpt lat="37.326332" lon="-4.320632">
        <ele>615.433</ele>
        <time>2017-01-08T10:40:41Z</time>
      </trkpt>
      <trkpt lat="37.326360" lon="-4.320676">
        <ele>618.382</ele>
        <time>2017-01-08T10:40:55Z</time>
      </trkpt>
      <trkpt lat="37.326384" lon="-4.320732">
        <ele>621.637</ele>
        <time>2017-01-08T10:41:04Z</time>
      </trkpt>
      <trkpt lat="37.326423" lon="-4.320819">
        <ele>624.021</ele>
        <time>2017-01-08T10:41:17Z</time>
      </trkpt>
      <trkpt lat="37.326454" lon="-4.320872">
        <ele>627.458</ele>
        <time>2017-01-08T10:41:29Z</time>
      </trkpt>
      <trkpt lat="37.326544" lon="-4.320912">
        <ele>630.817</ele>
        <time>2017-01-08T10:41:42Z</time>
      </trkpt>
      <trkpt lat="37.326552" lon="-4.320905">
        <ele>630.887</ele>
        <time>2017-01-08T10:41:43Z</time>
      </trkpt>
      <trkpt lat="37.326625" lon="-4.320897">
        <ele>631.215</ele>
        <time>2017-01-08T10:41:58Z</time>
      </trkpt>
      <trkpt lat="37.326635" lon="-4.320871">
        <ele>631.708</ele>
        <time>2017-01-08T10:42:13Z</time>
      </trkpt>
      <trkpt lat="37.326620" lon="-4.320880">
        <ele>630.362</ele>
        <time>2017-01-08T10:42:15Z</time>
      </trkpt>
      <trkpt lat="37.326594" lon="-4.320889">
        <ele>630.327</ele>
        <time>2017-01-08T10:42:30Z</time>
      </trkpt>
      <trkpt lat="37.326594" lon="-4.320892">
        <ele>630.351</ele>
        <time>2017-01-08T10:42:58Z</time>
      </trkpt>
      <trkpt lat="37.326588" lon="-4.320877">
        <ele>630.356</ele>
        <time>2017-01-08T10:43:12Z</time>
      </trkpt>
      <trkpt lat="37.326586" lon="-4.320881">
        <ele>630.325</ele>
        <time>2017-01-08T10:43:25Z</time>
      </trkpt>
      <trkpt lat="37.326588" lon="-4.320887">
        <ele>629.820</ele>
        <time>2017-01-08T10:43:41Z</time>
      </trkpt>
      <trkpt lat="37.326577" lon="-4.320901">
        <ele>629.884</ele>
        <time>2017-01-08T10:44:00Z</time>
      </trkpt>
      <trkpt lat="37.326583" lon="-4.320911">
        <ele>629.881</ele>
        <time>2017-01-08T10:44:16Z</time>
      </trkpt>
      <trkpt lat="37.326596" lon="-4.320892">
        <ele>629.899</ele>
        <time>2017-01-08T10:44:28Z</time>
      </trkpt>
      <trkpt lat="37.326591" lon="-4.320888">
        <ele>629.807</ele>
        <time>2017-01-08T10:44:46Z</time>
      </trkpt>
      <trkpt lat="37.326599" lon="-4.320893">
        <ele>629.827</ele>
        <time>2017-01-08T10:45:03Z</time>
      </trkpt>
      <trkpt lat="37.326571" lon="-4.320870">
        <ele>629.808</ele>
        <time>2017-01-08T10:45:21Z</time>
      </trkpt>
      <trkpt lat="37.326552" lon="-4.320866">
        <ele>630.360</ele>
        <time>2017-01-08T10:45:45Z</time>
      </trkpt>
      <trkpt lat="37.326576" lon="-4.320888">
        <ele>630.345</ele>
        <time>2017-01-08T10:45:57Z</time>
      </trkpt>
      <trkpt lat="37.326605" lon="-4.320899">
        <ele>630.359</ele>
        <time>2017-01-08T10:46:13Z</time>
      </trkpt>
      <trkpt lat="37.326604" lon="-4.320891">
        <ele>630.354</ele>
        <time>2017-01-08T10:46:37Z</time>
      </trkpt>
      <trkpt lat="37.326607" lon="-4.320908">
        <ele>630.333</ele>
        <time>2017-01-08T10:47:04Z</time>
      </trkpt>
      <trkpt lat="37.326610" lon="-4.320889">
        <ele>630.398</ele>
        <time>2017-01-08T10:47:23Z</time>
      </trkpt>
      <trkpt lat="37.326595" lon="-4.320897">
        <ele>629.882</ele>
        <time>2017-01-08T10:47:43Z</time>
      </trkpt>
      <trkpt lat="37.326573" lon="-4.320866">
        <ele>629.839</ele>
        <time>2017-01-08T10:48:17Z</time>
      </trkpt>
      <trkpt lat="37.326576" lon="-4.320862">
        <ele>629.339</ele>
        <time>2017-01-08T10:48:33Z</time>
      </trkpt>
      <trkpt lat="37.326561" lon="-4.320868">
        <ele>629.301</ele>
        <time>2017-01-08T10:48:52Z</time>
      </trkpt>
      <trkpt lat="37.326570" lon="-4.320849">
        <ele>629.821</ele>
        <time>2017-01-08T10:49:04Z</time>
      </trkpt>
      <trkpt lat="37.326557" lon="-4.320857">
        <ele>629.808</ele>
        <time>2017-01-08T10:49:34Z</time>
      </trkpt>
      <trkpt lat="37.326557" lon="-4.320869">
        <ele>631.284</ele>
        <time>2017-01-08T10:49:54Z</time>
      </trkpt>
      <trkpt lat="37.326566" lon="-4.320869">
        <ele>629.839</ele>
        <time>2017-01-08T10:49:58Z</time>
      </trkpt>
      <trkpt lat="37.326568" lon="-4.320890">
        <ele>631.243</ele>
        <time>2017-01-08T10:50:24Z</time>
      </trkpt>
      <trkpt lat="37.326574" lon="-4.320880">
        <ele>631.258</ele>
        <time>2017-01-08T10:50:42Z</time>
      </trkpt>
      <trkpt lat="37.326574" lon="-4.320893">
        <ele>629.867</ele>
        <time>2017-01-08T10:51:09Z</time>
      </trkpt>
      <trkpt lat="37.326573" lon="-4.320889">
        <ele>631.712</ele>
        <time>2017-01-08T10:51:14Z</time>
      </trkpt>
      <trkpt lat="37.326571" lon="-4.320877">
        <ele>630.836</ele>
        <time>2017-01-08T10:51:50Z</time>
      </trkpt>
      <trkpt lat="37.326572" lon="-4.320892">
        <ele>630.833</ele>
        <time>2017-01-08T10:52:07Z</time>
      </trkpt>
      <trkpt lat="37.326570" lon="-4.320881">
        <ele>630.385</ele>
        <time>2017-01-08T10:52:20Z</time>
      </trkpt>
      <trkpt lat="37.326571" lon="-4.320866">
        <ele>630.389</ele>
        <time>2017-01-08T10:52:42Z</time>
      </trkpt>
      <trkpt lat="37.326607" lon="-4.320872">
        <ele>630.817</ele>
        <time>2017-01-08T10:52:56Z</time>
      </trkpt>
      <trkpt lat="37.326586" lon="-4.320867">
        <ele>630.808</ele>
        <time>2017-01-08T10:53:16Z</time>
      </trkpt>
      <trkpt lat="37.326584" lon="-4.320865">
        <ele>630.859</ele>
        <time>2017-01-08T10:53:34Z</time>
      </trkpt>
      <trkpt lat="37.326609" lon="-4.320855">
        <ele>630.894</ele>
        <time>2017-01-08T10:53:53Z</time>
      </trkpt>
      <trkpt lat="37.326672" lon="-4.320892">
        <ele>630.388</ele>
        <time>2017-01-08T10:54:05Z</time>
      </trkpt>
      <trkpt lat="37.326673" lon="-4.320928">
        <ele>630.333</ele>
        <time>2017-01-08T10:54:20Z</time>
      </trkpt>
      <trkpt lat="37.326669" lon="-4.320931">
        <ele>630.342</ele>
        <time>2017-01-08T10:54:44Z</time>
      </trkpt>
      <trkpt lat="37.326713" lon="-4.321009">
        <ele>630.337</ele>
        <time>2017-01-08T10:54:55Z</time>
      </trkpt>
      <trkpt lat="37.326795" lon="-4.321151">
        <ele>630.311</ele>
        <time>2017-01-08T10:55:09Z</time>
      </trkpt>
      <trkpt lat="37.326811" lon="-4.321209">
        <ele>630.348</ele>
        <time>2017-01-08T10:55:16Z</time>
      </trkpt>
      <trkpt lat="37.326867" lon="-4.321333">
        <ele>633.291</ele>
        <time>2017-01-08T10:55:30Z</time>
      </trkpt>
      <trkpt lat="37.326899" lon="-4.321378">
        <ele>633.781</ele>
        <time>2017-01-08T10:55:42Z</time>
      </trkpt>
      <trkpt lat="37.326924" lon="-4.321401">
        <ele>634.619</ele>
        <time>2017-01-08T10:55:54Z</time>
      </trkpt>
      <trkpt lat="37.326950" lon="-4.321413">
        <ele>634.608</ele>
        <time>2017-01-08T10:55:57Z</time>
      </trkpt>
      <trkpt lat="37.326985" lon="-4.321456">
        <ele>635.150</ele>
        <time>2017-01-08T10:56:03Z</time>
      </trkpt>
      <trkpt lat="37.327091" lon="-4.321495">
        <ele>636.195</ele>
        <time>2017-01-08T10:56:17Z</time>
      </trkpt>
      <trkpt lat="37.327102" lon="-4.321487">
        <ele>636.189</ele>
        <time>2017-01-08T10:56:19Z</time>
      </trkpt>
      <trkpt lat="37.327174" lon="-4.321544">
        <ele>636.544</ele>
        <time>2017-01-08T10:56:31Z</time>
      </trkpt>
      <trkpt lat="37.327204" lon="-4.321598">
        <ele>638.593</ele>
        <time>2017-01-08T10:56:47Z</time>
      </trkpt>
      <trkpt lat="37.327244" lon="-4.321615">
        <ele>638.598</ele>
        <time>2017-01-08T10:56:56Z</time>
      </trkpt>
      <trkpt lat="37.327246" lon="-4.321676">
        <ele>640.442</ele>
        <time>2017-01-08T10:57:04Z</time>
      </trkpt>
      <trkpt lat="37.327314" lon="-4.321760">
        <ele>642.329</ele>
        <time>2017-01-08T10:57:17Z</time>
      </trkpt>
      <trkpt lat="37.327367" lon="-4.321844">
        <ele>643.717</ele>
        <time>2017-01-08T10:57:29Z</time>
      </trkpt>
      <trkpt lat="37.327443" lon="-4.321928">
        <ele>645.787</ele>
        <time>2017-01-08T10:57:42Z</time>
      </trkpt>
      <trkpt lat="37.327473" lon="-4.321947">
        <ele>646.115</ele>
        <time>2017-01-08T10:57:55Z</time>
      </trkpt>
      <trkpt lat="37.327481" lon="-4.321946">
        <ele>647.108</ele>
        <time>2017-01-08T10:57:59Z</time>
      </trkpt>
      <trkpt lat="37.327486" lon="-4.321958">
        <ele>647.142</ele>
        <time>2017-01-08T10:58:01Z</time>
      </trkpt>
      <trkpt lat="37.327522" lon="-4.322046">
        <ele>649.027</ele>
        <time>2017-01-08T10:58:13Z</time>
      </trkpt>
      <trkpt lat="37.327548" lon="-4.322119">
        <ele>651.491</ele>
        <time>2017-01-08T10:58:26Z</time>
      </trkpt>
      <trkpt lat="37.327559" lon="-4.322201">
        <ele>653.816</ele>
        <time>2017-01-08T10:58:39Z</time>
      </trkpt>
      <trkpt lat="37.327546" lon="-4.322212">
        <ele>654.865</ele>
        <time>2017-01-08T10:58:55Z</time>
      </trkpt>
      <trkpt lat="37.327528" lon="-4.322282">
        <ele>656.710</ele>
        <time>2017-01-08T10:59:06Z</time>
      </trkpt>
      <trkpt lat="37.327513" lon="-4.322344">
        <ele>660.124</ele>
        <time>2017-01-08T10:59:16Z</time>
      </trkpt>
      <trkpt lat="37.327526" lon="-4.322349">
        <ele>660.681</ele>
        <time>2017-01-08T10:59:30Z</time>
      </trkpt>
      <trkpt lat="37.327531" lon="-4.322349">
        <ele>657.737</ele>
        <time>2017-01-08T10:59:32Z</time>
      </trkpt>
      <trkpt lat="37.327531" lon="-4.322350">
        <ele>662.549</ele>
        <time>2017-01-08T10:59:34Z</time>
      </trkpt>
      <trkpt lat="37.327538" lon="-4.322354">
        <ele>660.613</ele>
        <time>2017-01-08T10:59:35Z</time>
      </trkpt>
      <trkpt lat="37.327568" lon="-4.322406">
        <ele>662.008</ele>
        <time>2017-01-08T10:59:43Z</time>
      </trkpt>
      <trkpt lat="37.327576" lon="-4.322502">
        <ele>664.914</ele>
        <time>2017-01-08T10:59:57Z</time>
      </trkpt>
      <trkpt lat="37.327570" lon="-4.322538">
        <ele>665.929</ele>
        <time>2017-01-08T11:00:14Z</time>
      </trkpt>
      <trkpt lat="37.327591" lon="-4.322540">
        <ele>666.313</ele>
        <time>2017-01-08T11:00:29Z</time>
      </trkpt>
      <trkpt lat="37.327591" lon="-4.322540">
        <ele>666.338</ele>
        <time>2017-01-08T11:00:47Z</time>
      </trkpt>
      <trkpt lat="37.327589" lon="-4.322534">
        <ele>666.317</ele>
        <time>2017-01-08T11:01:05Z</time>
      </trkpt>
      <trkpt lat="37.327586" lon="-4.322518">
        <ele>666.332</ele>
        <time>2017-01-08T11:01:14Z</time>
      </trkpt>
      <trkpt lat="37.327584" lon="-4.322495">
        <ele>665.486</ele>
        <time>2017-01-08T11:01:22Z</time>
      </trkpt>
      <trkpt lat="37.327605" lon="-4.322470">
        <ele>663.083</ele>
        <time>2017-01-08T11:01:37Z</time>
      </trkpt>
      <trkpt lat="37.327608" lon="-4.322457">
        <ele>663.093</ele>
        <time>2017-01-08T11:01:38Z</time>
      </trkpt>
      <trkpt lat="37.327596" lon="-4.322395">
        <ele>662.065</ele>
        <time>2017-01-08T11:01:47Z</time>
      </trkpt>
      <trkpt lat="37.327590" lon="-4.322425">
        <ele>662.021</ele>
        <time>2017-01-08T11:02:04Z</time>
      </trkpt>
      <trkpt lat="37.327599" lon="-4.322399">
        <ele>658.208</ele>
        <time>2017-01-08T11:02:18Z</time>
      </trkpt>
      <trkpt lat="37.327607" lon="-4.322389">
        <ele>663.580</ele>
        <time>2017-01-08T11:02:19Z</time>
      </trkpt>
      <trkpt lat="37.327603" lon="-4.322390">
        <ele>663.525</ele>
        <time>2017-01-08T11:02:20Z</time>
      </trkpt>
      <trkpt lat="37.327606" lon="-4.322408">
        <ele>662.019</ele>
        <time>2017-01-08T11:02:22Z</time>
      </trkpt>
      <trkpt lat="37.327601" lon="-4.322451">
        <ele>663.544</ele>
        <time>2017-01-08T11:02:28Z</time>
      </trkpt>
      <trkpt lat="37.327598" lon="-4.322538">
        <ele>666.333</ele>
        <time>2017-01-08T11:02:41Z</time>
      </trkpt>
      <trkpt lat="37.327632" lon="-4.322631">
        <ele>669.278</ele>
        <time>2017-01-08T11:02:54Z</time>
      </trkpt>
      <trkpt lat="37.327681" lon="-4.322708">
        <ele>672.162</ele>
        <time>2017-01-08T11:03:08Z</time>
      </trkpt>
      <trkpt lat="37.327707" lon="-4.322799">
        <ele>675.029</ele>
        <time>2017-01-08T11:03:20Z</time>
      </trkpt>
      <trkpt lat="37.327716" lon="-4.322839">
        <ele>676.927</ele>
        <time>2017-01-08T11:03:35Z</time>
      </trkpt>
      <trkpt lat="37.327710" lon="-4.322924">
        <ele>678.868</ele>
        <time>2017-01-08T11:03:48Z</time>
      </trkpt>
      <trkpt lat="37.327726" lon="-4.323033">
        <ele>682.214</ele>
        <time>2017-01-08T11:04:00Z</time>
      </trkpt>
      <trkpt lat="37.327686" lon="-4.323136">
        <ele>684.108</ele>
        <time>2017-01-08T11:04:13Z</time>
      </trkpt>
      <trkpt lat="37.327659" lon="-4.323218">
        <ele>685.613</ele>
        <time>2017-01-08T11:04:23Z</time>
      </trkpt>
      <trkpt lat="37.327675" lon="-4.323317">
        <ele>687.018</ele>
        <time>2017-01-08T11:04:36Z</time>
      </trkpt>
      <trkpt lat="37.327664" lon="-4.323356">
        <ele>687.542</ele>
        <time>2017-01-08T11:05:08Z</time>
      </trkpt>
      <trkpt lat="37.327654" lon="-4.323372">
        <ele>688.027</ele>
        <time>2017-01-08T11:05:15Z</time>
      </trkpt>
      <trkpt lat="37.327677" lon="-4.323374">
        <ele>691.396</ele>
        <time>2017-01-08T11:05:17Z</time>
      </trkpt>
      <trkpt lat="37.327671" lon="-4.323372">
        <ele>687.591</ele>
        <time>2017-01-08T11:05:18Z</time>
      </trkpt>
      <trkpt lat="37.327671" lon="-4.323377">
        <ele>687.525</ele>
        <time>2017-01-08T11:05:21Z</time>
      </trkpt>
      <trkpt lat="37.327691" lon="-4.323494">
        <ele>689.462</ele>
        <time>2017-01-08T11:05:33Z</time>
      </trkpt>
      <trkpt lat="37.327693" lon="-4.323519">
        <ele>689.971</ele>
        <time>2017-01-08T11:05:35Z</time>
      </trkpt>
      <trkpt lat="37.327688" lon="-4.323575">
        <ele>689.941</ele>
        <time>2017-01-08T11:05:39Z</time>
      </trkpt>
      <trkpt lat="37.327692" lon="-4.323600">
        <ele>690.415</ele>
        <time>2017-01-08T11:05:41Z</time>
      </trkpt>
      <trkpt lat="37.327691" lon="-4.323635">
        <ele>690.408</ele>
        <time>2017-01-08T11:05:44Z</time>
      </trkpt>
      <trkpt lat="37.327718" lon="-4.323756">
        <ele>692.348</ele>
        <time>2017-01-08T11:05:54Z</time>
      </trkpt>
      <trkpt lat="37.327782" lon="-4.323875">
        <ele>693.733</ele>
        <time>2017-01-08T11:06:05Z</time>
      </trkpt>
      <trkpt lat="37.327772" lon="-4.323973">
        <ele>694.787</ele>
        <time>2017-01-08T11:06:13Z</time>
      </trkpt>
      <trkpt lat="37.327774" lon="-4.324005">
        <ele>695.272</ele>
        <time>2017-01-08T11:06:16Z</time>
      </trkpt>
      <trkpt lat="37.327773" lon="-4.324037">
        <ele>695.791</ele>
        <time>2017-01-08T11:06:19Z</time>
      </trkpt>
      <trkpt lat="37.327783" lon="-4.324071">
        <ele>696.156</ele>
        <time>2017-01-08T11:06:22Z</time>
      </trkpt>
      <trkpt lat="37.327786" lon="-4.324097">
        <ele>696.630</ele>
        <time>2017-01-08T11:06:24Z</time>
      </trkpt>
      <trkpt lat="37.327803" lon="-4.324134">
        <ele>697.117</ele>
        <time>2017-01-08T11:06:27Z</time>
      </trkpt>
      <trkpt lat="37.327815" lon="-4.324154">
        <ele>697.172</ele>
        <time>2017-01-08T11:06:29Z</time>
      </trkpt>
      <trkpt lat="37.327817" lon="-4.324190">
        <ele>697.613</ele>
        <time>2017-01-08T11:06:44Z</time>
      </trkpt>
      <trkpt lat="37.327819" lon="-4.324186">
        <ele>697.614</ele>
        <time>2017-01-08T11:06:49Z</time>
      </trkpt>
      <trkpt lat="37.327806" lon="-4.324277">
        <ele>697.608</ele>
        <time>2017-01-08T11:06:57Z</time>
      </trkpt>
      <trkpt lat="37.327818" lon="-4.324327">
        <ele>698.138</ele>
        <time>2017-01-08T11:07:01Z</time>
      </trkpt>
      <trkpt lat="37.327846" lon="-4.324415">
        <ele>699.013</ele>
        <time>2017-01-08T11:07:08Z</time>
      </trkpt>
      <trkpt lat="37.327822" lon="-4.324592">
        <ele>700.037</ele>
        <time>2017-01-08T11:07:22Z</time>
      </trkpt>
      <trkpt lat="37.327832" lon="-4.324623">
        <ele>700.562</ele>
        <time>2017-01-08T11:07:35Z</time>
      </trkpt>
      <trkpt lat="37.327836" lon="-4.324694">
        <ele>700.931</ele>
        <time>2017-01-08T11:07:46Z</time>
      </trkpt>
      <trkpt lat="37.327839" lon="-4.324770">
        <ele>700.986</ele>
        <time>2017-01-08T11:08:06Z</time>
      </trkpt>
      <trkpt lat="37.327852" lon="-4.324906">
        <ele>701.950</ele>
        <time>2017-01-08T11:08:19Z</time>
      </trkpt>
      <trkpt lat="37.327859" lon="-4.324935">
        <ele>701.917</ele>
        <time>2017-01-08T11:08:21Z</time>
      </trkpt>
      <trkpt lat="37.327883" lon="-4.324988">
        <ele>702.423</ele>
        <time>2017-01-08T11:08:26Z</time>
      </trkpt>
      <trkpt lat="37.327887" lon="-4.325158">
        <ele>702.483</ele>
        <time>2017-01-08T11:08:40Z</time>
      </trkpt>
      <trkpt lat="37.327917" lon="-4.325294">
        <ele>702.411</ele>
        <time>2017-01-08T11:08:51Z</time>
      </trkpt>
      <trkpt lat="37.327908" lon="-4.325342">
        <ele>702.908</ele>
        <time>2017-01-08T11:09:04Z</time>
      </trkpt>
      <trkpt lat="37.327912" lon="-4.325439">
        <ele>702.983</ele>
        <time>2017-01-08T11:09:13Z</time>
      </trkpt>
      <trkpt lat="37.327897" lon="-4.325575">
        <ele>702.968</ele>
        <time>2017-01-08T11:09:26Z</time>
      </trkpt>
      <trkpt lat="37.327901" lon="-4.325636">
        <ele>704.372</ele>
        <time>2017-01-08T11:09:32Z</time>
      </trkpt>
      <trkpt lat="37.327906" lon="-4.325664">
        <ele>704.887</ele>
        <time>2017-01-08T11:09:35Z</time>
      </trkpt>
      <trkpt lat="37.327912" lon="-4.325688">
        <ele>704.856</ele>
        <time>2017-01-08T11:09:37Z</time>
      </trkpt>
      <trkpt lat="37.327916" lon="-4.325738">
        <ele>706.231</ele>
        <time>2017-01-08T11:09:41Z</time>
      </trkpt>
      <trkpt lat="37.327975" lon="-4.325895">
        <ele>708.625</ele>
        <time>2017-01-08T11:09:56Z</time>
      </trkpt>
      <trkpt lat="37.327978" lon="-4.325923">
        <ele>709.692</ele>
        <time>2017-01-08T11:10:12Z</time>
      </trkpt>
      <trkpt lat="37.327979" lon="-4.325926">
        <ele>709.136</ele>
        <time>2017-01-08T11:10:15Z</time>
      </trkpt>
      <trkpt lat="37.328018" lon="-4.326051">
        <ele>710.617</ele>
        <time>2017-01-08T11:10:28Z</time>
      </trkpt>
      <trkpt lat="37.328018" lon="-4.326053">
        <ele>710.618</ele>
        <time>2017-01-08T11:10:29Z</time>
      </trkpt>
      <trkpt lat="37.328019" lon="-4.326067">
        <ele>710.608</ele>
        <time>2017-01-08T11:10:32Z</time>
      </trkpt>
      <trkpt lat="37.328036" lon="-4.326170">
        <ele>711.594</ele>
        <time>2017-01-08T11:10:41Z</time>
      </trkpt>
      <trkpt lat="37.328054" lon="-4.326220">
        <ele>711.519</ele>
        <time>2017-01-08T11:10:45Z</time>
      </trkpt>
      <trkpt lat="37.328054" lon="-4.326274">
        <ele>713.043</ele>
        <time>2017-01-08T11:10:50Z</time>
      </trkpt>
      <trkpt lat="37.328056" lon="-4.326308">
        <ele>713.428</ele>
        <time>2017-01-08T11:10:53Z</time>
      </trkpt>
      <trkpt lat="37.328081" lon="-4.326480">
        <ele>716.877</ele>
        <time>2017-01-08T11:11:08Z</time>
      </trkpt>
      <trkpt lat="37.328073" lon="-4.326565">
        <ele>719.292</ele>
        <time>2017-01-08T11:11:21Z</time>
      </trkpt>
      <trkpt lat="37.328084" lon="-4.326579">
        <ele>719.796</ele>
        <time>2017-01-08T11:11:33Z</time>
      </trkpt>
      <trkpt lat="37.328091" lon="-4.326585">
        <ele>719.753</ele>
        <time>2017-01-08T11:11:34Z</time>
      </trkpt>
      <trkpt lat="37.328141" lon="-4.326611">
        <ele>718.265</ele>
        <time>2017-01-08T11:11:41Z</time>
      </trkpt>
      <trkpt lat="37.328143" lon="-4.326621">
        <ele>718.268</ele>
        <time>2017-01-08T11:11:42Z</time>
      </trkpt>
      <trkpt lat="37.328143" lon="-4.326768">
        <ele>720.714</ele>
        <time>2017-01-08T11:11:54Z</time>
      </trkpt>
      <trkpt lat="37.328143" lon="-4.326866">
        <ele>723.508</ele>
        <time>2017-01-08T11:12:04Z</time>
      </trkpt>
      <trkpt lat="37.328155" lon="-4.326955">
        <ele>725.547</ele>
        <time>2017-01-08T11:12:15Z</time>
      </trkpt>
      <trkpt lat="37.328146" lon="-4.326985">
        <ele>725.912</ele>
        <time>2017-01-08T11:12:26Z</time>
      </trkpt>
      <trkpt lat="37.328155" lon="-4.326998">
        <ele>726.996</ele>
        <time>2017-01-08T11:12:49Z</time>
      </trkpt>
      <trkpt lat="37.328144" lon="-4.327140">
        <ele>728.321</ele>
        <time>2017-01-08T11:13:03Z</time>
      </trkpt>
      <trkpt lat="37.328141" lon="-4.327152">
        <ele>728.320</ele>
        <time>2017-01-08T11:13:04Z</time>
      </trkpt>
      <trkpt lat="37.328139" lon="-4.327273">
        <ele>729.835</ele>
        <time>2017-01-08T11:13:17Z</time>
      </trkpt>
      <trkpt lat="37.328146" lon="-4.327347">
        <ele>730.369</ele>
        <time>2017-01-08T11:13:23Z</time>
      </trkpt>
      <trkpt lat="37.328182" lon="-4.327496">
        <ele>733.696</ele>
        <time>2017-01-08T11:13:37Z</time>
      </trkpt>
      <trkpt lat="37.328186" lon="-4.327605">
        <ele>735.649</ele>
        <time>2017-01-08T11:13:46Z</time>
      </trkpt>
      <trkpt lat="37.328189" lon="-4.327733">
        <ele>738.002</ele>
        <time>2017-01-08T11:14:00Z</time>
      </trkpt>
      <trkpt lat="37.328185" lon="-4.327715">
        <ele>738.022</ele>
        <time>2017-01-08T11:14:29Z</time>
      </trkpt>
      <trkpt lat="37.328176" lon="-4.327711">
        <ele>738.008</ele>
        <time>2017-01-08T11:14:51Z</time>
      </trkpt>
      <trkpt lat="37.328182" lon="-4.327699">
        <ele>738.075</ele>
        <time>2017-01-08T11:15:18Z</time>
      </trkpt>
      <trkpt lat="37.328202" lon="-4.327739">
        <ele>738.070</ele>
        <time>2017-01-08T11:15:35Z</time>
      </trkpt>
      <trkpt lat="37.328212" lon="-4.327786">
        <ele>738.424</ele>
        <time>2017-01-08T11:15:39Z</time>
      </trkpt>
      <trkpt lat="37.328229" lon="-4.327811">
        <ele>739.929</ele>
        <time>2017-01-08T11:15:42Z</time>
      </trkpt>
      <trkpt lat="37.328230" lon="-4.327992">
        <ele>742.388</ele>
        <time>2017-01-08T11:15:56Z</time>
      </trkpt>
      <trkpt lat="37.328227" lon="-4.328068">
        <ele>743.283</ele>
        <time>2017-01-08T11:16:02Z</time>
      </trkpt>
      <trkpt lat="37.328249" lon="-4.328251">
        <ele>746.127</ele>
        <time>2017-01-08T11:16:16Z</time>
      </trkpt>
      <trkpt lat="37.328280" lon="-4.328392">
        <ele>747.694</ele>
        <time>2017-01-08T11:16:27Z</time>
      </trkpt>
      <trkpt lat="37.328325" lon="-4.328497">
        <ele>749.546</ele>
        <time>2017-01-08T11:16:37Z</time>
      </trkpt>
      <trkpt lat="37.328316" lon="-4.328521">
        <ele>750.088</ele>
        <time>2017-01-08T11:16:39Z</time>
      </trkpt>
      <trkpt lat="37.328309" lon="-4.328586">
        <ele>750.516</ele>
        <time>2017-01-08T11:16:44Z</time>
      </trkpt>
      <trkpt lat="37.328306" lon="-4.328618">
        <ele>750.508</ele>
        <time>2017-01-08T11:16:57Z</time>
      </trkpt>
      <trkpt lat="37.328318" lon="-4.328590">
        <ele>750.975</ele>
        <time>2017-01-08T11:17:14Z</time>
      </trkpt>
      <trkpt lat="37.328331" lon="-4.328648">
        <ele>751.480</ele>
        <time>2017-01-08T11:17:19Z</time>
      </trkpt>
      <trkpt lat="37.328332" lon="-4.328689">
        <ele>751.924</ele>
        <time>2017-01-08T11:17:22Z</time>
      </trkpt>
      <trkpt lat="37.328378" lon="-4.328750">
        <ele>752.979</ele>
        <time>2017-01-08T11:17:29Z</time>
      </trkpt>
      <trkpt lat="37.328384" lon="-4.328841">
        <ele>753.838</ele>
        <time>2017-01-08T11:17:35Z</time>
      </trkpt>
      <trkpt lat="37.328419" lon="-4.328928">
        <ele>755.353</ele>
        <time>2017-01-08T11:17:45Z</time>
      </trkpt>
      <trkpt lat="37.328433" lon="-4.329049">
        <ele>757.217</ele>
        <time>2017-01-08T11:17:56Z</time>
      </trkpt>
      <trkpt lat="37.328459" lon="-4.329131">
        <ele>757.744</ele>
        <time>2017-01-08T11:18:03Z</time>
      </trkpt>
      <trkpt lat="37.328479" lon="-4.329321">
        <ele>758.173</ele>
        <time>2017-01-08T11:18:15Z</time>
      </trkpt>
      <trkpt lat="37.328505" lon="-4.329426">
        <ele>759.685</ele>
        <time>2017-01-08T11:18:28Z</time>
      </trkpt>
      <trkpt lat="37.328511" lon="-4.329420">
        <ele>760.113</ele>
        <time>2017-01-08T11:18:29Z</time>
      </trkpt>
      <trkpt lat="37.328537" lon="-4.329448">
        <ele>760.508</ele>
        <time>2017-01-08T11:18:33Z</time>
      </trkpt>
      <trkpt lat="37.328557" lon="-4.329492">
        <ele>761.068</ele>
        <time>2017-01-08T11:18:37Z</time>
      </trkpt>
      <trkpt lat="37.328579" lon="-4.329538">
        <ele>762.073</ele>
        <time>2017-01-08T11:18:42Z</time>
      </trkpt>
      <trkpt lat="37.328606" lon="-4.329547">
        <ele>762.987</ele>
        <time>2017-01-08T11:19:00Z</time>
      </trkpt>
      <trkpt lat="37.328609" lon="-4.329579">
        <ele>762.932</ele>
        <time>2017-01-08T11:19:09Z</time>
      </trkpt>
      <trkpt lat="37.328628" lon="-4.329627">
        <ele>762.991</ele>
        <time>2017-01-08T11:19:14Z</time>
      </trkpt>
      <trkpt lat="37.328640" lon="-4.329683">
        <ele>764.486</ele>
        <time>2017-01-08T11:19:19Z</time>
      </trkpt>
      <trkpt lat="37.328685" lon="-4.329721">
        <ele>765.840</ele>
        <time>2017-01-08T11:19:25Z</time>
      </trkpt>
      <trkpt lat="37.328745" lon="-4.329771">
        <ele>767.897</ele>
        <time>2017-01-08T11:19:33Z</time>
      </trkpt>
      <trkpt lat="37.328800" lon="-4.329892">
        <ele>770.289</ele>
        <time>2017-01-08T11:19:46Z</time>
      </trkpt>
      <trkpt lat="37.328830" lon="-4.329931">
        <ele>770.606</ele>
        <time>2017-01-08T11:19:57Z</time>
      </trkpt>
      <trkpt lat="37.328831" lon="-4.329930">
        <ele>770.626</ele>
        <time>2017-01-08T11:20:00Z</time>
      </trkpt>
      <trkpt lat="37.328845" lon="-4.329945">
        <ele>771.108</ele>
        <time>2017-01-08T11:20:02Z</time>
      </trkpt>
      <trkpt lat="37.328917" lon="-4.330074">
        <ele>772.659</ele>
        <time>2017-01-08T11:20:15Z</time>
      </trkpt>
      <trkpt lat="37.328937" lon="-4.330141">
        <ele>773.534</ele>
        <time>2017-01-08T11:20:21Z</time>
      </trkpt>
      <trkpt lat="37.328996" lon="-4.330235">
        <ele>775.948</ele>
        <time>2017-01-08T11:20:35Z</time>
      </trkpt>
      <trkpt lat="37.329049" lon="-4.330310">
        <ele>776.453</ele>
        <time>2017-01-08T11:20:54Z</time>
      </trkpt>
      <trkpt lat="37.329068" lon="-4.330334">
        <ele>777.482</ele>
        <time>2017-01-08T11:20:57Z</time>
      </trkpt>
      <trkpt lat="37.329076" lon="-4.330358">
        <ele>777.467</ele>
        <time>2017-01-08T11:20:59Z</time>
      </trkpt>
      <trkpt lat="37.329100" lon="-4.330420">
        <ele>777.881</ele>
        <time>2017-01-08T11:21:04Z</time>
      </trkpt>
      <trkpt lat="37.329125" lon="-4.330447">
        <ele>778.318</ele>
        <time>2017-01-08T11:21:07Z</time>
      </trkpt>
      <trkpt lat="37.329138" lon="-4.330484">
        <ele>778.893</ele>
        <time>2017-01-08T11:21:10Z</time>
      </trkpt>
      <trkpt lat="37.329248" lon="-4.330577">
        <ele>781.765</ele>
        <time>2017-01-08T11:21:24Z</time>
      </trkpt>
      <trkpt lat="37.329315" lon="-4.330709">
        <ele>782.721</ele>
        <time>2017-01-08T11:21:36Z</time>
      </trkpt>
      <trkpt lat="37.329346" lon="-4.330749">
        <ele>783.108</ele>
        <time>2017-01-08T11:21:52Z</time>
      </trkpt>
      <trkpt lat="37.329347" lon="-4.330735">
        <ele>779.870</ele>
        <time>2017-01-08T11:22:03Z</time>
      </trkpt>
      <trkpt lat="37.329346" lon="-4.330734">
        <ele>786.585</ele>
        <time>2017-01-08T11:22:04Z</time>
      </trkpt>
      <trkpt lat="37.329346" lon="-4.330732">
        <ele>783.129</ele>
        <time>2017-01-08T11:22:06Z</time>
      </trkpt>
      <trkpt lat="37.329346" lon="-4.330731">
        <ele>783.124</ele>
        <time>2017-01-08T11:22:07Z</time>
      </trkpt>
      <trkpt lat="37.329359" lon="-4.330796">
        <ele>782.713</ele>
        <time>2017-01-08T11:22:16Z</time>
      </trkpt>
      <trkpt lat="37.329389" lon="-4.330904">
        <ele>782.778</ele>
        <time>2017-01-08T11:22:25Z</time>
      </trkpt>
      <trkpt lat="37.329398" lon="-4.331002">
        <ele>781.712</ele>
        <time>2017-01-08T11:22:36Z</time>
      </trkpt>
      <trkpt lat="37.329396" lon="-4.331015">
        <ele>781.279</ele>
        <time>2017-01-08T11:22:37Z</time>
      </trkpt>
      <trkpt lat="37.329400" lon="-4.331080">
        <ele>780.716</ele>
        <time>2017-01-08T11:22:42Z</time>
      </trkpt>
      <trkpt lat="37.329422" lon="-4.331256">
        <ele>782.776</ele>
        <time>2017-01-08T11:22:56Z</time>
      </trkpt>
      <trkpt lat="37.329445" lon="-4.331345">
        <ele>785.113</ele>
        <time>2017-01-08T11:23:08Z</time>
      </trkpt>
      <trkpt lat="37.329451" lon="-4.331352">
        <ele>785.508</ele>
        <time>2017-01-08T11:23:24Z</time>
      </trkpt>
      <trkpt lat="37.329450" lon="-4.331313">
        <ele>785.182</ele>
        <time>2017-01-08T11:23:40Z</time>
      </trkpt>
      <trkpt lat="37.329440" lon="-4.331277">
        <ele>785.117</ele>
        <time>2017-01-08T11:23:57Z</time>
      </trkpt>
      <trkpt lat="37.329433" lon="-4.331277">
        <ele>785.171</ele>
        <time>2017-01-08T11:24:18Z</time>
      </trkpt>
      <trkpt lat="37.329423" lon="-4.331289">
        <ele>785.186</ele>
        <time>2017-01-08T11:24:55Z</time>
      </trkpt>
      <trkpt lat="37.329452" lon="-4.331380">
        <ele>785.585</ele>
        <time>2017-01-08T11:25:09Z</time>
      </trkpt>
      <trkpt lat="37.329544" lon="-4.331519">
        <ele>788.910</ele>
        <time>2017-01-08T11:25:23Z</time>
      </trkpt>
      <trkpt lat="37.329630" lon="-4.331652">
        <ele>791.314</ele>
        <time>2017-01-08T11:25:36Z</time>
      </trkpt>
      <trkpt lat="37.329675" lon="-4.331790">
        <ele>792.761</ele>
        <time>2017-01-08T11:25:54Z</time>
      </trkpt>
      <trkpt lat="37.329747" lon="-4.331927">
        <ele>795.625</ele>
        <time>2017-01-08T11:26:07Z</time>
      </trkpt>
      <trkpt lat="37.329764" lon="-4.332022">
        <ele>796.626</ele>
        <time>2017-01-08T11:26:15Z</time>
      </trkpt>
      <trkpt lat="37.329723" lon="-4.332082">
        <ele>797.108</ele>
        <time>2017-01-08T11:26:29Z</time>
      </trkpt>
      <trkpt lat="37.329720" lon="-4.332092">
        <ele>797.108</ele>
        <time>2017-01-08T11:26:51Z</time>
      </trkpt>
      <trkpt lat="37.329727" lon="-4.332105">
        <ele>797.123</ele>
        <time>2017-01-08T11:27:00Z</time>
      </trkpt>
      <trkpt lat="37.329854" lon="-4.332031">
        <ele>797.618</ele>
        <time>2017-01-08T11:27:11Z</time>
      </trkpt>
      <trkpt lat="37.329997" lon="-4.332110">
        <ele>798.542</ele>
        <time>2017-01-08T11:27:26Z</time>
      </trkpt>
      <trkpt lat="37.329999" lon="-4.332127">
        <ele>798.597</ele>
        <time>2017-01-08T11:27:33Z</time>
      </trkpt>
      <trkpt lat="37.329999" lon="-4.332184">
        <ele>798.546</ele>
        <time>2017-01-08T11:27:37Z</time>
      </trkpt>
      <trkpt lat="37.330001" lon="-4.332269">
        <ele>800.011</ele>
        <time>2017-01-08T11:27:52Z</time>
      </trkpt>
      <trkpt lat="37.329994" lon="-4.332275">
        <ele>800.045</ele>
        <time>2017-01-08T11:28:09Z</time>
      </trkpt>
      <trkpt lat="37.330019" lon="-4.332338">
        <ele>800.432</ele>
        <time>2017-01-08T11:28:23Z</time>
      </trkpt>
      <trkpt lat="37.330087" lon="-4.332560">
        <ele>803.354</ele>
        <time>2017-01-08T11:28:38Z</time>
      </trkpt>
      <trkpt lat="37.330090" lon="-4.332626">
        <ele>804.356</ele>
        <time>2017-01-08T11:28:52Z</time>
      </trkpt>
      <trkpt lat="37.330079" lon="-4.332609">
        <ele>804.311</ele>
        <time>2017-01-08T11:29:13Z</time>
      </trkpt>
      <trkpt lat="37.330076" lon="-4.332620">
        <ele>804.808</ele>
        <time>2017-01-08T11:29:30Z</time>
      </trkpt>
      <trkpt lat="37.330155" lon="-4.332659">
        <ele>804.886</ele>
        <time>2017-01-08T11:29:45Z</time>
      </trkpt>
      <trkpt lat="37.330183" lon="-4.332699">
        <ele>805.251</ele>
        <time>2017-01-08T11:29:59Z</time>
      </trkpt>
      <trkpt lat="37.330195" lon="-4.332708">
        <ele>805.795</ele>
        <time>2017-01-08T11:30:15Z</time>
      </trkpt>
      <trkpt lat="37.330181" lon="-4.332698">
        <ele>805.250</ele>
        <time>2017-01-08T11:30:28Z</time>
      </trkpt>
      <trkpt lat="37.330210" lon="-4.332758">
        <ele>805.269</ele>
        <time>2017-01-08T11:30:40Z</time>
      </trkpt>
      <trkpt lat="37.330243" lon="-4.332824">
        <ele>806.794</ele>
        <time>2017-01-08T11:30:48Z</time>
      </trkpt>
      <trkpt lat="37.330367" lon="-4.333022">
        <ele>809.128</ele>
        <time>2017-01-08T11:31:05Z</time>
      </trkpt>
      <trkpt lat="37.330475" lon="-4.333115">
        <ele>811.085</ele>
        <time>2017-01-08T11:31:18Z</time>
      </trkpt>
      <trkpt lat="37.330551" lon="-4.333201">
        <ele>812.016</ele>
        <time>2017-01-08T11:31:30Z</time>
      </trkpt>
      <trkpt lat="37.330642" lon="-4.333317">
        <ele>815.376</ele>
        <time>2017-01-08T11:31:44Z</time>
      </trkpt>
      <trkpt lat="37.330715" lon="-4.333441">
        <ele>817.313</ele>
        <time>2017-01-08T11:31:59Z</time>
      </trkpt>
      <trkpt lat="37.330805" lon="-4.333553">
        <ele>819.208</ele>
        <time>2017-01-08T11:32:13Z</time>
      </trkpt>
      <trkpt lat="37.330777" lon="-4.333530">
        <ele>819.242</ele>
        <time>2017-01-08T11:32:29Z</time>
      </trkpt>
      <trkpt lat="37.330830" lon="-4.333571">
        <ele>819.787</ele>
        <time>2017-01-08T11:32:43Z</time>
      </trkpt>
      <trkpt lat="37.330920" lon="-4.333624">
        <ele>821.161</ele>
        <time>2017-01-08T11:32:55Z</time>
      </trkpt>
      <trkpt lat="37.331007" lon="-4.333655">
        <ele>822.666</ele>
        <time>2017-01-08T11:33:08Z</time>
      </trkpt>
      <trkpt lat="37.331084" lon="-4.333697">
        <ele>824.565</ele>
        <time>2017-01-08T11:33:23Z</time>
      </trkpt>
      <trkpt lat="37.331096" lon="-4.333706">
        <ele>825.050</ele>
        <time>2017-01-08T11:33:35Z</time>
      </trkpt>
      <trkpt lat="37.331158" lon="-4.333774">
        <ele>826.464</ele>
        <time>2017-01-08T11:33:42Z</time>
      </trkpt>
      <trkpt lat="37.331267" lon="-4.333824">
        <ele>829.811</ele>
        <time>2017-01-08T11:33:55Z</time>
      </trkpt>
      <trkpt lat="37.331351" lon="-4.333963">
        <ele>831.774</ele>
        <time>2017-01-08T11:34:10Z</time>
      </trkpt>
      <trkpt lat="37.331365" lon="-4.334068">
        <ele>833.156</ele>
        <time>2017-01-08T11:34:18Z</time>
      </trkpt>
      <trkpt lat="37.331418" lon="-4.334249">
        <ele>835.521</ele>
        <time>2017-01-08T11:34:33Z</time>
      </trkpt>
      <trkpt lat="37.331478" lon="-4.334365">
        <ele>837.008</ele>
        <time>2017-01-08T11:34:47Z</time>
      </trkpt>
      <trkpt lat="37.331523" lon="-4.334467">
        <ele>839.478</ele>
        <time>2017-01-08T11:34:59Z</time>
      </trkpt>
      <trkpt lat="37.331581" lon="-4.334551">
        <ele>841.843</ele>
        <time>2017-01-08T11:35:13Z</time>
      </trkpt>
      <trkpt lat="37.331629" lon="-4.334697">
        <ele>844.257</ele>
        <time>2017-01-08T11:35:28Z</time>
      </trkpt>
      <trkpt lat="37.331695" lon="-4.334743">
        <ele>846.692</ele>
        <time>2017-01-08T11:35:42Z</time>
      </trkpt>
      <trkpt lat="37.331818" lon="-4.334810">
        <ele>848.591</ele>
        <time>2017-01-08T11:35:57Z</time>
      </trkpt>
      <trkpt lat="37.331862" lon="-4.334941">
        <ele>850.456</ele>
        <time>2017-01-08T11:36:13Z</time>
      </trkpt>
      <trkpt lat="37.331796" lon="-4.335076">
        <ele>854.350</ele>
        <time>2017-01-08T11:36:29Z</time>
      </trkpt>
      <trkpt lat="37.331691" lon="-4.335152">
        <ele>857.297</ele>
        <time>2017-01-08T11:36:44Z</time>
      </trkpt>
      <trkpt lat="37.331635" lon="-4.335243">
        <ele>860.075</ele>
        <time>2017-01-08T11:36:57Z</time>
      </trkpt>
      <trkpt lat="37.331593" lon="-4.335308">
        <ele>862.428</ele>
        <time>2017-01-08T11:37:13Z</time>
      </trkpt>
      <trkpt lat="37.331620" lon="-4.335307">
        <ele>862.420</ele>
        <time>2017-01-08T11:37:40Z</time>
      </trkpt>
      <trkpt lat="37.331575" lon="-4.335348">
        <ele>863.408</ele>
        <time>2017-01-08T11:37:53Z</time>
      </trkpt>
      <trkpt lat="37.331562" lon="-4.335365">
        <ele>863.498</ele>
        <time>2017-01-08T11:38:18Z</time>
      </trkpt>
      <trkpt lat="37.331531" lon="-4.335385">
        <ele>864.443</ele>
        <time>2017-01-08T11:38:48Z</time>
      </trkpt>
      <trkpt lat="37.331498" lon="-4.335438">
        <ele>865.847</ele>
        <time>2017-01-08T11:39:07Z</time>
      </trkpt>
      <trkpt lat="37.331436" lon="-4.335479">
        <ele>868.712</ele>
        <time>2017-01-08T11:39:17Z</time>
      </trkpt>
      <trkpt lat="37.331381" lon="-4.335568">
        <ele>872.161</ele>
        <time>2017-01-08T11:39:29Z</time>
      </trkpt>
      <trkpt lat="37.331329" lon="-4.335632">
        <ele>875.446</ele>
        <time>2017-01-08T11:39:41Z</time>
      </trkpt>
      <trkpt lat="37.331339" lon="-4.335649">
        <ele>875.440</ele>
        <time>2017-01-08T11:40:04Z</time>
      </trkpt>
      <trkpt lat="37.331365" lon="-4.335695">
        <ele>875.947</ele>
        <time>2017-01-08T11:40:32Z</time>
      </trkpt>
      <trkpt lat="37.331367" lon="-4.335677">
        <ele>875.989</ele>
        <time>2017-01-08T11:40:58Z</time>
      </trkpt>
      <trkpt lat="37.331403" lon="-4.335659">
        <ele>874.506</ele>
        <time>2017-01-08T11:41:03Z</time>
      </trkpt>
      <trkpt lat="37.331466" lon="-4.335599">
        <ele>870.626</ele>
        <time>2017-01-08T11:41:12Z</time>
      </trkpt>
      <trkpt lat="37.331471" lon="-4.335602">
        <ele>874.508</ele>
        <time>2017-01-08T11:41:13Z</time>
      </trkpt>
      <trkpt lat="37.331498" lon="-4.335570">
        <ele>872.599</ele>
        <time>2017-01-08T11:41:19Z</time>
      </trkpt>
      <trkpt lat="37.331514" lon="-4.335569">
        <ele>870.694</ele>
        <time>2017-01-08T11:41:21Z</time>
      </trkpt>
      <trkpt lat="37.331609" lon="-4.335509">
        <ele>870.178</ele>
        <time>2017-01-08T11:41:32Z</time>
      </trkpt>
      <trkpt lat="37.331645" lon="-4.335479">
        <ele>869.763</ele>
        <time>2017-01-08T11:41:37Z</time>
      </trkpt>
      <trkpt lat="37.331796" lon="-4.335445">
        <ele>869.742</ele>
        <time>2017-01-08T11:41:51Z</time>
      </trkpt>
      <trkpt lat="37.331912" lon="-4.335391">
        <ele>870.647</ele>
        <time>2017-01-08T11:42:02Z</time>
      </trkpt>
      <trkpt lat="37.331969" lon="-4.335376">
        <ele>870.651</ele>
        <time>2017-01-08T11:42:06Z</time>
      </trkpt>
      <trkpt lat="37.332004" lon="-4.335369">
        <ele>870.668</ele>
        <time>2017-01-08T11:42:09Z</time>
      </trkpt>
      <trkpt lat="37.332035" lon="-4.335367">
        <ele>869.722</ele>
        <time>2017-01-08T11:42:11Z</time>
      </trkpt>
      <trkpt lat="37.332151" lon="-4.335347">
        <ele>869.262</ele>
        <time>2017-01-08T11:42:23Z</time>
      </trkpt>
      <trkpt lat="37.332342" lon="-4.335352">
        <ele>869.208</ele>
        <time>2017-01-08T11:42:39Z</time>
      </trkpt>
      <trkpt lat="37.332527" lon="-4.335350">
        <ele>869.208</ele>
        <time>2017-01-08T11:42:53Z</time>
      </trkpt>
      <trkpt lat="37.332575" lon="-4.335350">
        <ele>870.673</ele>
        <time>2017-01-08T11:42:56Z</time>
      </trkpt>
      <trkpt lat="37.332759" lon="-4.335366">
        <ele>871.188</ele>
        <time>2017-01-08T11:43:10Z</time>
      </trkpt>
      <trkpt lat="37.332897" lon="-4.335426">
        <ele>872.512</ele>
        <time>2017-01-08T11:43:24Z</time>
      </trkpt>
      <trkpt lat="37.333035" lon="-4.335477">
        <ele>874.047</ele>
        <time>2017-01-08T11:43:37Z</time>
      </trkpt>
      <trkpt lat="37.333134" lon="-4.335528">
        <ele>876.436</ele>
        <time>2017-01-08T11:43:51Z</time>
      </trkpt>
      <trkpt lat="37.333255" lon="-4.335587">
        <ele>878.861</ele>
        <time>2017-01-08T11:44:05Z</time>
      </trkpt>
      <trkpt lat="37.333374" lon="-4.335669">
        <ele>881.285</ele>
        <time>2017-01-08T11:44:20Z</time>
      </trkpt>
      <trkpt lat="37.333469" lon="-4.335771">
        <ele>884.162</ele>
        <time>2017-01-08T11:44:34Z</time>
      </trkpt>
      <trkpt lat="37.333568" lon="-4.335863">
        <ele>887.095</ele>
        <time>2017-01-08T11:44:47Z</time>
      </trkpt>
      <trkpt lat="37.333642" lon="-4.335948">
        <ele>888.449</ele>
        <time>2017-01-08T11:44:59Z</time>
      </trkpt>
      <trkpt lat="37.333654" lon="-4.335961">
        <ele>888.923</ele>
        <time>2017-01-08T11:45:01Z</time>
      </trkpt>
      <trkpt lat="37.333764" lon="-4.336070">
        <ele>892.208</ele>
        <time>2017-01-08T11:45:15Z</time>
      </trkpt>
      <trkpt lat="37.333841" lon="-4.336144">
        <ele>894.680</ele>
        <time>2017-01-08T11:45:28Z</time>
      </trkpt>
      <trkpt lat="37.333925" lon="-4.336210">
        <ele>896.185</ele>
        <time>2017-01-08T11:45:46Z</time>
      </trkpt>
      <trkpt lat="37.334003" lon="-4.336283">
        <ele>899.519</ele>
        <time>2017-01-08T11:45:58Z</time>
      </trkpt>
      <trkpt lat="37.334089" lon="-4.336354">
        <ele>901.494</ele>
        <time>2017-01-08T11:46:10Z</time>
      </trkpt>
      <trkpt lat="37.334127" lon="-4.336428">
        <ele>903.323</ele>
        <time>2017-01-08T11:46:23Z</time>
      </trkpt>
      <trkpt lat="37.334175" lon="-4.336492">
        <ele>905.238</ele>
        <time>2017-01-08T11:46:39Z</time>
      </trkpt>
      <trkpt lat="37.334221" lon="-4.336525">
        <ele>906.232</ele>
        <time>2017-01-08T11:46:44Z</time>
      </trkpt>
      <trkpt lat="37.334274" lon="-4.336577">
        <ele>908.119</ele>
        <time>2017-01-08T11:46:52Z</time>
      </trkpt>
      <trkpt lat="37.334326" lon="-4.336615">
        <ele>909.179</ele>
        <time>2017-01-08T11:46:57Z</time>
      </trkpt>
      <trkpt lat="37.334429" lon="-4.336704">
        <ele>912.005</ele>
        <time>2017-01-08T11:47:10Z</time>
      </trkpt>
      <trkpt lat="37.334536" lon="-4.336778">
        <ele>915.325</ele>
        <time>2017-01-08T11:47:24Z</time>
      </trkpt>
      <trkpt lat="37.334645" lon="-4.336860">
        <ele>917.708</ele>
        <time>2017-01-08T11:47:38Z</time>
      </trkpt>
      <trkpt lat="37.334668" lon="-4.336879">
        <ele>918.248</ele>
        <time>2017-01-08T11:47:41Z</time>
      </trkpt>
      <trkpt lat="37.334734" lon="-4.336928">
        <ele>920.163</ele>
        <time>2017-01-08T11:47:54Z</time>
      </trkpt>
      <trkpt lat="37.334845" lon="-4.336980">
        <ele>923.517</ele>
        <time>2017-01-08T11:48:08Z</time>
      </trkpt>
      <trkpt lat="37.334956" lon="-4.337111">
        <ele>926.482</ele>
        <time>2017-01-08T11:48:23Z</time>
      </trkpt>
      <trkpt lat="37.335058" lon="-4.337224">
        <ele>929.351</ele>
        <time>2017-01-08T11:48:37Z</time>
      </trkpt>
      <trkpt lat="37.335096" lon="-4.337309">
        <ele>931.276</ele>
        <time>2017-01-08T11:48:51Z</time>
      </trkpt>
      <trkpt lat="37.335109" lon="-4.337369">
        <ele>931.240</ele>
        <time>2017-01-08T11:49:08Z</time>
      </trkpt>
      <trkpt lat="37.335123" lon="-4.337391">
        <ele>932.647</ele>
        <time>2017-01-08T11:49:10Z</time>
      </trkpt>
      <trkpt lat="37.335214" lon="-4.337498">
        <ele>936.037</ele>
        <time>2017-01-08T11:49:22Z</time>
      </trkpt>
      <trkpt lat="37.335312" lon="-4.337642">
        <ele>939.449</ele>
        <time>2017-01-08T11:49:35Z</time>
      </trkpt>
      <trkpt lat="37.335400" lon="-4.337799">
        <ele>942.713</ele>
        <time>2017-01-08T11:49:48Z</time>
      </trkpt>
      <trkpt lat="37.335464" lon="-4.337948">
        <ele>946.108</ele>
        <time>2017-01-08T11:50:02Z</time>
      </trkpt>
      <trkpt lat="37.335525" lon="-4.338080">
        <ele>948.534</ele>
        <time>2017-01-08T11:50:16Z</time>
      </trkpt>
      <trkpt lat="37.335553" lon="-4.338173">
        <ele>950.449</ele>
        <time>2017-01-08T11:50:30Z</time>
      </trkpt>
      <trkpt lat="37.335557" lon="-4.338205">
        <ele>950.973</ele>
        <time>2017-01-08T11:50:43Z</time>
      </trkpt>
      <trkpt lat="37.335608" lon="-4.338329">
        <ele>952.858</ele>
        <time>2017-01-08T11:50:58Z</time>
      </trkpt>
      <trkpt lat="37.335658" lon="-4.338461">
        <ele>956.247</ele>
        <time>2017-01-08T11:51:09Z</time>
      </trkpt>
      <trkpt lat="37.335669" lon="-4.338486">
        <ele>956.222</ele>
        <time>2017-01-08T11:51:11Z</time>
      </trkpt>
      <trkpt lat="37.335681" lon="-4.338555">
        <ele>957.676</ele>
        <time>2017-01-08T11:51:16Z</time>
      </trkpt>
      <trkpt lat="37.335743" lon="-4.338718">
        <ele>961.073</ele>
        <time>2017-01-08T11:51:29Z</time>
      </trkpt>
      <trkpt lat="37.335777" lon="-4.338831">
        <ele>962.434</ele>
        <time>2017-01-08T11:51:41Z</time>
      </trkpt>
      <trkpt lat="37.335814" lon="-4.338977">
        <ele>965.355</ele>
        <time>2017-01-08T11:51:53Z</time>
      </trkpt>
      <trkpt lat="37.335841" lon="-4.339075">
        <ele>966.310</ele>
        <time>2017-01-08T11:52:15Z</time>
      </trkpt>
      <trkpt lat="37.335823" lon="-4.339154">
        <ele>966.708</ele>
        <time>2017-01-08T11:52:42Z</time>
      </trkpt>
      <trkpt lat="37.335752" lon="-4.339164">
        <ele>967.754</ele>
        <time>2017-01-08T11:52:59Z</time>
      </trkpt>
      <trkpt lat="37.335669" lon="-4.339194">
        <ele>969.679</ele>
        <time>2017-01-08T11:53:20Z</time>
      </trkpt>
      <trkpt lat="37.335617" lon="-4.339240">
        <ele>973.063</ele>
        <time>2017-01-08T11:53:30Z</time>
      </trkpt>
      <trkpt lat="37.335566" lon="-4.339298">
        <ele>976.428</ele>
        <time>2017-01-08T11:53:40Z</time>
      </trkpt>
      <trkpt lat="37.335492" lon="-4.339308">
        <ele>979.297</ele>
        <time>2017-01-08T11:53:50Z</time>
      </trkpt>
      <trkpt lat="37.335315" lon="-4.339185">
        <ele>981.672</ele>
        <time>2017-01-08T11:54:06Z</time>
      </trkpt>
      <trkpt lat="37.335183" lon="-4.339078">
        <ele>983.636</ele>
        <time>2017-01-08T11:54:20Z</time>
      </trkpt>
      <trkpt lat="37.335084" lon="-4.339024">
        <ele>985.083</ele>
        <time>2017-01-08T11:54:30Z</time>
      </trkpt>
      <trkpt lat="37.335033" lon="-4.338999">
        <ele>986.081</ele>
        <time>2017-01-08T11:54:35Z</time>
      </trkpt>
      <trkpt lat="37.335008" lon="-4.338991">
        <ele>986.061</ele>
        <time>2017-01-08T11:54:37Z</time>
      </trkpt>
      <trkpt lat="37.334926" lon="-4.338994">
        <ele>987.417</ele>
        <time>2017-01-08T11:54:50Z</time>
      </trkpt>
      <trkpt lat="37.334834" lon="-4.338977">
        <ele>988.408</ele>
        <time>2017-01-08T11:55:03Z</time>
      </trkpt>
      <trkpt lat="37.334822" lon="-4.338972">
        <ele>988.419</ele>
        <time>2017-01-08T11:55:04Z</time>
      </trkpt>
      <trkpt lat="37.334675" lon="-4.338839">
        <ele>990.334</ele>
        <time>2017-01-08T11:55:17Z</time>
      </trkpt>
      <trkpt lat="37.334527" lon="-4.338652">
        <ele>991.798</ele>
        <time>2017-01-08T11:55:32Z</time>
      </trkpt>
      <trkpt lat="37.334505" lon="-4.338586">
        <ele>991.773</ele>
        <time>2017-01-08T11:55:50Z</time>
      </trkpt>
      <trkpt lat="37.334464" lon="-4.338617">
        <ele>991.772</ele>
        <time>2017-01-08T11:56:08Z</time>
      </trkpt>
      <trkpt lat="37.334446" lon="-4.338531">
        <ele>992.227</ele>
        <time>2017-01-08T11:56:35Z</time>
      </trkpt>
      <trkpt lat="37.334474" lon="-4.338557">
        <ele>992.261</ele>
        <time>2017-01-08T11:57:01Z</time>
      </trkpt>
      <trkpt lat="37.334482" lon="-4.338612">
        <ele>992.218</ele>
        <time>2017-01-08T11:57:19Z</time>
      </trkpt>
      <trkpt lat="37.334480" lon="-4.338582">
        <ele>992.246</ele>
        <time>2017-01-08T11:57:39Z</time>
      </trkpt>
      <trkpt lat="37.334450" lon="-4.338545">
        <ele>992.288</ele>
        <time>2017-01-08T11:58:02Z</time>
      </trkpt>
      <trkpt lat="37.334412" lon="-4.338584">
        <ele>992.216</ele>
        <time>2017-01-08T11:58:26Z</time>
      </trkpt>
      <trkpt lat="37.334347" lon="-4.338618">
        <ele>992.208</ele>
        <time>2017-01-08T11:58:32Z</time>
      </trkpt>
      <trkpt lat="37.334215" lon="-4.338600">
        <ele>992.235</ele>
        <time>2017-01-08T11:58:45Z</time>
      </trkpt>
      <trkpt lat="37.334163" lon="-4.338554">
        <ele>992.260</ele>
        <time>2017-01-08T11:58:51Z</time>
      </trkpt>
      <trkpt lat="37.334137" lon="-4.338528">
        <ele>991.774</ele>
        <time>2017-01-08T11:58:54Z</time>
      </trkpt>
      <trkpt lat="37.334044" lon="-4.338435">
        <ele>991.729</ele>
        <time>2017-01-08T11:59:04Z</time>
      </trkpt>
      <trkpt lat="37.333978" lon="-4.338352">
        <ele>991.768</ele>
        <time>2017-01-08T11:59:18Z</time>
      </trkpt>
      <trkpt lat="37.333941" lon="-4.338307">
        <ele>991.773</ele>
        <time>2017-01-08T11:59:24Z</time>
      </trkpt>
      <trkpt lat="37.333906" lon="-4.338253">
        <ele>991.777</ele>
        <time>2017-01-08T11:59:29Z</time>
      </trkpt>
      <trkpt lat="37.333870" lon="-4.338191">
        <ele>991.754</ele>
        <time>2017-01-08T11:59:34Z</time>
      </trkpt>
      <trkpt lat="37.333796" lon="-4.338021">
        <ele>991.772</ele>
        <time>2017-01-08T11:59:47Z</time>
      </trkpt>
      <trkpt lat="37.333745" lon="-4.337928">
        <ele>991.713</ele>
        <time>2017-01-08T12:00:02Z</time>
      </trkpt>
      <trkpt lat="37.333691" lon="-4.337983">
        <ele>991.714</ele>
        <time>2017-01-08T12:00:30Z</time>
      </trkpt>
      <trkpt lat="37.333682" lon="-4.337975">
        <ele>991.708</ele>
        <time>2017-01-08T12:00:31Z</time>
      </trkpt>
      <trkpt lat="37.333485" lon="-4.337836">
        <ele>991.778</ele>
        <time>2017-01-08T12:00:49Z</time>
      </trkpt>
      <trkpt lat="37.333473" lon="-4.337831">
        <ele>991.733</ele>
        <time>2017-01-08T12:00:50Z</time>
      </trkpt>
      <trkpt lat="37.333420" lon="-4.337805">
        <ele>990.367</ele>
        <time>2017-01-08T12:00:54Z</time>
      </trkpt>
      <trkpt lat="37.333221" lon="-4.337769">
        <ele>990.852</ele>
        <time>2017-01-08T12:01:10Z</time>
      </trkpt>
      <trkpt lat="37.333215" lon="-4.337768">
        <ele>991.711</ele>
        <time>2017-01-08T12:01:12Z</time>
      </trkpt>
      <trkpt lat="37.333095" lon="-4.337750">
        <ele>992.266</ele>
        <time>2017-01-08T12:01:25Z</time>
      </trkpt>
      <trkpt lat="37.333062" lon="-4.337780">
        <ele>992.280</ele>
        <time>2017-01-08T12:01:41Z</time>
      </trkpt>
      <trkpt lat="37.333007" lon="-4.337797">
        <ele>992.767</ele>
        <time>2017-01-08T12:02:04Z</time>
      </trkpt>
      <trkpt lat="37.332966" lon="-4.337792">
        <ele>993.254</ele>
        <time>2017-01-08T12:02:18Z</time>
      </trkpt>
      <trkpt lat="37.332961" lon="-4.337798">
        <ele>993.256</ele>
        <time>2017-01-08T12:02:36Z</time>
      </trkpt>
      <trkpt lat="37.332981" lon="-4.337745">
        <ele>993.711</ele>
        <time>2017-01-08T12:02:54Z</time>
      </trkpt>
      <trkpt lat="37.332980" lon="-4.337772">
        <ele>993.708</ele>
        <time>2017-01-08T12:03:11Z</time>
      </trkpt>
      <trkpt lat="37.332969" lon="-4.337806">
        <ele>993.726</ele>
        <time>2017-01-08T12:03:14Z</time>
      </trkpt>
      <trkpt lat="37.332880" lon="-4.337983">
        <ele>995.131</ele>
        <time>2017-01-08T12:03:30Z</time>
      </trkpt>
      <trkpt lat="37.332827" lon="-4.338217">
        <ele>996.145</ele>
        <time>2017-01-08T12:03:46Z</time>
      </trkpt>
      <trkpt lat="37.332799" lon="-4.338487">
        <ele>996.550</ele>
        <time>2017-01-08T12:04:04Z</time>
      </trkpt>
      <trkpt lat="37.332782" lon="-4.338635">
        <ele>995.119</ele>
        <time>2017-01-08T12:04:14Z</time>
      </trkpt>
      <trkpt lat="37.332800" lon="-4.338883">
        <ele>995.134</ele>
        <time>2017-01-08T12:04:28Z</time>
      </trkpt>
      <trkpt lat="37.332869" lon="-4.339165">
        <ele>995.188</ele>
        <time>2017-01-08T12:04:46Z</time>
      </trkpt>
      <trkpt lat="37.332872" lon="-4.339179">
        <ele>995.135</ele>
        <time>2017-01-08T12:04:47Z</time>
      </trkpt>
      <trkpt lat="37.332889" lon="-4.339226">
        <ele>995.153</ele>
        <time>2017-01-08T12:04:50Z</time>
      </trkpt>
      <trkpt lat="37.332963" lon="-4.339365">
        <ele>996.104</ele>
        <time>2017-01-08T12:05:01Z</time>
      </trkpt>
      <trkpt lat="37.333009" lon="-4.339450">
        <ele>997.514</ele>
        <time>2017-01-08T12:05:09Z</time>
      </trkpt>
      <trkpt lat="37.333131" lon="-4.339571">
        <ele>999.908</ele>
        <time>2017-01-08T12:05:25Z</time>
      </trkpt>
      <trkpt lat="37.333238" lon="-4.339652">
        <ele>1003.386</ele>
        <time>2017-01-08T12:05:37Z</time>
      </trkpt>
      <trkpt lat="37.333352" lon="-4.339739">
        <ele>1006.231</ele>
        <time>2017-01-08T12:05:50Z</time>
      </trkpt>
      <trkpt lat="37.333388" lon="-4.339803">
        <ele>1007.125</ele>
        <time>2017-01-08T12:06:01Z</time>
      </trkpt>
      <trkpt lat="37.333468" lon="-4.339898">
        <ele>1010.070</ele>
        <time>2017-01-08T12:06:15Z</time>
      </trkpt>
      <trkpt lat="37.333484" lon="-4.339911">
        <ele>1010.519</ele>
        <time>2017-01-08T12:06:17Z</time>
      </trkpt>
      <trkpt lat="37.333642" lon="-4.340002">
        <ele>1013.464</ele>
        <time>2017-01-08T12:06:33Z</time>
      </trkpt>
      <trkpt lat="37.333754" lon="-4.340090">
        <ele>1016.388</ele>
        <time>2017-01-08T12:06:48Z</time>
      </trkpt>
      <trkpt lat="37.333849" lon="-4.340159">
        <ele>1018.285</ele>
        <time>2017-01-08T12:07:01Z</time>
      </trkpt>
      <trkpt lat="37.333946" lon="-4.340278">
        <ele>1021.583</ele>
        <time>2017-01-08T12:07:15Z</time>
      </trkpt>
      <trkpt lat="37.334040" lon="-4.340398">
        <ele>1023.925</ele>
        <time>2017-01-08T12:07:28Z</time>
      </trkpt>
      <trkpt lat="37.334115" lon="-4.340493">
        <ele>1025.917</ele>
        <time>2017-01-08T12:07:40Z</time>
      </trkpt>
      <trkpt lat="37.334108" lon="-4.340533">
        <ele>1028.808</ele>
        <time>2017-01-08T12:07:51Z</time>
      </trkpt>
      <trkpt lat="37.334137" lon="-4.340639">
        <ele>1028.379</ele>
        <time>2017-01-08T12:08:01Z</time>
      </trkpt>
      <trkpt lat="37.334200" lon="-4.340776">
        <ele>1031.614</ele>
        <time>2017-01-08T12:08:13Z</time>
      </trkpt>
      <trkpt lat="37.334290" lon="-4.340907">
        <ele>1035.028</ele>
        <time>2017-01-08T12:08:27Z</time>
      </trkpt>
      <trkpt lat="37.334356" lon="-4.341006">
        <ele>1037.963</ele>
        <time>2017-01-08T12:08:40Z</time>
      </trkpt>
      <trkpt lat="37.334338" lon="-4.340989">
        <ele>1037.982</ele>
        <time>2017-01-08T12:08:50Z</time>
      </trkpt>
      <trkpt lat="37.334392" lon="-4.341029">
        <ele>1039.387</ele>
        <time>2017-01-08T12:08:58Z</time>
      </trkpt>
      <trkpt lat="37.334351" lon="-4.341094">
        <ele>1041.751</ele>
        <time>2017-01-08T12:09:10Z</time>
      </trkpt>
      <trkpt lat="37.334358" lon="-4.341120">
        <ele>1042.218</ele>
        <time>2017-01-08T12:09:23Z</time>
      </trkpt>
      <trkpt lat="37.334333" lon="-4.341228">
        <ele>1045.656</ele>
        <time>2017-01-08T12:09:33Z</time>
      </trkpt>
      <trkpt lat="37.334280" lon="-4.341273">
        <ele>1048.959</ele>
        <time>2017-01-08T12:09:45Z</time>
      </trkpt>
      <trkpt lat="37.334177" lon="-4.341377">
        <ele>1052.314</ele>
        <time>2017-01-08T12:09:58Z</time>
      </trkpt>
      <trkpt lat="37.334156" lon="-4.341450">
        <ele>1055.208</ele>
        <time>2017-01-08T12:10:09Z</time>
      </trkpt>
      <trkpt lat="37.334143" lon="-4.341536">
        <ele>1058.166</ele>
        <time>2017-01-08T12:10:23Z</time>
      </trkpt>
      <trkpt lat="37.334146" lon="-4.341614">
        <ele>1061.481</ele>
        <time>2017-01-08T12:10:34Z</time>
      </trkpt>
      <trkpt lat="37.334142" lon="-4.341681">
        <ele>1064.825</ele>
        <time>2017-01-08T12:10:48Z</time>
      </trkpt>
      <trkpt lat="37.334163" lon="-4.341711">
        <ele>1065.860</ele>
        <time>2017-01-08T12:11:08Z</time>
      </trkpt>
      <trkpt lat="37.334167" lon="-4.341730">
        <ele>1067.239</ele>
        <time>2017-01-08T12:11:11Z</time>
      </trkpt>
      <trkpt lat="37.334149" lon="-4.341795">
        <ele>1069.664</ele>
        <time>2017-01-08T12:11:21Z</time>
      </trkpt>
      <trkpt lat="37.334079" lon="-4.341842">
        <ele>1072.078</ele>
        <time>2017-01-08T12:11:33Z</time>
      </trkpt>
      <trkpt lat="37.333962" lon="-4.341868">
        <ele>1074.915</ele>
        <time>2017-01-08T12:11:50Z</time>
      </trkpt>
      <trkpt lat="37.333867" lon="-4.341913">
        <ele>1077.814</ele>
        <time>2017-01-08T12:12:04Z</time>
      </trkpt>
      <trkpt lat="37.333778" lon="-4.341961">
        <ele>1080.254</ele>
        <time>2017-01-08T12:12:17Z</time>
      </trkpt>
      <trkpt lat="37.333815" lon="-4.342004">
        <ele>1082.109</ele>
        <time>2017-01-08T12:12:33Z</time>
      </trkpt>
      <trkpt lat="37.333865" lon="-4.342039">
        <ele>1082.108</ele>
        <time>2017-01-08T12:12:53Z</time>
      </trkpt>
      <trkpt lat="37.333932" lon="-4.342014">
        <ele>1081.142</ele>
        <time>2017-01-08T12:13:10Z</time>
      </trkpt>
      <trkpt lat="37.333961" lon="-4.342005">
        <ele>1081.167</ele>
        <time>2017-01-08T12:13:28Z</time>
      </trkpt>
      <trkpt lat="37.333935" lon="-4.342011">
        <ele>1081.121</ele>
        <time>2017-01-08T12:13:47Z</time>
      </trkpt>
      <trkpt lat="37.333861" lon="-4.341978">
        <ele>1082.176</ele>
        <time>2017-01-08T12:14:05Z</time>
      </trkpt>
      <trkpt lat="37.333851" lon="-4.341978">
        <ele>1082.125</ele>
        <time>2017-01-08T12:14:06Z</time>
      </trkpt>
      <trkpt lat="37.333809" lon="-4.341980">
        <ele>1082.640</ele>
        <time>2017-01-08T12:14:10Z</time>
      </trkpt>
      <trkpt lat="37.333676" lon="-4.342001">
        <ele>1085.094</ele>
        <time>2017-01-08T12:14:23Z</time>
      </trkpt>
      <trkpt lat="37.333571" lon="-4.341996">
        <ele>1087.451</ele>
        <time>2017-01-08T12:14:35Z</time>
      </trkpt>
      <trkpt lat="37.333558" lon="-4.342002">
        <ele>1087.975</ele>
        <time>2017-01-08T12:14:48Z</time>
      </trkpt>
      <trkpt lat="37.333493" lon="-4.341978">
        <ele>1089.328</ele>
        <time>2017-01-08T12:15:03Z</time>
      </trkpt>
      <trkpt lat="37.333390" lon="-4.342002">
        <ele>1092.220</ele>
        <time>2017-01-08T12:15:13Z</time>
      </trkpt>
      <trkpt lat="37.333383" lon="-4.342065">
        <ele>1092.708</ele>
        <time>2017-01-08T12:15:20Z</time>
      </trkpt>
      <trkpt lat="37.333379" lon="-4.342018">
        <ele>1091.278</ele>
        <time>2017-01-08T12:15:35Z</time>
      </trkpt>
      <trkpt lat="37.333375" lon="-4.342019">
        <ele>1091.263</ele>
        <time>2017-01-08T12:15:40Z</time>
      </trkpt>
      <trkpt lat="37.333398" lon="-4.342121">
        <ele>1092.737</ele>
        <time>2017-01-08T12:15:48Z</time>
      </trkpt>
      <trkpt lat="37.333460" lon="-4.342210">
        <ele>1095.112</ele>
        <time>2017-01-08T12:16:01Z</time>
      </trkpt>
      <trkpt lat="37.333596" lon="-4.342287">
        <ele>1097.581</ele>
        <time>2017-01-08T12:16:16Z</time>
      </trkpt>
      <trkpt lat="37.333727" lon="-4.342372">
        <ele>1099.926</ele>
        <time>2017-01-08T12:16:31Z</time>
      </trkpt>
      <trkpt lat="37.333771" lon="-4.342409">
        <ele>1101.370</ele>
        <time>2017-01-08T12:16:36Z</time>
      </trkpt>
      <trkpt lat="37.333862" lon="-4.342523">
        <ele>1103.397</ele>
        <time>2017-01-08T12:16:50Z</time>
      </trkpt>
      <trkpt lat="37.333981" lon="-4.342639">
        <ele>1106.186</ele>
        <time>2017-01-08T12:17:04Z</time>
      </trkpt>
      <trkpt lat="37.334024" lon="-4.342675">
        <ele>1106.660</ele>
        <time>2017-01-08T12:17:18Z</time>
      </trkpt>
      <trkpt lat="37.334101" lon="-4.342781">
        <ele>1108.126</ele>
        <time>2017-01-08T12:17:34Z</time>
      </trkpt>
      <trkpt lat="37.334123" lon="-4.342813">
        <ele>1109.008</ele>
        <time>2017-01-08T12:17:37Z</time>
      </trkpt>
      <trkpt lat="37.334212" lon="-4.342922">
        <ele>1110.589</ele>
        <time>2017-01-08T12:17:48Z</time>
      </trkpt>
      <trkpt lat="37.334229" lon="-4.342966">
        <ele>1110.994</ele>
        <time>2017-01-08T12:17:52Z</time>
      </trkpt>
      <trkpt lat="37.334299" lon="-4.343072">
        <ele>1111.418</ele>
        <time>2017-01-08T12:18:02Z</time>
      </trkpt>
      <trkpt lat="37.334307" lon="-4.343114">
        <ele>1111.983</ele>
        <time>2017-01-08T12:18:05Z</time>
      </trkpt>
      <trkpt lat="37.334330" lon="-4.343170">
        <ele>1112.432</ele>
        <time>2017-01-08T12:18:09Z</time>
      </trkpt>
      <trkpt lat="37.334331" lon="-4.343234">
        <ele>1113.847</ele>
        <time>2017-01-08T12:18:14Z</time>
      </trkpt>
      <trkpt lat="37.334312" lon="-4.343265">
        <ele>1114.831</ele>
        <time>2017-01-08T12:18:28Z</time>
      </trkpt>
      <trkpt lat="37.334304" lon="-4.343269">
        <ele>1114.838</ele>
        <time>2017-01-08T12:18:34Z</time>
      </trkpt>
      <trkpt lat="37.334286" lon="-4.343287">
        <ele>1115.325</ele>
        <time>2017-01-08T12:18:46Z</time>
      </trkpt>
      <trkpt lat="37.334293" lon="-4.343274">
        <ele>1115.826</ele>
        <time>2017-01-08T12:19:16Z</time>
      </trkpt>
      <trkpt lat="37.334278" lon="-4.343243">
        <ele>1115.808</ele>
        <time>2017-01-08T12:19:28Z</time>
      </trkpt>
      <trkpt lat="37.334155" lon="-4.343262">
        <ele>1118.208</ele>
        <time>2017-01-08T12:19:42Z</time>
      </trkpt>
      <trkpt lat="37.334128" lon="-4.343277">
        <ele>1118.223</ele>
        <time>2017-01-08T12:19:56Z</time>
      </trkpt>
      <trkpt lat="37.334011" lon="-4.343261">
        <ele>1120.698</ele>
        <time>2017-01-08T12:20:10Z</time>
      </trkpt>
      <trkpt lat="37.333887" lon="-4.343276">
        <ele>1123.472</ele>
        <time>2017-01-08T12:20:23Z</time>
      </trkpt>
      <trkpt lat="37.333839" lon="-4.343297">
        <ele>1123.987</ele>
        <time>2017-01-08T12:20:27Z</time>
      </trkpt>
      <trkpt lat="37.333797" lon="-4.343355">
        <ele>1124.436</ele>
        <time>2017-01-08T12:20:40Z</time>
      </trkpt>
      <trkpt lat="37.333818" lon="-4.343346">
        <ele>1124.431</ele>
        <time>2017-01-08T12:20:56Z</time>
      </trkpt>
      <trkpt lat="37.333793" lon="-4.343447">
        <ele>1124.485</ele>
        <time>2017-01-08T12:21:09Z</time>
      </trkpt>
      <trkpt lat="37.333799" lon="-4.343460">
        <ele>1124.492</ele>
        <time>2017-01-08T12:21:24Z</time>
      </trkpt>
      <trkpt lat="37.333788" lon="-4.343465">
        <ele>1123.987</ele>
        <time>2017-01-08T12:21:45Z</time>
      </trkpt>
      <trkpt lat="37.333813" lon="-4.343505">
        <ele>1123.942</ele>
        <time>2017-01-08T12:21:58Z</time>
      </trkpt>
      <trkpt lat="37.333806" lon="-4.343496">
        <ele>1123.926</ele>
        <time>2017-01-08T12:22:08Z</time>
      </trkpt>
      <trkpt lat="37.333878" lon="-4.343501">
        <ele>1122.508</ele>
        <time>2017-01-08T12:22:14Z</time>
      </trkpt>
      <trkpt lat="37.333932" lon="-4.343510">
        <ele>1121.539</ele>
        <time>2017-01-08T12:22:18Z</time>
      </trkpt>
      <trkpt lat="37.333991" lon="-4.343537">
        <ele>1120.634</ele>
        <time>2017-01-08T12:22:30Z</time>
      </trkpt>
      <trkpt lat="37.333974" lon="-4.343583">
        <ele>1120.688</ele>
        <time>2017-01-08T12:22:55Z</time>
      </trkpt>
      <trkpt lat="37.333983" lon="-4.343561">
        <ele>1120.143</ele>
        <time>2017-01-08T12:23:23Z</time>
      </trkpt>
      <trkpt lat="37.334012" lon="-4.343562">
        <ele>1120.192</ele>
        <time>2017-01-08T12:23:26Z</time>
      </trkpt>
      <trkpt lat="37.334051" lon="-4.343577">
        <ele>1120.167</ele>
        <time>2017-01-08T12:23:30Z</time>
      </trkpt>
      <trkpt lat="37.334070" lon="-4.343588">
        <ele>1120.141</ele>
        <time>2017-01-08T12:23:32Z</time>
      </trkpt>
      <trkpt lat="37.334110" lon="-4.343601">
        <ele>1119.648</ele>
        <time>2017-01-08T12:23:49Z</time>
      </trkpt>
      <trkpt lat="37.334202" lon="-4.343612">
        <ele>1119.652</ele>
        <time>2017-01-08T12:24:02Z</time>
      </trkpt>
      <trkpt lat="37.334249" lon="-4.343616">
        <ele>1121.053</ele>
        <time>2017-01-08T12:24:07Z</time>
      </trkpt>
      <trkpt lat="37.334355" lon="-4.343607">
        <ele>1123.408</ele>
        <time>2017-01-08T12:24:20Z</time>
      </trkpt>
      <trkpt lat="37.334491" lon="-4.343642">
        <ele>1123.408</ele>
        <time>2017-01-08T12:24:32Z</time>
      </trkpt>
      <trkpt lat="37.334565" lon="-4.343694">
        <ele>1124.416</ele>
        <time>2017-01-08T12:24:40Z</time>
      </trkpt>
      <trkpt lat="37.334584" lon="-4.343700">
        <ele>1125.421</ele>
        <time>2017-01-08T12:24:42Z</time>
      </trkpt>
      <trkpt lat="37.334692" lon="-4.343781">
        <ele>1128.215</ele>
        <time>2017-01-08T12:24:53Z</time>
      </trkpt>
      <trkpt lat="37.334731" lon="-4.343815">
        <ele>1128.770</ele>
        <time>2017-01-08T12:24:57Z</time>
      </trkpt>
      <trkpt lat="37.334753" lon="-4.343819">
        <ele>1129.229</ele>
        <time>2017-01-08T12:24:59Z</time>
      </trkpt>
      <trkpt lat="37.334792" lon="-4.343866">
        <ele>1130.794</ele>
        <time>2017-01-08T12:25:11Z</time>
      </trkpt>
      <trkpt lat="37.334909" lon="-4.343906">
        <ele>1133.128</ele>
        <time>2017-01-08T12:25:23Z</time>
      </trkpt>
      <trkpt lat="37.334998" lon="-4.343959">
        <ele>1135.015</ele>
        <time>2017-01-08T12:25:36Z</time>
      </trkpt>
      <trkpt lat="37.335079" lon="-4.343978">
        <ele>1135.958</ele>
        <time>2017-01-08T12:25:51Z</time>
      </trkpt>
      <trkpt lat="37.335164" lon="-4.344013">
        <ele>1136.952</ele>
        <time>2017-01-08T12:26:02Z</time>
      </trkpt>
      <trkpt lat="37.335212" lon="-4.344039">
        <ele>1137.917</ele>
        <time>2017-01-08T12:26:07Z</time>
      </trkpt>
      <trkpt lat="37.335304" lon="-4.344039">
        <ele>1138.808</ele>
        <time>2017-01-08T12:26:19Z</time>
      </trkpt>
      <trkpt lat="37.335322" lon="-4.344047">
        <ele>1138.866</ele>
        <time>2017-01-08T12:26:24Z</time>
      </trkpt>
      <trkpt lat="37.335416" lon="-4.344122">
        <ele>1142.231</ele>
        <time>2017-01-08T12:26:36Z</time>
      </trkpt>
      <trkpt lat="37.335525" lon="-4.344174">
        <ele>1145.655</ele>
        <time>2017-01-08T12:26:47Z</time>
      </trkpt>
      <trkpt lat="37.335586" lon="-4.344221">
        <ele>1148.920</ele>
        <time>2017-01-08T12:26:56Z</time>
      </trkpt>
      <trkpt lat="37.335623" lon="-4.344265">
        <ele>1150.419</ele>
        <time>2017-01-08T12:27:01Z</time>
      </trkpt>
      <trkpt lat="37.335689" lon="-4.344362">
        <ele>1154.774</ele>
        <time>2017-01-08T12:27:12Z</time>
      </trkpt>
      <trkpt lat="37.335761" lon="-4.344434">
        <ele>1158.198</ele>
        <time>2017-01-08T12:27:23Z</time>
      </trkpt>
      <trkpt lat="37.335814" lon="-4.344516">
        <ele>1161.485</ele>
        <time>2017-01-08T12:27:34Z</time>
      </trkpt>
      <trkpt lat="37.335844" lon="-4.344618">
        <ele>1164.879</ele>
        <time>2017-01-08T12:27:46Z</time>
      </trkpt>
      <trkpt lat="37.335845" lon="-4.344663">
        <ele>1165.705</ele>
        <time>2017-01-08T12:28:07Z</time>
      </trkpt>
      <trkpt lat="37.335846" lon="-4.344725">
        <ele>1168.125</ele>
        <time>2017-01-08T12:28:23Z</time>
      </trkpt>
      <trkpt lat="37.335836" lon="-4.344729">
        <ele>1168.108</ele>
        <time>2017-01-08T12:28:53Z</time>
      </trkpt>
      <trkpt lat="37.335844" lon="-4.344781">
        <ele>1170.128</ele>
        <time>2017-01-08T12:29:12Z</time>
      </trkpt>
      <trkpt lat="37.335882" lon="-4.344892">
        <ele>1173.443</ele>
        <time>2017-01-08T12:29:24Z</time>
      </trkpt>
      <trkpt lat="37.335893" lon="-4.344960">
        <ele>1174.417</ele>
        <time>2017-01-08T12:29:38Z</time>
      </trkpt>
      <trkpt lat="37.335898" lon="-4.344960">
        <ele>1174.952</ele>
        <time>2017-01-08T12:30:02Z</time>
      </trkpt>
      <trkpt lat="37.335886" lon="-4.344972">
        <ele>1174.981</ele>
        <time>2017-01-08T12:30:24Z</time>
      </trkpt>
      <trkpt lat="37.335906" lon="-4.344996">
        <ele>1175.856</ele>
        <time>2017-01-08T12:30:39Z</time>
      </trkpt>
      <trkpt lat="37.335963" lon="-4.345052">
        <ele>1178.750</ele>
        <time>2017-01-08T12:30:50Z</time>
      </trkpt>
      <trkpt lat="37.336028" lon="-4.345106">
        <ele>1182.117</ele>
        <time>2017-01-08T12:31:00Z</time>
      </trkpt>
      <trkpt lat="37.336081" lon="-4.345128">
        <ele>1184.532</ele>
        <time>2017-01-08T12:31:10Z</time>
      </trkpt>
      <trkpt lat="37.336131" lon="-4.345080">
        <ele>1187.492</ele>
        <time>2017-01-08T12:31:17Z</time>
      </trkpt>
      <trkpt lat="37.336154" lon="-4.345138">
        <ele>1188.811</ele>
        <time>2017-01-08T12:31:33Z</time>
      </trkpt>
      <trkpt lat="37.336176" lon="-4.345174">
        <ele>1190.308</ele>
        <time>2017-01-08T12:31:37Z</time>
      </trkpt>
      <trkpt lat="37.336185" lon="-4.345209">
        <ele>1190.724</ele>
        <time>2017-01-08T12:31:40Z</time>
      </trkpt>
      <trkpt lat="37.336210" lon="-4.345388">
        <ele>1194.139</ele>
        <time>2017-01-08T12:31:53Z</time>
      </trkpt>
      <trkpt lat="37.336240" lon="-4.345506">
        <ele>1197.993</ele>
        <time>2017-01-08T12:32:04Z</time>
      </trkpt>
      <trkpt lat="37.336266" lon="-4.345583">
        <ele>1200.878</ele>
        <time>2017-01-08T12:32:14Z</time>
      </trkpt>
      <trkpt lat="37.336301" lon="-4.345638">
        <ele>1203.277</ele>
        <time>2017-01-08T12:32:26Z</time>
      </trkpt>
      <trkpt lat="37.336295" lon="-4.345656">
        <ele>1203.782</ele>
        <time>2017-01-08T12:32:49Z</time>
      </trkpt>
      <trkpt lat="37.336295" lon="-4.345647">
        <ele>1203.716</ele>
        <time>2017-01-08T12:33:18Z</time>
      </trkpt>
      <trkpt lat="37.336343" lon="-4.345710">
        <ele>1206.623</ele>
        <time>2017-01-08T12:33:28Z</time>
      </trkpt>
      <trkpt lat="37.336382" lon="-4.345782">
        <ele>1210.064</ele>
        <time>2017-01-08T12:33:39Z</time>
      </trkpt>
      <trkpt lat="37.336397" lon="-4.345882">
        <ele>1212.806</ele>
        <time>2017-01-08T12:33:51Z</time>
      </trkpt>
      <trkpt lat="37.336378" lon="-4.345917">
        <ele>1213.316</ele>
        <time>2017-01-08T12:34:07Z</time>
      </trkpt>
      <trkpt lat="37.336380" lon="-4.345925">
        <ele>1213.308</ele>
        <time>2017-01-08T12:34:09Z</time>
      </trkpt>
      <trkpt lat="37.336377" lon="-4.345982">
        <ele>1213.887</ele>
        <time>2017-01-08T12:34:23Z</time>
      </trkpt>
      <trkpt lat="37.336388" lon="-4.346065">
        <ele>1215.282</ele>
        <time>2017-01-08T12:34:34Z</time>
      </trkpt>
      <trkpt lat="37.336383" lon="-4.346236">
        <ele>1216.726</ele>
        <time>2017-01-08T12:34:46Z</time>
      </trkpt>
      <trkpt lat="37.336350" lon="-4.346447">
        <ele>1218.611</ele>
        <time>2017-01-08T12:35:00Z</time>
      </trkpt>
      <trkpt lat="37.336353" lon="-4.346541">
        <ele>1220.540</ele>
        <time>2017-01-08T12:35:12Z</time>
      </trkpt>
      <trkpt lat="37.336398" lon="-4.346538">
        <ele>1222.035</ele>
        <time>2017-01-08T12:35:27Z</time>
      </trkpt>
      <trkpt lat="37.336403" lon="-4.346518">
        <ele>1222.529</ele>
        <time>2017-01-08T12:35:51Z</time>
      </trkpt>
      <trkpt lat="37.336437" lon="-4.346476">
        <ele>1223.956</ele>
        <time>2017-01-08T12:36:04Z</time>
      </trkpt>
      <trkpt lat="37.336450" lon="-4.346446">
        <ele>1224.449</ele>
        <time>2017-01-08T12:36:20Z</time>
      </trkpt>
      <trkpt lat="37.336537" lon="-4.346327">
        <ele>1228.202</ele>
        <time>2017-01-08T12:36:32Z</time>
      </trkpt>
      <trkpt lat="37.336544" lon="-4.346317">
        <ele>1228.222</ele>
        <time>2017-01-08T12:36:33Z</time>
      </trkpt>
      <trkpt lat="37.336635" lon="-4.346210">
        <ele>1232.108</ele>
        <time>2017-01-08T12:36:44Z</time>
      </trkpt>
      <trkpt lat="37.336663" lon="-4.346218">
        <ele>1233.525</ele>
        <time>2017-01-08T12:36:59Z</time>
      </trkpt>
      <trkpt lat="37.336666" lon="-4.346220">
        <ele>1233.540</ele>
        <time>2017-01-08T12:37:19Z</time>
      </trkpt>
      <trkpt lat="37.336695" lon="-4.346238">
        <ele>1234.594</ele>
        <time>2017-01-08T12:37:41Z</time>
      </trkpt>
      <trkpt lat="37.336708" lon="-4.346253">
        <ele>1235.029</ele>
        <time>2017-01-08T12:37:58Z</time>
      </trkpt>
      <trkpt lat="37.336710" lon="-4.346255">
        <ele>1235.058</ele>
        <time>2017-01-08T12:38:20Z</time>
      </trkpt>
      <trkpt lat="37.336713" lon="-4.346255">
        <ele>1235.063</ele>
        <time>2017-01-08T12:38:47Z</time>
      </trkpt>
      <trkpt lat="37.336711" lon="-4.346257">
        <ele>1234.537</ele>
        <time>2017-01-08T12:39:09Z</time>
      </trkpt>
      <trkpt lat="37.336680" lon="-4.346289">
        <ele>1234.534</ele>
        <time>2017-01-08T12:39:17Z</time>
      </trkpt>
      <trkpt lat="37.336712" lon="-4.346324">
        <ele>1235.058</ele>
        <time>2017-01-08T12:39:32Z</time>
      </trkpt>
      <trkpt lat="37.336702" lon="-4.346384">
        <ele>1235.052</ele>
        <time>2017-01-08T12:39:45Z</time>
      </trkpt>
      <trkpt lat="37.336653" lon="-4.346499">
        <ele>1235.917</ele>
        <time>2017-01-08T12:40:00Z</time>
      </trkpt>
      <trkpt lat="37.336590" lon="-4.346578">
        <ele>1236.408</ele>
        <time>2017-01-08T12:40:12Z</time>
      </trkpt>
      <trkpt lat="37.336558" lon="-4.346672">
        <ele>1237.846</ele>
        <time>2017-01-08T12:40:24Z</time>
      </trkpt>
      <trkpt lat="37.336530" lon="-4.346772">
        <ele>1240.261</ele>
        <time>2017-01-08T12:40:37Z</time>
      </trkpt>
      <trkpt lat="37.336529" lon="-4.346787">
        <ele>1240.225</ele>
        <time>2017-01-08T12:40:41Z</time>
      </trkpt>
      <trkpt lat="37.336511" lon="-4.346882">
        <ele>1242.280</ele>
        <time>2017-01-08T12:40:53Z</time>
      </trkpt>
      <trkpt lat="37.336515" lon="-4.346909">
        <ele>1243.649</ele>
        <time>2017-01-08T12:40:56Z</time>
      </trkpt>
      <trkpt lat="37.336483" lon="-4.347025">
        <ele>1246.554</ele>
        <time>2017-01-08T12:41:11Z</time>
      </trkpt>
      <trkpt lat="37.336491" lon="-4.347084">
        <ele>1247.538</ele>
        <time>2017-01-08T12:41:23Z</time>
      </trkpt>
      <trkpt lat="37.336490" lon="-4.347072">
        <ele>1247.935</ele>
        <time>2017-01-08T12:41:36Z</time>
      </trkpt>
      <trkpt lat="37.336483" lon="-4.347032">
        <ele>1247.952</ele>
        <time>2017-01-08T12:41:41Z</time>
      </trkpt>
      <trkpt lat="37.336489" lon="-4.347007">
        <ele>1246.553</ele>
        <time>2017-01-08T12:41:43Z</time>
      </trkpt>
      <trkpt lat="37.336531" lon="-4.346974">
        <ele>1244.608</ele>
        <time>2017-01-08T12:41:49Z</time>
      </trkpt>
      <trkpt lat="37.336507" lon="-4.346918">
        <ele>1243.108</ele>
        <time>2017-01-08T12:41:54Z</time>
      </trkpt>
      <trkpt lat="37.336518" lon="-4.346909">
        <ele>1243.166</ele>
        <time>2017-01-08T12:42:04Z</time>
      </trkpt>
      <trkpt lat="37.336518" lon="-4.346924">
        <ele>1243.161</ele>
        <time>2017-01-08T12:42:26Z</time>
      </trkpt>
      <trkpt lat="37.336520" lon="-4.346936">
        <ele>1242.655</ele>
        <time>2017-01-08T12:42:48Z</time>
      </trkpt>
      <trkpt lat="37.336480" lon="-4.347033">
        <ele>1245.570</ele>
        <time>2017-01-08T12:43:02Z</time>
      </trkpt>
      <trkpt lat="37.336466" lon="-4.347111">
        <ele>1247.999</ele>
        <time>2017-01-08T12:43:15Z</time>
      </trkpt>
      <trkpt lat="37.336437" lon="-4.347176">
        <ele>1249.934</ele>
        <time>2017-01-08T12:43:28Z</time>
      </trkpt>
      <trkpt lat="37.336411" lon="-4.347275">
        <ele>1251.318</ele>
        <time>2017-01-08T12:43:44Z</time>
      </trkpt>
      <trkpt lat="37.336422" lon="-4.347383">
        <ele>1253.755</ele>
        <time>2017-01-08T12:43:56Z</time>
      </trkpt>
      <trkpt lat="37.336438" lon="-4.347405">
        <ele>1253.796</ele>
        <time>2017-01-08T12:43:58Z</time>
      </trkpt>
      <trkpt lat="37.336443" lon="-4.347469">
        <ele>1253.231</ele>
        <time>2017-01-08T12:44:03Z</time>
      </trkpt>
      <trkpt lat="37.336436" lon="-4.347500">
        <ele>1252.324</ele>
        <time>2017-01-08T12:44:07Z</time>
      </trkpt>
      <trkpt lat="37.336418" lon="-4.347527">
        <ele>1251.808</ele>
        <time>2017-01-08T12:44:20Z</time>
      </trkpt>
      <trkpt lat="37.336411" lon="-4.347527">
        <ele>1251.850</ele>
        <time>2017-01-08T12:44:43Z</time>
      </trkpt>
      <trkpt lat="37.336422" lon="-4.347498">
        <ele>1252.735</ele>
        <time>2017-01-08T12:45:03Z</time>
      </trkpt>
      <trkpt lat="37.336406" lon="-4.347527">
        <ele>1252.749</ele>
        <time>2017-01-08T12:45:14Z</time>
      </trkpt>
      <trkpt lat="37.336413" lon="-4.347519">
        <ele>1250.354</ele>
        <time>2017-01-08T12:45:26Z</time>
      </trkpt>
      <trkpt lat="37.336398" lon="-4.347573">
        <ele>1253.283</ele>
        <time>2017-01-08T13:07:19Z</time>
      </trkpt>
      <trkpt lat="37.336404" lon="-4.347563">
        <ele>1253.238</ele>
        <time>2017-01-08T13:07:21Z</time>
      </trkpt>
      <trkpt lat="37.336436" lon="-4.347544">
        <ele>1253.262</ele>
        <time>2017-01-08T13:07:44Z</time>
      </trkpt>
      <trkpt lat="37.336414" lon="-4.347522">
        <ele>1253.239</ele>
        <time>2017-01-08T13:08:15Z</time>
      </trkpt>
      <trkpt lat="37.336410" lon="-4.347510">
        <ele>1254.249</ele>
        <time>2017-01-08T13:08:30Z</time>
      </trkpt>
      <trkpt lat="37.336415" lon="-4.347500">
        <ele>1254.702</ele>
        <time>2017-01-08T13:08:52Z</time>
      </trkpt>
      <trkpt lat="37.336411" lon="-4.347501">
        <ele>1254.722</ele>
        <time>2017-01-08T13:09:21Z</time>
      </trkpt>
      <trkpt lat="37.336408" lon="-4.347504">
        <ele>1251.308</ele>
        <time>2017-01-08T13:09:29Z</time>
      </trkpt>
      <trkpt lat="37.336409" lon="-4.347503">
        <ele>1255.645</ele>
        <time>2017-01-08T13:09:30Z</time>
      </trkpt>
      <trkpt lat="37.336410" lon="-4.347496">
        <ele>1253.770</ele>
        <time>2017-01-08T13:09:47Z</time>
      </trkpt>
      <trkpt lat="37.336408" lon="-4.347516">
        <ele>1253.774</ele>
        <time>2017-01-08T13:10:01Z</time>
      </trkpt>
      <trkpt lat="37.336404" lon="-4.347516">
        <ele>1253.769</ele>
        <time>2017-01-08T13:10:24Z</time>
      </trkpt>
      <trkpt lat="37.336412" lon="-4.347521">
        <ele>1253.278</ele>
        <time>2017-01-08T13:10:43Z</time>
      </trkpt>
      <trkpt lat="37.336400" lon="-4.347504">
        <ele>1253.213</ele>
        <time>2017-01-08T13:11:02Z</time>
      </trkpt>
      <trkpt lat="37.336400" lon="-4.347494">
        <ele>1251.887</ele>
        <time>2017-01-08T13:11:14Z</time>
      </trkpt>
      <trkpt lat="37.336402" lon="-4.347489">
        <ele>1254.274</ele>
        <time>2017-01-08T13:11:16Z</time>
      </trkpt>
      <trkpt lat="37.336403" lon="-4.347510">
        <ele>1253.275</ele>
        <time>2017-01-08T13:11:37Z</time>
      </trkpt>
      <trkpt lat="37.336391" lon="-4.347518">
        <ele>1253.228</ele>
        <time>2017-01-08T13:11:48Z</time>
      </trkpt>
      <trkpt lat="37.336388" lon="-4.347518">
        <ele>1253.220</ele>
        <time>2017-01-08T13:12:24Z</time>
      </trkpt>
      <trkpt lat="37.336383" lon="-4.347523">
        <ele>1252.708</ele>
        <time>2017-01-08T13:12:55Z</time>
      </trkpt>
      <trkpt lat="37.336398" lon="-4.347529">
        <ele>1252.798</ele>
        <time>2017-01-08T13:13:29Z</time>
      </trkpt>
      <trkpt lat="37.336400" lon="-4.347524">
        <ele>1252.763</ele>
        <time>2017-01-08T13:13:52Z</time>
      </trkpt>
      <trkpt lat="37.336401" lon="-4.347515">
        <ele>1252.757</ele>
        <time>2017-01-08T13:14:15Z</time>
      </trkpt>
      <trkpt lat="37.336402" lon="-4.347461">
        <ele>1254.292</ele>
        <time>2017-01-08T13:14:23Z</time>
      </trkpt>
      <trkpt lat="37.336414" lon="-4.347445">
        <ele>1254.271</ele>
        <time>2017-01-08T13:14:25Z</time>
      </trkpt>
      <trkpt lat="37.336411" lon="-4.347399">
        <ele>1254.256</ele>
        <time>2017-01-08T13:14:29Z</time>
      </trkpt>
      <trkpt lat="37.336401" lon="-4.347362">
        <ele>1254.220</ele>
        <time>2017-01-08T13:14:32Z</time>
      </trkpt>
      <trkpt lat="37.336391" lon="-4.347250">
        <ele>1252.787</ele>
        <time>2017-01-08T13:14:41Z</time>
      </trkpt>
      <trkpt lat="37.336467" lon="-4.347115">
        <ele>1250.338</ele>
        <time>2017-01-08T13:14:56Z</time>
      </trkpt>
      <trkpt lat="37.336476" lon="-4.347043">
        <ele>1248.970</ele>
        <time>2017-01-08T13:15:06Z</time>
      </trkpt>
      <trkpt lat="37.336463" lon="-4.347035">
        <ele>1247.917</ele>
        <time>2017-01-08T13:15:21Z</time>
      </trkpt>
      <trkpt lat="37.336460" lon="-4.347030">
        <ele>1247.908</ele>
        <time>2017-01-08T13:15:29Z</time>
      </trkpt>
      <trkpt lat="37.336490" lon="-4.346925">
        <ele>1244.614</ele>
        <time>2017-01-08T13:15:44Z</time>
      </trkpt>
      <trkpt lat="37.336515" lon="-4.346821">
        <ele>1242.289</ele>
        <time>2017-01-08T13:15:55Z</time>
      </trkpt>
      <trkpt lat="37.336517" lon="-4.346731">
        <ele>1240.223</ele>
        <time>2017-01-08T13:16:05Z</time>
      </trkpt>
      <trkpt lat="37.336571" lon="-4.346650">
        <ele>1237.878</ele>
        <time>2017-01-08T13:16:19Z</time>
      </trkpt>
      <trkpt lat="37.336566" lon="-4.346623">
        <ele>1237.477</ele>
        <time>2017-01-08T13:16:22Z</time>
      </trkpt>
      <trkpt lat="37.336583" lon="-4.346569">
        <ele>1233.012</ele>
        <time>2017-01-08T13:16:29Z</time>
      </trkpt>
      <trkpt lat="37.336581" lon="-4.346569">
        <ele>1237.816</ele>
        <time>2017-01-08T13:16:30Z</time>
      </trkpt>
      <trkpt lat="37.336581" lon="-4.346574">
        <ele>1237.433</ele>
        <time>2017-01-08T13:16:38Z</time>
      </trkpt>
      <trkpt lat="37.336585" lon="-4.346584">
        <ele>1237.896</ele>
        <time>2017-01-08T13:16:51Z</time>
      </trkpt>
      <trkpt lat="37.336638" lon="-4.346498">
        <ele>1237.831</ele>
        <time>2017-01-08T13:17:01Z</time>
      </trkpt>
      <trkpt lat="37.336654" lon="-4.346457">
        <ele>1236.424</ele>
        <time>2017-01-08T13:17:06Z</time>
      </trkpt>
      <trkpt lat="37.336668" lon="-4.346423">
        <ele>1235.908</ele>
        <time>2017-01-08T13:17:09Z</time>
      </trkpt>
      <trkpt lat="37.336657" lon="-4.346250">
        <ele>1235.070</ele>
        <time>2017-01-08T13:17:24Z</time>
      </trkpt>
      <trkpt lat="37.336687" lon="-4.346165">
        <ele>1235.085</ele>
        <time>2017-01-08T13:17:31Z</time>
      </trkpt>
      <trkpt lat="37.336708" lon="-4.346096">
        <ele>1236.459</ele>
        <time>2017-01-08T13:17:37Z</time>
      </trkpt>
      <trkpt lat="37.336703" lon="-4.346086">
        <ele>1235.914</ele>
        <time>2017-01-08T13:17:42Z</time>
      </trkpt>
      <trkpt lat="37.336730" lon="-4.346002">
        <ele>1235.983</ele>
        <time>2017-01-08T13:17:49Z</time>
      </trkpt>
      <trkpt lat="37.336797" lon="-4.345878">
        <ele>1238.838</ele>
        <time>2017-01-08T13:18:01Z</time>
      </trkpt>
      <trkpt lat="37.336891" lon="-4.345740">
        <ele>1241.732</ele>
        <time>2017-01-08T13:18:16Z</time>
      </trkpt>
      <trkpt lat="37.336941" lon="-4.345662">
        <ele>1243.649</ele>
        <time>2017-01-08T13:18:27Z</time>
      </trkpt>
      <trkpt lat="37.336969" lon="-4.345584">
        <ele>1246.536</ele>
        <time>2017-01-08T13:18:40Z</time>
      </trkpt>
      <trkpt lat="37.336988" lon="-4.345567">
        <ele>1247.517</ele>
        <time>2017-01-08T13:18:54Z</time>
      </trkpt>
      <trkpt lat="37.337053" lon="-4.345510">
        <ele>1248.918</ele>
        <time>2017-01-08T13:19:07Z</time>
      </trkpt>
      <trkpt lat="37.337118" lon="-4.345441">
        <ele>1252.708</ele>
        <time>2017-01-08T13:19:19Z</time>
      </trkpt>
      <trkpt lat="37.337139" lon="-4.345416">
        <ele>1252.334</ele>
        <time>2017-01-08T13:19:22Z</time>
      </trkpt>
      <trkpt lat="37.337160" lon="-4.345391">
        <ele>1252.739</ele>
        <time>2017-01-08T13:19:25Z</time>
      </trkpt>
      <trkpt lat="37.337171" lon="-4.345373">
        <ele>1252.723</ele>
        <time>2017-01-08T13:19:27Z</time>
      </trkpt>
      <trkpt lat="37.337205" lon="-4.345348">
        <ele>1253.288</ele>
        <time>2017-01-08T13:19:43Z</time>
      </trkpt>
      <trkpt lat="37.337194" lon="-4.345298">
        <ele>1254.737</ele>
        <time>2017-01-08T13:19:56Z</time>
      </trkpt>
      <trkpt lat="37.337213" lon="-4.345240">
        <ele>1258.082</ele>
        <time>2017-01-08T13:20:08Z</time>
      </trkpt>
      <trkpt lat="37.337260" lon="-4.345203">
        <ele>1260.946</ele>
        <time>2017-01-08T13:20:18Z</time>
      </trkpt>
      <trkpt lat="37.337250" lon="-4.345208">
        <ele>1261.493</ele>
        <time>2017-01-08T13:20:38Z</time>
      </trkpt>
      <trkpt lat="37.337265" lon="-4.345176">
        <ele>1261.493</ele>
        <time>2017-01-08T13:21:02Z</time>
      </trkpt>
      <trkpt lat="37.337359" lon="-4.345117">
        <ele>1262.465</ele>
        <time>2017-01-08T13:21:14Z</time>
      </trkpt>
      <trkpt lat="37.337452" lon="-4.345045">
        <ele>1263.821</ele>
        <time>2017-01-08T13:21:27Z</time>
      </trkpt>
      <trkpt lat="37.337528" lon="-4.344998">
        <ele>1265.208</ele>
        <time>2017-01-08T13:21:39Z</time>
      </trkpt>
      <trkpt lat="37.337548" lon="-4.344953">
        <ele>1265.730</ele>
        <time>2017-01-08T13:21:52Z</time>
      </trkpt>
      <trkpt lat="37.337564" lon="-4.344950">
        <ele>1265.765</ele>
        <time>2017-01-08T13:22:07Z</time>
      </trkpt>
      <trkpt lat="37.337602" lon="-4.344934">
        <ele>1265.719</ele>
        <time>2017-01-08T13:22:14Z</time>
      </trkpt>
      <trkpt lat="37.337649" lon="-4.344930">
        <ele>1266.794</ele>
        <time>2017-01-08T13:22:21Z</time>
      </trkpt>
      <trkpt lat="37.337665" lon="-4.344897">
        <ele>1266.743</ele>
        <time>2017-01-08T13:22:24Z</time>
      </trkpt>
      <trkpt lat="37.337703" lon="-4.344852">
        <ele>1266.718</ele>
        <time>2017-01-08T13:22:38Z</time>
      </trkpt>
      <trkpt lat="37.337714" lon="-4.344851">
        <ele>1265.732</ele>
        <time>2017-01-08T13:22:41Z</time>
      </trkpt>
      <trkpt lat="37.337750" lon="-4.344831">
        <ele>1264.319</ele>
        <time>2017-01-08T13:22:51Z</time>
      </trkpt>
      <trkpt lat="37.337740" lon="-4.344827">
        <ele>1264.876</ele>
        <time>2017-01-08T13:23:09Z</time>
      </trkpt>
      <trkpt lat="37.337774" lon="-4.344788">
        <ele>1263.890</ele>
        <time>2017-01-08T13:23:34Z</time>
      </trkpt>
      <trkpt lat="37.337822" lon="-4.344784">
        <ele>1264.819</ele>
        <time>2017-01-08T13:23:43Z</time>
      </trkpt>
      <trkpt lat="37.337916" lon="-4.344801">
        <ele>1267.608</ele>
        <time>2017-01-08T13:23:58Z</time>
      </trkpt>
      <trkpt lat="37.337938" lon="-4.344755">
        <ele>1267.618</ele>
        <time>2017-01-08T13:24:12Z</time>
      </trkpt>
      <trkpt lat="37.337986" lon="-4.344706">
        <ele>1265.743</ele>
        <time>2017-01-08T13:24:24Z</time>
      </trkpt>
      <trkpt lat="37.337992" lon="-4.344693">
        <ele>1265.227</ele>
        <time>2017-01-08T13:24:36Z</time>
      </trkpt>
      <trkpt lat="37.337952" lon="-4.344749">
        <ele>1265.272</ele>
        <time>2017-01-08T13:24:47Z</time>
      </trkpt>
      <trkpt lat="37.337946" lon="-4.344750">
        <ele>1265.281</ele>
        <time>2017-01-08T13:24:48Z</time>
      </trkpt>
      <trkpt lat="37.337926" lon="-4.344764">
        <ele>1265.296</ele>
        <time>2017-01-08T13:25:02Z</time>
      </trkpt>
      <trkpt lat="37.337910" lon="-4.344765">
        <ele>1266.710</ele>
        <time>2017-01-08T13:25:16Z</time>
      </trkpt>
      <trkpt lat="37.337920" lon="-4.344769">
        <ele>1266.797</ele>
        <time>2017-01-08T13:25:42Z</time>
      </trkpt>
      <trkpt lat="37.337929" lon="-4.344756">
        <ele>1266.744</ele>
        <time>2017-01-08T13:25:50Z</time>
      </trkpt>
      <trkpt lat="37.337957" lon="-4.344728">
        <ele>1267.205</ele>
        <time>2017-01-08T13:26:03Z</time>
      </trkpt>
      <trkpt lat="37.337996" lon="-4.344723">
        <ele>1265.715</ele>
        <time>2017-01-08T13:26:13Z</time>
      </trkpt>
      <trkpt lat="37.338023" lon="-4.344680">
        <ele>1264.308</ele>
        <time>2017-01-08T13:26:24Z</time>
      </trkpt>
      <trkpt lat="37.338041" lon="-4.344677">
        <ele>1264.365</ele>
        <time>2017-01-08T13:26:42Z</time>
      </trkpt>
      <trkpt lat="37.338047" lon="-4.344662">
        <ele>1264.350</ele>
        <time>2017-01-08T13:26:51Z</time>
      </trkpt>
      <trkpt lat="37.338042" lon="-4.344632">
        <ele>1263.844</ele>
        <time>2017-01-08T13:27:06Z</time>
      </trkpt>
      <trkpt lat="37.338048" lon="-4.344627">
        <ele>1263.879</ele>
        <time>2017-01-08T13:27:09Z</time>
      </trkpt>
      <trkpt lat="37.338070" lon="-4.344602">
        <ele>1263.858</ele>
        <time>2017-01-08T13:27:14Z</time>
      </trkpt>
      <trkpt lat="37.338124" lon="-4.344570">
        <ele>1263.363</ele>
        <time>2017-01-08T13:27:28Z</time>
      </trkpt>
      <trkpt lat="37.338154" lon="-4.344543">
        <ele>1262.427</ele>
        <time>2017-01-08T13:27:34Z</time>
      </trkpt>
      <trkpt lat="37.338232" lon="-4.344506">
        <ele>1260.994</ele>
        <time>2017-01-08T13:27:45Z</time>
      </trkpt>
      <trkpt lat="37.338274" lon="-4.344467">
        <ele>1260.983</ele>
        <time>2017-01-08T13:28:01Z</time>
      </trkpt>
      <trkpt lat="37.338322" lon="-4.344431">
        <ele>1260.925</ele>
        <time>2017-01-08T13:28:15Z</time>
      </trkpt>
      <trkpt lat="37.338326" lon="-4.344431">
        <ele>1260.917</ele>
        <time>2017-01-08T13:28:16Z</time>
      </trkpt>
      <trkpt lat="37.338341" lon="-4.344415">
        <ele>1260.908</ele>
        <time>2017-01-08T13:28:25Z</time>
      </trkpt>
      <trkpt lat="37.338375" lon="-4.344371">
        <ele>1262.489</ele>
        <time>2017-01-08T13:28:36Z</time>
      </trkpt>
      <trkpt lat="37.338382" lon="-4.344342">
        <ele>1263.894</ele>
        <time>2017-01-08T13:28:48Z</time>
      </trkpt>
      <trkpt lat="37.338394" lon="-4.344305">
        <ele>1265.718</ele>
        <time>2017-01-08T13:29:01Z</time>
      </trkpt>
      <trkpt lat="37.338423" lon="-4.344304">
        <ele>1267.283</ele>
        <time>2017-01-08T13:29:17Z</time>
      </trkpt>
      <trkpt lat="37.338397" lon="-4.344306">
        <ele>1267.262</ele>
        <time>2017-01-08T13:29:35Z</time>
      </trkpt>
      <trkpt lat="37.338413" lon="-4.344284">
        <ele>1267.227</ele>
        <time>2017-01-08T13:29:58Z</time>
      </trkpt>
      <trkpt lat="37.338437" lon="-4.344261">
        <ele>1267.271</ele>
        <time>2017-01-08T13:30:05Z</time>
      </trkpt>
      <trkpt lat="37.338461" lon="-4.344216">
        <ele>1265.768</ele>
        <time>2017-01-08T13:30:09Z</time>
      </trkpt>
      <trkpt lat="37.338460" lon="-4.344210">
        <ele>1265.756</ele>
        <time>2017-01-08T13:30:24Z</time>
      </trkpt>
      <trkpt lat="37.338453" lon="-4.344224">
        <ele>1265.759</ele>
        <time>2017-01-08T13:30:47Z</time>
      </trkpt>
      <trkpt lat="37.338493" lon="-4.344203">
        <ele>1264.814</ele>
        <time>2017-01-08T13:31:05Z</time>
      </trkpt>
      <trkpt lat="37.338555" lon="-4.344190">
        <ele>1262.808</ele>
        <time>2017-01-08T13:31:15Z</time>
      </trkpt>
      <trkpt lat="37.338582" lon="-4.344140">
        <ele>1263.846</ele>
        <time>2017-01-08T13:31:22Z</time>
      </trkpt>
      <trkpt lat="37.338575" lon="-4.344130">
        <ele>1263.811</ele>
        <time>2017-01-08T13:31:43Z</time>
      </trkpt>
      <trkpt lat="37.338568" lon="-4.344138">
        <ele>1263.875</ele>
        <time>2017-01-08T13:31:47Z</time>
      </trkpt>
      <trkpt lat="37.338548" lon="-4.344115">
        <ele>1264.340</ele>
        <time>2017-01-08T13:32:04Z</time>
      </trkpt>
      <trkpt lat="37.338557" lon="-4.344120">
        <ele>1264.389</ele>
        <time>2017-01-08T13:32:23Z</time>
      </trkpt>
      <trkpt lat="37.338580" lon="-4.344108">
        <ele>1264.384</ele>
        <time>2017-01-08T13:32:37Z</time>
      </trkpt>
      <trkpt lat="37.338606" lon="-4.344064">
        <ele>1262.428</ele>
        <time>2017-01-08T13:32:47Z</time>
      </trkpt>
      <trkpt lat="37.338638" lon="-4.344019">
        <ele>1259.995</ele>
        <time>2017-01-08T13:33:00Z</time>
      </trkpt>
      <trkpt lat="37.338645" lon="-4.344000">
        <ele>1259.511</ele>
        <time>2017-01-08T13:33:14Z</time>
      </trkpt>
      <trkpt lat="37.338656" lon="-4.343974">
        <ele>1259.021</ele>
        <time>2017-01-08T13:33:17Z</time>
      </trkpt>
      <trkpt lat="37.338664" lon="-4.343924">
        <ele>1258.503</ele>
        <time>2017-01-08T13:33:21Z</time>
      </trkpt>
      <trkpt lat="37.338695" lon="-4.343873">
        <ele>1258.008</ele>
        <time>2017-01-08T13:33:39Z</time>
      </trkpt>
      <trkpt lat="37.338710" lon="-4.343820">
        <ele>1255.652</ele>
        <time>2017-01-08T13:33:53Z</time>
      </trkpt>
      <trkpt lat="37.338715" lon="-4.343812">
        <ele>1255.647</ele>
        <time>2017-01-08T13:34:08Z</time>
      </trkpt>
      <trkpt lat="37.338729" lon="-4.343729">
        <ele>1252.791</ele>
        <time>2017-01-08T13:34:21Z</time>
      </trkpt>
      <trkpt lat="37.338745" lon="-4.343649">
        <ele>1250.856</ele>
        <time>2017-01-08T13:34:34Z</time>
      </trkpt>
      <trkpt lat="37.338751" lon="-4.343650">
        <ele>1250.855</ele>
        <time>2017-01-08T13:34:43Z</time>
      </trkpt>
      <trkpt lat="37.338787" lon="-4.343604">
        <ele>1248.470</ele>
        <time>2017-01-08T13:34:56Z</time>
      </trkpt>
      <trkpt lat="37.338792" lon="-4.343546">
        <ele>1247.024</ele>
        <time>2017-01-08T13:35:09Z</time>
      </trkpt>
      <trkpt lat="37.338795" lon="-4.343531">
        <ele>1247.061</ele>
        <time>2017-01-08T13:35:29Z</time>
      </trkpt>
      <trkpt lat="37.338796" lon="-4.343522">
        <ele>1246.519</ele>
        <time>2017-01-08T13:35:50Z</time>
      </trkpt>
      <trkpt lat="37.338839" lon="-4.343445">
        <ele>1245.509</ele>
        <time>2017-01-08T13:36:07Z</time>
      </trkpt>
      <trkpt lat="37.338853" lon="-4.343371">
        <ele>1244.619</ele>
        <time>2017-01-08T13:36:13Z</time>
      </trkpt>
      <trkpt lat="37.338855" lon="-4.343359">
        <ele>1244.608</ele>
        <time>2017-01-08T13:36:27Z</time>
      </trkpt>
      <trkpt lat="37.338866" lon="-4.343251">
        <ele>1243.132</ele>
        <time>2017-01-08T13:36:41Z</time>
      </trkpt>
      <trkpt lat="37.338909" lon="-4.343183">
        <ele>1240.277</ele>
        <time>2017-01-08T13:36:56Z</time>
      </trkpt>
      <trkpt lat="37.338921" lon="-4.343123">
        <ele>1238.881</ele>
        <time>2017-01-08T13:37:08Z</time>
      </trkpt>
      <trkpt lat="37.338892" lon="-4.343112">
        <ele>1236.996</ele>
        <time>2017-01-08T13:37:19Z</time>
      </trkpt>
      <trkpt lat="37.338919" lon="-4.343100">
        <ele>1236.495</ele>
        <time>2017-01-08T13:37:33Z</time>
      </trkpt>
      <trkpt lat="37.338930" lon="-4.343065">
        <ele>1235.030</ele>
        <time>2017-01-08T13:37:49Z</time>
      </trkpt>
      <trkpt lat="37.338917" lon="-4.343047">
        <ele>1235.044</ele>
        <time>2017-01-08T13:38:04Z</time>
      </trkpt>
      <trkpt lat="37.338958" lon="-4.343011">
        <ele>1236.441</ele>
        <time>2017-01-08T13:38:13Z</time>
      </trkpt>
      <trkpt lat="37.338976" lon="-4.342911">
        <ele>1236.454</ele>
        <time>2017-01-08T13:38:24Z</time>
      </trkpt>
      <trkpt lat="37.338994" lon="-4.342841">
        <ele>1233.556</ele>
        <time>2017-01-08T13:38:37Z</time>
      </trkpt>
      <trkpt lat="37.339010" lon="-4.342788">
        <ele>1230.611</ele>
        <time>2017-01-08T13:38:49Z</time>
      </trkpt>
      <trkpt lat="37.339003" lon="-4.342781">
        <ele>1230.608</ele>
        <time>2017-01-08T13:39:06Z</time>
      </trkpt>
      <trkpt lat="37.339011" lon="-4.342752">
        <ele>1230.126</ele>
        <time>2017-01-08T13:39:10Z</time>
      </trkpt>
      <trkpt lat="37.339017" lon="-4.342707">
        <ele>1228.731</ele>
        <time>2017-01-08T13:39:14Z</time>
      </trkpt>
      <trkpt lat="37.339056" lon="-4.342665">
        <ele>1227.775</ele>
        <time>2017-01-08T13:39:28Z</time>
      </trkpt>
      <trkpt lat="37.339107" lon="-4.342646">
        <ele>1226.850</ele>
        <time>2017-01-08T13:39:38Z</time>
      </trkpt>
      <trkpt lat="37.339121" lon="-4.342633">
        <ele>1226.349</ele>
        <time>2017-01-08T13:39:40Z</time>
      </trkpt>
      <trkpt lat="37.339201" lon="-4.342447">
        <ele>1224.454</ele>
        <time>2017-01-08T13:39:55Z</time>
      </trkpt>
      <trkpt lat="37.339190" lon="-4.342409">
        <ele>1223.918</ele>
        <time>2017-01-08T13:40:11Z</time>
      </trkpt>
      <trkpt lat="37.339199" lon="-4.342382">
        <ele>1223.935</ele>
        <time>2017-01-08T13:40:21Z</time>
      </trkpt>
      <trkpt lat="37.339247" lon="-4.342249">
        <ele>1223.466</ele>
        <time>2017-01-08T13:40:30Z</time>
      </trkpt>
      <trkpt lat="37.339316" lon="-4.342142">
        <ele>1225.329</ele>
        <time>2017-01-08T13:40:40Z</time>
      </trkpt>
      <trkpt lat="37.339336" lon="-4.342098">
        <ele>1225.321</ele>
        <time>2017-01-08T13:40:44Z</time>
      </trkpt>
      <trkpt lat="37.339365" lon="-4.342053">
        <ele>1225.808</ele>
        <time>2017-01-08T13:40:49Z</time>
      </trkpt>
      <trkpt lat="37.339434" lon="-4.341947">
        <ele>1226.367</ele>
        <time>2017-01-08T13:41:01Z</time>
      </trkpt>
      <trkpt lat="37.339529" lon="-4.341871">
        <ele>1229.222</ele>
        <time>2017-01-08T13:41:12Z</time>
      </trkpt>
      <trkpt lat="37.339597" lon="-4.341767">
        <ele>1231.666</ele>
        <time>2017-01-08T13:41:25Z</time>
      </trkpt>
      <trkpt lat="37.339638" lon="-4.341694">
        <ele>1233.521</ele>
        <time>2017-01-08T13:41:40Z</time>
      </trkpt>
      <trkpt lat="37.339633" lon="-4.341685">
        <ele>1234.070</ele>
        <time>2017-01-08T13:41:48Z</time>
      </trkpt>
      <trkpt lat="37.339622" lon="-4.341662">
        <ele>1233.085</ele>
        <time>2017-01-08T13:41:50Z</time>
      </trkpt>
      <trkpt lat="37.339630" lon="-4.341617">
        <ele>1232.189</ele>
        <time>2017-01-08T13:41:54Z</time>
      </trkpt>
      <trkpt lat="37.339660" lon="-4.341550">
        <ele>1233.576</ele>
        <time>2017-01-08T13:42:01Z</time>
      </trkpt>
      <trkpt lat="37.339698" lon="-4.341464">
        <ele>1235.015</ele>
        <time>2017-01-08T13:42:10Z</time>
      </trkpt>
      <trkpt lat="37.339742" lon="-4.341333">
        <ele>1235.965</ele>
        <time>2017-01-08T13:42:22Z</time>
      </trkpt>
      <trkpt lat="37.339792" lon="-4.341208">
        <ele>1237.811</ele>
        <time>2017-01-08T13:42:34Z</time>
      </trkpt>
      <trkpt lat="37.339791" lon="-4.341203">
        <ele>1238.808</ele>
        <time>2017-01-08T13:42:42Z</time>
      </trkpt>
      <trkpt lat="37.339780" lon="-4.341130">
        <ele>1237.862</ele>
        <time>2017-01-08T13:42:51Z</time>
      </trkpt>
      <trkpt lat="37.339812" lon="-4.341048">
        <ele>1239.827</ele>
        <time>2017-01-08T13:43:01Z</time>
      </trkpt>
      <trkpt lat="37.339857" lon="-4.340938">
        <ele>1242.611</ele>
        <time>2017-01-08T13:43:14Z</time>
      </trkpt>
      <trkpt lat="37.339872" lon="-4.340884">
        <ele>1243.166</ele>
        <time>2017-01-08T13:43:20Z</time>
      </trkpt>
      <trkpt lat="37.339915" lon="-4.340755">
        <ele>1244.155</ele>
        <time>2017-01-08T13:43:32Z</time>
      </trkpt>
      <trkpt lat="37.339911" lon="-4.340728">
        <ele>1245.080</ele>
        <time>2017-01-08T13:43:45Z</time>
      </trkpt>
      <trkpt lat="37.339928" lon="-4.340625">
        <ele>1245.034</ele>
        <time>2017-01-08T13:43:57Z</time>
      </trkpt>
      <trkpt lat="37.339981" lon="-4.340558">
        <ele>1245.021</ele>
        <time>2017-01-08T13:44:07Z</time>
      </trkpt>
      <trkpt lat="37.340028" lon="-4.340533">
        <ele>1245.544</ele>
        <time>2017-01-08T13:44:22Z</time>
      </trkpt>
      <trkpt lat="37.340026" lon="-4.340535">
        <ele>1245.505</ele>
        <time>2017-01-08T13:44:40Z</time>
      </trkpt>
      <trkpt lat="37.340025" lon="-4.340537">
        <ele>1245.515</ele>
        <time>2017-01-08T13:44:59Z</time>
      </trkpt>
      <trkpt lat="37.340022" lon="-4.340533">
        <ele>1245.508</ele>
        <time>2017-01-08T13:45:16Z</time>
      </trkpt>
      <trkpt lat="37.340029" lon="-4.340540">
        <ele>1245.525</ele>
        <time>2017-01-08T13:45:33Z</time>
      </trkpt>
      <trkpt lat="37.340027" lon="-4.340538">
        <ele>1245.570</ele>
        <time>2017-01-08T13:46:05Z</time>
      </trkpt>
      <trkpt lat="37.340023" lon="-4.340529">
        <ele>1245.534</ele>
        <time>2017-01-08T13:46:24Z</time>
      </trkpt>
      <trkpt lat="37.340030" lon="-4.340545">
        <ele>1245.569</ele>
        <time>2017-01-08T13:46:56Z</time>
      </trkpt>
      <trkpt lat="37.340014" lon="-4.340538">
        <ele>1245.588</ele>
        <time>2017-01-08T13:47:12Z</time>
      </trkpt>
      <trkpt lat="37.340020" lon="-4.340539">
        <ele>1245.543</ele>
        <time>2017-01-08T13:47:30Z</time>
      </trkpt>
      <trkpt lat="37.340042" lon="-4.340520">
        <ele>1245.527</ele>
        <time>2017-01-08T13:47:43Z</time>
      </trkpt>
      <trkpt lat="37.340074" lon="-4.340511">
        <ele>1247.014</ele>
        <time>2017-01-08T13:47:52Z</time>
      </trkpt>
      <trkpt lat="37.340123" lon="-4.340405">
        <ele>1248.954</ele>
        <time>2017-01-08T13:48:05Z</time>
      </trkpt>
      <trkpt lat="37.340128" lon="-4.340393">
        <ele>1248.956</ele>
        <time>2017-01-08T13:48:06Z</time>
      </trkpt>
      <trkpt lat="37.340180" lon="-4.340262">
        <ele>1251.811</ele>
        <time>2017-01-08T13:48:21Z</time>
      </trkpt>
      <trkpt lat="37.340175" lon="-4.340223">
        <ele>1250.808</ele>
        <time>2017-01-08T13:48:39Z</time>
      </trkpt>
      <trkpt lat="37.340169" lon="-4.340215">
        <ele>1255.146</ele>
        <time>2017-01-08T13:48:40Z</time>
      </trkpt>
      <trkpt lat="37.340244" lon="-4.340209">
        <ele>1255.661</ele>
        <time>2017-01-08T13:48:53Z</time>
      </trkpt>
      <trkpt lat="37.340273" lon="-4.340173">
        <ele>1257.115</ele>
        <time>2017-01-08T13:49:05Z</time>
      </trkpt>
      <trkpt lat="37.340311" lon="-4.340196">
        <ele>1256.680</ele>
        <time>2017-01-08T13:49:16Z</time>
      </trkpt>
      <trkpt lat="37.340363" lon="-4.340222">
        <ele>1255.619</ele>
        <time>2017-01-08T13:49:26Z</time>
      </trkpt>
      <trkpt lat="37.340418" lon="-4.340181">
        <ele>1254.794</ele>
        <time>2017-01-08T13:49:37Z</time>
      </trkpt>
      <trkpt lat="37.340427" lon="-4.340185">
        <ele>1255.138</ele>
        <time>2017-01-08T13:49:53Z</time>
      </trkpt>
      <trkpt lat="37.340450" lon="-4.340189">
        <ele>1253.745</ele>
        <time>2017-01-08T13:49:59Z</time>
      </trkpt>
      <trkpt lat="37.340510" lon="-4.340162">
        <ele>1251.817</ele>
        <time>2017-01-08T13:50:10Z</time>
      </trkpt>
      <trkpt lat="37.340524" lon="-4.340141">
        <ele>1253.287</ele>
        <time>2017-01-08T13:50:13Z</time>
      </trkpt>
      <trkpt lat="37.340598" lon="-4.340075">
        <ele>1254.715</ele>
        <time>2017-01-08T13:50:26Z</time>
      </trkpt>
      <trkpt lat="37.340606" lon="-4.340076">
        <ele>1254.708</ele>
        <time>2017-01-08T13:50:37Z</time>
      </trkpt>
      <trkpt lat="37.340631" lon="-4.340010">
        <ele>1255.172</ele>
        <time>2017-01-08T13:50:53Z</time>
      </trkpt>
      <trkpt lat="37.340645" lon="-4.339984">
        <ele>1255.697</ele>
        <time>2017-01-08T13:50:56Z</time>
      </trkpt>
      <trkpt lat="37.340676" lon="-4.339953">
        <ele>1256.181</ele>
        <time>2017-01-08T13:51:07Z</time>
      </trkpt>
      <trkpt lat="37.340687" lon="-4.339932">
        <ele>1256.646</ele>
        <time>2017-01-08T13:51:10Z</time>
      </trkpt>
      <trkpt lat="37.340698" lon="-4.339939">
        <ele>1257.135</ele>
        <time>2017-01-08T13:51:26Z</time>
      </trkpt>
      <trkpt lat="37.340698" lon="-4.339927">
        <ele>1253.720</ele>
        <time>2017-01-08T13:51:29Z</time>
      </trkpt>
      <trkpt lat="37.340695" lon="-4.339934">
        <ele>1259.964</ele>
        <time>2017-01-08T13:51:30Z</time>
      </trkpt>
      <trkpt lat="37.340695" lon="-4.339934">
        <ele>1257.141</ele>
        <time>2017-01-08T13:51:31Z</time>
      </trkpt>
      <trkpt lat="37.340734" lon="-4.339918">
        <ele>1254.734</ele>
        <time>2017-01-08T13:51:45Z</time>
      </trkpt>
      <trkpt lat="37.340757" lon="-4.339910">
        <ele>1253.755</ele>
        <time>2017-01-08T13:51:53Z</time>
      </trkpt>
      <trkpt lat="37.340838" lon="-4.339839">
        <ele>1251.810</ele>
        <time>2017-01-08T13:52:08Z</time>
      </trkpt>
      <trkpt lat="37.340864" lon="-4.339797">
        <ele>1251.308</ele>
        <time>2017-01-08T13:52:21Z</time>
      </trkpt>
      <trkpt lat="37.340896" lon="-4.339670">
        <ele>1250.814</ele>
        <time>2017-01-08T13:52:35Z</time>
      </trkpt>
      <trkpt lat="37.340932" lon="-4.339595">
        <ele>1248.429</ele>
        <time>2017-01-08T13:52:46Z</time>
      </trkpt>
      <trkpt lat="37.340950" lon="-4.339505">
        <ele>1247.033</ele>
        <time>2017-01-08T13:52:59Z</time>
      </trkpt>
      <trkpt lat="37.340945" lon="-4.339502">
        <ele>1247.088</ele>
        <time>2017-01-08T13:53:12Z</time>
      </trkpt>
      <trkpt lat="37.340942" lon="-4.339443">
        <ele>1248.487</ele>
        <time>2017-01-08T13:53:18Z</time>
      </trkpt>
      <trkpt lat="37.340936" lon="-4.339263">
        <ele>1250.842</ele>
        <time>2017-01-08T13:53:34Z</time>
      </trkpt>
      <trkpt lat="37.340943" lon="-4.339165">
        <ele>1252.356</ele>
        <time>2017-01-08T13:53:46Z</time>
      </trkpt>
      <trkpt lat="37.340921" lon="-4.339123">
        <ele>1253.233</ele>
        <time>2017-01-08T13:54:02Z</time>
      </trkpt>
      <trkpt lat="37.340861" lon="-4.339089">
        <ele>1256.667</ele>
        <time>2017-01-08T13:54:14Z</time>
      </trkpt>
      <trkpt lat="37.340822" lon="-4.339039">
        <ele>1259.081</ele>
        <time>2017-01-08T13:54:25Z</time>
      </trkpt>
      <trkpt lat="37.340831" lon="-4.338935">
        <ele>1261.419</ele>
        <time>2017-01-08T13:54:37Z</time>
      </trkpt>
      <trkpt lat="37.340816" lon="-4.338840">
        <ele>1264.308</ele>
        <time>2017-01-08T13:54:49Z</time>
      </trkpt>
      <trkpt lat="37.340818" lon="-4.338803">
        <ele>1265.787</ele>
        <time>2017-01-08T13:55:04Z</time>
      </trkpt>
      <trkpt lat="37.340778" lon="-4.338743">
        <ele>1266.712</ele>
        <time>2017-01-08T13:55:18Z</time>
      </trkpt>
      <trkpt lat="37.340811" lon="-4.338679">
        <ele>1269.146</ele>
        <time>2017-01-08T13:55:31Z</time>
      </trkpt>
      <trkpt lat="37.340815" lon="-4.338669">
        <ele>1269.151</ele>
        <time>2017-01-08T13:55:33Z</time>
      </trkpt>
      <trkpt lat="37.340811" lon="-4.338641">
        <ele>1270.040</ele>
        <time>2017-01-08T13:55:48Z</time>
      </trkpt>
      <trkpt lat="37.340806" lon="-4.338649">
        <ele>1270.075</ele>
        <time>2017-01-08T13:55:50Z</time>
      </trkpt>
      <trkpt lat="37.340785" lon="-4.338666">
        <ele>1270.079</ele>
        <time>2017-01-08T13:56:04Z</time>
      </trkpt>
      <trkpt lat="37.340799" lon="-4.338666">
        <ele>1271.016</ele>
        <time>2017-01-08T13:56:32Z</time>
      </trkpt>
      <trkpt lat="37.340804" lon="-4.338658">
        <ele>1267.682</ele>
        <time>2017-01-08T13:56:47Z</time>
      </trkpt>
      <trkpt lat="37.340806" lon="-4.338651">
        <ele>1273.443</ele>
        <time>2017-01-08T13:56:48Z</time>
      </trkpt>
      <trkpt lat="37.340788" lon="-4.338682">
        <ele>1270.517</ele>
        <time>2017-01-08T13:57:06Z</time>
      </trkpt>
      <trkpt lat="37.340797" lon="-4.338655">
        <ele>1270.508</ele>
        <time>2017-01-08T13:57:11Z</time>
      </trkpt>
      <trkpt lat="37.340818" lon="-4.338602">
        <ele>1270.559</ele>
        <time>2017-01-08T13:57:16Z</time>
      </trkpt>
      <trkpt lat="37.340830" lon="-4.338561">
        <ele>1270.574</ele>
        <time>2017-01-08T13:57:19Z</time>
      </trkpt>
      <trkpt lat="37.340803" lon="-4.338438">
        <ele>1270.078</ele>
        <time>2017-01-08T13:57:28Z</time>
      </trkpt>
      <trkpt lat="37.340820" lon="-4.338353">
        <ele>1272.423</ele>
        <time>2017-01-08T13:57:41Z</time>
      </trkpt>
      <trkpt lat="37.340829" lon="-4.338320">
        <ele>1272.452</ele>
        <time>2017-01-08T13:57:54Z</time>
      </trkpt>
      <trkpt lat="37.340829" lon="-4.338320">
        <ele>1274.997</ele>
        <time>2017-01-08T13:57:56Z</time>
      </trkpt>
      <trkpt lat="37.340875" lon="-4.338234">
        <ele>1273.971</ele>
        <time>2017-01-08T13:58:05Z</time>
      </trkpt>
      <trkpt lat="37.340918" lon="-4.338135">
        <ele>1275.818</ele>
        <time>2017-01-08T13:58:17Z</time>
      </trkpt>
      <trkpt lat="37.340934" lon="-4.338059">
        <ele>1275.877</ele>
        <time>2017-01-08T13:58:25Z</time>
      </trkpt>
      <trkpt lat="37.340960" lon="-4.337996">
        <ele>1279.261</ele>
        <time>2017-01-08T13:58:39Z</time>
      </trkpt>
      <trkpt lat="37.340969" lon="-4.337970">
        <ele>1280.627</ele>
        <time>2017-01-08T13:58:45Z</time>
      </trkpt>
      <trkpt lat="37.340995" lon="-4.337908">
        <ele>1280.608</ele>
        <time>2017-01-08T13:58:51Z</time>
      </trkpt>
      <trkpt lat="37.341020" lon="-4.337786">
        <ele>1281.118</ele>
        <time>2017-01-08T13:59:05Z</time>
      </trkpt>
      <trkpt lat="37.341024" lon="-4.337776">
        <ele>1281.163</ele>
        <time>2017-01-08T13:59:06Z</time>
      </trkpt>
      <trkpt lat="37.341038" lon="-4.337750">
        <ele>1281.147</ele>
        <time>2017-01-08T13:59:09Z</time>
      </trkpt>
      <trkpt lat="37.341041" lon="-4.337668">
        <ele>1280.642</ele>
        <time>2017-01-08T13:59:24Z</time>
      </trkpt>
      <trkpt lat="37.341034" lon="-4.337672">
        <ele>1280.671</ele>
        <time>2017-01-08T13:59:40Z</time>
      </trkpt>
      <trkpt lat="37.341041" lon="-4.337672">
        <ele>1280.646</ele>
        <time>2017-01-08T14:00:18Z</time>
      </trkpt>
      <trkpt lat="37.341038" lon="-4.337673">
        <ele>1280.610</ele>
        <time>2017-01-08T14:00:44Z</time>
      </trkpt>
      <trkpt lat="37.341093" lon="-4.337598">
        <ele>1279.237</ele>
        <time>2017-01-08T14:01:02Z</time>
      </trkpt>
      <trkpt lat="37.341093" lon="-4.337616">
        <ele>1278.789</ele>
        <time>2017-01-08T14:01:17Z</time>
      </trkpt>
      <trkpt lat="37.341116" lon="-4.337588">
        <ele>1277.706</ele>
        <time>2017-01-08T14:01:43Z</time>
      </trkpt>
      <trkpt lat="37.341129" lon="-4.337555">
        <ele>1278.226</ele>
        <time>2017-01-08T14:01:52Z</time>
      </trkpt>
      <trkpt lat="37.341138" lon="-4.337540">
        <ele>1276.808</ele>
        <time>2017-01-08T14:01:54Z</time>
      </trkpt>
      <trkpt lat="37.341152" lon="-4.337464">
        <ele>1274.499</ele>
        <time>2017-01-08T14:02:04Z</time>
      </trkpt>
      <trkpt lat="37.341180" lon="-4.337411">
        <ele>1273.954</ele>
        <time>2017-01-08T14:02:10Z</time>
      </trkpt>
      <trkpt lat="37.341192" lon="-4.337384">
        <ele>1272.488</ele>
        <time>2017-01-08T14:02:22Z</time>
      </trkpt>
      <trkpt lat="37.341184" lon="-4.337394">
        <ele>1272.453</ele>
        <time>2017-01-08T14:02:52Z</time>
      </trkpt>
      <trkpt lat="37.341226" lon="-4.337314">
        <ele>1272.062</ele>
        <time>2017-01-08T14:03:08Z</time>
      </trkpt>
      <trkpt lat="37.341227" lon="-4.337303">
        <ele>1272.037</ele>
        <time>2017-01-08T14:03:09Z</time>
      </trkpt>
      <trkpt lat="37.341236" lon="-4.337203">
        <ele>1271.581</ele>
        <time>2017-01-08T14:03:24Z</time>
      </trkpt>
      <trkpt lat="37.341266" lon="-4.337056">
        <ele>1271.098</ele>
        <time>2017-01-08T14:03:35Z</time>
      </trkpt>
      <trkpt lat="37.341286" lon="-4.336989">
        <ele>1271.012</ele>
        <time>2017-01-08T14:03:41Z</time>
      </trkpt>
      <trkpt lat="37.341282" lon="-4.336918">
        <ele>1272.432</ele>
        <time>2017-01-08T14:03:46Z</time>
      </trkpt>
      <trkpt lat="37.341307" lon="-4.336880">
        <ele>1272.905</ele>
        <time>2017-01-08T14:03:58Z</time>
      </trkpt>
      <trkpt lat="37.341333" lon="-4.336829">
        <ele>1272.908</ele>
        <time>2017-01-08T14:04:04Z</time>
      </trkpt>
      <trkpt lat="37.341404" lon="-4.336680">
        <ele>1277.352</ele>
        <time>2017-01-08T14:04:20Z</time>
      </trkpt>
      <trkpt lat="37.341424" lon="-4.336602">
        <ele>1280.147</ele>
        <time>2017-01-08T14:04:31Z</time>
      </trkpt>
      <trkpt lat="37.341472" lon="-4.336489">
        <ele>1284.061</ele>
        <time>2017-01-08T14:04:44Z</time>
      </trkpt>
      <trkpt lat="37.341471" lon="-4.336425">
        <ele>1286.966</ele>
        <time>2017-01-08T14:04:54Z</time>
      </trkpt>
      <trkpt lat="37.341505" lon="-4.336334">
        <ele>1289.395</ele>
        <time>2017-01-08T14:05:08Z</time>
      </trkpt>
      <trkpt lat="37.341510" lon="-4.336304">
        <ele>1291.220</ele>
        <time>2017-01-08T14:05:22Z</time>
      </trkpt>
      <trkpt lat="37.341500" lon="-4.336269">
        <ele>1292.294</ele>
        <time>2017-01-08T14:05:38Z</time>
      </trkpt>
      <trkpt lat="37.341549" lon="-4.336179">
        <ele>1295.021</ele>
        <time>2017-01-08T14:05:51Z</time>
      </trkpt>
      <trkpt lat="37.341568" lon="-4.336141">
        <ele>1297.045</ele>
        <time>2017-01-08T14:06:05Z</time>
      </trkpt>
      <trkpt lat="37.341579" lon="-4.336061">
        <ele>1298.947</ele>
        <time>2017-01-08T14:06:20Z</time>
      </trkpt>
      <trkpt lat="37.341592" lon="-4.336017">
        <ele>1302.211</ele>
        <time>2017-01-08T14:06:37Z</time>
      </trkpt>
      <trkpt lat="37.341644" lon="-4.335905">
        <ele>1304.208</ele>
        <time>2017-01-08T14:06:49Z</time>
      </trkpt>
      <trkpt lat="37.341705" lon="-4.335799">
        <ele>1307.115</ele>
        <time>2017-01-08T14:07:01Z</time>
      </trkpt>
      <trkpt lat="37.341701" lon="-4.335784">
        <ele>1306.650</ele>
        <time>2017-01-08T14:07:15Z</time>
      </trkpt>
      <trkpt lat="37.341670" lon="-4.335774">
        <ele>1309.084</ele>
        <time>2017-01-08T14:07:23Z</time>
      </trkpt>
      <trkpt lat="37.341648" lon="-4.335771">
        <ele>1311.499</ele>
        <time>2017-01-08T14:07:39Z</time>
      </trkpt>
      <trkpt lat="37.341648" lon="-4.335778">
        <ele>1309.528</ele>
        <time>2017-01-08T14:07:58Z</time>
      </trkpt>
      <trkpt lat="37.341652" lon="-4.335773">
        <ele>1309.083</ele>
        <time>2017-01-08T14:08:31Z</time>
      </trkpt>
      <trkpt lat="37.341633" lon="-4.335795">
        <ele>1309.067</ele>
        <time>2017-01-08T14:08:52Z</time>
      </trkpt>
      <trkpt lat="37.341592" lon="-4.335805">
        <ele>1310.494</ele>
        <time>2017-01-08T14:09:05Z</time>
      </trkpt>
      <trkpt lat="37.341587" lon="-4.335720">
        <ele>1313.311</ele>
        <time>2017-01-08T14:09:17Z</time>
      </trkpt>
      <trkpt lat="37.341576" lon="-4.335639">
        <ele>1316.221</ele>
        <time>2017-01-08T14:09:30Z</time>
      </trkpt>
      <trkpt lat="37.341535" lon="-4.335582">
        <ele>1319.103</ele>
        <time>2017-01-08T14:09:44Z</time>
      </trkpt>
      <trkpt lat="37.341538" lon="-4.335541">
        <ele>1319.108</ele>
        <time>2017-01-08T14:09:48Z</time>
      </trkpt>
      <trkpt lat="37.341541" lon="-4.335475">
        <ele>1319.122</ele>
        <time>2017-01-08T14:09:58Z</time>
      </trkpt>
      <trkpt lat="37.341541" lon="-4.335453">
        <ele>1319.147</ele>
        <time>2017-01-08T14:10:00Z</time>
      </trkpt>
      <trkpt lat="37.341531" lon="-4.335349">
        <ele>1317.151</ele>
        <time>2017-01-08T14:10:12Z</time>
      </trkpt>
      <trkpt lat="37.341523" lon="-4.335360">
        <ele>1316.726</ele>
        <time>2017-01-08T14:10:34Z</time>
      </trkpt>
      <trkpt lat="37.341507" lon="-4.335268">
        <ele>1315.735</ele>
        <time>2017-01-08T14:10:45Z</time>
      </trkpt>
      <trkpt lat="37.341486" lon="-4.335187">
        <ele>1313.810</ele>
        <time>2017-01-08T14:10:57Z</time>
      </trkpt>
      <trkpt lat="37.341480" lon="-4.335179">
        <ele>1313.834</ele>
        <time>2017-01-08T14:10:58Z</time>
      </trkpt>
      <trkpt lat="37.341486" lon="-4.335153">
        <ele>1313.861</ele>
        <time>2017-01-08T14:11:11Z</time>
      </trkpt>
      <trkpt lat="37.341460" lon="-4.335148">
        <ele>1313.824</ele>
        <time>2017-01-08T14:11:24Z</time>
      </trkpt>
      <trkpt lat="37.341460" lon="-4.335034">
        <ele>1315.204</ele>
        <time>2017-01-08T14:11:34Z</time>
      </trkpt>
      <trkpt lat="37.341456" lon="-4.334918">
        <ele>1318.114</ele>
        <time>2017-01-08T14:11:48Z</time>
      </trkpt>
      <trkpt lat="37.341443" lon="-4.334855">
        <ele>1318.108</ele>
        <time>2017-01-08T14:11:54Z</time>
      </trkpt>
      <trkpt lat="37.341415" lon="-4.334752">
        <ele>1319.143</ele>
        <time>2017-01-08T14:12:05Z</time>
      </trkpt>
      <trkpt lat="37.341416" lon="-4.334736">
        <ele>1319.698</ele>
        <time>2017-01-08T14:12:07Z</time>
      </trkpt>
      <trkpt lat="37.341408" lon="-4.334744">
        <ele>1320.072</ele>
        <time>2017-01-08T14:12:21Z</time>
      </trkpt>
      <trkpt lat="37.341403" lon="-4.334771">
        <ele>1319.617</ele>
        <time>2017-01-08T14:12:45Z</time>
      </trkpt>
      <trkpt lat="37.341407" lon="-4.334721">
        <ele>1319.646</ele>
        <time>2017-01-08T14:12:54Z</time>
      </trkpt>
      <trkpt lat="37.341377" lon="-4.334664">
        <ele>1319.641</ele>
        <time>2017-01-08T14:13:02Z</time>
      </trkpt>
      <trkpt lat="37.341362" lon="-4.334564">
        <ele>1318.175</ele>
        <time>2017-01-08T14:13:14Z</time>
      </trkpt>
      <trkpt lat="37.341367" lon="-4.334566">
        <ele>1317.612</ele>
        <time>2017-01-08T14:13:30Z</time>
      </trkpt>
      <trkpt lat="37.341364" lon="-4.334631">
        <ele>1319.137</ele>
        <time>2017-01-08T14:13:41Z</time>
      </trkpt>
      <trkpt lat="37.341376" lon="-4.334639">
        <ele>1319.649</ele>
        <time>2017-01-08T14:13:43Z</time>
      </trkpt>
      <trkpt lat="37.341383" lon="-4.334676">
        <ele>1320.013</ele>
        <time>2017-01-08T14:14:00Z</time>
      </trkpt>
      <trkpt lat="37.341392" lon="-4.334669">
        <ele>1320.508</ele>
        <time>2017-01-08T14:14:23Z</time>
      </trkpt>
      <trkpt lat="37.341393" lon="-4.334690">
        <ele>1320.514</ele>
        <time>2017-01-08T14:14:51Z</time>
      </trkpt>
      <trkpt lat="37.341381" lon="-4.334695">
        <ele>1320.569</ele>
        <time>2017-01-08T14:15:17Z</time>
      </trkpt>
      <trkpt lat="37.341384" lon="-4.334700">
        <ele>1319.143</ele>
        <time>2017-01-08T14:15:32Z</time>
      </trkpt>
      <trkpt lat="37.341383" lon="-4.334700">
        <ele>1319.198</ele>
        <time>2017-01-08T14:15:33Z</time>
      </trkpt>
      <trkpt lat="37.341385" lon="-4.334657">
        <ele>1319.177</ele>
        <time>2017-01-08T14:15:50Z</time>
      </trkpt>
      <trkpt lat="37.341387" lon="-4.334655">
        <ele>1319.142</ele>
        <time>2017-01-08T14:16:07Z</time>
      </trkpt>
      <trkpt lat="37.341380" lon="-4.334669">
        <ele>1318.636</ele>
        <time>2017-01-08T14:16:30Z</time>
      </trkpt>
      <trkpt lat="37.341377" lon="-4.334675">
        <ele>1318.633</ele>
        <time>2017-01-08T14:17:05Z</time>
      </trkpt>
      <trkpt lat="37.341401" lon="-4.334705">
        <ele>1318.652</ele>
        <time>2017-01-08T14:17:17Z</time>
      </trkpt>
      <trkpt lat="37.341396" lon="-4.334687">
        <ele>1320.053</ele>
        <time>2017-01-08T14:17:29Z</time>
      </trkpt>
      <trkpt lat="37.341407" lon="-4.334669">
        <ele>1320.008</ele>
        <time>2017-01-08T14:18:04Z</time>
      </trkpt>
      <trkpt lat="37.341391" lon="-4.334715">
        <ele>1320.008</ele>
        <time>2017-01-08T14:18:17Z</time>
      </trkpt>
      <trkpt lat="37.341396" lon="-4.334710">
        <ele>1320.026</ele>
        <time>2017-01-08T14:18:22Z</time>
      </trkpt>
      <trkpt lat="37.341411" lon="-4.334697">
        <ele>1320.031</ele>
        <time>2017-01-08T14:18:37Z</time>
      </trkpt>
      <trkpt lat="37.341409" lon="-4.334687">
        <ele>1320.085</ele>
        <time>2017-01-08T14:18:47Z</time>
      </trkpt>
      <trkpt lat="37.341369" lon="-4.334645">
        <ele>1318.640</ele>
        <time>2017-01-08T14:18:53Z</time>
      </trkpt>
      <trkpt lat="37.341356" lon="-4.334608">
        <ele>1317.649</ele>
        <time>2017-01-08T14:19:14Z</time>
      </trkpt>
      <trkpt lat="37.341353" lon="-4.334589">
        <ele>1317.614</ele>
        <time>2017-01-08T14:19:36Z</time>
      </trkpt>
      <trkpt lat="37.341370" lon="-4.334607">
        <ele>1319.128</ele>
        <time>2017-01-08T14:19:56Z</time>
      </trkpt>
      <trkpt lat="37.341376" lon="-4.334667">
        <ele>1319.635</ele>
        <time>2017-01-08T14:20:14Z</time>
      </trkpt>
      <trkpt lat="37.341375" lon="-4.334683">
        <ele>1319.663</ele>
        <time>2017-01-08T14:20:39Z</time>
      </trkpt>
      <trkpt lat="37.341366" lon="-4.334692">
        <ele>1319.644</ele>
        <time>2017-01-08T14:20:56Z</time>
      </trkpt>
      <trkpt lat="37.341384" lon="-4.334684">
        <ele>1319.618</ele>
        <time>2017-01-08T14:21:23Z</time>
      </trkpt>
      <trkpt lat="37.341397" lon="-4.334684">
        <ele>1319.608</ele>
        <time>2017-01-08T14:21:51Z</time>
      </trkpt>
      <trkpt lat="37.341391" lon="-4.334673">
        <ele>1319.647</ele>
        <time>2017-01-08T14:22:17Z</time>
      </trkpt>
      <trkpt lat="37.341378" lon="-4.334660">
        <ele>1319.622</ele>
        <time>2017-01-08T14:22:40Z</time>
      </trkpt>
      <trkpt lat="37.341366" lon="-4.334648">
        <ele>1317.616</ele>
        <time>2017-01-08T14:22:52Z</time>
      </trkpt>
      <trkpt lat="37.341370" lon="-4.334643">
        <ele>1317.631</ele>
        <time>2017-01-08T14:23:16Z</time>
      </trkpt>
      <trkpt lat="37.341372" lon="-4.334630">
        <ele>1318.680</ele>
        <time>2017-01-08T14:23:37Z</time>
      </trkpt>
      <trkpt lat="37.341371" lon="-4.334650">
        <ele>1318.625</ele>
        <time>2017-01-08T14:23:56Z</time>
      </trkpt>
      <trkpt lat="37.341374" lon="-4.334662">
        <ele>1318.629</ele>
        <time>2017-01-08T14:24:26Z</time>
      </trkpt>
      <trkpt lat="37.341370" lon="-4.334672">
        <ele>1317.696</ele>
        <time>2017-01-08T14:24:48Z</time>
      </trkpt>
      <trkpt lat="37.341376" lon="-4.334678">
        <ele>1317.133</ele>
        <time>2017-01-08T14:25:11Z</time>
      </trkpt>
      <trkpt lat="37.341383" lon="-4.334673">
        <ele>1317.123</ele>
        <time>2017-01-08T14:25:41Z</time>
      </trkpt>
      <trkpt lat="37.341382" lon="-4.334682">
        <ele>1317.115</ele>
        <time>2017-01-08T14:26:07Z</time>
      </trkpt>
      <trkpt lat="37.341371" lon="-4.334684">
        <ele>1317.108</ele>
        <time>2017-01-08T14:26:34Z</time>
      </trkpt>
      <trkpt lat="37.341372" lon="-4.334684">
        <ele>1317.124</ele>
        <time>2017-01-08T14:27:10Z</time>
      </trkpt>
      <trkpt lat="37.341372" lon="-4.334672">
        <ele>1317.149</ele>
        <time>2017-01-08T14:27:42Z</time>
      </trkpt>
      <trkpt lat="37.341371" lon="-4.334673">
        <ele>1317.143</ele>
        <time>2017-01-08T14:28:15Z</time>
      </trkpt>
      <trkpt lat="37.341369" lon="-4.334677">
        <ele>1317.198</ele>
        <time>2017-01-08T14:28:41Z</time>
      </trkpt>
      <trkpt lat="37.341376" lon="-4.334673">
        <ele>1317.137</ele>
        <time>2017-01-08T14:29:17Z</time>
      </trkpt>
      <trkpt lat="37.341372" lon="-4.334671">
        <ele>1317.652</ele>
        <time>2017-01-08T14:29:45Z</time>
      </trkpt>
      <trkpt lat="37.341371" lon="-4.334667">
        <ele>1317.686</ele>
        <time>2017-01-08T14:30:19Z</time>
      </trkpt>
      <trkpt lat="37.341383" lon="-4.334675">
        <ele>1317.653</ele>
        <time>2017-01-08T14:30:48Z</time>
      </trkpt>
      <trkpt lat="37.341384" lon="-4.334680">
        <ele>1317.676</ele>
        <time>2017-01-08T14:31:23Z</time>
      </trkpt>
      <trkpt lat="37.341376" lon="-4.334680">
        <ele>1317.690</ele>
        <time>2017-01-08T14:32:01Z</time>
      </trkpt>
      <trkpt lat="37.341358" lon="-4.334681">
        <ele>1317.619</ele>
        <time>2017-01-08T14:32:41Z</time>
      </trkpt>
      <trkpt lat="37.341363" lon="-4.334660">
        <ele>1319.108</ele>
        <time>2017-01-08T14:33:05Z</time>
      </trkpt>
      <trkpt lat="37.341367" lon="-4.334661">
        <ele>1319.128</ele>
        <time>2017-01-08T14:33:27Z</time>
      </trkpt>
      <trkpt lat="37.341388" lon="-4.334655">
        <ele>1319.143</ele>
        <time>2017-01-08T14:34:05Z</time>
      </trkpt>
      <trkpt lat="37.341378" lon="-4.334639">
        <ele>1319.177</ele>
        <time>2017-01-08T14:34:41Z</time>
      </trkpt>
      <trkpt lat="37.341369" lon="-4.334640">
        <ele>1319.692</ele>
        <time>2017-01-08T14:35:18Z</time>
      </trkpt>
      <trkpt lat="37.341383" lon="-4.334647">
        <ele>1319.651</ele>
        <time>2017-01-08T14:35:29Z</time>
      </trkpt>
      <trkpt lat="37.341368" lon="-4.334661">
        <ele>1319.666</ele>
        <time>2017-01-08T14:35:54Z</time>
      </trkpt>
      <trkpt lat="37.341368" lon="-4.334647">
        <ele>1319.630</ele>
        <time>2017-01-08T14:36:24Z</time>
      </trkpt>
      <trkpt lat="37.341368" lon="-4.334651">
        <ele>1319.617</ele>
        <time>2017-01-08T14:36:44Z</time>
      </trkpt>
      <trkpt lat="37.341378" lon="-4.334656">
        <ele>1319.649</ele>
        <time>2017-01-08T14:37:01Z</time>
      </trkpt>
      <trkpt lat="37.341366" lon="-4.334642">
        <ele>1319.602</ele>
        <time>2017-01-08T14:37:17Z</time>
      </trkpt>
      <trkpt lat="37.341380" lon="-4.334638">
        <ele>1319.622</ele>
        <time>2017-01-08T14:37:32Z</time>
      </trkpt>
      <trkpt lat="37.341370" lon="-4.334618">
        <ele>1319.608</ele>
        <time>2017-01-08T14:37:48Z</time>
      </trkpt>
      <trkpt lat="37.341371" lon="-4.334600">
        <ele>1319.615</ele>
        <time>2017-01-08T14:38:13Z</time>
      </trkpt>
      <trkpt lat="37.341350" lon="-4.334620">
        <ele>1319.670</ele>
        <time>2017-01-08T14:38:35Z</time>
      </trkpt>
      <trkpt lat="37.341365" lon="-4.334634">
        <ele>1319.634</ele>
        <time>2017-01-08T14:38:54Z</time>
      </trkpt>
      <trkpt lat="37.341362" lon="-4.334616">
        <ele>1319.699</ele>
        <time>2017-01-08T14:39:10Z</time>
      </trkpt>
      <trkpt lat="37.341400" lon="-4.334639">
        <ele>1319.648</ele>
        <time>2017-01-08T14:39:33Z</time>
      </trkpt>
      <trkpt lat="37.341374" lon="-4.334621">
        <ele>1320.063</ele>
        <time>2017-01-08T14:39:56Z</time>
      </trkpt>
      <trkpt lat="37.341369" lon="-4.334592">
        <ele>1320.087</ele>
        <time>2017-01-08T14:40:16Z</time>
      </trkpt>
      <trkpt lat="37.341398" lon="-4.334524">
        <ele>1320.054</ele>
        <time>2017-01-08T14:40:31Z</time>
      </trkpt>
      <trkpt lat="37.341394" lon="-4.334494">
        <ele>1319.123</ele>
        <time>2017-01-08T14:40:34Z</time>
      </trkpt>
      <trkpt lat="37.341408" lon="-4.334501">
        <ele>1318.683</ele>
        <time>2017-01-08T14:40:48Z</time>
      </trkpt>
      <trkpt lat="37.341417" lon="-4.334443">
        <ele>1317.611</ele>
        <time>2017-01-08T14:40:59Z</time>
      </trkpt>
      <trkpt lat="37.341417" lon="-4.334312">
        <ele>1315.208</ele>
        <time>2017-01-08T14:41:13Z</time>
      </trkpt>
      <trkpt lat="37.341430" lon="-4.334273">
        <ele>1313.823</ele>
        <time>2017-01-08T14:41:25Z</time>
      </trkpt>
      <trkpt lat="37.341418" lon="-4.334272">
        <ele>1313.818</ele>
        <time>2017-01-08T14:41:36Z</time>
      </trkpt>
      <trkpt lat="37.341419" lon="-4.334216">
        <ele>1313.342</ele>
        <time>2017-01-08T14:41:50Z</time>
      </trkpt>
      <trkpt lat="37.341445" lon="-4.334147">
        <ele>1311.467</ele>
        <time>2017-01-08T14:42:04Z</time>
      </trkpt>
      <trkpt lat="37.341425" lon="-4.334031">
        <ele>1309.586</ele>
        <time>2017-01-08T14:42:17Z</time>
      </trkpt>
      <trkpt lat="37.341397" lon="-4.333943">
        <ele>1307.591</ele>
        <time>2017-01-08T14:42:30Z</time>
      </trkpt>
      <trkpt lat="37.341380" lon="-4.333920">
        <ele>1307.125</ele>
        <time>2017-01-08T14:42:38Z</time>
      </trkpt>
      <trkpt lat="37.341337" lon="-4.333852">
        <ele>1305.662</ele>
        <time>2017-01-08T14:42:50Z</time>
      </trkpt>
      <trkpt lat="37.341355" lon="-4.333744">
        <ele>1303.711</ele>
        <time>2017-01-08T14:43:02Z</time>
      </trkpt>
      <trkpt lat="37.341296" lon="-4.333704">
        <ele>1302.721</ele>
        <time>2017-01-08T14:43:14Z</time>
      </trkpt>
      <trkpt lat="37.341272" lon="-4.333688">
        <ele>1302.703</ele>
        <time>2017-01-08T14:43:27Z</time>
      </trkpt>
      <trkpt lat="37.341241" lon="-4.333690">
        <ele>1301.308</ele>
        <time>2017-01-08T14:43:44Z</time>
      </trkpt>
      <trkpt lat="37.341225" lon="-4.333712">
        <ele>1301.362</ele>
        <time>2017-01-08T14:44:01Z</time>
      </trkpt>
      <trkpt lat="37.341191" lon="-4.333698">
        <ele>1301.387</ele>
        <time>2017-01-08T14:44:20Z</time>
      </trkpt>
      <trkpt lat="37.341156" lon="-4.333682">
        <ele>1300.331</ele>
        <time>2017-01-08T14:44:28Z</time>
      </trkpt>
      <trkpt lat="37.341066" lon="-4.333711">
        <ele>1297.446</ele>
        <time>2017-01-08T14:44:39Z</time>
      </trkpt>
      <trkpt lat="37.341028" lon="-4.333650">
        <ele>1294.125</ele>
        <time>2017-01-08T14:44:52Z</time>
      </trkpt>
      <trkpt lat="37.341025" lon="-4.333645">
        <ele>1294.160</ele>
        <time>2017-01-08T14:44:53Z</time>
      </trkpt>
      <trkpt lat="37.341033" lon="-4.333570">
        <ele>1292.674</ele>
        <time>2017-01-08T14:45:07Z</time>
      </trkpt>
      <trkpt lat="37.341049" lon="-4.333511">
        <ele>1291.281</ele>
        <time>2017-01-08T14:45:19Z</time>
      </trkpt>
      <trkpt lat="37.341048" lon="-4.333479">
        <ele>1289.319</ele>
        <time>2017-01-08T14:45:35Z</time>
      </trkpt>
      <trkpt lat="37.341011" lon="-4.333480">
        <ele>1286.909</ele>
        <time>2017-01-08T14:45:53Z</time>
      </trkpt>
      <trkpt lat="37.340995" lon="-4.333424">
        <ele>1285.419</ele>
        <time>2017-01-08T14:46:06Z</time>
      </trkpt>
      <trkpt lat="37.340986" lon="-4.333404">
        <ele>1284.508</ele>
        <time>2017-01-08T14:46:11Z</time>
      </trkpt>
      <trkpt lat="37.340958" lon="-4.333400">
        <ele>1283.542</ele>
        <time>2017-01-08T14:46:14Z</time>
      </trkpt>
      <trkpt lat="37.340935" lon="-4.333335">
        <ele>1281.167</ele>
        <time>2017-01-08T14:46:27Z</time>
      </trkpt>
      <trkpt lat="37.340884" lon="-4.333348">
        <ele>1278.781</ele>
        <time>2017-01-08T14:46:43Z</time>
      </trkpt>
      <trkpt lat="37.340836" lon="-4.333329">
        <ele>1275.366</ele>
        <time>2017-01-08T14:46:55Z</time>
      </trkpt>
      <trkpt lat="37.340808" lon="-4.333307">
        <ele>1273.495</ele>
        <time>2017-01-08T14:47:06Z</time>
      </trkpt>
      <trkpt lat="37.340769" lon="-4.333269">
        <ele>1271.040</ele>
        <time>2017-01-08T14:47:18Z</time>
      </trkpt>
      <trkpt lat="37.340732" lon="-4.333182">
        <ele>1269.134</ele>
        <time>2017-01-08T14:47:31Z</time>
      </trkpt>
      <trkpt lat="37.340712" lon="-4.333140">
        <ele>1268.141</ele>
        <time>2017-01-08T14:47:35Z</time>
      </trkpt>
      <trkpt lat="37.340711" lon="-4.333103">
        <ele>1268.665</ele>
        <time>2017-01-08T14:47:38Z</time>
      </trkpt>
      <trkpt lat="37.340699" lon="-4.332993">
        <ele>1267.668</ele>
        <time>2017-01-08T14:47:50Z</time>
      </trkpt>
      <trkpt lat="37.340696" lon="-4.332990">
        <ele>1267.614</ele>
        <time>2017-01-08T14:47:53Z</time>
      </trkpt>
      <trkpt lat="37.340672" lon="-4.332965">
        <ele>1265.708</ele>
        <time>2017-01-08T14:48:03Z</time>
      </trkpt>
      <trkpt lat="37.340641" lon="-4.332943">
        <ele>1263.387</ele>
        <time>2017-01-08T14:48:15Z</time>
      </trkpt>
      <trkpt lat="37.340624" lon="-4.332850">
        <ele>1259.972</ele>
        <time>2017-01-08T14:48:28Z</time>
      </trkpt>
      <trkpt lat="37.340594" lon="-4.332804">
        <ele>1258.016</ele>
        <time>2017-01-08T14:48:39Z</time>
      </trkpt>
      <trkpt lat="37.340561" lon="-4.332740">
        <ele>1254.731</ele>
        <time>2017-01-08T14:48:49Z</time>
      </trkpt>
      <trkpt lat="37.340545" lon="-4.332647">
        <ele>1252.730</ele>
        <time>2017-01-08T14:49:01Z</time>
      </trkpt>
      <trkpt lat="37.340553" lon="-4.332601">
        <ele>1252.785</ele>
        <time>2017-01-08T14:49:14Z</time>
      </trkpt>
      <trkpt lat="37.340550" lon="-4.332550">
        <ele>1250.359</ele>
        <time>2017-01-08T14:49:27Z</time>
      </trkpt>
      <trkpt lat="37.340526" lon="-4.332491">
        <ele>1247.586</ele>
        <time>2017-01-08T14:49:40Z</time>
      </trkpt>
      <trkpt lat="37.340521" lon="-4.332457">
        <ele>1246.038</ele>
        <time>2017-01-08T14:49:53Z</time>
      </trkpt>
      <trkpt lat="37.340513" lon="-4.332446">
        <ele>1245.570</ele>
        <time>2017-01-08T14:50:09Z</time>
      </trkpt>
      <trkpt lat="37.340516" lon="-4.332394">
        <ele>1243.617</ele>
        <time>2017-01-08T14:50:22Z</time>
      </trkpt>
      <trkpt lat="37.340502" lon="-4.332413">
        <ele>1243.108</ele>
        <time>2017-01-08T14:50:25Z</time>
      </trkpt>
      <trkpt lat="37.340428" lon="-4.332387">
        <ele>1240.724</ele>
        <time>2017-01-08T14:50:39Z</time>
      </trkpt>
      <trkpt lat="37.340438" lon="-4.332400">
        <ele>1241.739</ele>
        <time>2017-01-08T14:50:59Z</time>
      </trkpt>
      <trkpt lat="37.340436" lon="-4.332389">
        <ele>1240.253</ele>
        <time>2017-01-08T14:51:02Z</time>
      </trkpt>
      <trkpt lat="37.340397" lon="-4.332393">
        <ele>1237.458</ele>
        <time>2017-01-08T14:51:16Z</time>
      </trkpt>
      <trkpt lat="37.340389" lon="-4.332333">
        <ele>1235.487</ele>
        <time>2017-01-08T14:51:28Z</time>
      </trkpt>
      <trkpt lat="37.340379" lon="-4.332311">
        <ele>1233.032</ele>
        <time>2017-01-08T14:51:41Z</time>
      </trkpt>
      <trkpt lat="37.340393" lon="-4.332226">
        <ele>1230.626</ele>
        <time>2017-01-08T14:51:55Z</time>
      </trkpt>
      <trkpt lat="37.340357" lon="-4.332235">
        <ele>1228.243</ele>
        <time>2017-01-08T14:52:07Z</time>
      </trkpt>
      <trkpt lat="37.340335" lon="-4.332276">
        <ele>1225.862</ele>
        <time>2017-01-08T14:52:16Z</time>
      </trkpt>
      <trkpt lat="37.340257" lon="-4.332295">
        <ele>1223.483</ele>
        <time>2017-01-08T14:52:28Z</time>
      </trkpt>
      <trkpt lat="37.340185" lon="-4.332341">
        <ele>1220.511</ele>
        <time>2017-01-08T14:52:41Z</time>
      </trkpt>
      <trkpt lat="37.340155" lon="-4.332323">
        <ele>1218.108</ele>
        <time>2017-01-08T14:52:52Z</time>
      </trkpt>
      <trkpt lat="37.340132" lon="-4.332338">
        <ele>1217.297</ele>
        <time>2017-01-08T14:53:13Z</time>
      </trkpt>
      <trkpt lat="37.340086" lon="-4.332355">
        <ele>1215.772</ele>
        <time>2017-01-08T14:53:28Z</time>
      </trkpt>
      <trkpt lat="37.340076" lon="-4.332361">
        <ele>1214.826</ele>
        <time>2017-01-08T14:53:32Z</time>
      </trkpt>
      <trkpt lat="37.340006" lon="-4.332354">
        <ele>1210.931</ele>
        <time>2017-01-08T14:53:44Z</time>
      </trkpt>
      <trkpt lat="37.339956" lon="-4.332292">
        <ele>1209.040</ele>
        <time>2017-01-08T14:53:58Z</time>
      </trkpt>
      <trkpt lat="37.339886" lon="-4.332297">
        <ele>1205.645</ele>
        <time>2017-01-08T14:54:10Z</time>
      </trkpt>
      <trkpt lat="37.339815" lon="-4.332252">
        <ele>1202.819</ele>
        <time>2017-01-08T14:54:23Z</time>
      </trkpt>
      <trkpt lat="37.339753" lon="-4.332253">
        <ele>1199.936</ele>
        <time>2017-01-08T14:54:36Z</time>
      </trkpt>
      <trkpt lat="37.339751" lon="-4.332284">
        <ele>1199.423</ele>
        <time>2017-01-08T14:54:50Z</time>
      </trkpt>
      <trkpt lat="37.339734" lon="-4.332302">
        <ele>1199.483</ele>
        <time>2017-01-08T14:55:05Z</time>
      </trkpt>
      <trkpt lat="37.339744" lon="-4.332298">
        <ele>1199.411</ele>
        <time>2017-01-08T14:55:29Z</time>
      </trkpt>
      <trkpt lat="37.339714" lon="-4.332291">
        <ele>1198.408</ele>
        <time>2017-01-08T14:55:50Z</time>
      </trkpt>
      <trkpt lat="37.339669" lon="-4.332287">
        <ele>1196.513</ele>
        <time>2017-01-08T14:56:03Z</time>
      </trkpt>
      <trkpt lat="37.339593" lon="-4.332239">
        <ele>1193.158</ele>
        <time>2017-01-08T14:56:17Z</time>
      </trkpt>
      <trkpt lat="37.339552" lon="-4.332255">
        <ele>1191.712</ele>
        <time>2017-01-08T14:56:29Z</time>
      </trkpt>
      <trkpt lat="37.339502" lon="-4.332281">
        <ele>1189.877</ele>
        <time>2017-01-08T14:56:42Z</time>
      </trkpt>
      <trkpt lat="37.339512" lon="-4.332259">
        <ele>1189.896</ele>
        <time>2017-01-08T14:57:02Z</time>
      </trkpt>
      <trkpt lat="37.339489" lon="-4.332246">
        <ele>1189.381</ele>
        <time>2017-01-08T14:57:23Z</time>
      </trkpt>
      <trkpt lat="37.339404" lon="-4.332180">
        <ele>1185.955</ele>
        <time>2017-01-08T14:57:35Z</time>
      </trkpt>
      <trkpt lat="37.339363" lon="-4.332160">
        <ele>1185.442</ele>
        <time>2017-01-08T14:57:40Z</time>
      </trkpt>
      <trkpt lat="37.339306" lon="-4.332133">
        <ele>1182.636</ele>
        <time>2017-01-08T14:57:50Z</time>
      </trkpt>
      <trkpt lat="37.339258" lon="-4.332138">
        <ele>1179.717</ele>
        <time>2017-01-08T14:57:58Z</time>
      </trkpt>
      <trkpt lat="37.339337" lon="-4.332210">
        <ele>1181.118</ele>
        <time>2017-01-08T14:58:04Z</time>
      </trkpt>
      <trkpt lat="37.339368" lon="-4.332296">
        <ele>1180.208</ele>
        <time>2017-01-08T14:58:13Z</time>
      </trkpt>
      <trkpt lat="37.339381" lon="-4.332365">
        <ele>1181.644</ele>
        <time>2017-01-08T14:58:46Z</time>
      </trkpt>
      <trkpt lat="37.339410" lon="-4.332476">
        <ele>1180.279</ele>
        <time>2017-01-08T14:59:02Z</time>
      </trkpt>
      <trkpt lat="37.339415" lon="-4.332486">
        <ele>1180.213</ele>
        <time>2017-01-08T14:59:03Z</time>
      </trkpt>
      <trkpt lat="37.339428" lon="-4.332537">
        <ele>1178.788</ele>
        <time>2017-01-08T14:59:07Z</time>
      </trkpt>
      <trkpt lat="37.339424" lon="-4.332604">
        <ele>1177.827</ele>
        <time>2017-01-08T14:59:12Z</time>
      </trkpt>
      <trkpt lat="37.339419" lon="-4.332633">
        <ele>1177.342</ele>
        <time>2017-01-08T14:59:14Z</time>
      </trkpt>
      <trkpt lat="37.339410" lon="-4.332672">
        <ele>1175.836</ele>
        <time>2017-01-08T14:59:29Z</time>
      </trkpt>
      <trkpt lat="37.339394" lon="-4.332660">
        <ele>1175.813</ele>
        <time>2017-01-08T14:59:46Z</time>
      </trkpt>
      <trkpt lat="37.339404" lon="-4.332679">
        <ele>1175.896</ele>
        <time>2017-01-08T15:00:02Z</time>
      </trkpt>
      <trkpt lat="37.339400" lon="-4.332803">
        <ele>1174.431</ele>
        <time>2017-01-08T15:00:13Z</time>
      </trkpt>
      <trkpt lat="37.339417" lon="-4.333026">
        <ele>1170.524</ele>
        <time>2017-01-08T15:00:29Z</time>
      </trkpt>
      <trkpt lat="37.339415" lon="-4.333234">
        <ele>1167.708</ele>
        <time>2017-01-08T15:00:44Z</time>
      </trkpt>
      <trkpt lat="37.339359" lon="-4.333430">
        <ele>1164.370</ele>
        <time>2017-01-08T15:00:59Z</time>
      </trkpt>
      <trkpt lat="37.339316" lon="-4.333549">
        <ele>1161.975</ele>
        <time>2017-01-08T15:01:09Z</time>
      </trkpt>
      <trkpt lat="37.339307" lon="-4.333608">
        <ele>1160.989</ele>
        <time>2017-01-08T15:01:13Z</time>
      </trkpt>
      <trkpt lat="37.339288" lon="-4.333741">
        <ele>1158.554</ele>
        <time>2017-01-08T15:01:28Z</time>
      </trkpt>
      <trkpt lat="37.339282" lon="-4.333864">
        <ele>1157.643</ele>
        <time>2017-01-08T15:01:45Z</time>
      </trkpt>
      <trkpt lat="37.339287" lon="-4.334029">
        <ele>1154.258</ele>
        <time>2017-01-08T15:01:57Z</time>
      </trkpt>
      <trkpt lat="37.339278" lon="-4.334205">
        <ele>1151.332</ele>
        <time>2017-01-08T15:02:09Z</time>
      </trkpt>
      <trkpt lat="37.339275" lon="-4.334216">
        <ele>1150.879</ele>
        <time>2017-01-08T15:02:19Z</time>
      </trkpt>
      <trkpt lat="37.339305" lon="-4.334409">
        <ele>1147.575</ele>
        <time>2017-01-08T15:02:33Z</time>
      </trkpt>
      <trkpt lat="37.339317" lon="-4.334551">
        <ele>1144.628</ele>
        <time>2017-01-08T15:02:44Z</time>
      </trkpt>
      <trkpt lat="37.339317" lon="-4.334577">
        <ele>1144.120</ele>
        <time>2017-01-08T15:03:00Z</time>
      </trkpt>
      <trkpt lat="37.339341" lon="-4.334699">
        <ele>1141.208</ele>
        <time>2017-01-08T15:03:14Z</time>
      </trkpt>
      <trkpt lat="37.339357" lon="-4.334891">
        <ele>1138.888</ele>
        <time>2017-01-08T15:03:31Z</time>
      </trkpt>
      <trkpt lat="37.339342" lon="-4.334997">
        <ele>1137.483</ele>
        <time>2017-01-08T15:03:45Z</time>
      </trkpt>
      <trkpt lat="37.339338" lon="-4.335053">
        <ele>1135.517</ele>
        <time>2017-01-08T15:04:00Z</time>
      </trkpt>
      <trkpt lat="37.339325" lon="-4.335029">
        <ele>1135.572</ele>
        <time>2017-01-08T15:04:36Z</time>
      </trkpt>
      <trkpt lat="37.339305" lon="-4.335153">
        <ele>1133.511</ele>
        <time>2017-01-08T15:04:53Z</time>
      </trkpt>
      <trkpt lat="37.339296" lon="-4.335260">
        <ele>1132.176</ele>
        <time>2017-01-08T15:05:08Z</time>
      </trkpt>
      <trkpt lat="37.339283" lon="-4.335506">
        <ele>1129.230</ele>
        <time>2017-01-08T15:05:23Z</time>
      </trkpt>
      <trkpt lat="37.339256" lon="-4.335564">
        <ele>1127.317</ele>
        <time>2017-01-08T15:05:28Z</time>
      </trkpt>
      <trkpt lat="37.339247" lon="-4.335573">
        <ele>1126.829</ele>
        <time>2017-01-08T15:05:29Z</time>
      </trkpt>
      <trkpt lat="37.339187" lon="-4.335744">
        <ele>1125.400</ele>
        <time>2017-01-08T15:05:44Z</time>
      </trkpt>
      <trkpt lat="37.339155" lon="-4.335985">
        <ele>1123.920</ele>
        <time>2017-01-08T15:06:00Z</time>
      </trkpt>
      <trkpt lat="37.339159" lon="-4.336132">
        <ele>1122.008</ele>
        <time>2017-01-08T15:06:12Z</time>
      </trkpt>
      <trkpt lat="37.339178" lon="-4.336233">
        <ele>1121.523</ele>
        <time>2017-01-08T15:06:19Z</time>
      </trkpt>
      <trkpt lat="37.339178" lon="-4.336367">
        <ele>1121.088</ele>
        <time>2017-01-08T15:06:26Z</time>
      </trkpt>
      <trkpt lat="37.339200" lon="-4.336598">
        <ele>1118.232</ele>
        <time>2017-01-08T15:06:38Z</time>
      </trkpt>
      <trkpt lat="37.339206" lon="-4.336657">
        <ele>1117.797</ele>
        <time>2017-01-08T15:06:43Z</time>
      </trkpt>
      <trkpt lat="37.339193" lon="-4.336698">
        <ele>1117.296</ele>
        <time>2017-01-08T15:06:46Z</time>
      </trkpt>
      <trkpt lat="37.339170" lon="-4.336796">
        <ele>1117.221</ele>
        <time>2017-01-08T15:06:53Z</time>
      </trkpt>
      <trkpt lat="37.339109" lon="-4.336918">
        <ele>1116.265</ele>
        <time>2017-01-08T15:07:05Z</time>
      </trkpt>
      <trkpt lat="37.339092" lon="-4.336921">
        <ele>1116.252</ele>
        <time>2017-01-08T15:07:23Z</time>
      </trkpt>
      <trkpt lat="37.339077" lon="-4.336887">
        <ele>1116.281</ele>
        <time>2017-01-08T15:07:47Z</time>
      </trkpt>
      <trkpt lat="37.339029" lon="-4.336941">
        <ele>1114.861</ele>
        <time>2017-01-08T15:08:06Z</time>
      </trkpt>
      <trkpt lat="37.338976" lon="-4.336965">
        <ele>1111.417</ele>
        <time>2017-01-08T15:08:18Z</time>
      </trkpt>
      <trkpt lat="37.339011" lon="-4.336923">
        <ele>1109.008</ele>
        <time>2017-01-08T15:09:39Z</time>
      </trkpt>
      <trkpt lat="37.339017" lon="-4.336933">
        <ele>1110.549</ele>
        <time>2017-01-08T15:09:41Z</time>
      </trkpt>
      <trkpt lat="37.339058" lon="-4.336956">
        <ele>1112.464</ele>
        <time>2017-01-08T15:09:54Z</time>
      </trkpt>
      <trkpt lat="37.339035" lon="-4.337060">
        <ele>1114.358</ele>
        <time>2017-01-08T15:10:09Z</time>
      </trkpt>
      <trkpt lat="37.339006" lon="-4.337105">
        <ele>1114.393</ele>
        <time>2017-01-08T15:10:17Z</time>
      </trkpt>
      <trkpt lat="37.338923" lon="-4.337348">
        <ele>1112.482</ele>
        <time>2017-01-08T15:10:34Z</time>
      </trkpt>
      <trkpt lat="37.338889" lon="-4.337608">
        <ele>1110.937</ele>
        <time>2017-01-08T15:10:50Z</time>
      </trkpt>
      <trkpt lat="37.338891" lon="-4.337795">
        <ele>1110.071</ele>
        <time>2017-01-08T15:11:03Z</time>
      </trkpt>
      <trkpt lat="37.338892" lon="-4.337924">
        <ele>1110.018</ele>
        <time>2017-01-08T15:11:19Z</time>
      </trkpt>
      <trkpt lat="37.338876" lon="-4.337962">
        <ele>1110.068</ele>
        <time>2017-01-08T15:11:23Z</time>
      </trkpt>
      <trkpt lat="37.338858" lon="-4.337995">
        <ele>1110.042</ele>
        <time>2017-01-08T15:11:26Z</time>
      </trkpt>
      <trkpt lat="37.338801" lon="-4.338108">
        <ele>1111.426</ele>
        <time>2017-01-08T15:11:36Z</time>
      </trkpt>
      <trkpt lat="37.338763" lon="-4.338179">
        <ele>1110.008</ele>
        <time>2017-01-08T15:11:43Z</time>
      </trkpt>
      <trkpt lat="37.338738" lon="-4.338277">
        <ele>1109.537</ele>
        <time>2017-01-08T15:11:58Z</time>
      </trkpt>
      <trkpt lat="37.338677" lon="-4.338382">
        <ele>1110.532</ele>
        <time>2017-01-08T15:12:06Z</time>
      </trkpt>
      <trkpt lat="37.338610" lon="-4.338598">
        <ele>1110.546</ele>
        <time>2017-01-08T15:12:22Z</time>
      </trkpt>
      <trkpt lat="37.338613" lon="-4.338798">
        <ele>1109.551</ele>
        <time>2017-01-08T15:12:35Z</time>
      </trkpt>
      <trkpt lat="37.338600" lon="-4.338998">
        <ele>1109.540</ele>
        <time>2017-01-08T15:12:46Z</time>
      </trkpt>
      <trkpt lat="37.338578" lon="-4.339209">
        <ele>1110.965</ele>
        <time>2017-01-08T15:13:01Z</time>
      </trkpt>
      <trkpt lat="37.338569" lon="-4.339236">
        <ele>1110.919</ele>
        <time>2017-01-08T15:13:03Z</time>
      </trkpt>
      <trkpt lat="37.338482" lon="-4.339367">
        <ele>1109.586</ele>
        <time>2017-01-08T15:13:18Z</time>
      </trkpt>
      <trkpt lat="37.338471" lon="-4.339376">
        <ele>1109.589</ele>
        <time>2017-01-08T15:13:19Z</time>
      </trkpt>
      <trkpt lat="37.338327" lon="-4.339542">
        <ele>1107.606</ele>
        <time>2017-01-08T15:13:35Z</time>
      </trkpt>
      <trkpt lat="37.338297" lon="-4.339589">
        <ele>1107.626</ele>
        <time>2017-01-08T15:13:40Z</time>
      </trkpt>
      <trkpt lat="37.338284" lon="-4.339630">
        <ele>1107.608</ele>
        <time>2017-01-08T15:13:43Z</time>
      </trkpt>
      <trkpt lat="37.338277" lon="-4.339776">
        <ele>1105.719</ele>
        <time>2017-01-08T15:13:54Z</time>
      </trkpt>
      <trkpt lat="37.338262" lon="-4.340005">
        <ele>1102.824</ele>
        <time>2017-01-08T15:14:08Z</time>
      </trkpt>
      <trkpt lat="37.338178" lon="-4.340181">
        <ele>1101.358</ele>
        <time>2017-01-08T15:14:22Z</time>
      </trkpt>
      <trkpt lat="37.338136" lon="-4.340294">
        <ele>1100.413</ele>
        <time>2017-01-08T15:14:30Z</time>
      </trkpt>
      <trkpt lat="37.338049" lon="-4.340471">
        <ele>1098.472</ele>
        <time>2017-01-08T15:14:46Z</time>
      </trkpt>
      <trkpt lat="37.337921" lon="-4.340660">
        <ele>1097.597</ele>
        <time>2017-01-08T15:15:01Z</time>
      </trkpt>
      <trkpt lat="37.337800" lon="-4.340825">
        <ele>1100.411</ele>
        <time>2017-01-08T15:15:16Z</time>
      </trkpt>
      <trkpt lat="37.337755" lon="-4.340945">
        <ele>1098.978</ele>
        <time>2017-01-08T15:15:28Z</time>
      </trkpt>
      <trkpt lat="37.337711" lon="-4.341111">
        <ele>1097.541</ele>
        <time>2017-01-08T15:15:42Z</time>
      </trkpt>
      <trkpt lat="37.337700" lon="-4.341276">
        <ele>1097.581</ele>
        <time>2017-01-08T15:15:56Z</time>
      </trkpt>
      <trkpt lat="37.337637" lon="-4.341461">
        <ele>1098.909</ele>
        <time>2017-01-08T15:16:14Z</time>
      </trkpt>
      <trkpt lat="37.337520" lon="-4.341613">
        <ele>1100.908</ele>
        <time>2017-01-08T15:16:31Z</time>
      </trkpt>
      <trkpt lat="37.337502" lon="-4.341624">
        <ele>1100.985</ele>
        <time>2017-01-08T15:16:33Z</time>
      </trkpt>
      <trkpt lat="37.337417" lon="-4.341698">
        <ele>1099.470</ele>
        <time>2017-01-08T15:16:42Z</time>
      </trkpt>
      <trkpt lat="37.337300" lon="-4.341831">
        <ele>1098.464</ele>
        <time>2017-01-08T15:16:56Z</time>
      </trkpt>
      <trkpt lat="37.337150" lon="-4.341926">
        <ele>1098.449</ele>
        <time>2017-01-08T15:17:10Z</time>
      </trkpt>
      <trkpt lat="37.337120" lon="-4.341935">
        <ele>1099.938</ele>
        <time>2017-01-08T15:17:13Z</time>
      </trkpt>
      <trkpt lat="37.337014" lon="-4.342056">
        <ele>1096.553</ele>
        <time>2017-01-08T15:17:27Z</time>
      </trkpt>
      <trkpt lat="37.336935" lon="-4.342222">
        <ele>1093.647</ele>
        <time>2017-01-08T15:17:41Z</time>
      </trkpt>
      <trkpt lat="37.336851" lon="-4.342331">
        <ele>1093.684</ele>
        <time>2017-01-08T15:17:52Z</time>
      </trkpt>
      <trkpt lat="37.336738" lon="-4.342481">
        <ele>1091.737</ele>
        <time>2017-01-08T15:18:07Z</time>
      </trkpt>
      <trkpt lat="37.336728" lon="-4.342488">
        <ele>1091.749</ele>
        <time>2017-01-08T15:18:08Z</time>
      </trkpt>
      <trkpt lat="37.336557" lon="-4.342573">
        <ele>1092.713</ele>
        <time>2017-01-08T15:18:21Z</time>
      </trkpt>
      <trkpt lat="37.336383" lon="-4.342628">
        <ele>1094.608</ele>
        <time>2017-01-08T15:18:35Z</time>
      </trkpt>
      <trkpt lat="37.336299" lon="-4.342765">
        <ele>1095.184</ele>
        <time>2017-01-08T15:18:50Z</time>
      </trkpt>
      <trkpt lat="37.336237" lon="-4.342820">
        <ele>1095.679</ele>
        <time>2017-01-08T15:18:59Z</time>
      </trkpt>
      <trkpt lat="37.336189" lon="-4.342850">
        <ele>1094.653</ele>
        <time>2017-01-08T15:19:03Z</time>
      </trkpt>
      <trkpt lat="37.336019" lon="-4.342890">
        <ele>1096.098</ele>
        <time>2017-01-08T15:19:18Z</time>
      </trkpt>
      <trkpt lat="37.335873" lon="-4.342878">
        <ele>1098.087</ele>
        <time>2017-01-08T15:19:31Z</time>
      </trkpt>
      <trkpt lat="37.335675" lon="-4.342841">
        <ele>1098.972</ele>
        <time>2017-01-08T15:19:46Z</time>
      </trkpt>
      <trkpt lat="37.335535" lon="-4.342844">
        <ele>1101.376</ele>
        <time>2017-01-08T15:20:01Z</time>
      </trkpt>
      <trkpt lat="37.335521" lon="-4.342874">
        <ele>1101.393</ele>
        <time>2017-01-08T15:20:05Z</time>
      </trkpt>
      <trkpt lat="37.335470" lon="-4.343020">
        <ele>1102.319</ele>
        <time>2017-01-08T15:20:18Z</time>
      </trkpt>
      <trkpt lat="37.335461" lon="-4.343049">
        <ele>1102.809</ele>
        <time>2017-01-08T15:20:20Z</time>
      </trkpt>
      <trkpt lat="37.335344" lon="-4.343200">
        <ele>1106.119</ele>
        <time>2017-01-08T15:20:36Z</time>
      </trkpt>
      <trkpt lat="37.335213" lon="-4.343288">
        <ele>1106.608</ele>
        <time>2017-01-08T15:20:50Z</time>
      </trkpt>
      <trkpt lat="37.335156" lon="-4.343296">
        <ele>1105.772</ele>
        <time>2017-01-08T15:20:57Z</time>
      </trkpt>
      <trkpt lat="37.335122" lon="-4.343320">
        <ele>1105.277</ele>
        <time>2017-01-08T15:21:01Z</time>
      </trkpt>
      <trkpt lat="37.335061" lon="-4.343352">
        <ele>1106.631</ele>
        <time>2017-01-08T15:21:06Z</time>
      </trkpt>
      <trkpt lat="37.334918" lon="-4.343396">
        <ele>1110.036</ele>
        <time>2017-01-08T15:21:19Z</time>
      </trkpt>
      <trkpt lat="37.334805" lon="-4.343435">
        <ele>1111.935</ele>
        <time>2017-01-08T15:21:33Z</time>
      </trkpt>
      <trkpt lat="37.334694" lon="-4.343424">
        <ele>1112.430</ele>
        <time>2017-01-08T15:21:43Z</time>
      </trkpt>
      <trkpt lat="37.334656" lon="-4.343423">
        <ele>1110.914</ele>
        <time>2017-01-08T15:21:46Z</time>
      </trkpt>
      <trkpt lat="37.334509" lon="-4.343341">
        <ele>1109.511</ele>
        <time>2017-01-08T15:22:01Z</time>
      </trkpt>
      <trkpt lat="37.334397" lon="-4.343291">
        <ele>1110.914</ele>
        <time>2017-01-08T15:22:15Z</time>
      </trkpt>
      <trkpt lat="37.334390" lon="-4.343291">
        <ele>1110.554</ele>
        <time>2017-01-08T15:22:31Z</time>
      </trkpt>
      <trkpt lat="37.334408" lon="-4.343276">
        <ele>1110.509</ele>
        <time>2017-01-08T15:22:46Z</time>
      </trkpt>
      <trkpt lat="37.334351" lon="-4.343280">
        <ele>1110.508</ele>
        <time>2017-01-08T15:22:57Z</time>
      </trkpt>
      <trkpt lat="37.334279" lon="-4.343274">
        <ele>1110.582</ele>
        <time>2017-01-08T15:23:02Z</time>
      </trkpt>
      <trkpt lat="37.334107" lon="-4.343249">
        <ele>1113.847</ele>
        <time>2017-01-08T15:23:16Z</time>
      </trkpt>
      <trkpt lat="37.333946" lon="-4.343233">
        <ele>1117.251</ele>
        <time>2017-01-08T15:23:30Z</time>
      </trkpt>
      <trkpt lat="37.333863" lon="-4.343247">
        <ele>1119.136</ele>
        <time>2017-01-08T15:23:41Z</time>
      </trkpt>
      <trkpt lat="37.333821" lon="-4.343265">
        <ele>1119.675</ele>
        <time>2017-01-08T15:23:45Z</time>
      </trkpt>
      <trkpt lat="37.333780" lon="-4.343358">
        <ele>1120.140</ele>
        <time>2017-01-08T15:23:59Z</time>
      </trkpt>
      <trkpt lat="37.333800" lon="-4.343441">
        <ele>1120.114</ele>
        <time>2017-01-08T15:24:11Z</time>
      </trkpt>
      <trkpt lat="37.333810" lon="-4.343435">
        <ele>1120.171</ele>
        <time>2017-01-08T15:24:30Z</time>
      </trkpt>
      <trkpt lat="37.333851" lon="-4.343444">
        <ele>1120.112</ele>
        <time>2017-01-08T15:24:51Z</time>
      </trkpt>
      <trkpt lat="37.333838" lon="-4.343453">
        <ele>1120.132</ele>
        <time>2017-01-08T15:25:03Z</time>
      </trkpt>
      <trkpt lat="37.333834" lon="-4.343427">
        <ele>1120.105</ele>
        <time>2017-01-08T15:25:20Z</time>
      </trkpt>
      <trkpt lat="37.333828" lon="-4.343445">
        <ele>1120.108</ele>
        <time>2017-01-08T15:25:42Z</time>
      </trkpt>
      <trkpt lat="37.333866" lon="-4.343471">
        <ele>1119.162</ele>
        <time>2017-01-08T15:25:47Z</time>
      </trkpt>
      <trkpt lat="37.333974" lon="-4.343573">
        <ele>1116.717</ele>
        <time>2017-01-08T15:26:02Z</time>
      </trkpt>
      <trkpt lat="37.334042" lon="-4.343625">
        <ele>1115.311</ele>
        <time>2017-01-08T15:26:11Z</time>
      </trkpt>
      <trkpt lat="37.334163" lon="-4.343770">
        <ele>1112.436</ele>
        <time>2017-01-08T15:26:25Z</time>
      </trkpt>
      <trkpt lat="37.334326" lon="-4.343956">
        <ele>1109.565</ele>
        <time>2017-01-08T15:26:44Z</time>
      </trkpt>
      <trkpt lat="37.334457" lon="-4.344150">
        <ele>1108.180</ele>
        <time>2017-01-08T15:26:59Z</time>
      </trkpt>
      <trkpt lat="37.334638" lon="-4.344313">
        <ele>1107.634</ele>
        <time>2017-01-08T15:27:15Z</time>
      </trkpt>
      <trkpt lat="37.334682" lon="-4.344372">
        <ele>1107.151</ele>
        <time>2017-01-08T15:27:24Z</time>
      </trkpt>
      <trkpt lat="37.334716" lon="-4.344630">
        <ele>1106.166</ele>
        <time>2017-01-08T15:27:39Z</time>
      </trkpt>
      <trkpt lat="37.334724" lon="-4.344649">
        <ele>1105.729</ele>
        <time>2017-01-08T15:27:41Z</time>
      </trkpt>
      <trkpt lat="37.334678" lon="-4.344915">
        <ele>1103.721</ele>
        <time>2017-01-08T15:27:59Z</time>
      </trkpt>
      <trkpt lat="37.334698" lon="-4.345119">
        <ele>1101.808</ele>
        <time>2017-01-08T15:28:11Z</time>
      </trkpt>
      <trkpt lat="37.334674" lon="-4.345353">
        <ele>1099.917</ele>
        <time>2017-01-08T15:28:27Z</time>
      </trkpt>
      <trkpt lat="37.334557" lon="-4.345572">
        <ele>1096.532</ele>
        <time>2017-01-08T15:28:42Z</time>
      </trkpt>
      <trkpt lat="37.334381" lon="-4.345798">
        <ele>1093.656</ele>
        <time>2017-01-08T15:28:58Z</time>
      </trkpt>
      <trkpt lat="37.334339" lon="-4.345834">
        <ele>1093.251</ele>
        <time>2017-01-08T15:29:02Z</time>
      </trkpt>
      <trkpt lat="37.334212" lon="-4.345983">
        <ele>1089.850</ele>
        <time>2017-01-08T15:29:14Z</time>
      </trkpt>
      <trkpt lat="37.334122" lon="-4.346111">
        <ele>1087.435</ele>
        <time>2017-01-08T15:29:23Z</time>
      </trkpt>
      <trkpt lat="37.334041" lon="-4.346248">
        <ele>1085.569</ele>
        <time>2017-01-08T15:29:32Z</time>
      </trkpt>
      <trkpt lat="37.333878" lon="-4.346467">
        <ele>1082.146</ele>
        <time>2017-01-08T15:29:47Z</time>
      </trkpt>
      <trkpt lat="37.333696" lon="-4.346649">
        <ele>1079.231</ele>
        <time>2017-01-08T15:30:00Z</time>
      </trkpt>
      <trkpt lat="37.333499" lon="-4.346827">
        <ele>1076.861</ele>
        <time>2017-01-08T15:30:16Z</time>
      </trkpt>
      <trkpt lat="37.333310" lon="-4.347009">
        <ele>1074.407</ele>
        <time>2017-01-08T15:30:32Z</time>
      </trkpt>
      <trkpt lat="37.333123" lon="-4.347215">
        <ele>1071.108</ele>
        <time>2017-01-08T15:30:49Z</time>
      </trkpt>
      <trkpt lat="37.332957" lon="-4.347383">
        <ele>1067.244</ele>
        <time>2017-01-08T15:31:04Z</time>
      </trkpt>
      <trkpt lat="37.332779" lon="-4.347493">
        <ele>1064.339</ele>
        <time>2017-01-08T15:31:18Z</time>
      </trkpt>
      <trkpt lat="37.332553" lon="-4.347589">
        <ele>1061.093</ele>
        <time>2017-01-08T15:31:35Z</time>
      </trkpt>
      <trkpt lat="37.332495" lon="-4.347615">
        <ele>1060.068</ele>
        <time>2017-01-08T15:31:40Z</time>
      </trkpt>
      <trkpt lat="37.332483" lon="-4.347621">
        <ele>1060.077</ele>
        <time>2017-01-08T15:31:41Z</time>
      </trkpt>
      <trkpt lat="37.332470" lon="-4.347626">
        <ele>1060.052</ele>
        <time>2017-01-08T15:31:42Z</time>
      </trkpt>
      <trkpt lat="37.332247" lon="-4.347686">
        <ele>1057.156</ele>
        <time>2017-01-08T15:31:59Z</time>
      </trkpt>
      <trkpt lat="37.332036" lon="-4.347750">
        <ele>1054.233</ele>
        <time>2017-01-08T15:32:16Z</time>
      </trkpt>
      <trkpt lat="37.331907" lon="-4.347828">
        <ele>1052.351</ele>
        <time>2017-01-08T15:32:30Z</time>
      </trkpt>
      <trkpt lat="37.331875" lon="-4.347851">
        <ele>1052.301</ele>
        <time>2017-01-08T15:32:33Z</time>
      </trkpt>
      <trkpt lat="37.331864" lon="-4.347859">
        <ele>1052.311</ele>
        <time>2017-01-08T15:32:34Z</time>
      </trkpt>
      <trkpt lat="37.331826" lon="-4.347900">
        <ele>1051.308</ele>
        <time>2017-01-08T15:32:50Z</time>
      </trkpt>
      <trkpt lat="37.331810" lon="-4.347906">
        <ele>1051.326</ele>
        <time>2017-01-08T15:33:11Z</time>
      </trkpt>
      <trkpt lat="37.331818" lon="-4.347898">
        <ele>1051.371</ele>
        <time>2017-01-08T15:33:32Z</time>
      </trkpt>
      <trkpt lat="37.331770" lon="-4.347924">
        <ele>1050.925</ele>
        <time>2017-01-08T15:33:45Z</time>
      </trkpt>
      <trkpt lat="37.331660" lon="-4.347966">
        <ele>1050.980</ele>
        <time>2017-01-08T15:34:00Z</time>
      </trkpt>
      <trkpt lat="37.331626" lon="-4.347958">
        <ele>1050.929</ele>
        <time>2017-01-08T15:34:13Z</time>
      </trkpt>
      <trkpt lat="37.331565" lon="-4.347978">
        <ele>1050.494</ele>
        <time>2017-01-08T15:34:31Z</time>
      </trkpt>
      <trkpt lat="37.331562" lon="-4.347964">
        <ele>1049.948</ele>
        <time>2017-01-08T15:34:44Z</time>
      </trkpt>
      <trkpt lat="37.331567" lon="-4.347956">
        <ele>1049.955</ele>
        <time>2017-01-08T15:35:06Z</time>
      </trkpt>
      <trkpt lat="37.331609" lon="-4.347967">
        <ele>1051.357</ele>
        <time>2017-01-08T15:35:13Z</time>
      </trkpt>
      <trkpt lat="37.331615" lon="-4.347922">
        <ele>1051.800</ele>
        <time>2017-01-08T15:35:22Z</time>
      </trkpt>
      <trkpt lat="37.331611" lon="-4.347891">
        <ele>1050.420</ele>
        <time>2017-01-08T15:35:35Z</time>
      </trkpt>
      <trkpt lat="37.331644" lon="-4.347889">
        <ele>1053.308</ele>
        <time>2017-01-08T15:35:45Z</time>
      </trkpt>
      <trkpt lat="37.331722" lon="-4.347917">
        <ele>1050.916</ele>
        <time>2017-01-08T15:35:51Z</time>
      </trkpt>
      <trkpt lat="37.331892" lon="-4.347844">
        <ele>1050.981</ele>
        <time>2017-01-08T15:36:06Z</time>
      </trkpt>
      <trkpt lat="37.331986" lon="-4.347809">
        <ele>1052.395</ele>
        <time>2017-01-08T15:36:13Z</time>
      </trkpt>
      <trkpt lat="37.332183" lon="-4.347924">
        <ele>1052.390</ele>
        <time>2017-01-08T15:36:31Z</time>
      </trkpt>
      <trkpt lat="37.332366" lon="-4.347943">
        <ele>1050.979</ele>
        <time>2017-01-08T15:36:46Z</time>
      </trkpt>
      <trkpt lat="37.332552" lon="-4.347988">
        <ele>1049.974</ele>
        <time>2017-01-08T15:37:01Z</time>
      </trkpt>
      <trkpt lat="37.332727" lon="-4.348069">
        <ele>1048.568</ele>
        <time>2017-01-08T15:37:15Z</time>
      </trkpt>
      <trkpt lat="37.332880" lon="-4.348206">
        <ele>1046.595</ele>
        <time>2017-01-08T15:37:31Z</time>
      </trkpt>
      <trkpt lat="37.332999" lon="-4.348406">
        <ele>1043.253</ele>
        <time>2017-01-08T15:37:46Z</time>
      </trkpt>
      <trkpt lat="37.333101" lon="-4.348526">
        <ele>1041.704</ele>
        <time>2017-01-08T15:37:57Z</time>
      </trkpt>
      <trkpt lat="37.333122" lon="-4.348542">
        <ele>1041.314</ele>
        <time>2017-01-08T15:37:59Z</time>
      </trkpt>
      <trkpt lat="37.333261" lon="-4.348659">
        <ele>1039.808</ele>
        <time>2017-01-08T15:38:14Z</time>
      </trkpt>
      <trkpt lat="37.333274" lon="-4.348684">
        <ele>1039.376</ele>
        <time>2017-01-08T15:38:37Z</time>
      </trkpt>
      <trkpt lat="37.333447" lon="-4.348827">
        <ele>1038.841</ele>
        <time>2017-01-08T15:38:50Z</time>
      </trkpt>
      <trkpt lat="37.333542" lon="-4.349147">
        <ele>1037.925</ele>
        <time>2017-01-08T15:39:01Z</time>
      </trkpt>
      <trkpt lat="37.333563" lon="-4.349353">
        <ele>1036.420</ele>
        <time>2017-01-08T15:39:12Z</time>
      </trkpt>
      <trkpt lat="37.333558" lon="-4.349475">
        <ele>1035.599</ele>
        <time>2017-01-08T15:39:25Z</time>
      </trkpt>
      <trkpt lat="37.333552" lon="-4.349672">
        <ele>1034.014</ele>
        <time>2017-01-08T15:39:37Z</time>
      </trkpt>
      <trkpt lat="37.333552" lon="-4.349687">
        <ele>1034.058</ele>
        <time>2017-01-08T15:39:38Z</time>
      </trkpt>
      <trkpt lat="37.333566" lon="-4.349873">
        <ele>1030.715</ele>
        <time>2017-01-08T15:39:51Z</time>
      </trkpt>
      <trkpt lat="37.333570" lon="-4.350146">
        <ele>1029.252</ele>
        <time>2017-01-08T15:40:05Z</time>
      </trkpt>
      <trkpt lat="37.333493" lon="-4.350389">
        <ele>1025.953</ele>
        <time>2017-01-08T15:40:19Z</time>
      </trkpt>
      <trkpt lat="37.333333" lon="-4.350706">
        <ele>1023.008</ele>
        <time>2017-01-08T15:40:34Z</time>
      </trkpt>
      <trkpt lat="37.333216" lon="-4.350861">
        <ele>1020.108</ele>
        <time>2017-01-08T15:40:45Z</time>
      </trkpt>
      <trkpt lat="37.333082" lon="-4.350971">
        <ele>1016.396</ele>
        <time>2017-01-08T15:40:58Z</time>
      </trkpt>
      <trkpt lat="37.333048" lon="-4.351003">
        <ele>1015.351</ele>
        <time>2017-01-08T15:41:01Z</time>
      </trkpt>
      <trkpt lat="37.333038" lon="-4.351015">
        <ele>1014.865</ele>
        <time>2017-01-08T15:41:02Z</time>
      </trkpt>
      <trkpt lat="37.332922" lon="-4.351126">
        <ele>1011.470</ele>
        <time>2017-01-08T15:41:12Z</time>
      </trkpt>
      <trkpt lat="37.332871" lon="-4.351171">
        <ele>1010.029</ele>
        <time>2017-01-08T15:41:17Z</time>
      </trkpt>
      <trkpt lat="37.332861" lon="-4.351181">
        <ele>1009.574</ele>
        <time>2017-01-08T15:41:18Z</time>
      </trkpt>
      <trkpt lat="37.332851" lon="-4.351190">
        <ele>1009.538</ele>
        <time>2017-01-08T15:41:19Z</time>
      </trkpt>
      <trkpt lat="37.332842" lon="-4.351200">
        <ele>1009.585</ele>
        <time>2017-01-08T15:41:20Z</time>
      </trkpt>
      <trkpt lat="37.332832" lon="-4.351213">
        <ele>1008.691</ele>
        <time>2017-01-08T15:41:21Z</time>
      </trkpt>
      <trkpt lat="37.332819" lon="-4.351224">
        <ele>1008.181</ele>
        <time>2017-01-08T15:41:22Z</time>
      </trkpt>
      <trkpt lat="37.332806" lon="-4.351231">
        <ele>1008.119</ele>
        <time>2017-01-08T15:41:23Z</time>
      </trkpt>
      <trkpt lat="37.332678" lon="-4.351309">
        <ele>1005.208</ele>
        <time>2017-01-08T15:41:33Z</time>
      </trkpt>
      <trkpt lat="37.332542" lon="-4.351429">
        <ele>1001.810</ele>
        <time>2017-01-08T15:41:42Z</time>
      </trkpt>
      <trkpt lat="37.332509" lon="-4.351464">
        <ele>1000.955</ele>
        <time>2017-01-08T15:41:44Z</time>
      </trkpt>
      <trkpt lat="37.332390" lon="-4.351651">
        <ele>997.529</ele>
        <time>2017-01-08T15:41:56Z</time>
      </trkpt>
      <trkpt lat="37.332297" lon="-4.351821">
        <ele>994.184</ele>
        <time>2017-01-08T15:42:08Z</time>
      </trkpt>
      <trkpt lat="37.332173" lon="-4.352055">
        <ele>990.323</ele>
        <time>2017-01-08T15:42:25Z</time>
      </trkpt>
      <trkpt lat="37.332118" lon="-4.352209">
        <ele>988.948</ele>
        <time>2017-01-08T15:42:38Z</time>
      </trkpt>
      <trkpt lat="37.332035" lon="-4.352456">
        <ele>986.982</ele>
        <time>2017-01-08T15:42:54Z</time>
      </trkpt>
      <trkpt lat="37.331903" lon="-4.352690">
        <ele>986.949</ele>
        <time>2017-01-08T15:43:08Z</time>
      </trkpt>
      <trkpt lat="37.331789" lon="-4.352744">
        <ele>986.563</ele>
        <time>2017-01-08T15:43:21Z</time>
      </trkpt>
      <trkpt lat="37.331759" lon="-4.352864">
        <ele>988.444</ele>
        <time>2017-01-08T15:43:32Z</time>
      </trkpt>
      <trkpt lat="37.331703" lon="-4.352922">
        <ele>989.818</ele>
        <time>2017-01-08T15:43:39Z</time>
      </trkpt>
      <trkpt lat="37.331680" lon="-4.352936">
        <ele>989.808</ele>
        <time>2017-01-08T15:43:41Z</time>
      </trkpt>
      <trkpt lat="37.331669" lon="-4.352942">
        <ele>989.887</ele>
        <time>2017-01-08T15:43:42Z</time>
      </trkpt>
      <trkpt lat="37.331656" lon="-4.353023">
        <ele>991.342</ele>
        <time>2017-01-08T15:43:55Z</time>
      </trkpt>
      <trkpt lat="37.331648" lon="-4.353023">
        <ele>989.876</ele>
        <time>2017-01-08T15:43:57Z</time>
      </trkpt>
      <trkpt lat="37.331553" lon="-4.353028">
        <ele>988.991</ele>
        <time>2017-01-08T15:44:11Z</time>
      </trkpt>
      <trkpt lat="37.331584" lon="-4.353095">
        <ele>987.960</ele>
        <time>2017-01-08T15:44:23Z</time>
      </trkpt>
      <trkpt lat="37.331604" lon="-4.353127">
        <ele>985.035</ele>
        <time>2017-01-08T15:44:36Z</time>
      </trkpt>
      <trkpt lat="37.331552" lon="-4.353125">
        <ele>983.639</ele>
        <time>2017-01-08T15:44:47Z</time>
      </trkpt>
      <trkpt lat="37.331528" lon="-4.353138">
        <ele>983.616</ele>
        <time>2017-01-08T15:44:50Z</time>
      </trkpt>
      <trkpt lat="37.331507" lon="-4.353193">
        <ele>982.633</ele>
        <time>2017-01-08T15:45:01Z</time>
      </trkpt>
      <trkpt lat="37.331496" lon="-4.353201">
        <ele>982.623</ele>
        <time>2017-01-08T15:45:02Z</time>
      </trkpt>
      <trkpt lat="37.331423" lon="-4.353186">
        <ele>985.015</ele>
        <time>2017-01-08T15:45:14Z</time>
      </trkpt>
      <trkpt lat="37.331380" lon="-4.353167">
        <ele>986.508</ele>
        <time>2017-01-08T15:45:28Z</time>
      </trkpt>
      <trkpt lat="37.331312" lon="-4.353201">
        <ele>988.964</ele>
        <time>2017-01-08T15:45:40Z</time>
      </trkpt>
      <trkpt lat="37.331249" lon="-4.353204">
        <ele>990.899</ele>
        <time>2017-01-08T15:45:54Z</time>
      </trkpt>
      <trkpt lat="37.331239" lon="-4.353198">
        <ele>990.893</ele>
        <time>2017-01-08T15:46:09Z</time>
      </trkpt>
      <trkpt lat="37.331262" lon="-4.353190">
        <ele>990.338</ele>
        <time>2017-01-08T15:46:25Z</time>
      </trkpt>
      <trkpt lat="37.331269" lon="-4.353177">
        <ele>989.897</ele>
        <time>2017-01-08T15:46:44Z</time>
      </trkpt>
      <trkpt lat="37.331276" lon="-4.353210">
        <ele>990.852</ele>
        <time>2017-01-08T15:47:06Z</time>
      </trkpt>
      <trkpt lat="37.331277" lon="-4.353212">
        <ele>990.876</ele>
        <time>2017-01-08T15:47:07Z</time>
      </trkpt>
      <trkpt lat="37.331275" lon="-4.353260">
        <ele>991.343</ele>
        <time>2017-01-08T15:47:26Z</time>
      </trkpt>
      <trkpt lat="37.331252" lon="-4.353318">
        <ele>989.349</ele>
        <time>2017-01-08T15:47:40Z</time>
      </trkpt>
      <trkpt lat="37.331257" lon="-4.353309">
        <ele>989.302</ele>
        <time>2017-01-08T15:48:09Z</time>
      </trkpt>
      <trkpt lat="37.331199" lon="-4.353313">
        <ele>989.322</ele>
        <time>2017-01-08T15:48:24Z</time>
      </trkpt>
      <trkpt lat="37.331180" lon="-4.353290">
        <ele>989.308</ele>
        <time>2017-01-08T15:48:41Z</time>
      </trkpt>
      <trkpt lat="37.331186" lon="-4.353275">
        <ele>989.375</ele>
        <time>2017-01-08T15:49:04Z</time>
      </trkpt>
      <trkpt lat="37.331202" lon="-4.353233">
        <ele>989.310</ele>
        <time>2017-01-08T15:49:18Z</time>
      </trkpt>
      <trkpt lat="37.331205" lon="-4.353246">
        <ele>989.314</ele>
        <time>2017-01-08T15:49:39Z</time>
      </trkpt>
      <trkpt lat="37.331206" lon="-4.353251">
        <ele>989.329</ele>
        <time>2017-01-08T15:49:59Z</time>
      </trkpt>
      <trkpt lat="37.331210" lon="-4.353281">
        <ele>989.368</ele>
        <time>2017-01-08T15:50:12Z</time>
      </trkpt>
      <trkpt lat="37.331230" lon="-4.353301">
        <ele>989.323</ele>
        <time>2017-01-08T15:50:33Z</time>
      </trkpt>
      <trkpt lat="37.331224" lon="-4.353320">
        <ele>989.337</ele>
        <time>2017-01-08T15:50:49Z</time>
      </trkpt>
      <trkpt lat="37.331206" lon="-4.353339">
        <ele>989.314</ele>
        <time>2017-01-08T15:51:09Z</time>
      </trkpt>
      <trkpt lat="37.331208" lon="-4.353343">
        <ele>989.391</ele>
        <time>2017-01-08T15:51:25Z</time>
      </trkpt>
      <trkpt lat="37.331215" lon="-4.353351">
        <ele>989.381</ele>
        <time>2017-01-08T15:51:43Z</time>
      </trkpt>
      <trkpt lat="37.331221" lon="-4.353337">
        <ele>989.319</ele>
        <time>2017-01-08T15:51:59Z</time>
      </trkpt>
      <trkpt lat="37.331220" lon="-4.353342">
        <ele>989.308</ele>
        <time>2017-01-08T15:52:20Z</time>
      </trkpt>
      <trkpt lat="37.331214" lon="-4.353349">
        <ele>989.340</ele>
        <time>2017-01-08T15:52:42Z</time>
      </trkpt>
      <trkpt lat="37.331212" lon="-4.353334">
        <ele>989.825</ele>
        <time>2017-01-08T15:53:02Z</time>
      </trkpt>
      <trkpt lat="37.331196" lon="-4.353328">
        <ele>989.819</ele>
        <time>2017-01-08T15:53:24Z</time>
      </trkpt>
      <trkpt lat="37.331226" lon="-4.353330">
        <ele>989.814</ele>
        <time>2017-01-08T15:53:46Z</time>
      </trkpt>
      <trkpt lat="37.331265" lon="-4.353232">
        <ele>991.323</ele>
        <time>2017-01-08T15:54:00Z</time>
      </trkpt>
      <trkpt lat="37.331334" lon="-4.353199">
        <ele>988.968</ele>
        <time>2017-01-08T15:54:14Z</time>
      </trkpt>
      <trkpt lat="37.331406" lon="-4.353101">
        <ele>988.952</ele>
        <time>2017-01-08T15:54:29Z</time>
      </trkpt>
      <trkpt lat="37.331505" lon="-4.353070">
        <ele>990.819</ele>
        <time>2017-01-08T15:54:47Z</time>
      </trkpt>
      <trkpt lat="37.331514" lon="-4.353078">
        <ele>989.353</ele>
        <time>2017-01-08T15:54:58Z</time>
      </trkpt>
      <trkpt lat="37.331537" lon="-4.353074">
        <ele>988.904</ele>
        <time>2017-01-08T15:55:13Z</time>
      </trkpt>
      <trkpt lat="37.331549" lon="-4.353061">
        <ele>988.914</ele>
        <time>2017-01-08T15:55:35Z</time>
      </trkpt>
      <trkpt lat="37.331583" lon="-4.353023">
        <ele>988.908</ele>
        <time>2017-01-08T15:55:49Z</time>
      </trkpt>
      <trkpt lat="37.331652" lon="-4.352977">
        <ele>988.476</ele>
        <time>2017-01-08T15:56:04Z</time>
      </trkpt>
      <trkpt lat="37.331753" lon="-4.352934">
        <ele>988.451</ele>
        <time>2017-01-08T15:56:18Z</time>
      </trkpt>
      <trkpt lat="37.331756" lon="-4.352830">
        <ele>986.565</ele>
        <time>2017-01-08T15:56:34Z</time>
      </trkpt>
      <trkpt lat="37.331851" lon="-4.352753">
        <ele>986.070</ele>
        <time>2017-01-08T15:56:50Z</time>
      </trkpt>
      <trkpt lat="37.331886" lon="-4.352712">
        <ele>986.029</ele>
        <time>2017-01-08T15:57:08Z</time>
      </trkpt>
      <trkpt lat="37.331901" lon="-4.352681">
        <ele>985.594</ele>
        <time>2017-01-08T15:57:28Z</time>
      </trkpt>
      <trkpt lat="37.331970" lon="-4.352576">
        <ele>985.588</ele>
        <time>2017-01-08T15:57:46Z</time>
      </trkpt>
      <trkpt lat="37.331997" lon="-4.352502">
        <ele>985.545</ele>
        <time>2017-01-08T15:57:52Z</time>
      </trkpt>
      <trkpt lat="37.332041" lon="-4.352432">
        <ele>986.988</ele>
        <time>2017-01-08T15:58:01Z</time>
      </trkpt>
      <trkpt lat="37.332022" lon="-4.352437">
        <ele>986.924</ele>
        <time>2017-01-08T15:58:13Z</time>
      </trkpt>
      <trkpt lat="37.332011" lon="-4.352492">
        <ele>986.926</ele>
        <time>2017-01-08T15:58:17Z</time>
      </trkpt>
      <trkpt lat="37.331944" lon="-4.352646">
        <ele>986.908</ele>
        <time>2017-01-08T15:58:31Z</time>
      </trkpt>
      <trkpt lat="37.331858" lon="-4.352711">
        <ele>986.589</ele>
        <time>2017-01-08T15:58:43Z</time>
      </trkpt>
      <trkpt lat="37.331838" lon="-4.352704">
        <ele>985.524</ele>
        <time>2017-01-08T15:58:45Z</time>
      </trkpt>
      <trkpt lat="37.331788" lon="-4.352689">
        <ele>983.648</ele>
        <time>2017-01-08T15:58:50Z</time>
      </trkpt>
      <trkpt lat="37.331692" lon="-4.352693">
        <ele>981.213</ele>
        <time>2017-01-08T15:59:02Z</time>
      </trkpt>
      <trkpt lat="37.331690" lon="-4.352600">
        <ele>978.382</ele>
        <time>2017-01-08T15:59:14Z</time>
      </trkpt>
      <trkpt lat="37.331697" lon="-4.352570">
        <ele>977.357</ele>
        <time>2017-01-08T15:59:16Z</time>
      </trkpt>
      <trkpt lat="37.331726" lon="-4.352415">
        <ele>974.021</ele>
        <time>2017-01-08T15:59:29Z</time>
      </trkpt>
      <trkpt lat="37.331662" lon="-4.352367">
        <ele>971.138</ele>
        <time>2017-01-08T15:59:40Z</time>
      </trkpt>
      <trkpt lat="37.331584" lon="-4.352355">
        <ele>967.764</ele>
        <time>2017-01-08T15:59:52Z</time>
      </trkpt>
      <trkpt lat="37.331528" lon="-4.352353">
        <ele>964.306</ele>
        <time>2017-01-08T16:00:02Z</time>
      </trkpt>
      <trkpt lat="37.331457" lon="-4.352386">
        <ele>961.516</ele>
        <time>2017-01-08T16:00:14Z</time>
      </trkpt>
      <trkpt lat="37.331381" lon="-4.352403">
        <ele>958.108</ele>
        <time>2017-01-08T16:00:25Z</time>
      </trkpt>
      <trkpt lat="37.331296" lon="-4.352411">
        <ele>955.247</ele>
        <time>2017-01-08T16:00:37Z</time>
      </trkpt>
      <trkpt lat="37.331249" lon="-4.352388">
        <ele>953.352</ele>
        <time>2017-01-08T16:00:50Z</time>
      </trkpt>
      <trkpt lat="37.331198" lon="-4.352382">
        <ele>949.966</ele>
        <time>2017-01-08T16:01:03Z</time>
      </trkpt>
      <trkpt lat="37.331145" lon="-4.352368">
        <ele>947.521</ele>
        <time>2017-01-08T16:01:17Z</time>
      </trkpt>
      <trkpt lat="37.331084" lon="-4.352410">
        <ele>944.250</ele>
        <time>2017-01-08T16:01:27Z</time>
      </trkpt>
      <trkpt lat="37.331029" lon="-4.352428">
        <ele>942.295</ele>
        <time>2017-01-08T16:01:41Z</time>
      </trkpt>
      <trkpt lat="37.330971" lon="-4.352467">
        <ele>938.919</ele>
        <time>2017-01-08T16:01:52Z</time>
      </trkpt>
      <trkpt lat="37.330921" lon="-4.352501">
        <ele>936.596</ele>
        <time>2017-01-08T16:02:05Z</time>
      </trkpt>
      <trkpt lat="37.330868" lon="-4.352512">
        <ele>933.676</ele>
        <time>2017-01-08T16:02:20Z</time>
      </trkpt>
      <trkpt lat="37.330801" lon="-4.352521">
        <ele>930.790</ele>
        <time>2017-01-08T16:02:34Z</time>
      </trkpt>
      <trkpt lat="37.330757" lon="-4.352533">
        <ele>927.319</ele>
        <time>2017-01-08T16:02:48Z</time>
      </trkpt>
      <trkpt lat="37.330748" lon="-4.352531">
        <ele>926.408</ele>
        <time>2017-01-08T16:03:06Z</time>
      </trkpt>
      <trkpt lat="37.330681" lon="-4.352567">
        <ele>923.048</ele>
        <time>2017-01-08T16:03:16Z</time>
      </trkpt>
      <trkpt lat="37.330581" lon="-4.352611">
        <ele>919.683</ele>
        <time>2017-01-08T16:03:29Z</time>
      </trkpt>
      <trkpt lat="37.330535" lon="-4.352626">
        <ele>917.747</ele>
        <time>2017-01-08T16:03:45Z</time>
      </trkpt>
      <trkpt lat="37.330484" lon="-4.352652">
        <ele>915.872</ele>
        <time>2017-01-08T16:03:56Z</time>
      </trkpt>
      <trkpt lat="37.330361" lon="-4.352741">
        <ele>911.581</ele>
        <time>2017-01-08T16:04:08Z</time>
      </trkpt>
      <trkpt lat="37.330262" lon="-4.352784">
        <ele>908.666</ele>
        <time>2017-01-08T16:04:17Z</time>
      </trkpt>
      <trkpt lat="37.330164" lon="-4.352817">
        <ele>905.290</ele>
        <time>2017-01-08T16:04:27Z</time>
      </trkpt>
      <trkpt lat="37.330033" lon="-4.352838">
        <ele>902.397</ele>
        <time>2017-01-08T16:04:42Z</time>
      </trkpt>
      <trkpt lat="37.329969" lon="-4.352889">
        <ele>901.478</ele>
        <time>2017-01-08T16:04:56Z</time>
      </trkpt>
      <trkpt lat="37.329987" lon="-4.352901">
        <ele>901.433</ele>
        <time>2017-01-08T16:05:13Z</time>
      </trkpt>
      <trkpt lat="37.330003" lon="-4.352897">
        <ele>900.426</ele>
        <time>2017-01-08T16:05:27Z</time>
      </trkpt>
      <trkpt lat="37.329958" lon="-4.352933">
        <ele>900.908</ele>
        <time>2017-01-08T16:05:44Z</time>
      </trkpt>
      <trkpt lat="37.329912" lon="-4.353016">
        <ele>897.578</ele>
        <time>2017-01-08T16:06:01Z</time>
      </trkpt>
      <trkpt lat="37.329884" lon="-4.353104">
        <ele>894.213</ele>
        <time>2017-01-08T16:06:13Z</time>
      </trkpt>
      <trkpt lat="37.329827" lon="-4.353119">
        <ele>891.317</ele>
        <time>2017-01-08T16:06:24Z</time>
      </trkpt>
      <trkpt lat="37.329768" lon="-4.353079">
        <ele>888.462</ele>
        <time>2017-01-08T16:06:41Z</time>
      </trkpt>
      <trkpt lat="37.329750" lon="-4.353128">
        <ele>885.521</ele>
        <time>2017-01-08T16:06:54Z</time>
      </trkpt>
      <trkpt lat="37.329731" lon="-4.353177">
        <ele>882.296</ele>
        <time>2017-01-08T16:07:06Z</time>
      </trkpt>
      <trkpt lat="37.329698" lon="-4.353202">
        <ele>880.780</ele>
        <time>2017-01-08T16:07:17Z</time>
      </trkpt>
      <trkpt lat="37.329680" lon="-4.353329">
        <ele>877.817</ele>
        <time>2017-01-08T16:07:27Z</time>
      </trkpt>
      <trkpt lat="37.329657" lon="-4.353432">
        <ele>874.584</ele>
        <time>2017-01-08T16:07:38Z</time>
      </trkpt>
      <trkpt lat="37.329597" lon="-4.353485">
        <ele>871.107</ele>
        <time>2017-01-08T16:07:51Z</time>
      </trkpt>
      <trkpt lat="37.329527" lon="-4.353564">
        <ele>868.217</ele>
        <time>2017-01-08T16:08:03Z</time>
      </trkpt>
      <trkpt lat="37.329485" lon="-4.353652">
        <ele>865.308</ele>
        <time>2017-01-08T16:08:16Z</time>
      </trkpt>
      <trkpt lat="37.329422" lon="-4.353681">
        <ele>862.089</ele>
        <time>2017-01-08T16:08:24Z</time>
      </trkpt>
      <trkpt lat="37.329356" lon="-4.353764">
        <ele>859.664</ele>
        <time>2017-01-08T16:08:41Z</time>
      </trkpt>
      <trkpt lat="37.329366" lon="-4.353754">
        <ele>859.158</ele>
        <time>2017-01-08T16:09:01Z</time>
      </trkpt>
      <trkpt lat="37.329373" lon="-4.353774">
        <ele>859.683</ele>
        <time>2017-01-08T16:09:27Z</time>
      </trkpt>
      <trkpt lat="37.329347" lon="-4.353842">
        <ele>858.612</ele>
        <time>2017-01-08T16:09:36Z</time>
      </trkpt>
      <trkpt lat="37.329334" lon="-4.353870">
        <ele>857.287</ele>
        <time>2017-01-08T16:09:38Z</time>
      </trkpt>
      <trkpt lat="37.329292" lon="-4.353998">
        <ele>854.861</ele>
        <time>2017-01-08T16:09:47Z</time>
      </trkpt>
      <trkpt lat="37.329282" lon="-4.354116">
        <ele>851.418</ele>
        <time>2017-01-08T16:09:55Z</time>
      </trkpt>
      <trkpt lat="37.329296" lon="-4.354223">
        <ele>848.071</ele>
        <time>2017-01-08T16:10:06Z</time>
      </trkpt>
      <trkpt lat="37.329320" lon="-4.354360">
        <ele>844.741</ele>
        <time>2017-01-08T16:10:17Z</time>
      </trkpt>
      <trkpt lat="37.329328" lon="-4.354424">
        <ele>843.715</ele>
        <time>2017-01-08T16:10:22Z</time>
      </trkpt>
      <trkpt lat="37.329335" lon="-4.354636">
        <ele>840.308</ele>
        <time>2017-01-08T16:10:36Z</time>
      </trkpt>
      <trkpt lat="37.329385" lon="-4.354844">
        <ele>838.988</ele>
        <time>2017-01-08T16:10:51Z</time>
      </trkpt>
      <trkpt lat="37.329392" lon="-4.354888">
        <ele>838.443</ele>
        <time>2017-01-08T16:11:00Z</time>
      </trkpt>
      <trkpt lat="37.329417" lon="-4.355057">
        <ele>834.187</ele>
        <time>2017-01-08T16:11:10Z</time>
      </trkpt>
      <trkpt lat="37.329443" lon="-4.355263">
        <ele>831.262</ele>
        <time>2017-01-08T16:11:23Z</time>
      </trkpt>
      <trkpt lat="37.329472" lon="-4.355477">
        <ele>827.811</ele>
        <time>2017-01-08T16:11:36Z</time>
      </trkpt>
      <trkpt lat="37.329523" lon="-4.355718">
        <ele>825.026</ele>
        <time>2017-01-08T16:11:51Z</time>
      </trkpt>
      <trkpt lat="37.329558" lon="-4.355859">
        <ele>822.180</ele>
        <time>2017-01-08T16:12:02Z</time>
      </trkpt>
      <trkpt lat="37.329564" lon="-4.355950">
        <ele>819.757</ele>
        <time>2017-01-08T16:12:08Z</time>
      </trkpt>
      <trkpt lat="37.329620" lon="-4.356196">
        <ele>816.841</ele>
        <time>2017-01-08T16:12:23Z</time>
      </trkpt>
      <trkpt lat="37.329623" lon="-4.356315">
        <ele>813.481</ele>
        <time>2017-01-08T16:12:30Z</time>
      </trkpt>
      <trkpt lat="37.329627" lon="-4.356425">
        <ele>810.509</ele>
        <time>2017-01-08T16:12:38Z</time>
      </trkpt>
      <trkpt lat="37.329633" lon="-4.356487">
        <ele>809.608</ele>
        <time>2017-01-08T16:12:42Z</time>
      </trkpt>
      <trkpt lat="37.329638" lon="-4.356634">
        <ele>805.725</ele>
        <time>2017-01-08T16:12:50Z</time>
      </trkpt>
      <trkpt lat="37.329632" lon="-4.356805">
        <ele>802.840</ele>
        <time>2017-01-08T16:13:05Z</time>
      </trkpt>
      <trkpt lat="37.329628" lon="-4.356846">
        <ele>802.464</ele>
        <time>2017-01-08T16:13:07Z</time>
      </trkpt>
      <trkpt lat="37.329616" lon="-4.356946">
        <ele>799.089</ele>
        <time>2017-01-08T16:13:17Z</time>
      </trkpt>
      <trkpt lat="37.329601" lon="-4.357084">
        <ele>795.678</ele>
        <time>2017-01-08T16:13:28Z</time>
      </trkpt>
      <trkpt lat="37.329590" lon="-4.357132">
        <ele>792.723</ele>
        <time>2017-01-08T16:13:34Z</time>
      </trkpt>
      <trkpt lat="37.329587" lon="-4.357138">
        <ele>797.127</ele>
        <time>2017-01-08T16:13:35Z</time>
      </trkpt>
      <trkpt lat="37.329586" lon="-4.357148">
        <ele>794.284</ele>
        <time>2017-01-08T16:13:36Z</time>
      </trkpt>
      <trkpt lat="37.329553" lon="-4.357311">
        <ele>790.372</ele>
        <time>2017-01-08T16:13:47Z</time>
      </trkpt>
      <trkpt lat="37.329489" lon="-4.357498">
        <ele>787.513</ele>
        <time>2017-01-08T16:14:00Z</time>
      </trkpt>
      <trkpt lat="37.329418" lon="-4.357606">
        <ele>785.514</ele>
        <time>2017-01-08T16:14:12Z</time>
      </trkpt>
      <trkpt lat="37.329391" lon="-4.357669">
        <ele>784.608</ele>
        <time>2017-01-08T16:14:16Z</time>
      </trkpt>
      <trkpt lat="37.329363" lon="-4.357846">
        <ele>781.278</ele>
        <time>2017-01-08T16:14:29Z</time>
      </trkpt>
      <trkpt lat="37.329359" lon="-4.357870">
        <ele>780.713</ele>
        <time>2017-01-08T16:14:31Z</time>
      </trkpt>
      <trkpt lat="37.329352" lon="-4.358061">
        <ele>777.417</ele>
        <time>2017-01-08T16:14:45Z</time>
      </trkpt>
      <trkpt lat="37.329363" lon="-4.358265">
        <ele>774.052</ele>
        <time>2017-01-08T16:14:57Z</time>
      </trkpt>
      <trkpt lat="37.329382" lon="-4.358468">
        <ele>770.621</ele>
        <time>2017-01-08T16:15:08Z</time>
      </trkpt>
      <trkpt lat="37.329382" lon="-4.358636">
        <ele>767.376</ele>
        <time>2017-01-08T16:15:19Z</time>
      </trkpt>
      <trkpt lat="37.329412" lon="-4.358896">
        <ele>764.960</ele>
        <time>2017-01-08T16:15:32Z</time>
      </trkpt>
      <trkpt lat="37.329432" lon="-4.359116">
        <ele>761.517</ele>
        <time>2017-01-08T16:15:44Z</time>
      </trkpt>
      <trkpt lat="37.329461" lon="-4.359431">
        <ele>758.674</ele>
        <time>2017-01-08T16:15:59Z</time>
      </trkpt>
      <trkpt lat="37.329418" lon="-4.359523">
        <ele>758.656</ele>
        <time>2017-01-08T16:16:14Z</time>
      </trkpt>
      <trkpt lat="37.329356" lon="-4.359495">
        <ele>757.221</ele>
        <time>2017-01-08T16:16:34Z</time>
      </trkpt>
      <trkpt lat="37.329265" lon="-4.359575">
        <ele>754.308</ele>
        <time>2017-01-08T16:16:46Z</time>
      </trkpt>
      <trkpt lat="37.329148" lon="-4.359687">
        <ele>750.998</ele>
        <time>2017-01-08T16:17:02Z</time>
      </trkpt>
      <trkpt lat="37.329024" lon="-4.359826">
        <ele>747.653</ele>
        <time>2017-01-08T16:17:17Z</time>
      </trkpt>
      <trkpt lat="37.328902" lon="-4.359914">
        <ele>745.677</ele>
        <time>2017-01-08T16:17:31Z</time>
      </trkpt>
      <trkpt lat="37.328854" lon="-4.359958">
        <ele>745.662</ele>
        <time>2017-01-08T16:17:48Z</time>
      </trkpt>
      <trkpt lat="37.328724" lon="-4.359973">
        <ele>741.881</ele>
        <time>2017-01-08T16:18:02Z</time>
      </trkpt>
      <trkpt lat="37.328717" lon="-4.359992">
        <ele>741.856</ele>
        <time>2017-01-08T16:18:03Z</time>
      </trkpt>
      <trkpt lat="37.328676" lon="-4.360060">
        <ele>740.450</ele>
        <time>2017-01-08T16:18:17Z</time>
      </trkpt>
      <trkpt lat="37.328595" lon="-4.360098">
        <ele>738.447</ele>
        <time>2017-01-08T16:18:33Z</time>
      </trkpt>
      <trkpt lat="37.328449" lon="-4.360090">
        <ele>737.066</ele>
        <time>2017-01-08T16:18:46Z</time>
      </trkpt>
      <trkpt lat="37.328342" lon="-4.360071">
        <ele>733.129</ele>
        <time>2017-01-08T16:18:56Z</time>
      </trkpt>
      <trkpt lat="37.328331" lon="-4.360070">
        <ele>733.121</ele>
        <time>2017-01-08T16:18:57Z</time>
      </trkpt>
      <trkpt lat="37.328237" lon="-4.360125">
        <ele>729.808</ele>
        <time>2017-01-08T16:19:06Z</time>
      </trkpt>
      <trkpt lat="37.328114" lon="-4.360225">
        <ele>726.487</ele>
        <time>2017-01-08T16:19:20Z</time>
      </trkpt>
      <trkpt lat="37.328037" lon="-4.360303">
        <ele>723.142</ele>
        <time>2017-01-08T16:19:31Z</time>
      </trkpt>
      <trkpt lat="37.327983" lon="-4.360447">
        <ele>719.756</ele>
        <time>2017-01-08T16:19:44Z</time>
      </trkpt>
      <trkpt lat="37.327971" lon="-4.360546">
        <ele>716.821</ele>
        <time>2017-01-08T16:19:53Z</time>
      </trkpt>
      <trkpt lat="37.327966" lon="-4.360677">
        <ele>714.920</ele>
        <time>2017-01-08T16:20:06Z</time>
      </trkpt>
      <trkpt lat="37.327937" lon="-4.360815">
        <ele>712.035</ele>
        <time>2017-01-08T16:20:18Z</time>
      </trkpt>
      <trkpt lat="37.327918" lon="-4.360836">
        <ele>710.649</ele>
        <time>2017-01-08T16:20:21Z</time>
      </trkpt>
      <trkpt lat="37.327941" lon="-4.360955">
        <ele>709.126</ele>
        <time>2017-01-08T16:20:30Z</time>
      </trkpt>
      <trkpt lat="37.327971" lon="-4.361083">
        <ele>707.246</ele>
        <time>2017-01-08T16:20:40Z</time>
      </trkpt>
      <trkpt lat="37.327926" lon="-4.361134">
        <ele>705.888</ele>
        <time>2017-01-08T16:20:53Z</time>
      </trkpt>
      <trkpt lat="37.327873" lon="-4.361140">
        <ele>704.316</ele>
        <time>2017-01-08T16:21:08Z</time>
      </trkpt>
      <trkpt lat="37.327862" lon="-4.361145">
        <ele>703.808</ele>
        <time>2017-01-08T16:21:12Z</time>
      </trkpt>
      <trkpt lat="37.327834" lon="-4.361155">
        <ele>702.975</ele>
        <time>2017-01-08T16:21:15Z</time>
      </trkpt>
      <trkpt lat="37.327801" lon="-4.361180">
        <ele>702.990</ele>
        <time>2017-01-08T16:21:26Z</time>
      </trkpt>
      <trkpt lat="37.327831" lon="-4.361228">
        <ele>702.494</ele>
        <time>2017-01-08T16:21:34Z</time>
      </trkpt>
      <trkpt lat="37.327931" lon="-4.361394">
        <ele>700.099</ele>
        <time>2017-01-08T16:21:50Z</time>
      </trkpt>
      <trkpt lat="37.328009" lon="-4.361558">
        <ele>698.158</ele>
        <time>2017-01-08T16:22:06Z</time>
      </trkpt>
      <trkpt lat="37.328022" lon="-4.361587">
        <ele>698.153</ele>
        <time>2017-01-08T16:22:08Z</time>
      </trkpt>
      <trkpt lat="37.328052" lon="-4.361635">
        <ele>697.637</ele>
        <time>2017-01-08T16:22:17Z</time>
      </trkpt>
      <trkpt lat="37.328070" lon="-4.361694">
        <ele>697.184</ele>
        <time>2017-01-08T16:22:21Z</time>
      </trkpt>
      <trkpt lat="37.328105" lon="-4.361763">
        <ele>695.793</ele>
        <time>2017-01-08T16:22:28Z</time>
      </trkpt>
      <trkpt lat="37.328154" lon="-4.362024">
        <ele>691.865</ele>
        <time>2017-01-08T16:22:46Z</time>
      </trkpt>
      <trkpt lat="37.328172" lon="-4.362255">
        <ele>688.421</ele>
        <time>2017-01-08T16:23:02Z</time>
      </trkpt>
      <trkpt lat="37.328153" lon="-4.362367">
        <ele>686.508</ele>
        <time>2017-01-08T16:23:10Z</time>
      </trkpt>
      <trkpt lat="37.328115" lon="-4.362635">
        <ele>683.620</ele>
        <time>2017-01-08T16:23:26Z</time>
      </trkpt>
      <trkpt lat="37.327913" lon="-4.362619">
        <ele>681.715</ele>
        <time>2017-01-08T16:23:43Z</time>
      </trkpt>
      <trkpt lat="37.327881" lon="-4.362683">
        <ele>681.229</ele>
        <time>2017-01-08T16:23:54Z</time>
      </trkpt>
      <trkpt lat="37.327887" lon="-4.362707">
        <ele>680.874</ele>
        <time>2017-01-08T16:23:56Z</time>
      </trkpt>
      <trkpt lat="37.327871" lon="-4.362811">
        <ele>679.343</ele>
        <time>2017-01-08T16:24:08Z</time>
      </trkpt>
      <trkpt lat="37.327840" lon="-4.362951">
        <ele>675.938</ele>
        <time>2017-01-08T16:24:23Z</time>
      </trkpt>
      <trkpt lat="37.327772" lon="-4.363110">
        <ele>673.572</ele>
        <time>2017-01-08T16:24:36Z</time>
      </trkpt>
      <trkpt lat="37.327718" lon="-4.363181">
        <ele>673.599</ele>
        <time>2017-01-08T16:24:47Z</time>
      </trkpt>
      <trkpt lat="37.327661" lon="-4.363419">
        <ele>673.178</ele>
        <time>2017-01-08T16:25:04Z</time>
      </trkpt>
      <trkpt lat="37.327657" lon="-4.363577">
        <ele>672.133</ele>
        <time>2017-01-08T16:25:19Z</time>
      </trkpt>
      <trkpt lat="37.327615" lon="-4.363608">
        <ele>672.126</ele>
        <time>2017-01-08T16:25:37Z</time>
      </trkpt>
      <trkpt lat="37.327572" lon="-4.363842">
        <ele>672.108</ele>
        <time>2017-01-08T16:25:53Z</time>
      </trkpt>
      <trkpt lat="37.327512" lon="-4.363992">
        <ele>672.158</ele>
        <time>2017-01-08T16:26:09Z</time>
      </trkpt>
      <trkpt lat="37.327486" lon="-4.364115">
        <ele>672.153</ele>
        <time>2017-01-08T16:26:23Z</time>
      </trkpt>
      <trkpt lat="37.327384" lon="-4.364178">
        <ele>672.197</ele>
        <time>2017-01-08T16:26:38Z</time>
      </trkpt>
      <trkpt lat="37.327331" lon="-4.364204">
        <ele>672.182</ele>
        <time>2017-01-08T16:26:53Z</time>
      </trkpt>
      <trkpt lat="37.327324" lon="-4.364205">
        <ele>672.131</ele>
        <time>2017-01-08T16:26:58Z</time>
      </trkpt>
      <trkpt lat="37.327592" lon="-4.362595">
        <ele>742.046</ele>
        <time>2014-11-08T10:48:29Z</time>
      </trkpt>
      <trkpt lat="37.327543" lon="-4.362599">
        <ele>743.088</ele>
        <time>2014-11-08T10:48:42Z</time>
      </trkpt>
      <trkpt lat="37.327445" lon="-4.362582">
        <ele>743.016</ele>
        <time>2014-11-08T10:48:51Z</time>
      </trkpt>
      <trkpt lat="37.327353" lon="-4.362591">
        <ele>743.007</ele>
        <time>2014-11-08T10:48:59Z</time>
      </trkpt>
      <trkpt lat="37.327263" lon="-4.362574">
        <ele>744.092</ele>
        <time>2014-11-08T10:49:08Z</time>
      </trkpt>
      <trkpt lat="37.327177" lon="-4.362539">
        <ele>742.056</ele>
        <time>2014-11-08T10:49:16Z</time>
      </trkpt>
      <trkpt lat="37.327082" lon="-4.362493">
        <ele>738.094</ele>
        <time>2014-11-08T10:49:24Z</time>
      </trkpt>
      <trkpt lat="37.326985" lon="-4.362463">
        <ele>734.083</ele>
        <time>2014-11-08T10:49:32Z</time>
      </trkpt>
      <trkpt lat="37.326889" lon="-4.362420">
        <ele>733.036</ele>
        <time>2014-11-08T10:49:40Z</time>
      </trkpt>
      <trkpt lat="37.326777" lon="-4.362402">
        <ele>735.074</ele>
        <time>2014-11-08T10:49:48Z</time>
      </trkpt>
      <trkpt lat="37.326685" lon="-4.362392">
        <ele>736.038</ele>
        <time>2014-11-08T10:49:56Z</time>
      </trkpt>
      <trkpt lat="37.326595" lon="-4.362356">
        <ele>737.015</ele>
        <time>2014-11-08T10:50:04Z</time>
      </trkpt>
      <trkpt lat="37.326538" lon="-4.362255">
        <ele>737.065</ele>
        <time>2014-11-08T10:50:12Z</time>
      </trkpt>
      <trkpt lat="37.326457" lon="-4.362185">
        <ele>743.011</ele>
        <time>2014-11-08T10:50:21Z</time>
      </trkpt>
      <trkpt lat="37.326385" lon="-4.362134">
        <ele>745.007</ele>
        <time>2014-11-08T10:50:31Z</time>
      </trkpt>
      <trkpt lat="37.326300" lon="-4.362062">
        <ele>745.029</ele>
        <time>2014-11-08T10:50:39Z</time>
      </trkpt>
      <trkpt lat="37.326219" lon="-4.361986">
        <ele>747.053</ele>
        <time>2014-11-08T10:50:46Z</time>
      </trkpt>
      <trkpt lat="37.326153" lon="-4.361896">
        <ele>748.071</ele>
        <time>2014-11-08T10:50:53Z</time>
      </trkpt>
      <trkpt lat="37.326093" lon="-4.361799">
        <ele>753.040</ele>
        <time>2014-11-08T10:50:59Z</time>
      </trkpt>
      <trkpt lat="37.325999" lon="-4.361794">
        <ele>748.013</ele>
        <time>2014-11-08T10:51:08Z</time>
      </trkpt>
      <trkpt lat="37.325949" lon="-4.361892">
        <ele>743.031</ele>
        <time>2014-11-08T10:51:17Z</time>
      </trkpt>
      <trkpt lat="37.325877" lon="-4.361840">
        <ele>741.045</ele>
        <time>2014-11-08T10:51:27Z</time>
      </trkpt>
      <trkpt lat="37.325801" lon="-4.361771">
        <ele>740.049</ele>
        <time>2014-11-08T10:51:34Z</time>
      </trkpt>
      <trkpt lat="37.325753" lon="-4.361651">
        <ele>741.002</ele>
        <time>2014-11-08T10:51:40Z</time>
      </trkpt>
      <trkpt lat="37.325739" lon="-4.361526">
        <ele>745.022</ele>
        <time>2014-11-08T10:51:47Z</time>
      </trkpt>
      <trkpt lat="37.325701" lon="-4.361410">
        <ele>743.007</ele>
        <time>2014-11-08T10:51:55Z</time>
      </trkpt>
      <trkpt lat="37.325679" lon="-4.361287">
        <ele>745.082</ele>
        <time>2014-11-08T10:52:03Z</time>
      </trkpt>
      <trkpt lat="37.325640" lon="-4.361185">
        <ele>745.016</ele>
        <time>2014-11-08T10:52:10Z</time>
      </trkpt>
      <trkpt lat="37.325604" lon="-4.361066">
        <ele>749.064</ele>
        <time>2014-11-08T10:52:18Z</time>
      </trkpt>
      <trkpt lat="37.325571" lon="-4.360948">
        <ele>753.013</ele>
        <time>2014-11-08T10:52:25Z</time>
      </trkpt>
      <trkpt lat="37.325539" lon="-4.360841">
        <ele>751.096</ele>
        <time>2014-11-08T10:52:31Z</time>
      </trkpt>
      <trkpt lat="37.325491" lon="-4.360738">
        <ele>750.014</ele>
        <time>2014-11-08T10:52:38Z</time>
      </trkpt>
      <trkpt lat="37.325457" lon="-4.360626">
        <ele>751.048</ele>
        <time>2014-11-08T10:52:45Z</time>
      </trkpt>
      <trkpt lat="37.325423" lon="-4.360493">
        <ele>750.043</ele>
        <time>2014-11-08T10:52:52Z</time>
      </trkpt>
      <trkpt lat="37.325402" lon="-4.360379">
        <ele>747.064</ele>
        <time>2014-11-08T10:52:59Z</time>
      </trkpt>
      <trkpt lat="37.325370" lon="-4.360266">
        <ele>745.010</ele>
        <time>2014-11-08T10:53:06Z</time>
      </trkpt>
      <trkpt lat="37.325341" lon="-4.360145">
        <ele>744.007</ele>
        <time>2014-11-08T10:53:13Z</time>
      </trkpt>
      <trkpt lat="37.325315" lon="-4.360036">
        <ele>743.062</ele>
        <time>2014-11-08T10:53:21Z</time>
      </trkpt>
      <trkpt lat="37.325291" lon="-4.359918">
        <ele>742.086</ele>
        <time>2014-11-08T10:53:27Z</time>
      </trkpt>
      <trkpt lat="37.325272" lon="-4.359796">
        <ele>741.084</ele>
        <time>2014-11-08T10:53:33Z</time>
      </trkpt>
      <trkpt lat="37.325244" lon="-4.359682">
        <ele>741.043</ele>
        <time>2014-11-08T10:53:39Z</time>
      </trkpt>
      <trkpt lat="37.325219" lon="-4.359559">
        <ele>741.066</ele>
        <time>2014-11-08T10:53:46Z</time>
      </trkpt>
      <trkpt lat="37.325201" lon="-4.359432">
        <ele>740.084</ele>
        <time>2014-11-08T10:53:53Z</time>
      </trkpt>
      <trkpt lat="37.325166" lon="-4.359322">
        <ele>740.098</ele>
        <time>2014-11-08T10:54:00Z</time>
      </trkpt>
      <trkpt lat="37.325114" lon="-4.359215">
        <ele>738.016</ele>
        <time>2014-11-08T10:54:07Z</time>
      </trkpt>
      <trkpt lat="37.325065" lon="-4.359121">
        <ele>737.076</ele>
        <time>2014-11-08T10:54:14Z</time>
      </trkpt>
      <trkpt lat="37.325030" lon="-4.359015">
        <ele>737.013</ele>
        <time>2014-11-08T10:54:22Z</time>
      </trkpt>
      <trkpt lat="37.324997" lon="-4.358968">
        <ele>738.007</ele>
        <time>2014-11-08T10:54:33Z</time>
      </trkpt>
      <trkpt lat="37.324936" lon="-4.358910">
        <ele>738.089</ele>
        <time>2014-11-08T10:54:43Z</time>
      </trkpt>
      <trkpt lat="37.324910" lon="-4.358863">
        <ele>740.043</ele>
        <time>2014-11-08T10:54:53Z</time>
      </trkpt>
      <trkpt lat="37.324877" lon="-4.358757">
        <ele>741.061</ele>
        <time>2014-11-08T10:55:00Z</time>
      </trkpt>
      <trkpt lat="37.324831" lon="-4.358647">
        <ele>739.020</ele>
        <time>2014-11-08T10:55:08Z</time>
      </trkpt>
      <trkpt lat="37.324803" lon="-4.358537">
        <ele>748.093</ele>
        <time>2014-11-08T10:55:14Z</time>
      </trkpt>
      <trkpt lat="37.324777" lon="-4.358425">
        <ele>743.091</ele>
        <time>2014-11-08T10:55:21Z</time>
      </trkpt>
      <trkpt lat="37.324736" lon="-4.358316">
        <ele>739.055</ele>
        <time>2014-11-08T10:55:30Z</time>
      </trkpt>
      <trkpt lat="37.324674" lon="-4.358228">
        <ele>739.096</ele>
        <time>2014-11-08T10:55:36Z</time>
      </trkpt>
      <trkpt lat="37.324636" lon="-4.358125">
        <ele>739.031</ele>
        <time>2014-11-08T10:55:43Z</time>
      </trkpt>
      <trkpt lat="37.324575" lon="-4.358033">
        <ele>744.024</ele>
        <time>2014-11-08T10:55:51Z</time>
      </trkpt>
      <trkpt lat="37.324516" lon="-4.357942">
        <ele>745.007</ele>
        <time>2014-11-08T10:55:58Z</time>
      </trkpt>
      <trkpt lat="37.324478" lon="-4.357829">
        <ele>745.017</ele>
        <time>2014-11-08T10:56:04Z</time>
      </trkpt>
      <trkpt lat="37.324431" lon="-4.357721">
        <ele>742.041</ele>
        <time>2014-11-08T10:56:11Z</time>
      </trkpt>
      <trkpt lat="37.324363" lon="-4.357641">
        <ele>744.099</ele>
        <time>2014-11-08T10:56:18Z</time>
      </trkpt>
      <trkpt lat="37.324279" lon="-4.357586">
        <ele>746.028</ele>
        <time>2014-11-08T10:56:25Z</time>
      </trkpt>
      <trkpt lat="37.324202" lon="-4.357520">
        <ele>748.071</ele>
        <time>2014-11-08T10:56:32Z</time>
      </trkpt>
      <trkpt lat="37.324130" lon="-4.357436">
        <ele>746.029</ele>
        <time>2014-11-08T10:56:38Z</time>
      </trkpt>
      <trkpt lat="37.324070" lon="-4.357340">
        <ele>742.053</ele>
        <time>2014-11-08T10:56:44Z</time>
      </trkpt>
      <trkpt lat="37.324001" lon="-4.357248">
        <ele>738.076</ele>
        <time>2014-11-08T10:56:50Z</time>
      </trkpt>
      <trkpt lat="37.323936" lon="-4.357168">
        <ele>745.090</ele>
        <time>2014-11-08T10:56:57Z</time>
      </trkpt>
      <trkpt lat="37.323861" lon="-4.357081">
        <ele>742.019</ele>
        <time>2014-11-08T10:57:03Z</time>
      </trkpt>
      <trkpt lat="37.323784" lon="-4.357002">
        <ele>741.007</ele>
        <time>2014-11-08T10:57:09Z</time>
      </trkpt>
      <trkpt lat="37.323703" lon="-4.356921">
        <ele>743.085</ele>
        <time>2014-11-08T10:57:16Z</time>
      </trkpt>
      <trkpt lat="37.323633" lon="-4.356835">
        <ele>742.019</ele>
        <time>2014-11-08T10:57:23Z</time>
      </trkpt>
      <trkpt lat="37.323572" lon="-4.356752">
        <ele>743.057</ele>
        <time>2014-11-08T10:57:30Z</time>
      </trkpt>
      <trkpt lat="37.323528" lon="-4.356710">
        <ele>748.016</ele>
        <time>2014-11-08T10:57:43Z</time>
      </trkpt>
      <trkpt lat="37.323441" lon="-4.356646">
        <ele>752.049</ele>
        <time>2014-11-08T10:57:50Z</time>
      </trkpt>
      <trkpt lat="37.323356" lon="-4.356579">
        <ele>754.037</ele>
        <time>2014-11-08T10:57:57Z</time>
      </trkpt>
      <trkpt lat="37.323276" lon="-4.356526">
        <ele>756.011</ele>
        <time>2014-11-08T10:58:03Z</time>
      </trkpt>
      <trkpt lat="37.323197" lon="-4.356462">
        <ele>751.068</ele>
        <time>2014-11-08T10:58:09Z</time>
      </trkpt>
      <trkpt lat="37.323111" lon="-4.356393">
        <ele>751.042</ele>
        <time>2014-11-08T10:58:17Z</time>
      </trkpt>
      <trkpt lat="37.323036" lon="-4.356310">
        <ele>746.026</ele>
        <time>2014-11-08T10:58:24Z</time>
      </trkpt>
      <trkpt lat="37.322958" lon="-4.356232">
        <ele>743.007</ele>
        <time>2014-11-08T10:58:31Z</time>
      </trkpt>
      <trkpt lat="37.322888" lon="-4.356153">
        <ele>742.054</ele>
        <time>2014-11-08T10:58:38Z</time>
      </trkpt>
      <trkpt lat="37.322820" lon="-4.356052">
        <ele>739.018</ele>
        <time>2014-11-08T10:58:46Z</time>
      </trkpt>
      <trkpt lat="37.322805" lon="-4.355937">
        <ele>737.046</ele>
        <time>2014-11-08T10:58:54Z</time>
      </trkpt>
      <trkpt lat="37.322810" lon="-4.355819">
        <ele>739.065</ele>
        <time>2014-11-08T10:59:02Z</time>
      </trkpt>
      <trkpt lat="37.322821" lon="-4.355699">
        <ele>739.098</ele>
        <time>2014-11-08T10:59:09Z</time>
      </trkpt>
      <trkpt lat="37.322817" lon="-4.355583">
        <ele>732.056</ele>
        <time>2014-11-08T10:59:15Z</time>
      </trkpt>
      <trkpt lat="37.322810" lon="-4.355462">
        <ele>730.060</ele>
        <time>2014-11-08T10:59:21Z</time>
      </trkpt>
      <trkpt lat="37.322818" lon="-4.355338">
        <ele>726.015</ele>
        <time>2014-11-08T10:59:28Z</time>
      </trkpt>
      <trkpt lat="37.322824" lon="-4.355215">
        <ele>725.065</ele>
        <time>2014-11-08T10:59:36Z</time>
      </trkpt>
      <trkpt lat="37.322834" lon="-4.355101">
        <ele>722.011</ele>
        <time>2014-11-08T10:59:43Z</time>
      </trkpt>
      <trkpt lat="37.322849" lon="-4.354988">
        <ele>719.007</ele>
        <time>2014-11-08T10:59:50Z</time>
      </trkpt>
      <trkpt lat="37.322866" lon="-4.354863">
        <ele>718.099</ele>
        <time>2014-11-08T10:59:57Z</time>
      </trkpt>
      <trkpt lat="37.322869" lon="-4.354740">
        <ele>717.043</ele>
        <time>2014-11-08T11:00:04Z</time>
      </trkpt>
      <trkpt lat="37.322871" lon="-4.354614">
        <ele>717.081</ele>
        <time>2014-11-08T11:00:10Z</time>
      </trkpt>
      <trkpt lat="37.322866" lon="-4.354487">
        <ele>716.030</ele>
        <time>2014-11-08T11:00:17Z</time>
      </trkpt>
      <trkpt lat="37.322824" lon="-4.354387">
        <ele>713.083</ele>
        <time>2014-11-08T11:00:24Z</time>
      </trkpt>
      <trkpt lat="37.322754" lon="-4.354303">
        <ele>711.051</ele>
        <time>2014-11-08T11:00:31Z</time>
      </trkpt>
      <trkpt lat="37.322687" lon="-4.354223">
        <ele>712.015</ele>
        <time>2014-11-08T11:00:38Z</time>
      </trkpt>
      <trkpt lat="37.322605" lon="-4.354161">
        <ele>716.052</ele>
        <time>2014-11-08T11:00:46Z</time>
      </trkpt>
      <trkpt lat="37.322539" lon="-4.354076">
        <ele>717.053</ele>
        <time>2014-11-08T11:00:53Z</time>
      </trkpt>
      <trkpt lat="37.322493" lon="-4.353967">
        <ele>713.008</ele>
        <time>2014-11-08T11:01:03Z</time>
      </trkpt>
      <trkpt lat="37.322461" lon="-4.353847">
        <ele>717.007</ele>
        <time>2014-11-08T11:01:13Z</time>
      </trkpt>
      <trkpt lat="37.322401" lon="-4.353748">
        <ele>716.083</ele>
        <time>2014-11-08T11:01:20Z</time>
      </trkpt>
      <trkpt lat="37.322353" lon="-4.353637">
        <ele>710.067</ele>
        <time>2014-11-08T11:01:28Z</time>
      </trkpt>
      <trkpt lat="37.322307" lon="-4.353533">
        <ele>724.025</ele>
        <time>2014-11-08T11:01:35Z</time>
      </trkpt>
      <trkpt lat="37.322244" lon="-4.353453">
        <ele>710.024</ele>
        <time>2014-11-08T11:01:42Z</time>
      </trkpt>
      <trkpt lat="37.322177" lon="-4.353359">
        <ele>708.027</ele>
        <time>2014-11-08T11:01:50Z</time>
      </trkpt>
      <trkpt lat="37.322087" lon="-4.353302">
        <ele>706.025</ele>
        <time>2014-11-08T11:01:59Z</time>
      </trkpt>
      <trkpt lat="37.321995" lon="-4.353261">
        <ele>703.019</ele>
        <time>2014-11-08T11:02:05Z</time>
      </trkpt>
      <trkpt lat="37.321921" lon="-4.353217">
        <ele>705.024</ele>
        <time>2014-11-08T11:02:15Z</time>
      </trkpt>
      <trkpt lat="37.321841" lon="-4.353145">
        <ele>703.004</ele>
        <time>2014-11-08T11:02:21Z</time>
      </trkpt>
      <trkpt lat="37.321766" lon="-4.353062">
        <ele>703.014</ele>
        <time>2014-11-08T11:02:27Z</time>
      </trkpt>
      <trkpt lat="37.321690" lon="-4.352984">
        <ele>703.007</ele>
        <time>2014-11-08T11:02:33Z</time>
      </trkpt>
      <trkpt lat="37.321605" lon="-4.352915">
        <ele>702.060</ele>
        <time>2014-11-08T11:02:39Z</time>
      </trkpt>
      <trkpt lat="37.321519" lon="-4.352835">
        <ele>701.034</ele>
        <time>2014-11-08T11:02:45Z</time>
      </trkpt>
      <trkpt lat="37.321434" lon="-4.352775">
        <ele>700.042</ele>
        <time>2014-11-08T11:02:51Z</time>
      </trkpt>
      <trkpt lat="37.321355" lon="-4.352698">
        <ele>700.031</ele>
        <time>2014-11-08T11:02:59Z</time>
      </trkpt>
      <trkpt lat="37.321310" lon="-4.352678">
        <ele>698.064</ele>
        <time>2014-11-08T11:03:12Z</time>
      </trkpt>
      <trkpt lat="37.321219" lon="-4.352657">
        <ele>696.022</ele>
        <time>2014-11-08T11:03:19Z</time>
      </trkpt>
      <trkpt lat="37.321122" lon="-4.352625">
        <ele>694.036</ele>
        <time>2014-11-08T11:03:27Z</time>
      </trkpt>
      <trkpt lat="37.321027" lon="-4.352578">
        <ele>689.087</ele>
        <time>2014-11-08T11:03:34Z</time>
      </trkpt>
      <trkpt lat="37.320957" lon="-4.352507">
        <ele>689.042</ele>
        <time>2014-11-08T11:03:40Z</time>
      </trkpt>
      <trkpt lat="37.320868" lon="-4.352437">
        <ele>693.026</ele>
        <time>2014-11-08T11:03:47Z</time>
      </trkpt>
      <trkpt lat="37.320809" lon="-4.352336">
        <ele>693.007</ele>
        <time>2014-11-08T11:03:54Z</time>
      </trkpt>
      <trkpt lat="37.320796" lon="-4.352216">
        <ele>694.056</ele>
        <time>2014-11-08T11:04:00Z</time>
      </trkpt>
      <trkpt lat="37.320815" lon="-4.352087">
        <ele>694.050</ele>
        <time>2014-11-08T11:04:07Z</time>
      </trkpt>
      <trkpt lat="37.320822" lon="-4.351957">
        <ele>695.058</ele>
        <time>2014-11-08T11:04:13Z</time>
      </trkpt>
      <trkpt lat="37.320807" lon="-4.351836">
        <ele>695.087</ele>
        <time>2014-11-08T11:04:18Z</time>
      </trkpt>
      <trkpt lat="37.320770" lon="-4.351714">
        <ele>697.040</ele>
        <time>2014-11-08T11:04:25Z</time>
      </trkpt>
      <trkpt lat="37.320719" lon="-4.351611">
        <ele>693.048</ele>
        <time>2014-11-08T11:04:32Z</time>
      </trkpt>
      <trkpt lat="37.320640" lon="-4.351536">
        <ele>693.032</ele>
        <time>2014-11-08T11:04:40Z</time>
      </trkpt>
      <trkpt lat="37.320555" lon="-4.351478">
        <ele>700.045</ele>
        <time>2014-11-08T11:04:47Z</time>
      </trkpt>
      <trkpt lat="37.320476" lon="-4.351422">
        <ele>704.047</ele>
        <time>2014-11-08T11:04:53Z</time>
      </trkpt>
      <trkpt lat="37.320393" lon="-4.351352">
        <ele>704.011</ele>
        <time>2014-11-08T11:04:59Z</time>
      </trkpt>
      <trkpt lat="37.320318" lon="-4.351283">
        <ele>703.007</ele>
        <time>2014-11-08T11:05:06Z</time>
      </trkpt>
      <trkpt lat="37.320231" lon="-4.351232">
        <ele>703.052</ele>
        <time>2014-11-08T11:05:12Z</time>
      </trkpt>
      <trkpt lat="37.320156" lon="-4.351169">
        <ele>700.056</ele>
        <time>2014-11-08T11:05:18Z</time>
      </trkpt>
      <trkpt lat="37.320099" lon="-4.351060">
        <ele>697.094</ele>
        <time>2014-11-08T11:05:25Z</time>
      </trkpt>
      <trkpt lat="37.320038" lon="-4.350964">
        <ele>696.043</ele>
        <time>2014-11-08T11:05:32Z</time>
      </trkpt>
      <trkpt lat="37.320015" lon="-4.350849">
        <ele>696.036</ele>
        <time>2014-11-08T11:05:39Z</time>
      </trkpt>
      <trkpt lat="37.320008" lon="-4.350719">
        <ele>694.064</ele>
        <time>2014-11-08T11:05:46Z</time>
      </trkpt>
      <trkpt lat="37.319998" lon="-4.350597">
        <ele>692.028</ele>
        <time>2014-11-08T11:05:52Z</time>
      </trkpt>
      <trkpt lat="37.319969" lon="-4.350476">
        <ele>690.034</ele>
        <time>2014-11-08T11:05:58Z</time>
      </trkpt>
      <trkpt lat="37.319931" lon="-4.350366">
        <ele>687.055</ele>
        <time>2014-11-08T11:06:05Z</time>
      </trkpt>
      <trkpt lat="37.319865" lon="-4.350281">
        <ele>686.010</ele>
        <time>2014-11-08T11:06:13Z</time>
      </trkpt>
      <trkpt lat="37.319820" lon="-4.350258">
        <ele>690.007</ele>
        <time>2014-11-08T11:06:24Z</time>
      </trkpt>
      <trkpt lat="37.319734" lon="-4.350214">
        <ele>688.071</ele>
        <time>2014-11-08T11:06:31Z</time>
      </trkpt>
      <trkpt lat="37.319651" lon="-4.350157">
        <ele>688.085</ele>
        <time>2014-11-08T11:06:40Z</time>
      </trkpt>
      <trkpt lat="37.319616" lon="-4.350114">
        <ele>682.013</ele>
        <time>2014-11-08T11:06:50Z</time>
      </trkpt>
      <trkpt lat="37.319521" lon="-4.350121">
        <ele>682.052</ele>
        <time>2014-11-08T11:06:58Z</time>
      </trkpt>
      <trkpt lat="37.319431" lon="-4.350089">
        <ele>679.015</ele>
        <time>2014-11-08T11:07:05Z</time>
      </trkpt>
      <trkpt lat="37.319354" lon="-4.350028">
        <ele>675.013</ele>
        <time>2014-11-08T11:07:13Z</time>
      </trkpt>
      <trkpt lat="37.319298" lon="-4.349934">
        <ele>671.017</ele>
        <time>2014-11-08T11:07:21Z</time>
      </trkpt>
      <trkpt lat="37.319289" lon="-4.349811">
        <ele>670.097</ele>
        <time>2014-11-08T11:07:30Z</time>
      </trkpt>
      <trkpt lat="37.319271" lon="-4.349694">
        <ele>673.023</ele>
        <time>2014-11-08T11:07:39Z</time>
      </trkpt>
      <trkpt lat="37.319225" lon="-4.349583">
        <ele>672.025</ele>
        <time>2014-11-08T11:07:46Z</time>
      </trkpt>
      <trkpt lat="37.319155" lon="-4.349493">
        <ele>671.007</ele>
        <time>2014-11-08T11:07:53Z</time>
      </trkpt>
      <trkpt lat="37.319122" lon="-4.349373">
        <ele>669.097</ele>
        <time>2014-11-08T11:08:01Z</time>
      </trkpt>
      <trkpt lat="37.319040" lon="-4.349313">
        <ele>667.051</ele>
        <time>2014-11-08T11:08:09Z</time>
      </trkpt>
      <trkpt lat="37.318984" lon="-4.349221">
        <ele>664.099</ele>
        <time>2014-11-08T11:08:16Z</time>
      </trkpt>
      <trkpt lat="37.318901" lon="-4.349155">
        <ele>664.048</ele>
        <time>2014-11-08T11:08:25Z</time>
      </trkpt>
      <trkpt lat="37.318812" lon="-4.349103">
        <ele>664.061</ele>
        <time>2014-11-08T11:08:33Z</time>
      </trkpt>
      <trkpt lat="37.318730" lon="-4.349050">
        <ele>665.019</ele>
        <time>2014-11-08T11:08:40Z</time>
      </trkpt>
      <trkpt lat="37.318639" lon="-4.349002">
        <ele>665.043</ele>
        <time>2014-11-08T11:08:47Z</time>
      </trkpt>
      <trkpt lat="37.318551" lon="-4.348910">
        <ele>662.015</ele>
        <time>2014-11-08T11:08:55Z</time>
      </trkpt>
      <trkpt lat="37.318472" lon="-4.348842">
        <ele>661.065</ele>
        <time>2014-11-08T11:09:02Z</time>
      </trkpt>
      <trkpt lat="37.318404" lon="-4.348757">
        <ele>656.011</ele>
        <time>2014-11-08T11:09:10Z</time>
      </trkpt>
      <trkpt lat="37.318345" lon="-4.348653">
        <ele>652.007</ele>
        <time>2014-11-08T11:09:18Z</time>
      </trkpt>
      <trkpt lat="37.318279" lon="-4.348556">
        <ele>646.059</ele>
        <time>2014-11-08T11:09:26Z</time>
      </trkpt>
      <trkpt lat="37.318207" lon="-4.348486">
        <ele>648.083</ele>
        <time>2014-11-08T11:09:34Z</time>
      </trkpt>
      <trkpt lat="37.318152" lon="-4.348391">
        <ele>647.041</ele>
        <time>2014-11-08T11:09:41Z</time>
      </trkpt>
      <trkpt lat="37.318087" lon="-4.348296">
        <ele>646.050</ele>
        <time>2014-11-08T11:09:48Z</time>
      </trkpt>
      <trkpt lat="37.318033" lon="-4.348198">
        <ele>643.083</ele>
        <time>2014-11-08T11:09:56Z</time>
      </trkpt>
      <trkpt lat="37.318002" lon="-4.348082">
        <ele>643.011</ele>
        <time>2014-11-08T11:10:03Z</time>
      </trkpt>
      <trkpt lat="37.317942" lon="-4.347982">
        <ele>643.085</ele>
        <time>2014-11-08T11:10:10Z</time>
      </trkpt>
      <trkpt lat="37.317889" lon="-4.347890">
        <ele>639.067</ele>
        <time>2014-11-08T11:10:17Z</time>
      </trkpt>
      <trkpt lat="37.317853" lon="-4.347776">
        <ele>638.081</ele>
        <time>2014-11-08T11:10:24Z</time>
      </trkpt>
      <trkpt lat="37.317801" lon="-4.347680">
        <ele>639.019</ele>
        <time>2014-11-08T11:10:31Z</time>
      </trkpt>
      <trkpt lat="37.317755" lon="-4.347568">
        <ele>638.007</ele>
        <time>2014-11-08T11:10:38Z</time>
      </trkpt>
      <trkpt lat="37.317722" lon="-4.347455">
        <ele>637.054</ele>
        <time>2014-11-08T11:10:45Z</time>
      </trkpt>
      <trkpt lat="37.317695" lon="-4.347335">
        <ele>633.018</ele>
        <time>2014-11-08T11:10:51Z</time>
      </trkpt>
      <trkpt lat="37.317650" lon="-4.347215">
        <ele>630.086</ele>
        <time>2014-11-08T11:10:58Z</time>
      </trkpt>
      <trkpt lat="37.317613" lon="-4.347105">
        <ele>630.035</ele>
        <time>2014-11-08T11:11:05Z</time>
      </trkpt>
      <trkpt lat="37.317574" lon="-4.347000">
        <ele>629.058</ele>
        <time>2014-11-08T11:11:13Z</time>
      </trkpt>
      <trkpt lat="37.317506" lon="-4.346909">
        <ele>628.036</ele>
        <time>2014-11-08T11:11:20Z</time>
      </trkpt>
      <trkpt lat="37.317441" lon="-4.346824">
        <ele>631.090</ele>
        <time>2014-11-08T11:11:27Z</time>
      </trkpt>
      <trkpt lat="37.317394" lon="-4.346713">
        <ele>630.024</ele>
        <time>2014-11-08T11:11:34Z</time>
      </trkpt>
      <trkpt lat="37.317329" lon="-4.346616">
        <ele>629.004</ele>
        <time>2014-11-08T11:11:42Z</time>
      </trkpt>
      <trkpt lat="37.317238" lon="-4.346558">
        <ele>630.014</ele>
        <time>2014-11-08T11:11:50Z</time>
      </trkpt>
      <trkpt lat="37.317161" lon="-4.346485">
        <ele>629.007</ele>
        <time>2014-11-08T11:11:57Z</time>
      </trkpt>
      <trkpt lat="37.317065" lon="-4.346451">
        <ele>628.020</ele>
        <time>2014-11-08T11:12:04Z</time>
      </trkpt>
      <trkpt lat="37.316971" lon="-4.346423">
        <ele>625.014</ele>
        <time>2014-11-08T11:12:12Z</time>
      </trkpt>
      <trkpt lat="37.316881" lon="-4.346377">
        <ele>629.042</ele>
        <time>2014-11-08T11:12:19Z</time>
      </trkpt>
      <trkpt lat="37.316800" lon="-4.346313">
        <ele>629.091</ele>
        <time>2014-11-08T11:12:26Z</time>
      </trkpt>
      <trkpt lat="37.316711" lon="-4.346265">
        <ele>634.064</ele>
        <time>2014-11-08T11:12:33Z</time>
      </trkpt>
      <trkpt lat="37.316626" lon="-4.346220">
        <ele>635.012</ele>
        <time>2014-11-08T11:12:39Z</time>
      </trkpt>
      <trkpt lat="37.316559" lon="-4.346143">
        <ele>633.086</ele>
        <time>2014-11-08T11:12:45Z</time>
      </trkpt>
      <trkpt lat="37.316548" lon="-4.346014">
        <ele>634.034</ele>
        <time>2014-11-08T11:12:51Z</time>
      </trkpt>
      <trkpt lat="37.316572" lon="-4.345902">
        <ele>629.055</ele>
        <time>2014-11-08T11:12:57Z</time>
      </trkpt>
      <trkpt lat="37.316585" lon="-4.345771">
        <ele>627.010</ele>
        <time>2014-11-08T11:13:03Z</time>
      </trkpt>
      <trkpt lat="37.316614" lon="-4.345658">
        <ele>627.007</ele>
        <time>2014-11-08T11:13:09Z</time>
      </trkpt>
      <trkpt lat="37.316645" lon="-4.345545">
        <ele>624.081</ele>
        <time>2014-11-08T11:13:16Z</time>
      </trkpt>
      <trkpt lat="37.316696" lon="-4.345451">
        <ele>621.075</ele>
        <time>2014-11-08T11:13:24Z</time>
      </trkpt>
      <trkpt lat="37.316724" lon="-4.345342">
        <ele>619.093</ele>
        <time>2014-11-08T11:13:32Z</time>
      </trkpt>
      <trkpt lat="37.316711" lon="-4.345217">
        <ele>616.012</ele>
        <time>2014-11-08T11:13:40Z</time>
      </trkpt>
      <trkpt lat="37.316725" lon="-4.345101">
        <ele>618.035</ele>
        <time>2014-11-08T11:13:48Z</time>
      </trkpt>
      <trkpt lat="37.316724" lon="-4.344979">
        <ele>615.073</ele>
        <time>2014-11-08T11:13:55Z</time>
      </trkpt>
      <trkpt lat="37.316703" lon="-4.344862">
        <ele>614.067</ele>
        <time>2014-11-08T11:14:02Z</time>
      </trkpt>
      <trkpt lat="37.316677" lon="-4.344738">
        <ele>612.087</ele>
        <time>2014-11-08T11:14:09Z</time>
      </trkpt>
      <trkpt lat="37.316654" lon="-4.344614">
        <ele>612.042</ele>
        <time>2014-11-08T11:14:16Z</time>
      </trkpt>
      <trkpt lat="37.316626" lon="-4.344496">
        <ele>612.026</ele>
        <time>2014-11-08T11:14:23Z</time>
      </trkpt>
      <trkpt lat="37.316594" lon="-4.344382">
        <ele>613.007</ele>
        <time>2014-11-08T11:14:30Z</time>
      </trkpt>
      <trkpt lat="37.316595" lon="-4.344256">
        <ele>609.096</ele>
        <time>2014-11-08T11:14:37Z</time>
      </trkpt>
      <trkpt lat="37.316554" lon="-4.344138">
        <ele>610.090</ele>
        <time>2014-11-08T11:14:45Z</time>
      </trkpt>
      <trkpt lat="37.316494" lon="-4.344045">
        <ele>612.018</ele>
        <time>2014-11-08T11:14:52Z</time>
      </trkpt>
      <trkpt lat="37.316434" lon="-4.343954">
        <ele>612.057</ele>
        <time>2014-11-08T11:14:59Z</time>
      </trkpt>
      <trkpt lat="37.316363" lon="-4.343867">
        <ele>610.050</ele>
        <time>2014-11-08T11:15:07Z</time>
      </trkpt>
      <trkpt lat="37.316378" lon="-4.343813">
        <ele>605.058</ele>
        <time>2014-11-08T11:15:18Z</time>
      </trkpt>
      <trkpt lat="37.316317" lon="-4.343724">
        <ele>605.012</ele>
        <time>2014-11-08T11:15:24Z</time>
      </trkpt>
      <trkpt lat="37.316234" lon="-4.343659">
        <ele>602.087</ele>
        <time>2014-11-08T11:15:31Z</time>
      </trkpt>
      <trkpt lat="37.316150" lon="-4.343583">
        <ele>601.042</ele>
        <time>2014-11-08T11:15:39Z</time>
      </trkpt>
      <trkpt lat="37.316078" lon="-4.343499">
        <ele>596.026</ele>
        <time>2014-11-08T11:15:48Z</time>
      </trkpt>
      <trkpt lat="37.316011" lon="-4.343410">
        <ele>594.007</ele>
        <time>2014-11-08T11:15:56Z</time>
      </trkpt>
      <trkpt lat="37.315922" lon="-4.343352">
        <ele>595.096</ele>
        <time>2014-11-08T11:16:04Z</time>
      </trkpt>
      <trkpt lat="37.315846" lon="-4.343287">
        <ele>595.090</ele>
        <time>2014-11-08T11:16:10Z</time>
      </trkpt>
      <trkpt lat="37.315756" lon="-4.343241">
        <ele>595.088</ele>
        <time>2014-11-08T11:16:17Z</time>
      </trkpt>
      <trkpt lat="37.315662" lon="-4.343194">
        <ele>599.067</ele>
        <time>2014-11-08T11:16:24Z</time>
      </trkpt>
      <trkpt lat="37.315593" lon="-4.343118">
        <ele>594.040</ele>
        <time>2014-11-08T11:16:31Z</time>
      </trkpt>
      <trkpt lat="37.315527" lon="-4.343019">
        <ele>590.038</ele>
        <time>2014-11-08T11:16:39Z</time>
      </trkpt>
      <trkpt lat="37.315469" lon="-4.342920">
        <ele>586.072</ele>
        <time>2014-11-08T11:16:46Z</time>
      </trkpt>
      <trkpt lat="37.315472" lon="-4.342824">
        <ele>581.043</ele>
        <time>2014-11-08T11:16:56Z</time>
      </trkpt>
      <trkpt lat="37.315437" lon="-4.342720">
        <ele>578.064</ele>
        <time>2014-11-08T11:17:05Z</time>
      </trkpt>
      <trkpt lat="37.315404" lon="-4.342598">
        <ele>573.010</ele>
        <time>2014-11-08T11:17:14Z</time>
      </trkpt>
      <trkpt lat="37.315389" lon="-4.342475">
        <ele>569.007</ele>
        <time>2014-11-08T11:17:22Z</time>
      </trkpt>
      <trkpt lat="37.315357" lon="-4.342368">
        <ele>571.042</ele>
        <time>2014-11-08T11:17:30Z</time>
      </trkpt>
      <trkpt lat="37.315336" lon="-4.342235">
        <ele>569.026</ele>
        <time>2014-11-08T11:17:37Z</time>
      </trkpt>
      <trkpt lat="37.315356" lon="-4.342112">
        <ele>570.074</ele>
        <time>2014-11-08T11:17:46Z</time>
      </trkpt>
      <trkpt lat="37.315348" lon="-4.341989">
        <ele>570.053</ele>
        <time>2014-11-08T11:17:55Z</time>
      </trkpt>
      <trkpt lat="37.315322" lon="-4.341881">
        <ele>568.016</ele>
        <time>2014-11-08T11:18:02Z</time>
      </trkpt>
      <trkpt lat="37.315283" lon="-4.341767">
        <ele>564.054</ele>
        <time>2014-11-08T11:18:09Z</time>
      </trkpt>
      <trkpt lat="37.315217" lon="-4.341685">
        <ele>563.088</ele>
        <time>2014-11-08T11:18:16Z</time>
      </trkpt>
      <trkpt lat="37.315121" lon="-4.341668">
        <ele>566.015</ele>
        <time>2014-11-08T11:18:23Z</time>
      </trkpt>
      <trkpt lat="37.315028" lon="-4.341614">
        <ele>562.065</ele>
        <time>2014-11-08T11:18:30Z</time>
      </trkpt>
      <trkpt lat="37.314940" lon="-4.341559">
        <ele>562.011</ele>
        <time>2014-11-08T11:18:37Z</time>
      </trkpt>
      <trkpt lat="37.314857" lon="-4.341509">
        <ele>565.007</ele>
        <time>2014-11-08T11:18:43Z</time>
      </trkpt>
      <trkpt lat="37.314791" lon="-4.341422">
        <ele>562.079</ele>
        <time>2014-11-08T11:18:50Z</time>
      </trkpt>
      <trkpt lat="37.314723" lon="-4.341339">
        <ele>560.093</ele>
        <time>2014-11-08T11:18:57Z</time>
      </trkpt>
      <trkpt lat="37.314675" lon="-4.341266">
        <ele>560.091</ele>
        <time>2014-11-08T11:19:07Z</time>
      </trkpt>
      <trkpt lat="37.314620" lon="-4.341168">
        <ele>554.050</ele>
        <time>2014-11-08T11:19:14Z</time>
      </trkpt>
      <trkpt lat="37.314555" lon="-4.341068">
        <ele>552.023</ele>
        <time>2014-11-08T11:19:22Z</time>
      </trkpt>
      <trkpt lat="37.314496" lon="-4.340980">
        <ele>552.031</ele>
        <time>2014-11-08T11:19:29Z</time>
      </trkpt>
      <trkpt lat="37.314450" lon="-4.340881">
        <ele>550.035</ele>
        <time>2014-11-08T11:19:35Z</time>
      </trkpt>
      <trkpt lat="37.314392" lon="-4.340769">
        <ele>552.034</ele>
        <time>2014-11-08T11:19:42Z</time>
      </trkpt>
      <trkpt lat="37.314331" lon="-4.340685">
        <ele>552.055</ele>
        <time>2014-11-08T11:19:48Z</time>
      </trkpt>
      <trkpt lat="37.314284" lon="-4.340644">
        <ele>551.010</ele>
        <time>2014-11-08T11:19:58Z</time>
      </trkpt>
      <trkpt lat="37.314269" lon="-4.340587">
        <ele>550.007</ele>
        <time>2014-11-08T11:20:08Z</time>
      </trkpt>
      <trkpt lat="37.314250" lon="-4.340466">
        <ele>549.081</ele>
        <time>2014-11-08T11:20:18Z</time>
      </trkpt>
      <trkpt lat="37.314282" lon="-4.340343">
        <ele>546.065</ele>
        <time>2014-11-08T11:20:26Z</time>
      </trkpt>
      <trkpt lat="37.314281" lon="-4.340225">
        <ele>546.073</ele>
        <time>2014-11-08T11:20:32Z</time>
      </trkpt>
      <trkpt lat="37.314304" lon="-4.340103">
        <ele>544.052</ele>
        <time>2014-11-08T11:20:39Z</time>
      </trkpt>
      <trkpt lat="37.314325" lon="-4.339981">
        <ele>542.095</ele>
        <time>2014-11-08T11:20:47Z</time>
      </trkpt>
      <trkpt lat="37.314343" lon="-4.339867">
        <ele>539.023</ele>
        <time>2014-11-08T11:20:56Z</time>
      </trkpt>
      <trkpt lat="37.314312" lon="-4.339761">
        <ele>544.057</ele>
        <time>2014-11-08T11:21:02Z</time>
      </trkpt>
      <trkpt lat="37.314266" lon="-4.339660">
        <ele>540.014</ele>
        <time>2014-11-08T11:21:09Z</time>
      </trkpt>
      <trkpt lat="37.314192" lon="-4.339584">
        <ele>543.054</ele>
        <time>2014-11-08T11:21:17Z</time>
      </trkpt>
      <trkpt lat="37.314159" lon="-4.339471">
        <ele>545.009</ele>
        <time>2014-11-08T11:21:25Z</time>
      </trkpt>
      <trkpt lat="37.314100" lon="-4.339369">
        <ele>546.007</ele>
        <time>2014-11-08T11:21:32Z</time>
      </trkpt>
      <trkpt lat="37.314058" lon="-4.339264">
        <ele>539.049</ele>
        <time>2014-11-08T11:21:40Z</time>
      </trkpt>
      <trkpt lat="37.314008" lon="-4.339169">
        <ele>538.073</ele>
        <time>2014-11-08T11:21:47Z</time>
      </trkpt>
      <trkpt lat="37.313933" lon="-4.339103">
        <ele>544.071</ele>
        <time>2014-11-08T11:21:53Z</time>
      </trkpt>
      <trkpt lat="37.313867" lon="-4.339017">
        <ele>540.020</ele>
        <time>2014-11-08T11:21:59Z</time>
      </trkpt>
      <trkpt lat="37.313800" lon="-4.338932">
        <ele>542.053</ele>
        <time>2014-11-08T11:22:05Z</time>
      </trkpt>
      <trkpt lat="37.313757" lon="-4.338814">
        <ele>538.081</ele>
        <time>2014-11-08T11:22:12Z</time>
      </trkpt>
      <trkpt lat="37.313721" lon="-4.338704">
        <ele>533.025</ele>
        <time>2014-11-08T11:22:19Z</time>
      </trkpt>
      <trkpt lat="37.313673" lon="-4.338593">
        <ele>529.013</ele>
        <time>2014-11-08T11:22:28Z</time>
      </trkpt>
      <trkpt lat="37.313655" lon="-4.338479">
        <ele>528.043</ele>
        <time>2014-11-08T11:22:35Z</time>
      </trkpt>
      <trkpt lat="37.313645" lon="-4.338357">
        <ele>527.007</ele>
        <time>2014-11-08T11:22:41Z</time>
      </trkpt>
      <trkpt lat="37.313635" lon="-4.338242">
        <ele>528.007</ele>
        <time>2014-11-08T11:22:47Z</time>
      </trkpt>
      <trkpt lat="37.313630" lon="-4.338122">
        <ele>527.099</ele>
        <time>2014-11-08T11:22:54Z</time>
      </trkpt>
      <trkpt lat="37.313627" lon="-4.338008">
        <ele>530.053</ele>
        <time>2014-11-08T11:23:01Z</time>
      </trkpt>
      <trkpt lat="37.313650" lon="-4.337898">
        <ele>527.031</ele>
        <time>2014-11-08T11:23:08Z</time>
      </trkpt>
      <trkpt lat="37.313669" lon="-4.337782">
        <ele>526.010</ele>
        <time>2014-11-08T11:23:15Z</time>
      </trkpt>
      <trkpt lat="37.313679" lon="-4.337660">
        <ele>526.083</ele>
        <time>2014-11-08T11:23:22Z</time>
      </trkpt>
      <trkpt lat="37.313695" lon="-4.337538">
        <ele>527.081</ele>
        <time>2014-11-08T11:23:29Z</time>
      </trkpt>
      <trkpt lat="37.313748" lon="-4.337431">
        <ele>523.035</ele>
        <time>2014-11-08T11:23:38Z</time>
      </trkpt>
      <trkpt lat="37.313749" lon="-4.337314">
        <ele>524.018</ele>
        <time>2014-11-08T11:23:44Z</time>
      </trkpt>
      <trkpt lat="37.313746" lon="-4.337191">
        <ele>524.098</ele>
        <time>2014-11-08T11:23:50Z</time>
      </trkpt>
      <trkpt lat="37.313753" lon="-4.337072">
        <ele>524.017</ele>
        <time>2014-11-08T11:23:56Z</time>
      </trkpt>
      <trkpt lat="37.313738" lon="-4.336960">
        <ele>532.007</ele>
        <time>2014-11-08T11:24:00Z</time>
      </trkpt>
      <trkpt lat="37.313733" lon="-4.336838">
        <ele>528.019</ele>
        <time>2014-11-08T11:24:06Z</time>
      </trkpt>
      <trkpt lat="37.313718" lon="-4.336725">
        <ele>524.023</ele>
        <time>2014-11-08T11:24:15Z</time>
      </trkpt>
      <trkpt lat="37.313677" lon="-4.336623">
        <ele>522.061</ele>
        <time>2014-11-08T11:24:24Z</time>
      </trkpt>
      <trkpt lat="37.313687" lon="-4.336495">
        <ele>524.020</ele>
        <time>2014-11-08T11:24:31Z</time>
      </trkpt>
      <trkpt lat="37.313691" lon="-4.336373">
        <ele>522.073</ele>
        <time>2014-11-08T11:24:39Z</time>
      </trkpt>
      <trkpt lat="37.313716" lon="-4.336264">
        <ele>523.011</ele>
        <time>2014-11-08T11:24:46Z</time>
      </trkpt>
      <trkpt lat="37.313736" lon="-4.336150">
        <ele>522.065</ele>
        <time>2014-11-08T11:24:53Z</time>
      </trkpt>
      <trkpt lat="37.313743" lon="-4.336035">
        <ele>525.032</ele>
        <time>2014-11-08T11:24:59Z</time>
      </trkpt>
      <trkpt lat="37.313745" lon="-4.335914">
        <ele>525.092</ele>
        <time>2014-11-08T11:25:05Z</time>
      </trkpt>
      <trkpt lat="37.313766" lon="-4.335787">
        <ele>523.011</ele>
        <time>2014-11-08T11:25:13Z</time>
      </trkpt>
      <trkpt lat="37.313794" lon="-4.335654">
        <ele>522.007</ele>
        <time>2014-11-08T11:25:20Z</time>
      </trkpt>
      <trkpt lat="37.313827" lon="-4.335534">
        <ele>520.091</ele>
        <time>2014-11-08T11:25:28Z</time>
      </trkpt>
      <trkpt lat="37.313831" lon="-4.335413">
        <ele>521.035</ele>
        <time>2014-11-08T11:25:35Z</time>
      </trkpt>
      <trkpt lat="37.313827" lon="-4.335298">
        <ele>522.053</ele>
        <time>2014-11-08T11:25:41Z</time>
      </trkpt>
      <trkpt lat="37.313824" lon="-4.335183">
        <ele>521.022</ele>
        <time>2014-11-08T11:25:47Z</time>
      </trkpt>
      <trkpt lat="37.313830" lon="-4.335061">
        <ele>521.065</ele>
        <time>2014-11-08T11:25:54Z</time>
      </trkpt>
      <trkpt lat="37.313840" lon="-4.334946">
        <ele>518.083</ele>
        <time>2014-11-08T11:26:03Z</time>
      </trkpt>
      <trkpt lat="37.313818" lon="-4.334827">
        <ele>518.057</ele>
        <time>2014-11-08T11:26:12Z</time>
      </trkpt>
      <trkpt lat="37.313804" lon="-4.334707">
        <ele>517.058</ele>
        <time>2014-11-08T11:26:20Z</time>
      </trkpt>
      <trkpt lat="37.313748" lon="-4.334617">
        <ele>521.052</ele>
        <time>2014-11-08T11:26:27Z</time>
      </trkpt>
      <trkpt lat="37.313731" lon="-4.334489">
        <ele>520.017</ele>
        <time>2014-11-08T11:26:33Z</time>
      </trkpt>
      <trkpt lat="37.313678" lon="-4.334381">
        <ele>522.007</ele>
        <time>2014-11-08T11:26:40Z</time>
      </trkpt>
      <trkpt lat="37.313627" lon="-4.334276">
        <ele>521.053</ele>
        <time>2014-11-08T11:26:47Z</time>
      </trkpt>
      <trkpt lat="37.313589" lon="-4.334153">
        <ele>520.047</ele>
        <time>2014-11-08T11:26:54Z</time>
      </trkpt>
      <trkpt lat="37.313558" lon="-4.334046">
        <ele>520.055</ele>
        <time>2014-11-08T11:27:00Z</time>
      </trkpt>
      <trkpt lat="37.313527" lon="-4.333928">
        <ele>522.084</ele>
        <time>2014-11-08T11:27:07Z</time>
      </trkpt>
      <trkpt lat="37.313536" lon="-4.333808">
        <ele>518.087</ele>
        <time>2014-11-08T11:27:14Z</time>
      </trkpt>
      <trkpt lat="37.313530" lon="-4.333687">
        <ele>514.015</ele>
        <time>2014-11-08T11:27:21Z</time>
      </trkpt>
      <trkpt lat="37.313518" lon="-4.333558">
        <ele>516.039</ele>
        <time>2014-11-08T11:27:27Z</time>
      </trkpt>
      <trkpt lat="37.313515" lon="-4.333430">
        <ele>517.022</ele>
        <time>2014-11-08T11:27:33Z</time>
      </trkpt>
      <trkpt lat="37.313516" lon="-4.333301">
        <ele>513.062</ele>
        <time>2014-11-08T11:27:40Z</time>
      </trkpt>
      <trkpt lat="37.313518" lon="-4.333181">
        <ele>513.008</ele>
        <time>2014-11-08T11:27:47Z</time>
      </trkpt>
      <trkpt lat="37.313528" lon="-4.333059">
        <ele>507.007</ele>
        <time>2014-11-08T11:27:55Z</time>
      </trkpt>
      <trkpt lat="37.313537" lon="-4.332941">
        <ele>510.030</ele>
        <time>2014-11-08T11:28:01Z</time>
      </trkpt>
      <trkpt lat="37.313566" lon="-4.332829">
        <ele>508.034</ele>
        <time>2014-11-08T11:28:09Z</time>
      </trkpt>
      <trkpt lat="37.313606" lon="-4.332710">
        <ele>504.052</ele>
        <time>2014-11-08T11:28:18Z</time>
      </trkpt>
      <trkpt lat="37.313647" lon="-4.332603">
        <ele>502.021</ele>
        <time>2014-11-08T11:28:25Z</time>
      </trkpt>
      <trkpt lat="37.313681" lon="-4.332487">
        <ele>500.024</ele>
        <time>2014-11-08T11:28:33Z</time>
      </trkpt>
      <trkpt lat="37.313709" lon="-4.332357">
        <ele>505.012</ele>
        <time>2014-11-08T11:28:40Z</time>
      </trkpt>
      <trkpt lat="37.313784" lon="-4.332291">
        <ele>502.086</ele>
        <time>2014-11-08T11:28:46Z</time>
      </trkpt>
      <trkpt lat="37.313864" lon="-4.332221">
        <ele>502.041</ele>
        <time>2014-11-08T11:28:54Z</time>
      </trkpt>
      <trkpt lat="37.313944" lon="-4.332167">
        <ele>501.081</ele>
        <time>2014-11-08T11:29:01Z</time>
      </trkpt>
      <trkpt lat="37.314026" lon="-4.332100">
        <ele>501.009</ele>
        <time>2014-11-08T11:29:09Z</time>
      </trkpt>
      <trkpt lat="37.314115" lon="-4.332069">
        <ele>500.007</ele>
        <time>2014-11-08T11:29:16Z</time>
      </trkpt>
      <trkpt lat="37.314209" lon="-4.332029">
        <ele>497.022</ele>
        <time>2014-11-08T11:29:23Z</time>
      </trkpt>
      <trkpt lat="37.314284" lon="-4.332039">
        <ele>499.066</ele>
        <time>2014-11-08T11:29:34Z</time>
      </trkpt>
      <trkpt lat="37.314383" lon="-4.332052">
        <ele>499.074</ele>
        <time>2014-11-08T11:29:42Z</time>
      </trkpt>
      <trkpt lat="37.314471" lon="-4.332091">
        <ele>501.023</ele>
        <time>2014-11-08T11:29:49Z</time>
      </trkpt>
      <trkpt lat="37.314523" lon="-4.332091">
        <ele>501.066</ele>
        <time>2014-11-08T11:30:05Z</time>
      </trkpt>
      <trkpt lat="37.314617" lon="-4.332098">
        <ele>498.014</ele>
        <time>2014-11-08T11:30:13Z</time>
      </trkpt>
      <trkpt lat="37.314709" lon="-4.332080">
        <ele>500.028</ele>
        <time>2014-11-08T11:30:23Z</time>
      </trkpt>
      <trkpt lat="37.314802" lon="-4.332056">
        <ele>500.025</ele>
        <time>2014-11-08T11:30:30Z</time>
      </trkpt>
      <trkpt lat="37.314903" lon="-4.332061">
        <ele>503.026</ele>
        <time>2014-11-08T11:30:38Z</time>
      </trkpt>
      <trkpt lat="37.314994" lon="-4.332068">
        <ele>502.008</ele>
        <time>2014-11-08T11:30:44Z</time>
      </trkpt>
      <trkpt lat="37.315041" lon="-4.332082">
        <ele>501.007</ele>
        <time>2014-11-08T11:30:54Z</time>
      </trkpt>
      <trkpt lat="37.315091" lon="-4.332105">
        <ele>499.060</ele>
        <time>2014-11-08T11:31:04Z</time>
      </trkpt>
      <trkpt lat="37.315194" lon="-4.332098">
        <ele>500.034</ele>
        <time>2014-11-08T11:31:12Z</time>
      </trkpt>
      <trkpt lat="37.315284" lon="-4.332070">
        <ele>501.042</ele>
        <time>2014-11-08T11:31:20Z</time>
      </trkpt>
      <trkpt lat="37.315364" lon="-4.332017">
        <ele>503.031</ele>
        <time>2014-11-08T11:31:29Z</time>
      </trkpt>
      <trkpt lat="37.315408" lon="-4.331977">
        <ele>505.064</ele>
        <time>2014-11-08T11:31:45Z</time>
      </trkpt>
      <trkpt lat="37.315489" lon="-4.331901">
        <ele>505.052</ele>
        <time>2014-11-08T11:31:53Z</time>
      </trkpt>
      <trkpt lat="37.315579" lon="-4.331854">
        <ele>502.016</ele>
        <time>2014-11-08T11:32:00Z</time>
      </trkpt>
      <trkpt lat="37.315673" lon="-4.331815">
        <ele>503.074</ele>
        <time>2014-11-08T11:32:07Z</time>
      </trkpt>
      <trkpt lat="37.315720" lon="-4.331716">
        <ele>504.056</ele>
        <time>2014-11-08T11:32:13Z</time>
      </trkpt>
      <trkpt lat="37.315795" lon="-4.331645">
        <ele>505.021</ele>
        <time>2014-11-08T11:32:20Z</time>
      </trkpt>
      <trkpt lat="37.315870" lon="-4.331560">
        <ele>506.007</ele>
        <time>2014-11-08T11:32:27Z</time>
      </trkpt>
      <trkpt lat="37.315948" lon="-4.331484">
        <ele>505.075</ele>
        <time>2014-11-08T11:32:34Z</time>
      </trkpt>
      <trkpt lat="37.316042" lon="-4.331426">
        <ele>505.019</ele>
        <time>2014-11-08T11:32:41Z</time>
      </trkpt>
      <trkpt lat="37.316122" lon="-4.331418">
        <ele>503.047</ele>
        <time>2014-11-08T11:32:51Z</time>
      </trkpt>
      <trkpt lat="37.316210" lon="-4.331363">
        <ele>503.046</ele>
        <time>2014-11-08T11:33:00Z</time>
      </trkpt>
      <trkpt lat="37.316295" lon="-4.331307">
        <ele>506.069</ele>
        <time>2014-11-08T11:33:08Z</time>
      </trkpt>
      <trkpt lat="37.316383" lon="-4.331240">
        <ele>507.027</ele>
        <time>2014-11-08T11:33:16Z</time>
      </trkpt>
      <trkpt lat="37.316466" lon="-4.331167">
        <ele>506.011</ele>
        <time>2014-11-08T11:33:23Z</time>
      </trkpt>
      <trkpt lat="37.316540" lon="-4.331099">
        <ele>505.065</ele>
        <time>2014-11-08T11:33:30Z</time>
      </trkpt>
      <trkpt lat="37.316601" lon="-4.331006">
        <ele>506.068</ele>
        <time>2014-11-08T11:33:38Z</time>
      </trkpt>
      <trkpt lat="37.316661" lon="-4.330906">
        <ele>502.014</ele>
        <time>2014-11-08T11:33:46Z</time>
      </trkpt>
      <trkpt lat="37.316728" lon="-4.330818">
        <ele>504.007</ele>
        <time>2014-11-08T11:33:53Z</time>
      </trkpt>
      <trkpt lat="37.316749" lon="-4.330707">
        <ele>497.034</ele>
        <time>2014-11-08T11:34:01Z</time>
      </trkpt>
      <trkpt lat="37.316703" lon="-4.330598">
        <ele>496.088</ele>
        <time>2014-11-08T11:34:10Z</time>
      </trkpt>
      <trkpt lat="37.316771" lon="-4.330537">
        <ele>498.086</ele>
        <time>2014-11-08T11:34:20Z</time>
      </trkpt>
      <trkpt lat="37.316844" lon="-4.330448">
        <ele>496.065</ele>
        <time>2014-11-08T11:34:27Z</time>
      </trkpt>
      <trkpt lat="37.316884" lon="-4.330344">
        <ele>496.088</ele>
        <time>2014-11-08T11:34:33Z</time>
      </trkpt>
      <trkpt lat="37.316919" lon="-4.330223">
        <ele>497.076</ele>
        <time>2014-11-08T11:34:39Z</time>
      </trkpt>
      <trkpt lat="37.316969" lon="-4.330125">
        <ele>498.050</ele>
        <time>2014-11-08T11:34:45Z</time>
      </trkpt>
      <trkpt lat="37.316993" lon="-4.330075">
        <ele>495.043</ele>
        <time>2014-11-08T11:35:22Z</time>
      </trkpt>
      <trkpt lat="37.317064" lon="-4.329986">
        <ele>495.064</ele>
        <time>2014-11-08T11:35:30Z</time>
      </trkpt>
      <trkpt lat="37.317131" lon="-4.329904">
        <ele>494.010</ele>
        <time>2014-11-08T11:35:37Z</time>
      </trkpt>
      <trkpt lat="37.317197" lon="-4.329810">
        <ele>493.007</ele>
        <time>2014-11-08T11:35:44Z</time>
      </trkpt>
      <trkpt lat="37.317247" lon="-4.329721">
        <ele>492.062</ele>
        <time>2014-11-08T11:35:54Z</time>
      </trkpt>
      <trkpt lat="37.317295" lon="-4.329620">
        <ele>491.076</ele>
        <time>2014-11-08T11:36:01Z</time>
      </trkpt>
      <trkpt lat="37.317346" lon="-4.329524">
        <ele>489.074</ele>
        <time>2014-11-08T11:36:07Z</time>
      </trkpt>
      <trkpt lat="37.317424" lon="-4.329437">
        <ele>491.023</ele>
        <time>2014-11-08T11:36:17Z</time>
      </trkpt>
      <trkpt lat="37.317495" lon="-4.329352">
        <ele>492.046</ele>
        <time>2014-11-08T11:36:24Z</time>
      </trkpt>
      <trkpt lat="37.317573" lon="-4.329265">
        <ele>494.074</ele>
        <time>2014-11-08T11:36:32Z</time>
      </trkpt>
      <trkpt lat="37.317620" lon="-4.329245">
        <ele>493.088</ele>
        <time>2014-11-08T11:36:43Z</time>
      </trkpt>
      <trkpt lat="37.317688" lon="-4.329165">
        <ele>490.027</ele>
        <time>2014-11-08T11:36:50Z</time>
      </trkpt>
      <trkpt lat="37.317774" lon="-4.329096">
        <ele>494.068</ele>
        <time>2014-11-08T11:36:59Z</time>
      </trkpt>
      <trkpt lat="37.317861" lon="-4.329048">
        <ele>502.014</ele>
        <time>2014-11-08T11:37:08Z</time>
      </trkpt>
      <trkpt lat="37.317936" lon="-4.329038">
        <ele>503.007</ele>
        <time>2014-11-08T11:37:18Z</time>
      </trkpt>
      <trkpt lat="37.318018" lon="-4.328989">
        <ele>503.040</ele>
        <time>2014-11-08T11:37:24Z</time>
      </trkpt>
      <trkpt lat="37.318119" lon="-4.328947">
        <ele>500.084</ele>
        <time>2014-11-08T11:37:30Z</time>
      </trkpt>
      <trkpt lat="37.318210" lon="-4.328902">
        <ele>499.022</ele>
        <time>2014-11-08T11:37:36Z</time>
      </trkpt>
      <trkpt lat="37.318293" lon="-4.328855">
        <ele>498.081</ele>
        <time>2014-11-08T11:37:42Z</time>
      </trkpt>
      <trkpt lat="37.318380" lon="-4.328805">
        <ele>499.084</ele>
        <time>2014-11-08T11:37:49Z</time>
      </trkpt>
      <trkpt lat="37.318460" lon="-4.328734">
        <ele>500.062</ele>
        <time>2014-11-08T11:37:56Z</time>
      </trkpt>
      <trkpt lat="37.318539" lon="-4.328675">
        <ele>500.036</ele>
        <time>2014-11-08T11:38:03Z</time>
      </trkpt>
      <trkpt lat="37.318633" lon="-4.328625">
        <ele>500.036</ele>
        <time>2014-11-08T11:38:11Z</time>
      </trkpt>
      <trkpt lat="37.318712" lon="-4.328545">
        <ele>501.017</ele>
        <time>2014-11-08T11:38:18Z</time>
      </trkpt>
      <trkpt lat="37.318785" lon="-4.328462">
        <ele>499.018</ele>
        <time>2014-11-08T11:38:25Z</time>
      </trkpt>
      <trkpt lat="37.318856" lon="-4.328379">
        <ele>500.007</ele>
        <time>2014-11-08T11:38:32Z</time>
      </trkpt>
      <trkpt lat="37.318886" lon="-4.328336">
        <ele>502.041</ele>
        <time>2014-11-08T11:38:44Z</time>
      </trkpt>
      <trkpt lat="37.318947" lon="-4.328239">
        <ele>502.045</ele>
        <time>2014-11-08T11:38:51Z</time>
      </trkpt>
      <trkpt lat="37.319008" lon="-4.328151">
        <ele>502.093</ele>
        <time>2014-11-08T11:38:57Z</time>
      </trkpt>
      <trkpt lat="37.319070" lon="-4.328068">
        <ele>502.022</ele>
        <time>2014-11-08T11:39:03Z</time>
      </trkpt>
      <trkpt lat="37.319147" lon="-4.328007">
        <ele>504.095</ele>
        <time>2014-11-08T11:39:10Z</time>
      </trkpt>
      <trkpt lat="37.319229" lon="-4.327955">
        <ele>503.063</ele>
        <time>2014-11-08T11:39:18Z</time>
      </trkpt>
      <trkpt lat="37.319302" lon="-4.327879">
        <ele>504.077</ele>
        <time>2014-11-08T11:39:28Z</time>
      </trkpt>
      <trkpt lat="37.319374" lon="-4.327860">
        <ele>505.065</ele>
        <time>2014-11-08T11:39:38Z</time>
      </trkpt>
      <trkpt lat="37.319468" lon="-4.327828">
        <ele>502.068</ele>
        <time>2014-11-08T11:39:47Z</time>
      </trkpt>
      <trkpt lat="37.319529" lon="-4.327770">
        <ele>508.014</ele>
        <time>2014-11-08T11:39:57Z</time>
      </trkpt>
      <trkpt lat="37.319620" lon="-4.327762">
        <ele>508.007</ele>
        <time>2014-11-08T11:40:06Z</time>
      </trkpt>
      <trkpt lat="37.319717" lon="-4.327770">
        <ele>507.054</ele>
        <time>2014-11-08T11:40:15Z</time>
      </trkpt>
      <trkpt lat="37.319817" lon="-4.327763">
        <ele>506.088</ele>
        <time>2014-11-08T11:40:22Z</time>
      </trkpt>
      <trkpt lat="37.319910" lon="-4.327753">
        <ele>504.046</ele>
        <time>2014-11-08T11:40:30Z</time>
      </trkpt>
      <trkpt lat="37.319999" lon="-4.327732">
        <ele>503.035</ele>
        <time>2014-11-08T11:40:37Z</time>
      </trkpt>
      <trkpt lat="37.320088" lon="-4.327702">
        <ele>505.048</ele>
        <time>2014-11-08T11:40:44Z</time>
      </trkpt>
      <trkpt lat="37.320180" lon="-4.327702">
        <ele>506.056</ele>
        <time>2014-11-08T11:40:54Z</time>
      </trkpt>
      <trkpt lat="37.320268" lon="-4.327653">
        <ele>504.070</ele>
        <time>2014-11-08T11:41:00Z</time>
      </trkpt>
      <trkpt lat="37.320358" lon="-4.327633">
        <ele>503.058</ele>
        <time>2014-11-08T11:41:07Z</time>
      </trkpt>
      <trkpt lat="37.320418" lon="-4.327616">
        <ele>504.052</ele>
        <time>2014-11-08T11:41:17Z</time>
      </trkpt>
      <trkpt lat="37.320470" lon="-4.327595">
        <ele>501.017</ele>
        <time>2014-11-08T11:41:29Z</time>
      </trkpt>
      <trkpt lat="37.320562" lon="-4.327565">
        <ele>499.007</ele>
        <time>2014-11-08T11:41:38Z</time>
      </trkpt>
      <trkpt lat="37.320633" lon="-4.327596">
        <ele>501.093</ele>
        <time>2014-11-08T11:41:48Z</time>
      </trkpt>
      <trkpt lat="37.320656" lon="-4.327589">
        <ele>504.067</ele>
        <time>2014-11-08T11:42:28Z</time>
      </trkpt>
      <trkpt lat="37.320697" lon="-4.327559">
        <ele>503.025</ele>
        <time>2014-11-08T11:42:59Z</time>
      </trkpt>
      <trkpt lat="37.320795" lon="-4.327549">
        <ele>500.094</ele>
        <time>2014-11-08T11:43:09Z</time>
      </trkpt>
      <trkpt lat="37.320891" lon="-4.327550">
        <ele>498.027</ele>
        <time>2014-11-08T11:43:17Z</time>
      </trkpt>
      <trkpt lat="37.320981" lon="-4.327563">
        <ele>495.055</ele>
        <time>2014-11-08T11:43:26Z</time>
      </trkpt>
      <trkpt lat="37.321051" lon="-4.327539">
        <ele>493.089</ele>
        <time>2014-11-08T11:43:36Z</time>
      </trkpt>
      <trkpt lat="37.321140" lon="-4.327576">
        <ele>496.028</ele>
        <time>2014-11-08T11:43:46Z</time>
      </trkpt>
      <trkpt lat="37.321222" lon="-4.327499">
        <ele>504.089</ele>
        <time>2014-11-08T11:43:53Z</time>
      </trkpt>
      <trkpt lat="37.321237" lon="-4.327423">
        <ele>508.017</ele>
        <time>2014-11-08T11:44:03Z</time>
      </trkpt>
      <trkpt lat="37.321288" lon="-4.327429">
        <ele>504.007</ele>
        <time>2014-11-08T11:44:14Z</time>
      </trkpt>
      <trkpt lat="37.321380" lon="-4.327430">
        <ele>504.040</ele>
        <time>2014-11-08T11:44:22Z</time>
      </trkpt>
      <trkpt lat="37.321428" lon="-4.327468">
        <ele>499.064</ele>
        <time>2014-11-08T11:44:32Z</time>
      </trkpt>
      <trkpt lat="37.321486" lon="-4.327431">
        <ele>502.062</ele>
        <time>2014-11-08T11:44:42Z</time>
      </trkpt>
      <trkpt lat="37.321557" lon="-4.327394">
        <ele>507.081</ele>
        <time>2014-11-08T11:44:52Z</time>
      </trkpt>
      <trkpt lat="37.321601" lon="-4.327416">
        <ele>515.094</ele>
        <time>2014-11-08T11:45:05Z</time>
      </trkpt>
      <trkpt lat="37.321687" lon="-4.327407">
        <ele>514.092</ele>
        <time>2014-11-08T11:45:15Z</time>
      </trkpt>
      <trkpt lat="37.321751" lon="-4.327426">
        <ele>513.046</ele>
        <time>2014-11-08T11:45:25Z</time>
      </trkpt>
      <trkpt lat="37.321797" lon="-4.327415">
        <ele>516.021</ele>
        <time>2014-11-08T11:45:36Z</time>
      </trkpt>
      <trkpt lat="37.321857" lon="-4.327368">
        <ele>520.041</ele>
        <time>2014-11-08T11:45:47Z</time>
      </trkpt>
      <trkpt lat="37.321905" lon="-4.327373">
        <ele>523.005</ele>
        <time>2014-11-08T11:46:05Z</time>
      </trkpt>
      <trkpt lat="37.321950" lon="-4.327357">
        <ele>523.007</ele>
        <time>2014-11-08T11:46:21Z</time>
      </trkpt>
      <trkpt lat="37.321968" lon="-4.327296">
        <ele>524.020</ele>
        <time>2014-11-08T11:46:31Z</time>
      </trkpt>
      <trkpt lat="37.322013" lon="-4.327303">
        <ele>524.044</ele>
        <time>2014-11-08T11:46:52Z</time>
      </trkpt>
      <trkpt lat="37.322073" lon="-4.327270">
        <ele>525.092</ele>
        <time>2014-11-08T11:47:02Z</time>
      </trkpt>
      <trkpt lat="37.322133" lon="-4.327228">
        <ele>525.081</ele>
        <time>2014-11-08T11:47:12Z</time>
      </trkpt>
      <trkpt lat="37.322179" lon="-4.327210">
        <ele>529.034</ele>
        <time>2014-11-08T11:47:24Z</time>
      </trkpt>
      <trkpt lat="37.322222" lon="-4.327190">
        <ele>535.022</ele>
        <time>2014-11-08T11:47:56Z</time>
      </trkpt>
      <trkpt lat="37.322253" lon="-4.327148">
        <ele>535.026</ele>
        <time>2014-11-08T11:48:16Z</time>
      </trkpt>
      <trkpt lat="37.322298" lon="-4.327141">
        <ele>536.081</ele>
        <time>2014-11-08T11:48:35Z</time>
      </trkpt>
      <trkpt lat="37.322298" lon="-4.327084">
        <ele>543.061</ele>
        <time>2014-11-08T11:48:55Z</time>
      </trkpt>
      <trkpt lat="37.322342" lon="-4.327069">
        <ele>541.017</ele>
        <time>2014-11-08T11:49:09Z</time>
      </trkpt>
      <trkpt lat="37.322390" lon="-4.327075">
        <ele>536.007</ele>
        <time>2014-11-08T11:49:20Z</time>
      </trkpt>
      <trkpt lat="37.322431" lon="-4.327048">
        <ele>540.076</ele>
        <time>2014-11-08T11:49:36Z</time>
      </trkpt>
      <trkpt lat="37.322429" lon="-4.326985">
        <ele>548.030</ele>
        <time>2014-11-08T11:49:52Z</time>
      </trkpt>
      <trkpt lat="37.322441" lon="-4.326930">
        <ele>552.068</ele>
        <time>2014-11-08T11:50:26Z</time>
      </trkpt>
      <trkpt lat="37.322425" lon="-4.326875">
        <ele>555.037</ele>
        <time>2014-11-08T11:50:54Z</time>
      </trkpt>
      <trkpt lat="37.322439" lon="-4.326821">
        <ele>550.070</ele>
        <time>2014-11-08T11:51:23Z</time>
      </trkpt>
      <trkpt lat="37.322447" lon="-4.326763">
        <ele>724.088</ele>
        <time>2014-11-08T11:51:46Z</time>
      </trkpt>
      <trkpt lat="37.322431" lon="-4.326708">
        <ele>726.072</ele>
        <time>2014-11-08T11:51:56Z</time>
      </trkpt>
      <trkpt lat="37.322382" lon="-4.326706">
        <ele>716.094</ele>
        <time>2014-11-08T11:52:19Z</time>
      </trkpt>
      <trkpt lat="37.322290" lon="-4.326696">
        <ele>706.057</ele>
        <time>2014-11-08T11:52:33Z</time>
      </trkpt>
      <trkpt lat="37.322268" lon="-4.326727">
        <ele>563.022</ele>
        <time>2014-11-08T11:53:14Z</time>
      </trkpt>
      <trkpt lat="37.322305" lon="-4.326721">
        <ele>557.007</ele>
        <time>2014-11-08T11:53:54Z</time>
      </trkpt>
      <trkpt lat="37.322344" lon="-4.326674">
        <ele>555.047</ele>
        <time>2014-11-08T11:54:04Z</time>
      </trkpt>
      <trkpt lat="37.322359" lon="-4.326619">
        <ele>551.081</ele>
        <time>2014-11-08T11:54:24Z</time>
      </trkpt>
      <trkpt lat="37.322384" lon="-4.326571">
        <ele>555.039</ele>
        <time>2014-11-08T11:54:48Z</time>
      </trkpt>
      <trkpt lat="37.322429" lon="-4.326562">
        <ele>555.048</ele>
        <time>2014-11-08T11:55:10Z</time>
      </trkpt>
      <trkpt lat="37.322441" lon="-4.326616">
        <ele>551.021</ele>
        <time>2014-11-08T11:55:31Z</time>
      </trkpt>
      <trkpt lat="37.322485" lon="-4.326605">
        <ele>552.069</ele>
        <time>2014-11-08T11:55:55Z</time>
      </trkpt>
      <trkpt lat="37.322531" lon="-4.326627">
        <ele>553.093</ele>
        <time>2014-11-08T11:56:19Z</time>
      </trkpt>
      <trkpt lat="37.322572" lon="-4.326599">
        <ele>552.033</ele>
        <time>2014-11-08T11:56:30Z</time>
      </trkpt>
      <trkpt lat="37.322601" lon="-4.326552">
        <ele>556.023</ele>
        <time>2014-11-08T11:56:43Z</time>
      </trkpt>
      <trkpt lat="37.322639" lon="-4.326516">
        <ele>558.015</ele>
        <time>2014-11-08T11:57:09Z</time>
      </trkpt>
      <trkpt lat="37.322682" lon="-4.326490">
        <ele>560.007</ele>
        <time>2014-11-08T11:57:21Z</time>
      </trkpt>
      <trkpt lat="37.322669" lon="-4.326485">
        <ele>566.081</ele>
        <time>2014-11-08T11:58:02Z</time>
      </trkpt>
      <trkpt lat="37.322693" lon="-4.326375">
        <ele>566.075</ele>
        <time>2014-11-08T11:58:12Z</time>
      </trkpt>
      <trkpt lat="37.322717" lon="-4.326309">
        <ele>563.023</ele>
        <time>2014-11-08T11:58:22Z</time>
      </trkpt>
      <trkpt lat="37.322746" lon="-4.326259">
        <ele>565.022</ele>
        <time>2014-11-08T11:58:43Z</time>
      </trkpt>
      <trkpt lat="37.322770" lon="-4.326206">
        <ele>564.075</ele>
        <time>2014-11-08T11:58:53Z</time>
      </trkpt>
      <trkpt lat="37.322802" lon="-4.326165">
        <ele>563.053</ele>
        <time>2014-11-08T11:59:03Z</time>
      </trkpt>
      <trkpt lat="37.322844" lon="-4.326143">
        <ele>569.077</ele>
        <time>2014-11-08T11:59:40Z</time>
      </trkpt>
      <trkpt lat="37.322859" lon="-4.326127">
        <ele>715.031</ele>
        <time>2014-11-08T12:00:20Z</time>
      </trkpt>
      <trkpt lat="37.322902" lon="-4.326150">
        <ele>582.061</ele>
        <time>2014-11-08T12:00:56Z</time>
      </trkpt>
      <trkpt lat="37.322949" lon="-4.326172">
        <ele>582.007</ele>
        <time>2014-11-08T12:01:14Z</time>
      </trkpt>
      <trkpt lat="37.322963" lon="-4.326190">
        <ele>580.007</ele>
        <time>2014-11-08T12:01:55Z</time>
      </trkpt>
      <trkpt lat="37.322979" lon="-4.326131">
        <ele>587.021</ele>
        <time>2014-11-08T12:02:06Z</time>
      </trkpt>
      <trkpt lat="37.323017" lon="-4.326052">
        <ele>586.085</ele>
        <time>2014-11-08T12:02:16Z</time>
      </trkpt>
      <trkpt lat="37.323058" lon="-4.326079">
        <ele>589.073</ele>
        <time>2014-11-08T12:02:32Z</time>
      </trkpt>
      <trkpt lat="37.323091" lon="-4.326033">
        <ele>593.022</ele>
        <time>2014-11-08T12:02:46Z</time>
      </trkpt>
      <trkpt lat="37.323105" lon="-4.325971">
        <ele>590.025</ele>
        <time>2014-11-08T12:02:56Z</time>
      </trkpt>
      <trkpt lat="37.323089" lon="-4.325923">
        <ele>592.083</ele>
        <time>2014-11-08T12:03:36Z</time>
      </trkpt>
      <trkpt lat="37.323096" lon="-4.325886">
        <ele>599.087</ele>
        <time>2014-11-08T12:04:17Z</time>
      </trkpt>
      <trkpt lat="37.323103" lon="-4.325820">
        <ele>599.068</ele>
        <time>2014-11-08T12:04:27Z</time>
      </trkpt>
      <trkpt lat="37.323146" lon="-4.325843">
        <ele>594.042</ele>
        <time>2014-11-08T12:04:52Z</time>
      </trkpt>
      <trkpt lat="37.323197" lon="-4.325843">
        <ele>593.026</ele>
        <time>2014-11-08T12:05:16Z</time>
      </trkpt>
      <trkpt lat="37.323257" lon="-4.325828">
        <ele>592.007</ele>
        <time>2014-11-08T12:05:27Z</time>
      </trkpt>
      <trkpt lat="37.323300" lon="-4.325780">
        <ele>594.034</ele>
        <time>2014-11-08T12:05:37Z</time>
      </trkpt>
      <trkpt lat="37.323354" lon="-4.325760">
        <ele>592.028</ele>
        <time>2014-11-08T12:05:47Z</time>
      </trkpt>
      <trkpt lat="37.323404" lon="-4.325714">
        <ele>590.056</ele>
        <time>2014-11-08T12:05:57Z</time>
      </trkpt>
      <trkpt lat="37.323477" lon="-4.325722">
        <ele>588.055</ele>
        <time>2014-11-08T12:06:07Z</time>
      </trkpt>
      <trkpt lat="37.323502" lon="-4.325641">
        <ele>600.018</ele>
        <time>2014-11-08T12:06:17Z</time>
      </trkpt>
      <trkpt lat="37.323507" lon="-4.325595">
        <ele>604.076</ele>
        <time>2014-11-08T12:06:57Z</time>
      </trkpt>
      <trkpt lat="37.323542" lon="-4.325558">
        <ele>607.010</ele>
        <time>2014-11-08T12:07:20Z</time>
      </trkpt>
      <trkpt lat="37.323570" lon="-4.325510">
        <ele>607.078</ele>
        <time>2014-11-08T12:07:34Z</time>
      </trkpt>
      <trkpt lat="37.323636" lon="-4.325480">
        <ele>605.033</ele>
        <time>2014-11-08T12:07:44Z</time>
      </trkpt>
      <trkpt lat="37.323642" lon="-4.325392">
        <ele>610.026</ele>
        <time>2014-11-08T12:07:54Z</time>
      </trkpt>
      <trkpt lat="37.323630" lon="-4.325336">
        <ele>613.007</ele>
        <time>2014-11-08T12:08:06Z</time>
      </trkpt>
      <trkpt lat="37.323672" lon="-4.325302">
        <ele>612.075</ele>
        <time>2014-11-08T12:08:22Z</time>
      </trkpt>
      <trkpt lat="37.323671" lon="-4.325203">
        <ele>618.089</ele>
        <time>2014-11-08T12:08:32Z</time>
      </trkpt>
      <trkpt lat="37.323697" lon="-4.325134">
        <ele>615.087</ele>
        <time>2014-11-08T12:08:42Z</time>
      </trkpt>
      <trkpt lat="37.323733" lon="-4.325073">
        <ele>614.026</ele>
        <time>2014-11-08T12:08:52Z</time>
      </trkpt>
      <trkpt lat="37.323758" lon="-4.325019">
        <ele>611.059</ele>
        <time>2014-11-08T12:09:02Z</time>
      </trkpt>
      <trkpt lat="37.323778" lon="-4.324956">
        <ele>611.027</ele>
        <time>2014-11-08T12:09:12Z</time>
      </trkpt>
      <trkpt lat="37.323798" lon="-4.324904">
        <ele>612.011</ele>
        <time>2014-11-08T12:09:23Z</time>
      </trkpt>
      <trkpt lat="37.323781" lon="-4.324833">
        <ele>617.025</ele>
        <time>2014-11-08T12:09:34Z</time>
      </trkpt>
      <trkpt lat="37.323787" lon="-4.324766">
        <ele>618.026</ele>
        <time>2014-11-08T12:09:44Z</time>
      </trkpt>
      <trkpt lat="37.323776" lon="-4.324669">
        <ele>619.008</ele>
        <time>2014-11-08T12:09:54Z</time>
      </trkpt>
      <trkpt lat="37.323761" lon="-4.324599">
        <ele>614.007</ele>
        <time>2014-11-08T12:10:04Z</time>
      </trkpt>
      <trkpt lat="37.323745" lon="-4.324513">
        <ele>613.020</ele>
        <time>2014-11-08T12:10:14Z</time>
      </trkpt>
      <trkpt lat="37.323736" lon="-4.324441">
        <ele>614.014</ele>
        <time>2014-11-08T12:10:24Z</time>
      </trkpt>
      <trkpt lat="37.323754" lon="-4.324384">
        <ele>609.062</ele>
        <time>2014-11-08T12:10:35Z</time>
      </trkpt>
      <trkpt lat="37.323776" lon="-4.324327">
        <ele>606.071</ele>
        <time>2014-11-08T12:10:45Z</time>
      </trkpt>
      <trkpt lat="37.323815" lon="-4.324268">
        <ele>580.054</ele>
        <time>2014-11-08T12:10:56Z</time>
      </trkpt>
      <trkpt lat="37.323854" lon="-4.324238">
        <ele>601.032</ele>
        <time>2014-11-08T12:11:33Z</time>
      </trkpt>
      <trkpt lat="37.323894" lon="-4.324178">
        <ele>608.046</ele>
        <time>2014-11-08T12:11:43Z</time>
      </trkpt>
      <trkpt lat="37.323904" lon="-4.324121">
        <ele>609.087</ele>
        <time>2014-11-08T12:11:53Z</time>
      </trkpt>
      <trkpt lat="37.323926" lon="-4.324060">
        <ele>612.042</ele>
        <time>2014-11-08T12:12:03Z</time>
      </trkpt>
      <trkpt lat="37.323938" lon="-4.323988">
        <ele>610.026</ele>
        <time>2014-11-08T12:12:13Z</time>
      </trkpt>
      <trkpt lat="37.323923" lon="-4.323929">
        <ele>612.007</ele>
        <time>2014-11-08T12:12:30Z</time>
      </trkpt>
      <trkpt lat="37.323882" lon="-4.323841">
        <ele>615.046</ele>
        <time>2014-11-08T12:12:40Z</time>
      </trkpt>
      <trkpt lat="37.323895" lon="-4.323786">
        <ele>609.050</ele>
        <time>2014-11-08T12:13:01Z</time>
      </trkpt>
      <trkpt lat="37.323926" lon="-4.323745">
        <ele>606.068</ele>
        <time>2014-11-08T12:13:14Z</time>
      </trkpt>
      <trkpt lat="37.323955" lon="-4.323702">
        <ele>605.047</ele>
        <time>2014-11-08T12:13:27Z</time>
      </trkpt>
      <trkpt lat="37.323974" lon="-4.323649">
        <ele>599.060</ele>
        <time>2014-11-08T12:13:45Z</time>
      </trkpt>
      <trkpt lat="37.323953" lon="-4.323598">
        <ele>601.098</ele>
        <time>2014-11-08T12:14:14Z</time>
      </trkpt>
      <trkpt lat="37.323920" lon="-4.323554">
        <ele>601.072</ele>
        <time>2014-11-08T12:14:49Z</time>
      </trkpt>
      <trkpt lat="37.323925" lon="-4.323495">
        <ele>610.085</ele>
        <time>2014-11-08T12:15:29Z</time>
      </trkpt>
      <trkpt lat="37.323952" lon="-4.323446">
        <ele>614.089</ele>
        <time>2014-11-08T12:15:44Z</time>
      </trkpt>
      <trkpt lat="37.323989" lon="-4.323412">
        <ele>616.017</ele>
        <time>2014-11-08T12:16:00Z</time>
      </trkpt>
      <trkpt lat="37.324028" lon="-4.323323">
        <ele>619.007</ele>
        <time>2014-11-08T12:16:10Z</time>
      </trkpt>
      <trkpt lat="37.324026" lon="-4.323246">
        <ele>617.086</ele>
        <time>2014-11-08T12:16:20Z</time>
      </trkpt>
      <trkpt lat="37.324016" lon="-4.323144">
        <ele>613.070</ele>
        <time>2014-11-08T12:16:30Z</time>
      </trkpt>
      <trkpt lat="37.324001" lon="-4.323051">
        <ele>613.078</ele>
        <time>2014-11-08T12:16:41Z</time>
      </trkpt>
      <trkpt lat="37.323993" lon="-4.323001">
        <ele>618.057</ele>
        <time>2014-11-08T12:17:21Z</time>
      </trkpt>
      <trkpt lat="37.324012" lon="-4.323043">
        <ele>625.040</ele>
        <time>2014-11-08T12:18:02Z</time>
      </trkpt>
      <trkpt lat="37.324007" lon="-4.323074">
        <ele>632.018</ele>
        <time>2014-11-08T12:18:42Z</time>
      </trkpt>
      <trkpt lat="37.324007" lon="-4.323013">
        <ele>625.032</ele>
        <time>2014-11-08T12:19:01Z</time>
      </trkpt>
      <trkpt lat="37.323997" lon="-4.322956">
        <ele>622.026</ele>
        <time>2014-11-08T12:19:13Z</time>
      </trkpt>
      <trkpt lat="37.324004" lon="-4.322879">
        <ele>621.047</ele>
        <time>2014-11-08T12:19:23Z</time>
      </trkpt>
      <trkpt lat="37.323998" lon="-4.322816">
        <ele>620.011</ele>
        <time>2014-11-08T12:19:33Z</time>
      </trkpt>
      <trkpt lat="37.323973" lon="-4.322768">
        <ele>621.007</ele>
        <time>2014-11-08T12:19:43Z</time>
      </trkpt>
      <trkpt lat="37.323970" lon="-4.322709">
        <ele>624.060</ele>
        <time>2014-11-08T12:19:53Z</time>
      </trkpt>
      <trkpt lat="37.323988" lon="-4.322628">
        <ele>626.024</ele>
        <time>2014-11-08T12:20:04Z</time>
      </trkpt>
      <trkpt lat="37.324024" lon="-4.322541">
        <ele>626.092</ele>
        <time>2014-11-08T12:20:14Z</time>
      </trkpt>
      <trkpt lat="37.324041" lon="-4.322474">
        <ele>625.021</ele>
        <time>2014-11-08T12:20:24Z</time>
      </trkpt>
      <trkpt lat="37.324059" lon="-4.322416">
        <ele>623.024</ele>
        <time>2014-11-08T12:20:34Z</time>
      </trkpt>
      <trkpt lat="37.324091" lon="-4.322375">
        <ele>623.072</ele>
        <time>2014-11-08T12:21:01Z</time>
      </trkpt>
      <trkpt lat="37.324103" lon="-4.322283">
        <ele>617.066</ele>
        <time>2014-11-08T12:21:11Z</time>
      </trkpt>
      <trkpt lat="37.324166" lon="-4.322241">
        <ele>613.013</ele>
        <time>2014-11-08T12:21:21Z</time>
      </trkpt>
      <trkpt lat="37.324198" lon="-4.322196">
        <ele>611.043</ele>
        <time>2014-11-08T12:21:37Z</time>
      </trkpt>
      <trkpt lat="37.324232" lon="-4.322159">
        <ele>605.007</ele>
        <time>2014-11-08T12:21:52Z</time>
      </trkpt>
      <trkpt lat="37.324285" lon="-4.322161">
        <ele>600.007</ele>
        <time>2014-11-08T12:22:02Z</time>
      </trkpt>
      <trkpt lat="37.324325" lon="-4.322133">
        <ele>602.099</ele>
        <time>2014-11-08T12:22:18Z</time>
      </trkpt>
      <trkpt lat="37.324361" lon="-4.322060">
        <ele>606.093</ele>
        <time>2014-11-08T12:22:29Z</time>
      </trkpt>
      <trkpt lat="37.324396" lon="-4.322020">
        <ele>608.041</ele>
        <time>2014-11-08T12:22:41Z</time>
      </trkpt>
      <trkpt lat="37.324419" lon="-4.321965">
        <ele>615.050</ele>
        <time>2014-11-08T12:23:07Z</time>
      </trkpt>
      <trkpt lat="37.324480" lon="-4.321870">
        <ele>624.083</ele>
        <time>2014-11-08T12:23:17Z</time>
      </trkpt>
      <trkpt lat="37.324472" lon="-4.321756">
        <ele>627.091</ele>
        <time>2014-11-08T12:23:27Z</time>
      </trkpt>
      <trkpt lat="37.324506" lon="-4.321709">
        <ele>625.095</ele>
        <time>2014-11-08T12:23:37Z</time>
      </trkpt>
      <trkpt lat="37.324545" lon="-4.321620">
        <ele>623.084</ele>
        <time>2014-11-08T12:23:47Z</time>
      </trkpt>
      <trkpt lat="37.324591" lon="-4.321619">
        <ele>623.007</ele>
        <time>2014-11-08T12:24:13Z</time>
      </trkpt>
      <trkpt lat="37.324627" lon="-4.321630">
        <ele>622.017</ele>
        <time>2014-11-08T12:24:53Z</time>
      </trkpt>
      <trkpt lat="37.324671" lon="-4.321617">
        <ele>626.007</ele>
        <time>2014-11-08T12:25:11Z</time>
      </trkpt>
      <trkpt lat="37.324724" lon="-4.321636">
        <ele>628.066</ele>
        <time>2014-11-08T12:25:21Z</time>
      </trkpt>
      <trkpt lat="37.324771" lon="-4.321624">
        <ele>631.040</ele>
        <time>2014-11-08T12:25:43Z</time>
      </trkpt>
      <trkpt lat="37.324818" lon="-4.321621">
        <ele>631.018</ele>
        <time>2014-11-08T12:25:54Z</time>
      </trkpt>
      <trkpt lat="37.324860" lon="-4.321595">
        <ele>628.067</ele>
        <time>2014-11-08T12:26:05Z</time>
      </trkpt>
      <trkpt lat="37.324887" lon="-4.321549">
        <ele>629.010</ele>
        <time>2014-11-08T12:26:17Z</time>
      </trkpt>
      <trkpt lat="37.324919" lon="-4.321506">
        <ele>630.088</ele>
        <time>2014-11-08T12:26:37Z</time>
      </trkpt>
      <trkpt lat="37.324954" lon="-4.321456">
        <ele>630.062</ele>
        <time>2014-11-08T12:26:47Z</time>
      </trkpt>
      <trkpt lat="37.324983" lon="-4.321405">
        <ele>630.016</ele>
        <time>2014-11-08T12:27:00Z</time>
      </trkpt>
      <trkpt lat="37.325016" lon="-4.321366">
        <ele>630.076</ele>
        <time>2014-11-08T12:27:24Z</time>
      </trkpt>
      <trkpt lat="37.325058" lon="-4.321339">
        <ele>632.013</ele>
        <time>2014-11-08T12:27:38Z</time>
      </trkpt>
      <trkpt lat="37.325109" lon="-4.321321">
        <ele>629.007</ele>
        <time>2014-11-08T12:27:48Z</time>
      </trkpt>
      <trkpt lat="37.325148" lon="-4.321289">
        <ele>624.049</ele>
        <time>2014-11-08T12:28:01Z</time>
      </trkpt>
      <trkpt lat="37.325189" lon="-4.321264">
        <ele>623.093</ele>
        <time>2014-11-08T12:28:12Z</time>
      </trkpt>
      <trkpt lat="37.325200" lon="-4.321208">
        <ele>622.071</ele>
        <time>2014-11-08T12:28:53Z</time>
      </trkpt>
      <trkpt lat="37.325246" lon="-4.321194">
        <ele>618.070</ele>
        <time>2014-11-08T12:29:10Z</time>
      </trkpt>
      <trkpt lat="37.325298" lon="-4.321189">
        <ele>616.023</ele>
        <time>2014-11-08T12:29:20Z</time>
      </trkpt>
      <trkpt lat="37.325336" lon="-4.321146">
        <ele>616.031</ele>
        <time>2014-11-08T12:29:30Z</time>
      </trkpt>
      <trkpt lat="37.325399" lon="-4.321088">
        <ele>616.095</ele>
        <time>2014-11-08T12:29:40Z</time>
      </trkpt>
      <trkpt lat="37.325460" lon="-4.321019">
        <ele>616.063</ele>
        <time>2014-11-08T12:29:50Z</time>
      </trkpt>
      <trkpt lat="37.325505" lon="-4.320974">
        <ele>614.044</ele>
        <time>2014-11-08T12:30:00Z</time>
      </trkpt>
      <trkpt lat="37.325556" lon="-4.320887">
        <ele>623.018</ele>
        <time>2014-11-08T12:30:10Z</time>
      </trkpt>
      <trkpt lat="37.325582" lon="-4.320875">
        <ele>614.007</ele>
        <time>2014-11-08T12:30:51Z</time>
      </trkpt>
      <trkpt lat="37.325618" lon="-4.320836">
        <ele>613.094</ele>
        <time>2014-11-08T12:31:10Z</time>
      </trkpt>
      <trkpt lat="37.325633" lon="-4.320781">
        <ele>621.028</ele>
        <time>2014-11-08T12:31:41Z</time>
      </trkpt>
      <trkpt lat="37.325651" lon="-4.320726">
        <ele>623.076</ele>
        <time>2014-11-08T12:31:56Z</time>
      </trkpt>
      <trkpt lat="37.325672" lon="-4.320669">
        <ele>623.025</ele>
        <time>2014-11-08T12:32:07Z</time>
      </trkpt>
      <trkpt lat="37.325694" lon="-4.320561">
        <ele>626.078</ele>
        <time>2014-11-08T12:32:17Z</time>
      </trkpt>
      <trkpt lat="37.325737" lon="-4.320538">
        <ele>619.066</ele>
        <time>2014-11-08T12:32:42Z</time>
      </trkpt>
      <trkpt lat="37.325747" lon="-4.320423">
        <ele>622.050</ele>
        <time>2014-11-08T12:32:51Z</time>
      </trkpt>
      <trkpt lat="37.325755" lon="-4.320307">
        <ele>623.095</ele>
        <time>2014-11-08T12:32:59Z</time>
      </trkpt>
      <trkpt lat="37.325786" lon="-4.320193">
        <ele>623.049</ele>
        <time>2014-11-08T12:33:09Z</time>
      </trkpt>
      <trkpt lat="37.325789" lon="-4.320134">
        <ele>620.023</ele>
        <time>2014-11-08T12:33:19Z</time>
      </trkpt>
      <trkpt lat="37.325796" lon="-4.320079">
        <ele>621.007</ele>
        <time>2014-11-08T12:33:32Z</time>
      </trkpt>
      <trkpt lat="37.325821" lon="-4.320028">
        <ele>620.077</ele>
        <time>2014-11-08T12:33:58Z</time>
      </trkpt>
      <trkpt lat="37.325856" lon="-4.319974">
        <ele>626.091</ele>
        <time>2014-11-08T12:34:08Z</time>
      </trkpt>
      <trkpt lat="37.325821" lon="-4.319907">
        <ele>633.059</ele>
        <time>2014-11-08T12:34:18Z</time>
      </trkpt>
      <trkpt lat="37.325807" lon="-4.319850">
        <ele>635.058</ele>
        <time>2014-11-08T12:34:37Z</time>
      </trkpt>
      <trkpt lat="37.325795" lon="-4.319730">
        <ele>635.091</ele>
        <time>2014-11-08T12:34:47Z</time>
      </trkpt>
      <trkpt lat="37.325768" lon="-4.319627">
        <ele>633.059</ele>
        <time>2014-11-08T12:34:58Z</time>
      </trkpt>
      <trkpt lat="37.325720" lon="-4.319532">
        <ele>630.023</ele>
        <time>2014-11-08T12:35:08Z</time>
      </trkpt>
      <trkpt lat="37.325713" lon="-4.319457">
        <ele>627.099</ele>
        <time>2014-11-08T12:35:18Z</time>
      </trkpt>
      <trkpt lat="37.325665" lon="-4.319451">
        <ele>629.007</ele>
        <time>2014-11-08T12:35:35Z</time>
      </trkpt>
      <trkpt lat="37.325623" lon="-4.319423">
        <ele>631.027</ele>
        <time>2014-11-08T12:36:00Z</time>
      </trkpt>
      <trkpt lat="37.325585" lon="-4.319390">
        <ele>633.007</ele>
        <time>2014-11-08T12:36:12Z</time>
      </trkpt>
      <trkpt lat="37.325565" lon="-4.319336">
        <ele>634.087</ele>
        <time>2014-11-08T12:36:34Z</time>
      </trkpt>
      <trkpt lat="37.325585" lon="-4.319272">
        <ele>635.011</ele>
        <time>2014-11-08T12:36:44Z</time>
      </trkpt>
      <trkpt lat="37.325607" lon="-4.319218">
        <ele>636.069</ele>
        <time>2014-11-08T12:36:55Z</time>
      </trkpt>
      <trkpt lat="37.325643" lon="-4.319160">
        <ele>635.068</ele>
        <time>2014-11-08T12:37:05Z</time>
      </trkpt>
      <trkpt lat="37.325647" lon="-4.319098">
        <ele>635.071</ele>
        <time>2014-11-08T12:37:19Z</time>
      </trkpt>
      <trkpt lat="37.325674" lon="-4.318999">
        <ele>637.059</ele>
        <time>2014-11-08T12:37:29Z</time>
      </trkpt>
      <trkpt lat="37.325699" lon="-4.318938">
        <ele>636.023</ele>
        <time>2014-11-08T12:37:39Z</time>
      </trkpt>
      <trkpt lat="37.325724" lon="-4.318885">
        <ele>639.081</ele>
        <time>2014-11-08T12:37:49Z</time>
      </trkpt>
      <trkpt lat="37.325754" lon="-4.318810">
        <ele>638.061</ele>
        <time>2014-11-08T12:37:59Z</time>
      </trkpt>
      <trkpt lat="37.325818" lon="-4.318730">
        <ele>638.017</ele>
        <time>2014-11-08T12:38:09Z</time>
      </trkpt>
      <trkpt lat="37.325867" lon="-4.318663">
        <ele>639.007</ele>
        <time>2014-11-08T12:38:19Z</time>
      </trkpt>
      <trkpt lat="37.325903" lon="-4.318607">
        <ele>638.096</ele>
        <time>2014-11-08T12:38:29Z</time>
      </trkpt>
      <trkpt lat="37.325913" lon="-4.318590">
        <ele>643.020</ele>
        <time>2014-11-08T12:39:10Z</time>
      </trkpt>
      <trkpt lat="37.325955" lon="-4.318556">
        <ele>644.038</ele>
        <time>2014-11-08T12:39:46Z</time>
      </trkpt>
      <trkpt lat="37.326014" lon="-4.318483">
        <ele>640.067</ele>
        <time>2014-11-08T12:39:56Z</time>
      </trkpt>
      <trkpt lat="37.326057" lon="-4.318427">
        <ele>640.040</ele>
        <time>2014-11-08T12:40:06Z</time>
      </trkpt>
      <trkpt lat="37.326090" lon="-4.318385">
        <ele>641.028</ele>
        <time>2014-11-08T12:40:18Z</time>
      </trkpt>
      <trkpt lat="37.326159" lon="-4.318330">
        <ele>636.022</ele>
        <time>2014-11-08T12:40:28Z</time>
      </trkpt>
      <trkpt lat="37.326190" lon="-4.318287">
        <ele>637.014</ele>
        <time>2014-11-08T12:40:43Z</time>
      </trkpt>
      <trkpt lat="37.326239" lon="-4.318268">
        <ele>639.054</ele>
        <time>2014-11-08T12:40:53Z</time>
      </trkpt>
      <trkpt lat="37.326286" lon="-4.318265">
        <ele>640.009</ele>
        <time>2014-11-08T12:41:11Z</time>
      </trkpt>
      <trkpt lat="37.326318" lon="-4.318223">
        <ele>644.007</ele>
        <time>2014-11-08T12:41:23Z</time>
      </trkpt>
      <trkpt lat="37.326359" lon="-4.318188">
        <ele>643.099</ele>
        <time>2014-11-08T12:41:37Z</time>
      </trkpt>
      <trkpt lat="37.326414" lon="-4.318151">
        <ele>646.023</ele>
        <time>2014-11-08T12:41:47Z</time>
      </trkpt>
      <trkpt lat="37.326457" lon="-4.318132">
        <ele>648.051</ele>
        <time>2014-11-08T12:42:20Z</time>
      </trkpt>
      <trkpt lat="37.326503" lon="-4.318134">
        <ele>643.050</ele>
        <time>2014-11-08T12:42:34Z</time>
      </trkpt>
      <trkpt lat="37.326552" lon="-4.318135">
        <ele>642.073</ele>
        <time>2014-11-08T12:42:48Z</time>
      </trkpt>
      <trkpt lat="37.326572" lon="-4.318082">
        <ele>644.011</ele>
        <time>2014-11-08T12:43:03Z</time>
      </trkpt>
      <trkpt lat="37.326614" lon="-4.318055">
        <ele>643.065</ele>
        <time>2014-11-08T12:43:18Z</time>
      </trkpt>
      <trkpt lat="37.326666" lon="-4.318069">
        <ele>647.077</ele>
        <time>2014-11-08T12:43:39Z</time>
      </trkpt>
      <trkpt lat="37.326709" lon="-4.318044">
        <ele>649.061</ele>
        <time>2014-11-08T12:43:49Z</time>
      </trkpt>
      <trkpt lat="37.326754" lon="-4.318033">
        <ele>653.027</ele>
        <time>2014-11-08T12:44:27Z</time>
      </trkpt>
      <trkpt lat="37.326806" lon="-4.318059">
        <ele>651.007</ele>
        <time>2014-11-08T12:44:37Z</time>
      </trkpt>
      <trkpt lat="37.326856" lon="-4.318041">
        <ele>658.045</ele>
        <time>2014-11-08T12:44:50Z</time>
      </trkpt>
      <trkpt lat="37.326901" lon="-4.318043">
        <ele>654.069</ele>
        <time>2014-11-08T12:45:03Z</time>
      </trkpt>
      <trkpt lat="37.326943" lon="-4.318009">
        <ele>661.077</ele>
        <time>2014-11-08T12:45:13Z</time>
      </trkpt>
      <trkpt lat="37.326963" lon="-4.317963">
        <ele>666.086</ele>
        <time>2014-11-08T12:45:54Z</time>
      </trkpt>
      <trkpt lat="37.326950" lon="-4.317907">
        <ele>664.099</ele>
        <time>2014-11-08T12:46:05Z</time>
      </trkpt>
      <trkpt lat="37.326945" lon="-4.317845">
        <ele>661.057</ele>
        <time>2014-11-08T12:46:28Z</time>
      </trkpt>
      <trkpt lat="37.326938" lon="-4.317768">
        <ele>659.071</ele>
        <time>2014-11-08T12:46:38Z</time>
      </trkpt>
      <trkpt lat="37.326923" lon="-4.317711">
        <ele>659.072</ele>
        <time>2014-11-08T12:46:52Z</time>
      </trkpt>
      <trkpt lat="37.326878" lon="-4.317690">
        <ele>656.013</ele>
        <time>2014-11-08T12:47:15Z</time>
      </trkpt>
      <trkpt lat="37.326893" lon="-4.317702">
        <ele>654.014</ele>
        <time>2014-11-08T12:47:55Z</time>
      </trkpt>
      <trkpt lat="37.326909" lon="-4.317698">
        <ele>655.007</ele>
        <time>2014-11-08T12:48:36Z</time>
      </trkpt>
      <trkpt lat="37.326921" lon="-4.317662">
        <ele>649.065</ele>
        <time>2014-11-08T12:49:16Z</time>
      </trkpt>
      <trkpt lat="37.326957" lon="-4.317619">
        <ele>647.039</ele>
        <time>2014-11-08T12:49:36Z</time>
      </trkpt>
      <trkpt lat="37.327010" lon="-4.317573">
        <ele>647.087</ele>
        <time>2014-11-08T12:49:46Z</time>
      </trkpt>
      <trkpt lat="37.327061" lon="-4.317493">
        <ele>644.046</ele>
        <time>2014-11-08T12:49:56Z</time>
      </trkpt>
      <trkpt lat="37.327084" lon="-4.317439">
        <ele>648.049</ele>
        <time>2014-11-08T12:50:10Z</time>
      </trkpt>
      <trkpt lat="37.327132" lon="-4.317376">
        <ele>650.057</ele>
        <time>2014-11-08T12:50:20Z</time>
      </trkpt>
      <trkpt lat="37.327178" lon="-4.317306">
        <ele>648.071</ele>
        <time>2014-11-08T12:50:30Z</time>
      </trkpt>
      <trkpt lat="37.327187" lon="-4.317247">
        <ele>652.038</ele>
        <time>2014-11-08T12:50:48Z</time>
      </trkpt>
      <trkpt lat="37.327195" lon="-4.317175">
        <ele>649.070</ele>
        <time>2014-11-08T12:50:58Z</time>
      </trkpt>
      <trkpt lat="37.327199" lon="-4.317079">
        <ele>645.017</ele>
        <time>2014-11-08T12:51:08Z</time>
      </trkpt>
      <trkpt lat="37.327228" lon="-4.317034">
        <ele>642.007</ele>
        <time>2014-11-08T12:51:19Z</time>
      </trkpt>
      <trkpt lat="37.327246" lon="-4.316979">
        <ele>642.031</ele>
        <time>2014-11-08T12:51:38Z</time>
      </trkpt>
      <trkpt lat="37.327291" lon="-4.316927">
        <ele>644.035</ele>
        <time>2014-11-08T12:51:48Z</time>
      </trkpt>
      <trkpt lat="37.327331" lon="-4.316866">
        <ele>646.043</ele>
        <time>2014-11-08T12:51:58Z</time>
      </trkpt>
      <trkpt lat="37.327370" lon="-4.316760">
        <ele>650.072</ele>
        <time>2014-11-08T12:52:08Z</time>
      </trkpt>
      <trkpt lat="37.327411" lon="-4.316658">
        <ele>648.035</ele>
        <time>2014-11-08T12:52:18Z</time>
      </trkpt>
      <trkpt lat="37.327424" lon="-4.316585">
        <ele>648.083</ele>
        <time>2014-11-08T12:52:28Z</time>
      </trkpt>
      <trkpt lat="37.327482" lon="-4.316510">
        <ele>643.047</ele>
        <time>2014-11-08T12:52:38Z</time>
      </trkpt>
      <trkpt lat="37.327534" lon="-4.316412">
        <ele>644.079</ele>
        <time>2014-11-08T12:52:47Z</time>
      </trkpt>
      <trkpt lat="37.327570" lon="-4.316303">
        <ele>644.005</ele>
        <time>2014-11-08T12:52:57Z</time>
      </trkpt>
      <trkpt lat="37.327603" lon="-4.316190">
        <ele>647.025</ele>
        <time>2014-11-08T12:53:07Z</time>
      </trkpt>
      <trkpt lat="37.327622" lon="-4.316119">
        <ele>646.007</ele>
        <time>2014-11-08T12:53:17Z</time>
      </trkpt>
      <trkpt lat="37.327643" lon="-4.316063">
        <ele>647.055</ele>
        <time>2014-11-08T12:53:30Z</time>
      </trkpt>
      <trkpt lat="37.327698" lon="-4.315975">
        <ele>647.029</ele>
        <time>2014-11-08T12:53:40Z</time>
      </trkpt>
      <trkpt lat="37.327730" lon="-4.315862">
        <ele>646.017</ele>
        <time>2014-11-08T12:53:48Z</time>
      </trkpt>
      <trkpt lat="37.327774" lon="-4.315813">
        <ele>645.036</ele>
        <time>2014-11-08T12:53:58Z</time>
      </trkpt>
      <trkpt lat="37.327811" lon="-4.315740">
        <ele>651.019</ele>
        <time>2014-11-08T12:54:08Z</time>
      </trkpt>
      <trkpt lat="37.327836" lon="-4.315645">
        <ele>645.027</ele>
        <time>2014-11-08T12:54:18Z</time>
      </trkpt>
      <trkpt lat="37.327869" lon="-4.315558">
        <ele>648.091</ele>
        <time>2014-11-08T12:54:28Z</time>
      </trkpt>
      <trkpt lat="37.327884" lon="-4.315455">
        <ele>650.085</ele>
        <time>2014-11-08T12:54:38Z</time>
      </trkpt>
      <trkpt lat="37.327908" lon="-4.315368">
        <ele>654.089</ele>
        <time>2014-11-08T12:54:48Z</time>
      </trkpt>
      <trkpt lat="37.327958" lon="-4.315372">
        <ele>645.017</ele>
        <time>2014-11-08T12:55:00Z</time>
      </trkpt>
      <trkpt lat="37.328002" lon="-4.315302">
        <ele>651.007</ele>
        <time>2014-11-08T12:55:10Z</time>
      </trkpt>
      <trkpt lat="37.328049" lon="-4.315286">
        <ele>650.096</ele>
        <time>2014-11-08T12:55:22Z</time>
      </trkpt>
      <trkpt lat="37.328082" lon="-4.315242">
        <ele>655.090</ele>
        <time>2014-11-08T12:55:44Z</time>
      </trkpt>
      <trkpt lat="37.328176" lon="-4.315230">
        <ele>657.048</ele>
        <time>2014-11-08T12:55:54Z</time>
      </trkpt>
      <trkpt lat="37.328266" lon="-4.315198">
        <ele>661.057</ele>
        <time>2014-11-08T12:56:04Z</time>
      </trkpt>
      <trkpt lat="37.328327" lon="-4.315174">
        <ele>660.070</ele>
        <time>2014-11-08T12:56:14Z</time>
      </trkpt>
      <trkpt lat="37.328376" lon="-4.315149">
        <ele>663.078</ele>
        <time>2014-11-08T12:56:35Z</time>
      </trkpt>
      <trkpt lat="37.328459" lon="-4.315083">
        <ele>662.012</ele>
        <time>2014-11-08T12:56:43Z</time>
      </trkpt>
      <trkpt lat="37.328533" lon="-4.315006">
        <ele>662.047</ele>
        <time>2014-11-08T12:56:53Z</time>
      </trkpt>
      <trkpt lat="37.328579" lon="-4.314958">
        <ele>659.029</ele>
        <time>2014-11-08T12:57:03Z</time>
      </trkpt>
      <trkpt lat="37.328615" lon="-4.314916">
        <ele>660.021</ele>
        <time>2014-11-08T12:57:15Z</time>
      </trkpt>
      <trkpt lat="37.328658" lon="-4.314883">
        <ele>661.007</ele>
        <time>2014-11-08T12:57:27Z</time>
      </trkpt>
      <trkpt lat="37.328719" lon="-4.314845">
        <ele>663.032</ele>
        <time>2014-11-08T12:57:37Z</time>
      </trkpt>
      <trkpt lat="37.328754" lon="-4.314769">
        <ele>660.066</ele>
        <time>2014-11-08T12:57:47Z</time>
      </trkpt>
      <trkpt lat="37.328795" lon="-4.314674">
        <ele>660.044</ele>
        <time>2014-11-08T12:57:57Z</time>
      </trkpt>
      <trkpt lat="37.328857" lon="-4.314572">
        <ele>662.093</ele>
        <time>2014-11-08T12:58:05Z</time>
      </trkpt>
      <trkpt lat="37.328937" lon="-4.314504">
        <ele>662.076</ele>
        <time>2014-11-08T12:58:14Z</time>
      </trkpt>
      <trkpt lat="37.329010" lon="-4.314519">
        <ele>664.044</ele>
        <time>2014-11-08T12:58:24Z</time>
      </trkpt>
      <trkpt lat="37.329051" lon="-4.314546">
        <ele>661.018</ele>
        <time>2014-11-08T12:58:54Z</time>
      </trkpt>
      <trkpt lat="37.329059" lon="-4.314556">
        <ele>662.065</ele>
        <time>2014-11-08T12:59:35Z</time>
      </trkpt>
      <trkpt lat="37.329102" lon="-4.314529">
        <ele>661.068</ele>
        <time>2014-11-08T12:59:57Z</time>
      </trkpt>
      <trkpt lat="37.329126" lon="-4.314480">
        <ele>661.014</ele>
        <time>2014-11-08T13:00:16Z</time>
      </trkpt>
      <trkpt lat="37.329173" lon="-4.314498">
        <ele>660.007</ele>
        <time>2014-11-08T13:00:33Z</time>
      </trkpt>
      <trkpt lat="37.329221" lon="-4.314508">
        <ele>661.014</ele>
        <time>2014-11-08T13:00:45Z</time>
      </trkpt>
      <trkpt lat="37.329295" lon="-4.314476">
        <ele>665.058</ele>
        <time>2014-11-08T13:00:55Z</time>
      </trkpt>
      <trkpt lat="37.329337" lon="-4.314502">
        <ele>662.086</ele>
        <time>2014-11-08T13:01:07Z</time>
      </trkpt>
      <trkpt lat="37.329379" lon="-4.314529">
        <ele>661.075</ele>
        <time>2014-11-08T13:01:17Z</time>
      </trkpt>
      <trkpt lat="37.329444" lon="-4.314529">
        <ele>664.078</ele>
        <time>2014-11-08T13:01:28Z</time>
      </trkpt>
      <trkpt lat="37.329493" lon="-4.314566">
        <ele>664.076</ele>
        <time>2014-11-08T13:01:38Z</time>
      </trkpt>
      <trkpt lat="37.329539" lon="-4.314570">
        <ele>665.050</ele>
        <time>2014-11-08T13:01:54Z</time>
      </trkpt>
      <trkpt lat="37.329571" lon="-4.314618">
        <ele>668.059</ele>
        <time>2014-11-08T13:02:06Z</time>
      </trkpt>
      <trkpt lat="37.329593" lon="-4.314675">
        <ele>672.003</ele>
        <time>2014-11-08T13:02:16Z</time>
      </trkpt>
      <trkpt lat="37.329632" lon="-4.314709">
        <ele>670.023</ele>
        <time>2014-11-08T13:02:35Z</time>
      </trkpt>
      <trkpt lat="37.329681" lon="-4.314695">
        <ele>676.007</ele>
        <time>2014-11-08T13:03:07Z</time>
      </trkpt>
      <trkpt lat="37.329729" lon="-4.314707">
        <ele>677.023</ele>
        <time>2014-11-08T13:03:23Z</time>
      </trkpt>
      <trkpt lat="37.329781" lon="-4.314699">
        <ele>680.047</ele>
        <time>2014-11-08T13:03:33Z</time>
      </trkpt>
      <trkpt lat="37.329838" lon="-4.314694">
        <ele>681.035</ele>
        <time>2014-11-08T13:03:43Z</time>
      </trkpt>
      <trkpt lat="37.329887" lon="-4.314705">
        <ele>683.094</ele>
        <time>2014-11-08T13:03:56Z</time>
      </trkpt>
      <trkpt lat="37.329959" lon="-4.314739">
        <ele>686.027</ele>
        <time>2014-11-08T13:04:06Z</time>
      </trkpt>
      <trkpt lat="37.330000" lon="-4.314706">
        <ele>689.065</ele>
        <time>2014-11-08T13:04:39Z</time>
      </trkpt>
      <trkpt lat="37.330049" lon="-4.314713">
        <ele>689.049</ele>
        <time>2014-11-08T13:04:49Z</time>
      </trkpt>
      <trkpt lat="37.330100" lon="-4.314717">
        <ele>689.091</ele>
        <time>2014-11-08T13:04:59Z</time>
      </trkpt>
      <trkpt lat="37.330154" lon="-4.314733">
        <ele>688.081</ele>
        <time>2014-11-08T13:05:09Z</time>
      </trkpt>
      <trkpt lat="37.330198" lon="-4.314793">
        <ele>652.019</ele>
        <time>2014-11-08T13:05:19Z</time>
      </trkpt>
      <trkpt lat="37.330265" lon="-4.314835">
        <ele>663.007</ele>
        <time>2014-11-08T13:05:29Z</time>
      </trkpt>
      <trkpt lat="37.330312" lon="-4.314847">
        <ele>673.087</ele>
        <time>2014-11-08T13:05:44Z</time>
      </trkpt>
      <trkpt lat="37.330379" lon="-4.314841">
        <ele>674.061</ele>
        <time>2014-11-08T13:05:55Z</time>
      </trkpt>
      <trkpt lat="37.330421" lon="-4.314874">
        <ele>653.079</ele>
        <time>2014-11-08T13:06:07Z</time>
      </trkpt>
      <trkpt lat="37.330466" lon="-4.314871">
        <ele>659.078</ele>
        <time>2014-11-08T13:06:17Z</time>
      </trkpt>
      <trkpt lat="37.330538" lon="-4.314857">
        <ele>666.091</ele>
        <time>2014-11-08T13:06:27Z</time>
      </trkpt>
      <trkpt lat="37.330592" lon="-4.314856">
        <ele>732.069</ele>
        <time>2014-11-08T13:06:37Z</time>
      </trkpt>
      <trkpt lat="37.330601" lon="-4.314915">
        <ele>729.063</ele>
        <time>2014-11-08T13:06:57Z</time>
      </trkpt>
      <trkpt lat="37.330591" lon="-4.314971">
        <ele>731.023</ele>
        <time>2014-11-08T13:07:12Z</time>
      </trkpt>
      <trkpt lat="37.330586" lon="-4.315034">
        <ele>735.083</ele>
        <time>2014-11-08T13:07:24Z</time>
      </trkpt>
      <trkpt lat="37.330567" lon="-4.315091">
        <ele>732.011</ele>
        <time>2014-11-08T13:07:34Z</time>
      </trkpt>
      <trkpt lat="37.330566" lon="-4.315157">
        <ele>732.007</ele>
        <time>2014-11-08T13:07:52Z</time>
      </trkpt>
      <trkpt lat="37.330567" lon="-4.315244">
        <ele>732.040</ele>
        <time>2014-11-08T13:08:02Z</time>
      </trkpt>
      <trkpt lat="37.330578" lon="-4.315302">
        <ele>730.064</ele>
        <time>2014-11-08T13:08:15Z</time>
      </trkpt>
      <trkpt lat="37.330584" lon="-4.315362">
        <ele>735.012</ele>
        <time>2014-11-08T13:08:26Z</time>
      </trkpt>
      <trkpt lat="37.330579" lon="-4.315425">
        <ele>736.021</ele>
        <time>2014-11-08T13:08:36Z</time>
      </trkpt>
      <trkpt lat="37.330576" lon="-4.315482">
        <ele>741.074</ele>
        <time>2014-11-08T13:08:49Z</time>
      </trkpt>
      <trkpt lat="37.330583" lon="-4.315599">
        <ele>739.052</ele>
        <time>2014-11-08T13:08:58Z</time>
      </trkpt>
      <trkpt lat="37.330573" lon="-4.315665">
        <ele>739.016</ele>
        <time>2014-11-08T13:09:08Z</time>
      </trkpt>
      <trkpt lat="37.330567" lon="-4.315724">
        <ele>737.086</ele>
        <time>2014-11-08T13:09:27Z</time>
      </trkpt>
      <trkpt lat="37.330531" lon="-4.315814">
        <ele>736.060</ele>
        <time>2014-11-08T13:09:37Z</time>
      </trkpt>
      <trkpt lat="37.330491" lon="-4.315899">
        <ele>740.026</ele>
        <time>2014-11-08T13:09:47Z</time>
      </trkpt>
      <trkpt lat="37.330469" lon="-4.315950">
        <ele>738.007</ele>
        <time>2014-11-08T13:09:59Z</time>
      </trkpt>
      <trkpt lat="37.330438" lon="-4.316012">
        <ele>742.056</ele>
        <time>2014-11-08T13:10:09Z</time>
      </trkpt>
      <trkpt lat="37.330414" lon="-4.316066">
        <ele>741.070</ele>
        <time>2014-11-08T13:10:27Z</time>
      </trkpt>
      <trkpt lat="37.330379" lon="-4.316138">
        <ele>744.078</ele>
        <time>2014-11-08T13:10:37Z</time>
      </trkpt>
      <trkpt lat="37.330365" lon="-4.316195">
        <ele>746.087</ele>
        <time>2014-11-08T13:10:48Z</time>
      </trkpt>
      <trkpt lat="37.330379" lon="-4.316256">
        <ele>746.080</ele>
        <time>2014-11-08T13:11:06Z</time>
      </trkpt>
      <trkpt lat="37.330396" lon="-4.316337">
        <ele>746.088</ele>
        <time>2014-11-08T13:11:16Z</time>
      </trkpt>
      <trkpt lat="37.330408" lon="-4.316414">
        <ele>745.072</ele>
        <time>2014-11-08T13:11:26Z</time>
      </trkpt>
      <trkpt lat="37.330452" lon="-4.316436">
        <ele>748.031</ele>
        <time>2014-11-08T13:11:53Z</time>
      </trkpt>
      <trkpt lat="37.330497" lon="-4.316501">
        <ele>748.061</ele>
        <time>2014-11-08T13:12:03Z</time>
      </trkpt>
      <trkpt lat="37.330499" lon="-4.316602">
        <ele>749.007</ele>
        <time>2014-11-08T13:12:13Z</time>
      </trkpt>
      <trkpt lat="37.330523" lon="-4.316656">
        <ele>750.007</ele>
        <time>2014-11-08T13:12:24Z</time>
      </trkpt>
      <trkpt lat="37.330547" lon="-4.316734">
        <ele>750.021</ele>
        <time>2014-11-08T13:12:34Z</time>
      </trkpt>
      <trkpt lat="37.330539" lon="-4.316840">
        <ele>718.045</ele>
        <time>2014-11-08T13:12:44Z</time>
      </trkpt>
      <trkpt lat="37.330570" lon="-4.316889">
        <ele>720.093</ele>
        <time>2014-11-08T13:12:54Z</time>
      </trkpt>
      <trkpt lat="37.330616" lon="-4.316966">
        <ele>722.092</ele>
        <time>2014-11-08T13:13:04Z</time>
      </trkpt>
      <trkpt lat="37.330655" lon="-4.317034">
        <ele>753.055</ele>
        <time>2014-11-08T13:13:14Z</time>
      </trkpt>
      <trkpt lat="37.330710" lon="-4.317110">
        <ele>752.053</ele>
        <time>2014-11-08T13:13:24Z</time>
      </trkpt>
      <trkpt lat="37.330733" lon="-4.317120">
        <ele>753.057</ele>
        <time>2014-11-08T13:14:05Z</time>
      </trkpt>
      <trkpt lat="37.330666" lon="-4.317056">
        <ele>754.036</ele>
        <time>2014-11-08T13:14:15Z</time>
      </trkpt>
      <trkpt lat="37.330591" lon="-4.316986">
        <ele>752.017</ele>
        <time>2014-11-08T13:14:25Z</time>
      </trkpt>
      <trkpt lat="37.330531" lon="-4.316905">
        <ele>707.018</ele>
        <time>2014-11-08T13:14:35Z</time>
      </trkpt>
      <trkpt lat="37.330492" lon="-4.316821">
        <ele>749.007</ele>
        <time>2014-11-08T13:14:45Z</time>
      </trkpt>
      <trkpt lat="37.330483" lon="-4.316717">
        <ele>751.031</ele>
        <time>2014-11-08T13:14:56Z</time>
      </trkpt>
      <trkpt lat="37.330451" lon="-4.316656">
        <ele>720.025</ele>
        <time>2014-11-08T13:15:06Z</time>
      </trkpt>
      <trkpt lat="37.330416" lon="-4.316570">
        <ele>723.033</ele>
        <time>2014-11-08T13:15:16Z</time>
      </trkpt>
      <trkpt lat="37.330421" lon="-4.316447">
        <ele>718.072</ele>
        <time>2014-11-08T13:15:26Z</time>
      </trkpt>
      <trkpt lat="37.330392" lon="-4.316339">
        <ele>701.085</ele>
        <time>2014-11-08T13:15:35Z</time>
      </trkpt>
      <trkpt lat="37.330329" lon="-4.316288">
        <ele>694.063</ele>
        <time>2014-11-08T13:15:45Z</time>
      </trkpt>
      <trkpt lat="37.330329" lon="-4.316349">
        <ele>708.087</ele>
        <time>2014-11-08T13:16:22Z</time>
      </trkpt>
      <trkpt lat="37.330297" lon="-4.316459">
        <ele>726.096</ele>
        <time>2014-11-08T13:16:32Z</time>
      </trkpt>
      <trkpt lat="37.330296" lon="-4.316567">
        <ele>709.031</ele>
        <time>2014-11-08T13:16:42Z</time>
      </trkpt>
      <trkpt lat="37.330307" lon="-4.316683">
        <ele>698.024</ele>
        <time>2014-11-08T13:16:52Z</time>
      </trkpt>
      <trkpt lat="37.330297" lon="-4.316796">
        <ele>708.007</ele>
        <time>2014-11-08T13:17:01Z</time>
      </trkpt>
      <trkpt lat="37.330303" lon="-4.316912">
        <ele>706.067</ele>
        <time>2014-11-08T13:17:10Z</time>
      </trkpt>
      <trkpt lat="37.330311" lon="-4.317025">
        <ele>714.021</ele>
        <time>2014-11-08T13:17:21Z</time>
      </trkpt>
      <trkpt lat="37.330287" lon="-4.317142">
        <ele>709.079</ele>
        <time>2014-11-08T13:17:28Z</time>
      </trkpt>
      <trkpt lat="37.330298" lon="-4.317268">
        <ele>716.038</ele>
        <time>2014-11-08T13:17:36Z</time>
      </trkpt>
      <trkpt lat="37.330376" lon="-4.317327">
        <ele>719.051</ele>
        <time>2014-11-08T13:17:46Z</time>
      </trkpt>
      <trkpt lat="37.330448" lon="-4.317351">
        <ele>719.099</ele>
        <time>2014-11-08T13:17:56Z</time>
      </trkpt>
      <trkpt lat="37.330515" lon="-4.317390">
        <ele>704.073</ele>
        <time>2014-11-08T13:18:06Z</time>
      </trkpt>
      <trkpt lat="37.330605" lon="-4.317433">
        <ele>723.013</ele>
        <time>2014-11-08T13:18:14Z</time>
      </trkpt>
      <trkpt lat="37.330581" lon="-4.317486">
        <ele>750.043</ele>
        <time>2014-11-08T13:18:24Z</time>
      </trkpt>
      <trkpt lat="37.330577" lon="-4.317605">
        <ele>749.007</ele>
        <time>2014-11-08T13:18:32Z</time>
      </trkpt>
      <trkpt lat="37.330541" lon="-4.317713">
        <ele>749.007</ele>
        <time>2014-11-08T13:18:41Z</time>
      </trkpt>
      <trkpt lat="37.330588" lon="-4.317802">
        <ele>749.019</ele>
        <time>2014-11-08T13:18:51Z</time>
      </trkpt>
      <trkpt lat="37.330629" lon="-4.317839">
        <ele>749.053</ele>
        <time>2014-11-08T13:19:07Z</time>
      </trkpt>
      <trkpt lat="37.330721" lon="-4.317867">
        <ele>750.051</ele>
        <time>2014-11-08T13:19:15Z</time>
      </trkpt>
      <trkpt lat="37.330809" lon="-4.317821">
        <ele>751.040</ele>
        <time>2014-11-08T13:19:25Z</time>
      </trkpt>
      <trkpt lat="37.330872" lon="-4.317773">
        <ele>752.043</ele>
        <time>2014-11-08T13:19:35Z</time>
      </trkpt>
      <trkpt lat="37.330919" lon="-4.317779">
        <ele>751.081</ele>
        <time>2014-11-08T13:19:52Z</time>
      </trkpt>
      <trkpt lat="37.330994" lon="-4.317733">
        <ele>753.025</ele>
        <time>2014-11-08T13:20:02Z</time>
      </trkpt>
      <trkpt lat="37.331088" lon="-4.317702">
        <ele>754.082</ele>
        <time>2014-11-08T13:20:12Z</time>
      </trkpt>
      <trkpt lat="37.331172" lon="-4.317710">
        <ele>755.043</ele>
        <time>2014-11-08T13:20:22Z</time>
      </trkpt>
      <trkpt lat="37.331245" lon="-4.317730">
        <ele>755.017</ele>
        <time>2014-11-08T13:20:32Z</time>
      </trkpt>
      <trkpt lat="37.331316" lon="-4.317742">
        <ele>757.007</ele>
        <time>2014-11-08T13:20:42Z</time>
      </trkpt>
      <trkpt lat="37.331366" lon="-4.317749">
        <ele>757.026</ele>
        <time>2014-11-08T13:20:58Z</time>
      </trkpt>
      <trkpt lat="37.331440" lon="-4.317686">
        <ele>758.010</ele>
        <time>2014-11-08T13:21:08Z</time>
      </trkpt>
      <trkpt lat="37.331518" lon="-4.317643">
        <ele>759.078</ele>
        <time>2014-11-08T13:21:18Z</time>
      </trkpt>
      <trkpt lat="37.331582" lon="-4.317609">
        <ele>758.077</ele>
        <time>2014-11-08T13:21:28Z</time>
      </trkpt>
      <trkpt lat="37.331668" lon="-4.317570">
        <ele>760.040</ele>
        <time>2014-11-08T13:21:38Z</time>
      </trkpt>
      <trkpt lat="37.331692" lon="-4.317497">
        <ele>761.078</ele>
        <time>2014-11-08T13:21:48Z</time>
      </trkpt>
      <trkpt lat="37.331756" lon="-4.317429">
        <ele>761.012</ele>
        <time>2014-11-08T13:21:58Z</time>
      </trkpt>
      <trkpt lat="37.331837" lon="-4.317378">
        <ele>759.029</ele>
        <time>2014-11-08T13:22:07Z</time>
      </trkpt>
      <trkpt lat="37.331930" lon="-4.317352">
        <ele>760.000</ele>
        <time>2014-11-08T13:22:15Z</time>
      </trkpt>
      <trkpt lat="37.332014" lon="-4.317307">
        <ele>760.020</ele>
        <time>2014-11-08T13:22:22Z</time>
      </trkpt>
      <trkpt lat="37.332112" lon="-4.317282">
        <ele>759.007</ele>
        <time>2014-11-08T13:22:30Z</time>
      </trkpt>
      <trkpt lat="37.332206" lon="-4.317263">
        <ele>757.030</ele>
        <time>2014-11-08T13:22:39Z</time>
      </trkpt>
      <trkpt lat="37.332292" lon="-4.317220">
        <ele>759.084</ele>
        <time>2014-11-08T13:22:49Z</time>
      </trkpt>
      <trkpt lat="37.332367" lon="-4.317190">
        <ele>762.092</ele>
        <time>2014-11-08T13:22:59Z</time>
      </trkpt>
      <trkpt lat="37.332454" lon="-4.317148">
        <ele>760.021</ele>
        <time>2014-11-08T13:23:05Z</time>
      </trkpt>
      <trkpt lat="37.332556" lon="-4.317141">
        <ele>761.064</ele>
        <time>2014-11-08T13:23:12Z</time>
      </trkpt>
      <trkpt lat="37.332651" lon="-4.317165">
        <ele>762.032</ele>
        <time>2014-11-08T13:23:22Z</time>
      </trkpt>
      <trkpt lat="37.332730" lon="-4.317228">
        <ele>763.066</ele>
        <time>2014-11-08T13:23:30Z</time>
      </trkpt>
      <trkpt lat="37.332813" lon="-4.317287">
        <ele>764.055</ele>
        <time>2014-11-08T13:23:39Z</time>
      </trkpt>
      <trkpt lat="37.332902" lon="-4.317326">
        <ele>764.007</ele>
        <time>2014-11-08T13:23:49Z</time>
      </trkpt>
      <trkpt lat="37.332989" lon="-4.317358">
        <ele>763.017</ele>
        <time>2014-11-08T13:23:59Z</time>
      </trkpt>
      <trkpt lat="37.333082" lon="-4.317375">
        <ele>765.007</ele>
        <time>2014-11-08T13:24:08Z</time>
      </trkpt>
      <trkpt lat="37.333178" lon="-4.317399">
        <ele>768.013</ele>
        <time>2014-11-08T13:24:18Z</time>
      </trkpt>
      <trkpt lat="37.333233" lon="-4.317424">
        <ele>765.087</ele>
        <time>2014-11-08T13:24:28Z</time>
      </trkpt>
      <trkpt lat="37.333309" lon="-4.317496">
        <ele>766.065</ele>
        <time>2014-11-08T13:24:37Z</time>
      </trkpt>
      <trkpt lat="37.333379" lon="-4.317578">
        <ele>767.094</ele>
        <time>2014-11-08T13:24:47Z</time>
      </trkpt>
      <trkpt lat="37.333467" lon="-4.317611">
        <ele>769.027</ele>
        <time>2014-11-08T13:24:56Z</time>
      </trkpt>
      <trkpt lat="37.333526" lon="-4.317643">
        <ele>770.095</ele>
        <time>2014-11-08T13:25:06Z</time>
      </trkpt>
      <trkpt lat="37.333605" lon="-4.317664">
        <ele>774.059</ele>
        <time>2014-11-08T13:25:16Z</time>
      </trkpt>
      <trkpt lat="37.333663" lon="-4.317674">
        <ele>775.031</ele>
        <time>2014-11-08T13:25:27Z</time>
      </trkpt>
      <trkpt lat="37.333727" lon="-4.317678">
        <ele>773.061</ele>
        <time>2014-11-08T13:25:37Z</time>
      </trkpt>
      <trkpt lat="37.333767" lon="-4.317710">
        <ele>769.007</ele>
        <time>2014-11-08T13:25:47Z</time>
      </trkpt>
      <trkpt lat="37.333847" lon="-4.317741">
        <ele>771.007</ele>
        <time>2014-11-08T13:25:57Z</time>
      </trkpt>
      <trkpt lat="37.333919" lon="-4.317795">
        <ele>778.051</ele>
        <time>2014-11-08T13:26:07Z</time>
      </trkpt>
      <trkpt lat="37.333983" lon="-4.317821">
        <ele>774.095</ele>
        <time>2014-11-08T13:26:17Z</time>
      </trkpt>
      <trkpt lat="37.334049" lon="-4.317846">
        <ele>777.043</ele>
        <time>2014-11-08T13:26:27Z</time>
      </trkpt>
      <trkpt lat="37.334139" lon="-4.317897">
        <ele>781.082</ele>
        <time>2014-11-08T13:26:37Z</time>
      </trkpt>
      <trkpt lat="37.334230" lon="-4.317937">
        <ele>781.095</ele>
        <time>2014-11-08T13:26:48Z</time>
      </trkpt>
      <trkpt lat="37.334315" lon="-4.317976">
        <ele>783.023</ele>
        <time>2014-11-08T13:26:58Z</time>
      </trkpt>
      <trkpt lat="37.334402" lon="-4.318032">
        <ele>801.067</ele>
        <time>2014-11-08T13:27:07Z</time>
      </trkpt>
      <trkpt lat="37.334493" lon="-4.318065">
        <ele>802.061</ele>
        <time>2014-11-08T13:27:16Z</time>
      </trkpt>
      <trkpt lat="37.334561" lon="-4.318082">
        <ele>799.021</ele>
        <time>2014-11-08T13:27:26Z</time>
      </trkpt>
      <trkpt lat="37.334632" lon="-4.318161">
        <ele>805.013</ele>
        <time>2014-11-08T13:27:36Z</time>
      </trkpt>
      <trkpt lat="37.334661" lon="-4.318251">
        <ele>805.007</ele>
        <time>2014-11-08T13:27:46Z</time>
      </trkpt>
      <trkpt lat="37.334658" lon="-4.318372">
        <ele>803.044</ele>
        <time>2014-11-08T13:27:56Z</time>
      </trkpt>
      <trkpt lat="37.334606" lon="-4.318467">
        <ele>801.068</ele>
        <time>2014-11-08T13:28:05Z</time>
      </trkpt>
      <trkpt lat="37.334566" lon="-4.318576">
        <ele>802.086</ele>
        <time>2014-11-08T13:28:13Z</time>
      </trkpt>
      <trkpt lat="37.334524" lon="-4.318684">
        <ele>804.055</ele>
        <time>2014-11-08T13:28:20Z</time>
      </trkpt>
      <trkpt lat="37.334539" lon="-4.318806">
        <ele>805.018</ele>
        <time>2014-11-08T13:28:30Z</time>
      </trkpt>
      <trkpt lat="37.334593" lon="-4.318907">
        <ele>809.036</ele>
        <time>2014-11-08T13:28:40Z</time>
      </trkpt>
      <trkpt lat="37.334665" lon="-4.318980">
        <ele>813.060</ele>
        <time>2014-11-08T13:28:49Z</time>
      </trkpt>
      <trkpt lat="37.334753" lon="-4.318975">
        <ele>814.027</ele>
        <time>2014-11-08T13:28:59Z</time>
      </trkpt>
      <trkpt lat="37.334820" lon="-4.318951">
        <ele>813.068</ele>
        <time>2014-11-08T13:29:09Z</time>
      </trkpt>
      <trkpt lat="37.334866" lon="-4.318944">
        <ele>809.014</ele>
        <time>2014-11-08T13:29:19Z</time>
      </trkpt>
      <trkpt lat="37.334945" lon="-4.318880">
        <ele>812.007</ele>
        <time>2014-11-08T13:29:29Z</time>
      </trkpt>
      <trkpt lat="37.335017" lon="-4.318837">
        <ele>818.080</ele>
        <time>2014-11-08T13:29:39Z</time>
      </trkpt>
      <trkpt lat="37.335092" lon="-4.318791">
        <ele>818.064</ele>
        <time>2014-11-08T13:29:49Z</time>
      </trkpt>
      <trkpt lat="37.335134" lon="-4.318811">
        <ele>822.032</ele>
        <time>2014-11-08T13:30:01Z</time>
      </trkpt>
      <trkpt lat="37.335215" lon="-4.318858">
        <ele>825.021</ele>
        <time>2014-11-08T13:30:11Z</time>
      </trkpt>
      <trkpt lat="37.335275" lon="-4.318908">
        <ele>829.064</ele>
        <time>2014-11-08T13:30:21Z</time>
      </trkpt>
      <trkpt lat="37.335331" lon="-4.318942">
        <ele>831.042</ele>
        <time>2014-11-08T13:30:32Z</time>
      </trkpt>
      <trkpt lat="37.335395" lon="-4.318970">
        <ele>832.086</ele>
        <time>2014-11-08T13:30:42Z</time>
      </trkpt>
      <trkpt lat="37.335424" lon="-4.319020">
        <ele>834.085</ele>
        <time>2014-11-08T13:30:52Z</time>
      </trkpt>
      <trkpt lat="37.335434" lon="-4.319075">
        <ele>835.089</ele>
        <time>2014-11-08T13:31:02Z</time>
      </trkpt>
      <trkpt lat="37.335439" lon="-4.319139">
        <ele>838.017</ele>
        <time>2014-11-08T13:31:16Z</time>
      </trkpt>
      <trkpt lat="37.335409" lon="-4.319254">
        <ele>842.007</ele>
        <time>2014-11-08T13:31:25Z</time>
      </trkpt>
      <trkpt lat="37.335369" lon="-4.319360">
        <ele>839.056</ele>
        <time>2014-11-08T13:31:33Z</time>
      </trkpt>
      <trkpt lat="37.335349" lon="-4.319413">
        <ele>835.050</ele>
        <time>2014-11-08T13:31:51Z</time>
      </trkpt>
      <trkpt lat="37.335338" lon="-4.319510">
        <ele>836.088</ele>
        <time>2014-11-08T13:32:01Z</time>
      </trkpt>
      <trkpt lat="37.335298" lon="-4.319616">
        <ele>834.067</ele>
        <time>2014-11-08T13:32:08Z</time>
      </trkpt>
      <trkpt lat="37.335251" lon="-4.319715">
        <ele>792.070</ele>
        <time>2014-11-08T13:32:17Z</time>
      </trkpt>
      <trkpt lat="37.335189" lon="-4.319794">
        <ele>784.058</ele>
        <time>2014-11-08T13:32:27Z</time>
      </trkpt>
      <trkpt lat="37.335151" lon="-4.319898">
        <ele>790.062</ele>
        <time>2014-11-08T13:32:33Z</time>
      </trkpt>
      <trkpt lat="37.335112" lon="-4.320004">
        <ele>796.078</ele>
        <time>2014-11-08T13:32:41Z</time>
      </trkpt>
      <trkpt lat="37.335081" lon="-4.320112">
        <ele>782.033</ele>
        <time>2014-11-08T13:32:49Z</time>
      </trkpt>
      <trkpt lat="37.335034" lon="-4.320213">
        <ele>782.026</ele>
        <time>2014-11-08T13:32:55Z</time>
      </trkpt>
      <trkpt lat="37.334986" lon="-4.320325">
        <ele>785.007</ele>
        <time>2014-11-08T13:33:01Z</time>
      </trkpt>
      <trkpt lat="37.334956" lon="-4.320442">
        <ele>781.065</ele>
        <time>2014-11-08T13:33:08Z</time>
      </trkpt>
      <trkpt lat="37.334928" lon="-4.320566">
        <ele>773.059</ele>
        <time>2014-11-08T13:33:16Z</time>
      </trkpt>
      <trkpt lat="37.334901" lon="-4.320674">
        <ele>775.097</ele>
        <time>2014-11-08T13:33:22Z</time>
      </trkpt>
      <trkpt lat="37.334860" lon="-4.320789">
        <ele>766.086</ele>
        <time>2014-11-08T13:33:31Z</time>
      </trkpt>
      <trkpt lat="37.334830" lon="-4.320911">
        <ele>769.069</ele>
        <time>2014-11-08T13:33:39Z</time>
      </trkpt>
      <trkpt lat="37.334823" lon="-4.321042">
        <ele>763.057</ele>
        <time>2014-11-08T13:33:45Z</time>
      </trkpt>
      <trkpt lat="37.334819" lon="-4.321157">
        <ele>761.091</ele>
        <time>2014-11-08T13:33:51Z</time>
      </trkpt>
      <trkpt lat="37.334818" lon="-4.321273">
        <ele>764.098</ele>
        <time>2014-11-08T13:33:58Z</time>
      </trkpt>
      <trkpt lat="37.334801" lon="-4.321397">
        <ele>761.015</ele>
        <time>2014-11-08T13:34:06Z</time>
      </trkpt>
      <trkpt lat="37.334791" lon="-4.321515">
        <ele>663.026</ele>
        <time>2014-11-08T13:34:13Z</time>
      </trkpt>
      <trkpt lat="37.334770" lon="-4.321641">
        <ele>645.007</ele>
        <time>2014-11-08T13:34:20Z</time>
      </trkpt>
      <trkpt lat="37.334753" lon="-4.321760">
        <ele>697.077</ele>
        <time>2014-11-08T13:34:26Z</time>
      </trkpt>
      <trkpt lat="37.334717" lon="-4.321881">
        <ele>736.041</ele>
        <time>2014-11-08T13:34:33Z</time>
      </trkpt>
      <trkpt lat="37.334685" lon="-4.322000">
        <ele>771.079</ele>
        <time>2014-11-08T13:34:38Z</time>
      </trkpt>
      <trkpt lat="37.334650" lon="-4.322105">
        <ele>771.028</ele>
        <time>2014-11-08T13:34:44Z</time>
      </trkpt>
      <trkpt lat="37.334621" lon="-4.322213">
        <ele>788.011</ele>
        <time>2014-11-08T13:34:51Z</time>
      </trkpt>
      <trkpt lat="37.334570" lon="-4.322318">
        <ele>771.039</ele>
        <time>2014-11-08T13:34:59Z</time>
      </trkpt>
      <trkpt lat="37.334507" lon="-4.322413">
        <ele>777.063</ele>
        <time>2014-11-08T13:35:07Z</time>
      </trkpt>
      <trkpt lat="37.334425" lon="-4.322487">
        <ele>782.086</ele>
        <time>2014-11-08T13:35:15Z</time>
      </trkpt>
      <trkpt lat="37.334337" lon="-4.322530">
        <ele>785.060</ele>
        <time>2014-11-08T13:35:22Z</time>
      </trkpt>
      <trkpt lat="37.334250" lon="-4.322566">
        <ele>792.026</ele>
        <time>2014-11-08T13:35:28Z</time>
      </trkpt>
      <trkpt lat="37.334156" lon="-4.322619">
        <ele>785.007</ele>
        <time>2014-11-08T13:35:35Z</time>
      </trkpt>
      <trkpt lat="37.334070" lon="-4.322694">
        <ele>784.056</ele>
        <time>2014-11-08T13:35:42Z</time>
      </trkpt>
      <trkpt lat="37.333993" lon="-4.322770">
        <ele>788.070</ele>
        <time>2014-11-08T13:35:48Z</time>
      </trkpt>
      <trkpt lat="37.333919" lon="-4.322835">
        <ele>790.058</ele>
        <time>2014-11-08T13:35:54Z</time>
      </trkpt>
      <trkpt lat="37.333846" lon="-4.322911">
        <ele>784.067</ele>
        <time>2014-11-08T13:36:02Z</time>
      </trkpt>
      <trkpt lat="37.333824" lon="-4.322972">
        <ele>769.080</ele>
        <time>2014-11-08T13:36:13Z</time>
      </trkpt>
      <trkpt lat="37.333776" lon="-4.323069">
        <ele>775.098</ele>
        <time>2014-11-08T13:36:20Z</time>
      </trkpt>
      <trkpt lat="37.333729" lon="-4.323183">
        <ele>775.082</ele>
        <time>2014-11-08T13:36:29Z</time>
      </trkpt>
      <trkpt lat="37.333675" lon="-4.323275">
        <ele>776.057</ele>
        <time>2014-11-08T13:36:36Z</time>
      </trkpt>
      <trkpt lat="37.333631" lon="-4.323359">
        <ele>791.000</ele>
        <time>2014-11-08T13:36:46Z</time>
      </trkpt>
      <trkpt lat="37.333593" lon="-4.323467">
        <ele>792.020</ele>
        <time>2014-11-08T13:36:53Z</time>
      </trkpt>
      <trkpt lat="37.333551" lon="-4.323576">
        <ele>797.007</ele>
        <time>2014-11-08T13:36:59Z</time>
      </trkpt>
      <trkpt lat="37.333497" lon="-4.323670">
        <ele>793.093</ele>
        <time>2014-11-08T13:37:05Z</time>
      </trkpt>
      <trkpt lat="37.333457" lon="-4.323781">
        <ele>796.067</ele>
        <time>2014-11-08T13:37:11Z</time>
      </trkpt>
      <trkpt lat="37.333398" lon="-4.323880">
        <ele>793.055</ele>
        <time>2014-11-08T13:37:18Z</time>
      </trkpt>
      <trkpt lat="37.333376" lon="-4.323991">
        <ele>787.064</ele>
        <time>2014-11-08T13:37:25Z</time>
      </trkpt>
      <trkpt lat="37.333376" lon="-4.324104">
        <ele>785.097</ele>
        <time>2014-11-08T13:37:32Z</time>
      </trkpt>
      <trkpt lat="37.333343" lon="-4.324214">
        <ele>787.025</ele>
        <time>2014-11-08T13:37:39Z</time>
      </trkpt>
      <trkpt lat="37.333325" lon="-4.324326">
        <ele>787.059</ele>
        <time>2014-11-08T13:37:46Z</time>
      </trkpt>
      <trkpt lat="37.333283" lon="-4.324433">
        <ele>790.094</ele>
        <time>2014-11-08T13:37:53Z</time>
      </trkpt>
      <trkpt lat="37.333221" lon="-4.324524">
        <ele>790.057</ele>
        <time>2014-11-08T13:38:00Z</time>
      </trkpt>
      <trkpt lat="37.333137" lon="-4.324598">
        <ele>788.022</ele>
        <time>2014-11-08T13:38:06Z</time>
      </trkpt>
      <trkpt lat="37.333065" lon="-4.324684">
        <ele>790.007</ele>
        <time>2014-11-08T13:38:13Z</time>
      </trkpt>
      <trkpt lat="37.332987" lon="-4.324763">
        <ele>789.027</ele>
        <time>2014-11-08T13:38:21Z</time>
      </trkpt>
      <trkpt lat="37.332912" lon="-4.324848">
        <ele>801.021</ele>
        <time>2014-11-08T13:38:30Z</time>
      </trkpt>
      <trkpt lat="37.332850" lon="-4.324949">
        <ele>766.049</ele>
        <time>2014-11-08T13:38:39Z</time>
      </trkpt>
      <trkpt lat="37.332795" lon="-4.325049">
        <ele>770.068</ele>
        <time>2014-11-08T13:38:47Z</time>
      </trkpt>
      <trkpt lat="37.332761" lon="-4.325096">
        <ele>787.031</ele>
        <time>2014-11-08T13:39:01Z</time>
      </trkpt>
      <trkpt lat="37.332718" lon="-4.325158">
        <ele>757.089</ele>
        <time>2014-11-08T13:39:11Z</time>
      </trkpt>
      <trkpt lat="37.332674" lon="-4.325185">
        <ele>780.093</ele>
        <time>2014-11-08T13:39:30Z</time>
      </trkpt>
      <trkpt lat="37.332609" lon="-4.325266">
        <ele>770.011</ele>
        <time>2014-11-08T13:39:38Z</time>
      </trkpt>
      <trkpt lat="37.332531" lon="-4.325344">
        <ele>774.021</ele>
        <time>2014-11-08T13:39:46Z</time>
      </trkpt>
      <trkpt lat="37.332479" lon="-4.325437">
        <ele>772.003</ele>
        <time>2014-11-08T13:39:53Z</time>
      </trkpt>
      <trkpt lat="37.332421" lon="-4.325527">
        <ele>775.007</ele>
        <time>2014-11-08T13:40:00Z</time>
      </trkpt>
      <trkpt lat="37.332368" lon="-4.325626">
        <ele>766.049</ele>
        <time>2014-11-08T13:40:08Z</time>
      </trkpt>
      <trkpt lat="37.332292" lon="-4.325696">
        <ele>766.083</ele>
        <time>2014-11-08T13:40:15Z</time>
      </trkpt>
      <trkpt lat="37.332240" lon="-4.325795">
        <ele>747.081</ele>
        <time>2014-11-08T13:40:24Z</time>
      </trkpt>
      <trkpt lat="37.332208" lon="-4.325887">
        <ele>759.010</ele>
        <time>2014-11-08T13:40:34Z</time>
      </trkpt>
      <trkpt lat="37.332159" lon="-4.325998">
        <ele>763.083</ele>
        <time>2014-11-08T13:40:43Z</time>
      </trkpt>
      <trkpt lat="37.332098" lon="-4.326088">
        <ele>761.061</ele>
        <time>2014-11-08T13:40:51Z</time>
      </trkpt>
      <trkpt lat="37.332060" lon="-4.326200">
        <ele>733.045</ele>
        <time>2014-11-08T13:40:59Z</time>
      </trkpt>
      <trkpt lat="37.332036" lon="-4.326314">
        <ele>757.039</ele>
        <time>2014-11-08T13:41:08Z</time>
      </trkpt>
      <trkpt lat="37.332002" lon="-4.326422">
        <ele>786.001</ele>
        <time>2014-11-08T13:41:15Z</time>
      </trkpt>
      <trkpt lat="37.331952" lon="-4.326531">
        <ele>813.021</ele>
        <time>2014-11-08T13:41:22Z</time>
      </trkpt>
      <trkpt lat="37.331922" lon="-4.326642">
        <ele>816.007</ele>
        <time>2014-11-08T13:41:28Z</time>
      </trkpt>
      <trkpt lat="37.331890" lon="-4.326751">
        <ele>815.021</ele>
        <time>2014-11-08T13:41:36Z</time>
      </trkpt>
      <trkpt lat="37.331845" lon="-4.326858">
        <ele>781.015</ele>
        <time>2014-11-08T13:41:44Z</time>
      </trkpt>
      <trkpt lat="37.331798" lon="-4.326964">
        <ele>787.073</ele>
        <time>2014-11-08T13:41:52Z</time>
      </trkpt>
      <trkpt lat="37.331763" lon="-4.327074">
        <ele>792.052</ele>
        <time>2014-11-08T13:41:59Z</time>
      </trkpt>
      <trkpt lat="37.331764" lon="-4.327193">
        <ele>792.055</ele>
        <time>2014-11-08T13:42:06Z</time>
      </trkpt>
      <trkpt lat="37.331740" lon="-4.327303">
        <ele>796.043</ele>
        <time>2014-11-08T13:42:12Z</time>
      </trkpt>
      <trkpt lat="37.331703" lon="-4.327410">
        <ele>798.067</ele>
        <time>2014-11-08T13:42:19Z</time>
      </trkpt>
      <trkpt lat="37.331678" lon="-4.327528">
        <ele>794.085</ele>
        <time>2014-11-08T13:42:27Z</time>
      </trkpt>
      <trkpt lat="37.331663" lon="-4.327648">
        <ele>798.089</ele>
        <time>2014-11-08T13:42:34Z</time>
      </trkpt>
      <trkpt lat="37.331651" lon="-4.327769">
        <ele>791.017</ele>
        <time>2014-11-08T13:42:42Z</time>
      </trkpt>
      <trkpt lat="37.331634" lon="-4.327888">
        <ele>791.007</ele>
        <time>2014-11-08T13:42:51Z</time>
      </trkpt>
      <trkpt lat="37.331636" lon="-4.328008">
        <ele>794.036</ele>
        <time>2014-11-08T13:42:59Z</time>
      </trkpt>
      <trkpt lat="37.331654" lon="-4.328119">
        <ele>818.050</ele>
        <time>2014-11-08T13:43:06Z</time>
      </trkpt>
      <trkpt lat="37.331644" lon="-4.328239">
        <ele>751.038</ele>
        <time>2014-11-08T13:43:14Z</time>
      </trkpt>
      <trkpt lat="37.331639" lon="-4.328360">
        <ele>768.027</ele>
        <time>2014-11-08T13:43:23Z</time>
      </trkpt>
      <trkpt lat="37.331619" lon="-4.328484">
        <ele>771.060</ele>
        <time>2014-11-08T13:43:32Z</time>
      </trkpt>
      <trkpt lat="37.331581" lon="-4.328600">
        <ele>756.048</ele>
        <time>2014-11-08T13:43:39Z</time>
      </trkpt>
      <trkpt lat="37.331564" lon="-4.328713">
        <ele>751.032</ele>
        <time>2014-11-08T13:43:47Z</time>
      </trkpt>
      <trkpt lat="37.331536" lon="-4.328835">
        <ele>758.013</ele>
        <time>2014-11-08T13:43:55Z</time>
      </trkpt>
      <trkpt lat="37.331536" lon="-4.328949">
        <ele>774.043</ele>
        <time>2014-11-08T13:44:03Z</time>
      </trkpt>
      <trkpt lat="37.331523" lon="-4.329063">
        <ele>792.007</ele>
        <time>2014-11-08T13:44:11Z</time>
      </trkpt>
      <trkpt lat="37.331491" lon="-4.329183">
        <ele>790.007</ele>
        <time>2014-11-08T13:44:20Z</time>
      </trkpt>
      <trkpt lat="37.331453" lon="-4.329293">
        <ele>786.019</ele>
        <time>2014-11-08T13:44:29Z</time>
      </trkpt>
      <trkpt lat="37.331422" lon="-4.329407">
        <ele>784.043</ele>
        <time>2014-11-08T13:44:38Z</time>
      </trkpt>
      <trkpt lat="37.331386" lon="-4.329517">
        <ele>790.021</ele>
        <time>2014-11-08T13:44:46Z</time>
      </trkpt>
      <trkpt lat="37.331328" lon="-4.329622">
        <ele>798.090</ele>
        <time>2014-11-08T13:44:55Z</time>
      </trkpt>
      <trkpt lat="37.331265" lon="-4.329707">
        <ele>797.093</ele>
        <time>2014-11-08T13:45:02Z</time>
      </trkpt>
      <trkpt lat="37.331199" lon="-4.329789">
        <ele>800.071</ele>
        <time>2014-11-08T13:45:09Z</time>
      </trkpt>
      <trkpt lat="37.331108" lon="-4.329840">
        <ele>783.075</ele>
        <time>2014-11-08T13:45:17Z</time>
      </trkpt>
      <trkpt lat="37.331045" lon="-4.329922">
        <ele>833.072</ele>
        <time>2014-11-08T13:45:26Z</time>
      </trkpt>
      <trkpt lat="37.330963" lon="-4.329981">
        <ele>849.013</ele>
        <time>2014-11-08T13:45:35Z</time>
      </trkpt>
      <trkpt lat="37.330883" lon="-4.330046">
        <ele>851.014</ele>
        <time>2014-11-08T13:45:44Z</time>
      </trkpt>
      <trkpt lat="37.330795" lon="-4.330093">
        <ele>851.007</ele>
        <time>2014-11-08T13:45:53Z</time>
      </trkpt>
      <trkpt lat="37.330750" lon="-4.330109">
        <ele>851.035</ele>
        <time>2014-11-08T13:46:03Z</time>
      </trkpt>
      <trkpt lat="37.330660" lon="-4.330160">
        <ele>850.039</ele>
        <time>2014-11-08T13:46:11Z</time>
      </trkpt>
      <trkpt lat="37.330575" lon="-4.330225">
        <ele>851.017</ele>
        <time>2014-11-08T13:46:20Z</time>
      </trkpt>
      <trkpt lat="37.330489" lon="-4.330283">
        <ele>851.076</ele>
        <time>2014-11-08T13:46:27Z</time>
      </trkpt>
      <trkpt lat="37.330406" lon="-4.330356">
        <ele>852.079</ele>
        <time>2014-11-08T13:46:34Z</time>
      </trkpt>
      <trkpt lat="37.330322" lon="-4.330430">
        <ele>852.057</ele>
        <time>2014-11-08T13:46:43Z</time>
      </trkpt>
      <trkpt lat="37.330260" lon="-4.330512">
        <ele>855.011</ele>
        <time>2014-11-08T13:46:49Z</time>
      </trkpt>
      <trkpt lat="37.330200" lon="-4.330605">
        <ele>855.047</ele>
        <time>2014-11-08T13:46:56Z</time>
      </trkpt>
      <trkpt lat="37.330167" lon="-4.330721">
        <ele>854.029</ele>
        <time>2014-11-08T13:47:03Z</time>
      </trkpt>
      <trkpt lat="37.330151" lon="-4.330837">
        <ele>851.021</ele>
        <time>2014-11-08T13:47:12Z</time>
      </trkpt>
      <trkpt lat="37.330130" lon="-4.330950">
        <ele>851.007</ele>
        <time>2014-11-08T13:47:20Z</time>
      </trkpt>
      <trkpt lat="37.330118" lon="-4.331062">
        <ele>848.012</ele>
        <time>2014-11-08T13:47:28Z</time>
      </trkpt>
      <trkpt lat="37.330107" lon="-4.331177">
        <ele>849.046</ele>
        <time>2014-11-08T13:47:37Z</time>
      </trkpt>
      <trkpt lat="37.330080" lon="-4.331286">
        <ele>850.054</ele>
        <time>2014-11-08T13:47:43Z</time>
      </trkpt>
      <trkpt lat="37.330071" lon="-4.331403">
        <ele>852.083</ele>
        <time>2014-11-08T13:47:51Z</time>
      </trkpt>
      <trkpt lat="37.330059" lon="-4.331526">
        <ele>850.076</ele>
        <time>2014-11-08T13:47:59Z</time>
      </trkpt>
      <trkpt lat="37.330076" lon="-4.331637">
        <ele>848.074</ele>
        <time>2014-11-08T13:48:07Z</time>
      </trkpt>
      <trkpt lat="37.330093" lon="-4.331737">
        <ele>847.018</ele>
        <time>2014-11-08T13:48:17Z</time>
      </trkpt>
      <trkpt lat="37.330112" lon="-4.331841">
        <ele>849.048</ele>
        <time>2014-11-08T13:48:27Z</time>
      </trkpt>
      <trkpt lat="37.330089" lon="-4.331964">
        <ele>777.061</ele>
        <time>2014-11-08T13:48:37Z</time>
      </trkpt>
      <trkpt lat="37.330039" lon="-4.332073">
        <ele>775.017</ele>
        <time>2014-11-08T13:48:45Z</time>
      </trkpt>
      <trkpt lat="37.330039" lon="-4.332195">
        <ele>774.007</ele>
        <time>2014-11-08T13:48:52Z</time>
      </trkpt>
      <trkpt lat="37.330052" lon="-4.332271">
        <ele>774.072</ele>
        <time>2014-11-08T13:49:03Z</time>
      </trkpt>
      <trkpt lat="37.330049" lon="-4.332340">
        <ele>778.056</ele>
        <time>2014-11-08T13:49:17Z</time>
      </trkpt>
      <trkpt lat="37.330083" lon="-4.332453">
        <ele>784.064</ele>
        <time>2014-11-08T13:49:27Z</time>
      </trkpt>
      <trkpt lat="37.330119" lon="-4.332564">
        <ele>776.063</ele>
        <time>2014-11-08T13:49:36Z</time>
      </trkpt>
      <trkpt lat="37.330187" lon="-4.332644">
        <ele>844.026</ele>
        <time>2014-11-08T13:49:46Z</time>
      </trkpt>
      <trkpt lat="37.330247" lon="-4.332716">
        <ele>778.094</ele>
        <time>2014-11-08T13:49:56Z</time>
      </trkpt>
      <trkpt lat="37.330314" lon="-4.332817">
        <ele>766.018</ele>
        <time>2014-11-08T13:50:06Z</time>
      </trkpt>
      <trkpt lat="37.330357" lon="-4.332916">
        <ele>777.037</ele>
        <time>2014-11-08T13:50:16Z</time>
      </trkpt>
      <trkpt lat="37.330418" lon="-4.333009">
        <ele>782.049</ele>
        <time>2014-11-08T13:50:24Z</time>
      </trkpt>
      <trkpt lat="37.330461" lon="-4.333101">
        <ele>803.013</ele>
        <time>2014-11-08T13:50:34Z</time>
      </trkpt>
      <trkpt lat="37.330544" lon="-4.333163">
        <ele>813.007</ele>
        <time>2014-11-08T13:50:44Z</time>
      </trkpt>
      <trkpt lat="37.330581" lon="-4.333199">
        <ele>798.031</ele>
        <time>2014-11-08T13:51:05Z</time>
      </trkpt>
      <trkpt lat="37.330643" lon="-4.333293">
        <ele>810.095</ele>
        <time>2014-11-08T13:51:14Z</time>
      </trkpt>
      <trkpt lat="37.330703" lon="-4.333368">
        <ele>804.083</ele>
        <time>2014-11-08T13:51:25Z</time>
      </trkpt>
      <trkpt lat="37.330743" lon="-4.333445">
        <ele>791.092</ele>
        <time>2014-11-08T13:51:35Z</time>
      </trkpt>
      <trkpt lat="37.330783" lon="-4.333508">
        <ele>788.065</ele>
        <time>2014-11-08T13:51:45Z</time>
      </trkpt>
      <trkpt lat="37.330831" lon="-4.333530">
        <ele>775.083</ele>
        <time>2014-11-08T13:51:57Z</time>
      </trkpt>
      <trkpt lat="37.330905" lon="-4.333597">
        <ele>785.017</ele>
        <time>2014-11-08T13:52:05Z</time>
      </trkpt>
      <trkpt lat="37.330972" lon="-4.333640">
        <ele>768.059</ele>
        <time>2014-11-08T13:52:15Z</time>
      </trkpt>
      <trkpt lat="37.331017" lon="-4.333670">
        <ele>777.003</ele>
        <time>2014-11-08T13:52:25Z</time>
      </trkpt>
      <trkpt lat="37.331062" lon="-4.333705">
        <ele>856.023</ele>
        <time>2014-11-08T13:52:36Z</time>
      </trkpt>
      <trkpt lat="37.331138" lon="-4.333769">
        <ele>848.007</ele>
        <time>2014-11-08T13:52:46Z</time>
      </trkpt>
      <trkpt lat="37.331213" lon="-4.333832">
        <ele>872.033</ele>
        <time>2014-11-08T13:52:55Z</time>
      </trkpt>
      <trkpt lat="37.331285" lon="-4.333867">
        <ele>884.057</ele>
        <time>2014-11-08T13:53:05Z</time>
      </trkpt>
      <trkpt lat="37.331305" lon="-4.333919">
        <ele>818.055</ele>
        <time>2014-11-08T13:53:18Z</time>
      </trkpt>
      <trkpt lat="37.331359" lon="-4.334013">
        <ele>825.054</ele>
        <time>2014-11-08T13:53:26Z</time>
      </trkpt>
      <trkpt lat="37.331357" lon="-4.334133">
        <ele>819.047</ele>
        <time>2014-11-08T13:53:35Z</time>
      </trkpt>
      <trkpt lat="37.331388" lon="-4.334241">
        <ele>885.075</ele>
        <time>2014-11-08T13:53:45Z</time>
      </trkpt>
      <trkpt lat="37.331426" lon="-4.334288">
        <ele>893.039</ele>
        <time>2014-11-08T13:53:55Z</time>
      </trkpt>
      <trkpt lat="37.331447" lon="-4.334411">
        <ele>897.014</ele>
        <time>2014-11-08T13:54:04Z</time>
      </trkpt>
      <trkpt lat="37.331478" lon="-4.334508">
        <ele>898.054</ele>
        <time>2014-11-08T13:54:15Z</time>
      </trkpt>
      <trkpt lat="37.331536" lon="-4.334553">
        <ele>902.009</ele>
        <time>2014-11-08T13:54:25Z</time>
      </trkpt>
      <trkpt lat="37.331580" lon="-4.334623">
        <ele>904.007</ele>
        <time>2014-11-08T13:54:35Z</time>
      </trkpt>
      <trkpt lat="37.331625" lon="-4.334703">
        <ele>901.099</ele>
        <time>2014-11-08T13:54:45Z</time>
      </trkpt>
      <trkpt lat="37.331679" lon="-4.334724">
        <ele>904.073</ele>
        <time>2014-11-08T13:54:55Z</time>
      </trkpt>
      <trkpt lat="37.331776" lon="-4.334767">
        <ele>901.061</ele>
        <time>2014-11-08T13:55:05Z</time>
      </trkpt>
      <trkpt lat="37.331813" lon="-4.334824">
        <ele>901.090</ele>
        <time>2014-11-08T13:55:15Z</time>
      </trkpt>
      <trkpt lat="37.331862" lon="-4.334815">
        <ele>902.073</ele>
        <time>2014-11-08T13:55:31Z</time>
      </trkpt>
      <trkpt lat="37.331875" lon="-4.334877">
        <ele>906.091</ele>
        <time>2014-11-08T13:55:41Z</time>
      </trkpt>
      <trkpt lat="37.331856" lon="-4.334991">
        <ele>905.085</ele>
        <time>2014-11-08T13:55:51Z</time>
      </trkpt>
      <trkpt lat="37.331829" lon="-4.335091">
        <ele>909.068</ele>
        <time>2014-11-08T13:56:01Z</time>
      </trkpt>
      <trkpt lat="37.331758" lon="-4.335162">
        <ele>915.042</ele>
        <time>2014-11-08T13:56:11Z</time>
      </trkpt>
      <trkpt lat="37.331713" lon="-4.335185">
        <ele>920.026</ele>
        <time>2014-11-08T13:56:26Z</time>
      </trkpt>
      <trkpt lat="37.331673" lon="-4.335288">
        <ele>920.007</ele>
        <time>2014-11-08T13:56:36Z</time>
      </trkpt>
      <trkpt lat="37.331627" lon="-4.335379">
        <ele>923.034</ele>
        <time>2014-11-08T13:56:47Z</time>
      </trkpt>
      <trkpt lat="37.331557" lon="-4.335402">
        <ele>926.088</ele>
        <time>2014-11-08T13:56:57Z</time>
      </trkpt>
      <trkpt lat="37.331486" lon="-4.335418">
        <ele>796.066</ele>
        <time>2014-11-08T13:57:07Z</time>
      </trkpt>
      <trkpt lat="37.331465" lon="-4.335474">
        <ele>786.035</ele>
        <time>2014-11-08T13:57:17Z</time>
      </trkpt>
      <trkpt lat="37.331433" lon="-4.335546">
        <ele>792.018</ele>
        <time>2014-11-08T13:57:27Z</time>
      </trkpt>
      <trkpt lat="37.331358" lon="-4.335612">
        <ele>888.066</ele>
        <time>2014-11-08T13:57:35Z</time>
      </trkpt>
      <trkpt lat="37.331347" lon="-4.335671">
        <ele>929.010</ele>
        <time>2014-11-08T13:57:47Z</time>
      </trkpt>
      <trkpt lat="37.331306" lon="-4.335776">
        <ele>932.094</ele>
        <time>2014-11-08T13:57:57Z</time>
      </trkpt>
      <trkpt lat="37.331256" lon="-4.335878">
        <ele>938.057</ele>
        <time>2014-11-08T13:58:06Z</time>
      </trkpt>
      <trkpt lat="37.331224" lon="-4.335992">
        <ele>942.022</ele>
        <time>2014-11-08T13:58:16Z</time>
      </trkpt>
      <trkpt lat="37.331184" lon="-4.336103">
        <ele>948.007</ele>
        <time>2014-11-08T13:58:24Z</time>
      </trkpt>
      <trkpt lat="37.331151" lon="-4.336218">
        <ele>824.037</ele>
        <time>2014-11-08T13:58:32Z</time>
      </trkpt>
      <trkpt lat="37.331091" lon="-4.336306">
        <ele>823.061</ele>
        <time>2014-11-08T13:58:41Z</time>
      </trkpt>
      <trkpt lat="37.331039" lon="-4.336409">
        <ele>836.069</ele>
        <time>2014-11-08T13:58:50Z</time>
      </trkpt>
      <trkpt lat="37.331010" lon="-4.336490">
        <ele>837.018</ele>
        <time>2014-11-08T13:59:00Z</time>
      </trkpt>
      <trkpt lat="37.330967" lon="-4.336601">
        <ele>842.031</ele>
        <time>2014-11-08T13:59:10Z</time>
      </trkpt>
      <trkpt lat="37.330905" lon="-4.336697">
        <ele>845.049</ele>
        <time>2014-11-08T13:59:18Z</time>
      </trkpt>
      <trkpt lat="37.330835" lon="-4.336794">
        <ele>827.053</ele>
        <time>2014-11-08T13:59:25Z</time>
      </trkpt>
      <trkpt lat="37.330799" lon="-4.336877">
        <ele>783.074</ele>
        <time>2014-11-08T13:59:35Z</time>
      </trkpt>
      <trkpt lat="37.330736" lon="-4.336972">
        <ele>797.056</ele>
        <time>2014-11-08T13:59:41Z</time>
      </trkpt>
      <trkpt lat="37.330704" lon="-4.337088">
        <ele>798.021</ele>
        <time>2014-11-08T13:59:48Z</time>
      </trkpt>
      <trkpt lat="37.330665" lon="-4.337202">
        <ele>773.007</ele>
        <time>2014-11-08T13:59:57Z</time>
      </trkpt>
      <trkpt lat="37.330655" lon="-4.337324">
        <ele>772.075</ele>
        <time>2014-11-08T14:00:05Z</time>
      </trkpt>
      <trkpt lat="37.330651" lon="-4.337381">
        <ele>787.029</ele>
        <time>2014-11-08T14:00:16Z</time>
      </trkpt>
      <trkpt lat="37.330609" lon="-4.337419">
        <ele>785.077</ele>
        <time>2014-11-08T14:00:35Z</time>
      </trkpt>
      <trkpt lat="37.330592" lon="-4.337541">
        <ele>780.086</ele>
        <time>2014-11-08T14:00:44Z</time>
      </trkpt>
      <trkpt lat="37.330540" lon="-4.337649">
        <ele>787.079</ele>
        <time>2014-11-08T14:00:51Z</time>
      </trkpt>
      <trkpt lat="37.330495" lon="-4.337760">
        <ele>778.037</ele>
        <time>2014-11-08T14:00:57Z</time>
      </trkpt>
      <trkpt lat="37.330461" lon="-4.337873">
        <ele>777.081</ele>
        <time>2014-11-08T14:01:03Z</time>
      </trkpt>
      <trkpt lat="37.330442" lon="-4.337984">
        <ele>766.018</ele>
        <time>2014-11-08T14:01:09Z</time>
      </trkpt>
      <trkpt lat="37.330418" lon="-4.338110">
        <ele>769.098</ele>
        <time>2014-11-08T14:01:18Z</time>
      </trkpt>
      <trkpt lat="37.330386" lon="-4.338218">
        <ele>767.017</ele>
        <time>2014-11-08T14:01:24Z</time>
      </trkpt>
      <trkpt lat="37.330313" lon="-4.338274">
        <ele>776.007</ele>
        <time>2014-11-08T14:01:34Z</time>
      </trkpt>
      <trkpt lat="37.330278" lon="-4.338325">
        <ele>777.059</ele>
        <time>2014-11-08T14:01:49Z</time>
      </trkpt>
      <trkpt lat="37.330245" lon="-4.338437">
        <ele>709.063</ele>
        <time>2014-11-08T14:01:57Z</time>
      </trkpt>
      <trkpt lat="37.330220" lon="-4.338558">
        <ele>697.031</ele>
        <time>2014-11-08T14:02:04Z</time>
      </trkpt>
      <trkpt lat="37.330183" lon="-4.338670">
        <ele>699.020</ele>
        <time>2014-11-08T14:02:12Z</time>
      </trkpt>
      <trkpt lat="37.330118" lon="-4.338768">
        <ele>695.073</ele>
        <time>2014-11-08T14:02:19Z</time>
      </trkpt>
      <trkpt lat="37.330081" lon="-4.338882">
        <ele>719.011</ele>
        <time>2014-11-08T14:02:29Z</time>
      </trkpt>
      <trkpt lat="37.330036" lon="-4.338986">
        <ele>740.085</ele>
        <time>2014-11-08T14:02:37Z</time>
      </trkpt>
      <trkpt lat="37.330004" lon="-4.339104">
        <ele>789.085</ele>
        <time>2014-11-08T14:02:46Z</time>
      </trkpt>
      <trkpt lat="37.329964" lon="-4.339218">
        <ele>722.089</ele>
        <time>2014-11-08T14:02:55Z</time>
      </trkpt>
      <trkpt lat="37.329915" lon="-4.339323">
        <ele>695.017</ele>
        <time>2014-11-08T14:03:02Z</time>
      </trkpt>
      <trkpt lat="37.329856" lon="-4.339431">
        <ele>687.007</ele>
        <time>2014-11-08T14:03:08Z</time>
      </trkpt>
      <trkpt lat="37.329814" lon="-4.339553">
        <ele>645.046</ele>
        <time>2014-11-08T14:03:15Z</time>
      </trkpt>
      <trkpt lat="37.329745" lon="-4.339628">
        <ele>748.050</ele>
        <time>2014-11-08T14:03:24Z</time>
      </trkpt>
      <trkpt lat="37.329722" lon="-4.339744">
        <ele>619.028</ele>
        <time>2014-11-08T14:03:34Z</time>
      </trkpt>
      <trkpt lat="37.329655" lon="-4.339835">
        <ele>623.077</ele>
        <time>2014-11-08T14:03:41Z</time>
      </trkpt>
      <trkpt lat="37.329576" lon="-4.339941">
        <ele>613.030</ele>
        <time>2014-11-08T14:03:50Z</time>
      </trkpt>
      <trkpt lat="37.329540" lon="-4.340055">
        <ele>628.068</ele>
        <time>2014-11-08T14:03:59Z</time>
      </trkpt>
      <trkpt lat="37.329486" lon="-4.340169">
        <ele>588.052</ele>
        <time>2014-11-08T14:04:06Z</time>
      </trkpt>
      <trkpt lat="37.329457" lon="-4.340280">
        <ele>649.066</ele>
        <time>2014-11-08T14:04:14Z</time>
      </trkpt>
      <trkpt lat="37.329433" lon="-4.340392">
        <ele>657.029</ele>
        <time>2014-11-08T14:04:21Z</time>
      </trkpt>
      <trkpt lat="37.329403" lon="-4.340514">
        <ele>604.021</ele>
        <time>2014-11-08T14:04:31Z</time>
      </trkpt>
      <trkpt lat="37.329349" lon="-4.340626">
        <ele>609.007</ele>
        <time>2014-11-08T14:04:39Z</time>
      </trkpt>
      <trkpt lat="37.329322" lon="-4.340735">
        <ele>684.074</ele>
        <time>2014-11-08T14:04:48Z</time>
      </trkpt>
      <trkpt lat="37.329270" lon="-4.340837">
        <ele>624.028</ele>
        <time>2014-11-08T14:04:55Z</time>
      </trkpt>
      <trkpt lat="37.329223" lon="-4.340948">
        <ele>590.066</ele>
        <time>2014-11-08T14:05:01Z</time>
      </trkpt>
      <trkpt lat="37.329166" lon="-4.341045">
        <ele>594.085</ele>
        <time>2014-11-08T14:05:07Z</time>
      </trkpt>
      <trkpt lat="37.329089" lon="-4.341126">
        <ele>653.018</ele>
        <time>2014-11-08T14:05:13Z</time>
      </trkpt>
      <trkpt lat="37.329041" lon="-4.341228">
        <ele>650.056</ele>
        <time>2014-11-08T14:05:22Z</time>
      </trkpt>
      <trkpt lat="37.329010" lon="-4.341335">
        <ele>673.060</ele>
        <time>2014-11-08T14:05:26Z</time>
      </trkpt>
      <trkpt lat="37.328950" lon="-4.341434">
        <ele>700.025</ele>
        <time>2014-11-08T14:05:32Z</time>
      </trkpt>
      <trkpt lat="37.328890" lon="-4.341537">
        <ele>698.026</ele>
        <time>2014-11-08T14:05:38Z</time>
      </trkpt>
      <trkpt lat="37.328831" lon="-4.341638">
        <ele>624.008</ele>
        <time>2014-11-08T14:05:45Z</time>
      </trkpt>
      <trkpt lat="37.328784" lon="-4.341741">
        <ele>652.007</ele>
        <time>2014-11-08T14:05:55Z</time>
      </trkpt>
      <trkpt lat="37.328725" lon="-4.341836">
        <ele>644.050</ele>
        <time>2014-11-08T14:06:02Z</time>
      </trkpt>
      <trkpt lat="37.328679" lon="-4.341934">
        <ele>623.064</ele>
        <time>2014-11-08T14:06:09Z</time>
      </trkpt>
      <trkpt lat="37.328611" lon="-4.342023">
        <ele>583.012</ele>
        <time>2014-11-08T14:06:15Z</time>
      </trkpt>
      <trkpt lat="37.328596" lon="-4.342136">
        <ele>514.091</ele>
        <time>2014-11-08T14:06:21Z</time>
      </trkpt>
      <trkpt lat="37.328593" lon="-4.342257">
        <ele>654.054</ele>
        <time>2014-11-08T14:06:28Z</time>
      </trkpt>
      <trkpt lat="37.328560" lon="-4.342376">
        <ele>643.082</ele>
        <time>2014-11-08T14:06:34Z</time>
      </trkpt>
      <trkpt lat="37.328526" lon="-4.342482">
        <ele>571.056</ele>
        <time>2014-11-08T14:06:44Z</time>
      </trkpt>
      <trkpt lat="37.328518" lon="-4.342604">
        <ele>608.046</ele>
        <time>2014-11-08T14:06:53Z</time>
      </trkpt>
      <trkpt lat="37.328457" lon="-4.342711">
        <ele>627.088</ele>
        <time>2014-11-08T14:06:58Z</time>
      </trkpt>
      <trkpt lat="37.328433" lon="-4.342830">
        <ele>562.016</ele>
        <time>2014-11-08T14:07:06Z</time>
      </trkpt>
      <trkpt lat="37.328376" lon="-4.342938">
        <ele>627.007</ele>
        <time>2014-11-08T14:07:14Z</time>
      </trkpt>
      <trkpt lat="37.328337" lon="-4.342991">
        <ele>875.052</ele>
        <time>2014-11-08T14:07:30Z</time>
      </trkpt>
      <trkpt lat="37.328288" lon="-4.343091">
        <ele>882.076</ele>
        <time>2014-11-08T14:07:36Z</time>
      </trkpt>
      <trkpt lat="37.328231" lon="-4.343198">
        <ele>880.014</ele>
        <time>2014-11-08T14:07:43Z</time>
      </trkpt>
      <trkpt lat="37.328176" lon="-4.343290">
        <ele>880.033</ele>
        <time>2014-11-08T14:07:50Z</time>
      </trkpt>
      <trkpt lat="37.328138" lon="-4.343400">
        <ele>879.026</ele>
        <time>2014-11-08T14:07:58Z</time>
      </trkpt>
      <trkpt lat="37.328070" lon="-4.343493">
        <ele>880.044</ele>
        <time>2014-11-08T14:08:04Z</time>
      </trkpt>
      <trkpt lat="37.328045" lon="-4.343611">
        <ele>877.098</ele>
        <time>2014-11-08T14:08:13Z</time>
      </trkpt>
      <trkpt lat="37.328007" lon="-4.343720">
        <ele>876.087</ele>
        <time>2014-11-08T14:08:23Z</time>
      </trkpt>
      <trkpt lat="37.327944" lon="-4.343806">
        <ele>876.042</ele>
        <time>2014-11-08T14:08:31Z</time>
      </trkpt>
      <trkpt lat="37.327928" lon="-4.343922">
        <ele>875.026</ele>
        <time>2014-11-08T14:08:39Z</time>
      </trkpt>
      <trkpt lat="37.327909" lon="-4.343974">
        <ele>881.007</ele>
        <time>2014-11-08T14:08:51Z</time>
      </trkpt>
      <trkpt lat="37.327881" lon="-4.344092">
        <ele>884.026</ele>
        <time>2014-11-08T14:08:58Z</time>
      </trkpt>
      <trkpt lat="37.327840" lon="-4.344195">
        <ele>880.070</ele>
        <time>2014-11-08T14:09:05Z</time>
      </trkpt>
      <trkpt lat="37.327816" lon="-4.344313">
        <ele>875.048</ele>
        <time>2014-11-08T14:09:13Z</time>
      </trkpt>
      <trkpt lat="37.327770" lon="-4.344420">
        <ele>874.037</ele>
        <time>2014-11-08T14:09:20Z</time>
      </trkpt>
      <trkpt lat="37.327706" lon="-4.344515">
        <ele>875.020</ele>
        <time>2014-11-08T14:09:28Z</time>
      </trkpt>
      <trkpt lat="37.327648" lon="-4.344610">
        <ele>874.098</ele>
        <time>2014-11-08T14:09:35Z</time>
      </trkpt>
      <trkpt lat="37.327580" lon="-4.344693">
        <ele>873.062</ele>
        <time>2014-11-08T14:09:42Z</time>
      </trkpt>
      <trkpt lat="37.327516" lon="-4.344782">
        <ele>874.049</ele>
        <time>2014-11-08T14:09:51Z</time>
      </trkpt>
      <trkpt lat="37.327471" lon="-4.344881">
        <ele>875.002</ele>
        <time>2014-11-08T14:09:58Z</time>
      </trkpt>
      <trkpt lat="37.327428" lon="-4.344983">
        <ele>873.022</ele>
        <time>2014-11-08T14:10:07Z</time>
      </trkpt>
      <trkpt lat="37.327381" lon="-4.345099">
        <ele>871.007</ele>
        <time>2014-11-08T14:10:14Z</time>
      </trkpt>
      <trkpt lat="37.327333" lon="-4.345202">
        <ele>870.052</ele>
        <time>2014-11-08T14:10:22Z</time>
      </trkpt>
      <trkpt lat="37.327291" lon="-4.345318">
        <ele>870.086</ele>
        <time>2014-11-08T14:10:30Z</time>
      </trkpt>
      <trkpt lat="37.327256" lon="-4.345426">
        <ele>865.074</ele>
        <time>2014-11-08T14:10:38Z</time>
      </trkpt>
      <trkpt lat="37.327217" lon="-4.345535">
        <ele>866.023</ele>
        <time>2014-11-08T14:10:46Z</time>
      </trkpt>
      <trkpt lat="37.327201" lon="-4.345625">
        <ele>865.076</ele>
        <time>2014-11-08T14:10:56Z</time>
      </trkpt>
      <trkpt lat="37.327168" lon="-4.345681">
        <ele>863.054</ele>
        <time>2014-11-08T14:11:20Z</time>
      </trkpt>
      <trkpt lat="37.327148" lon="-4.345732">
        <ele>871.018</ele>
        <time>2014-11-08T14:11:49Z</time>
      </trkpt>
      <trkpt lat="37.327129" lon="-4.345796">
        <ele>868.016</ele>
        <time>2014-11-08T14:12:20Z</time>
      </trkpt>
      <trkpt lat="37.327083" lon="-4.345893">
        <ele>868.076</ele>
        <time>2014-11-08T14:12:28Z</time>
      </trkpt>
      <trkpt lat="37.327044" lon="-4.346007">
        <ele>868.013</ele>
        <time>2014-11-08T14:12:36Z</time>
      </trkpt>
      <trkpt lat="37.326978" lon="-4.346101">
        <ele>872.007</ele>
        <time>2014-11-08T14:12:44Z</time>
      </trkpt>
      <trkpt lat="37.326924" lon="-4.346209">
        <ele>870.069</ele>
        <time>2014-11-08T14:12:51Z</time>
      </trkpt>
      <trkpt lat="37.326867" lon="-4.346303">
        <ele>873.013</ele>
        <time>2014-11-08T14:12:58Z</time>
      </trkpt>
      <trkpt lat="37.326804" lon="-4.346404">
        <ele>873.031</ele>
        <time>2014-11-08T14:13:06Z</time>
      </trkpt>
      <trkpt lat="37.326726" lon="-4.346470">
        <ele>873.090</ele>
        <time>2014-11-08T14:13:13Z</time>
      </trkpt>
      <trkpt lat="37.326656" lon="-4.346548">
        <ele>873.033</ele>
        <time>2014-11-08T14:13:23Z</time>
      </trkpt>
      <trkpt lat="37.326587" lon="-4.346552">
        <ele>873.041</ele>
        <time>2014-11-08T14:13:33Z</time>
      </trkpt>
      <trkpt lat="37.326513" lon="-4.346632">
        <ele>872.095</ele>
        <time>2014-11-08T14:13:41Z</time>
      </trkpt>
      <trkpt lat="37.326456" lon="-4.346723">
        <ele>864.061</ele>
        <time>2014-11-08T14:13:47Z</time>
      </trkpt>
      <trkpt lat="37.326418" lon="-4.346826">
        <ele>862.021</ele>
        <time>2014-11-08T14:13:53Z</time>
      </trkpt>
      <trkpt lat="37.326341" lon="-4.346905">
        <ele>867.013</ele>
        <time>2014-11-08T14:14:00Z</time>
      </trkpt>
      <trkpt lat="37.326258" lon="-4.346959">
        <ele>867.007</ele>
        <time>2014-11-08T14:14:08Z</time>
      </trkpt>
      <trkpt lat="37.326193" lon="-4.347039">
        <ele>867.084</ele>
        <time>2014-11-08T14:14:15Z</time>
      </trkpt>
      <trkpt lat="37.326132" lon="-4.347134">
        <ele>867.078</ele>
        <time>2014-11-08T14:14:22Z</time>
      </trkpt>
      <trkpt lat="37.326052" lon="-4.347201">
        <ele>868.076</ele>
        <time>2014-11-08T14:14:29Z</time>
      </trkpt>
      <trkpt lat="37.326002" lon="-4.347301">
        <ele>867.055</ele>
        <time>2014-11-08T14:14:37Z</time>
      </trkpt>
      <trkpt lat="37.325959" lon="-4.347401">
        <ele>863.078</ele>
        <time>2014-11-08T14:14:45Z</time>
      </trkpt>
      <trkpt lat="37.325947" lon="-4.347544">
        <ele>862.026</ele>
        <time>2014-11-08T14:14:52Z</time>
      </trkpt>
      <trkpt lat="37.325955" lon="-4.347672">
        <ele>863.090</ele>
        <time>2014-11-08T14:14:59Z</time>
      </trkpt>
      <trkpt lat="37.325975" lon="-4.347794">
        <ele>858.055</ele>
        <time>2014-11-08T14:15:07Z</time>
      </trkpt>
      <trkpt lat="37.325995" lon="-4.347912">
        <ele>852.007</ele>
        <time>2014-11-08T14:15:17Z</time>
      </trkpt>
      <trkpt lat="37.326003" lon="-4.348030">
        <ele>847.017</ele>
        <time>2014-11-08T14:15:27Z</time>
      </trkpt>
      <trkpt lat="37.325976" lon="-4.348145">
        <ele>845.007</ele>
        <time>2014-11-08T14:15:36Z</time>
      </trkpt>
      <trkpt lat="37.325943" lon="-4.348251">
        <ele>853.033</ele>
        <time>2014-11-08T14:15:44Z</time>
      </trkpt>
      <trkpt lat="37.325908" lon="-4.348298">
        <ele>846.057</ele>
        <time>2014-11-08T14:15:57Z</time>
      </trkpt>
      <trkpt lat="37.325827" lon="-4.348355">
        <ele>851.045</ele>
        <time>2014-11-08T14:16:04Z</time>
      </trkpt>
      <trkpt lat="37.325754" lon="-4.348426">
        <ele>853.074</ele>
        <time>2014-11-08T14:16:10Z</time>
      </trkpt>
      <trkpt lat="37.325656" lon="-4.348431">
        <ele>848.077</ele>
        <time>2014-11-08T14:16:17Z</time>
      </trkpt>
      <trkpt lat="37.325563" lon="-4.348479">
        <ele>854.035</ele>
        <time>2014-11-08T14:16:25Z</time>
      </trkpt>
      <trkpt lat="37.325477" lon="-4.348519">
        <ele>859.069</ele>
        <time>2014-11-08T14:16:31Z</time>
      </trkpt>
      <trkpt lat="37.325385" lon="-4.348554">
        <ele>865.018</ele>
        <time>2014-11-08T14:16:39Z</time>
      </trkpt>
      <trkpt lat="37.325322" lon="-4.348622">
        <ele>858.098</ele>
        <time>2014-11-08T14:16:49Z</time>
      </trkpt>
      <trkpt lat="37.325250" lon="-4.348681">
        <ele>861.017</ele>
        <time>2014-11-08T14:16:59Z</time>
      </trkpt>
      <trkpt lat="37.325218" lon="-4.348755">
        <ele>821.007</ele>
        <time>2014-11-08T14:17:09Z</time>
      </trkpt>
      <trkpt lat="37.325174" lon="-4.348845">
        <ele>816.079</ele>
        <time>2014-11-08T14:17:19Z</time>
      </trkpt>
      <trkpt lat="37.325116" lon="-4.348939">
        <ele>820.033</ele>
        <time>2014-11-08T14:17:27Z</time>
      </trkpt>
      <trkpt lat="37.325017" lon="-4.348968">
        <ele>821.051</ele>
        <time>2014-11-08T14:17:34Z</time>
      </trkpt>
      <trkpt lat="37.324970" lon="-4.348980">
        <ele>817.080</ele>
        <time>2014-11-08T14:17:56Z</time>
      </trkpt>
      <trkpt lat="37.324882" lon="-4.349022">
        <ele>815.063</ele>
        <time>2014-11-08T14:18:06Z</time>
      </trkpt>
      <trkpt lat="37.324786" lon="-4.349043">
        <ele>814.071</ele>
        <time>2014-11-08T14:18:16Z</time>
      </trkpt>
      <trkpt lat="37.324719" lon="-4.349119">
        <ele>814.075</ele>
        <time>2014-11-08T14:18:23Z</time>
      </trkpt>
      <trkpt lat="37.324685" lon="-4.349242">
        <ele>813.084</ele>
        <time>2014-11-08T14:18:29Z</time>
      </trkpt>
      <trkpt lat="37.324715" lon="-4.349363">
        <ele>810.007</ele>
        <time>2014-11-08T14:18:37Z</time>
      </trkpt>
      <trkpt lat="37.324718" lon="-4.349478">
        <ele>808.017</ele>
        <time>2014-11-08T14:18:45Z</time>
      </trkpt>
      <trkpt lat="37.324715" lon="-4.349596">
        <ele>805.007</ele>
        <time>2014-11-08T14:18:54Z</time>
      </trkpt>
      <trkpt lat="37.324717" lon="-4.349719">
        <ele>806.086</ele>
        <time>2014-11-08T14:19:02Z</time>
      </trkpt>
      <trkpt lat="37.324754" lon="-4.349830">
        <ele>799.090</ele>
        <time>2014-11-08T14:19:08Z</time>
      </trkpt>
      <trkpt lat="37.324772" lon="-4.349958">
        <ele>804.018</ele>
        <time>2014-11-08T14:19:15Z</time>
      </trkpt>
      <trkpt lat="37.324749" lon="-4.350081">
        <ele>810.087</ele>
        <time>2014-11-08T14:19:22Z</time>
      </trkpt>
      <trkpt lat="37.324774" lon="-4.350195">
        <ele>808.070</ele>
        <time>2014-11-08T14:19:28Z</time>
      </trkpt>
      <trkpt lat="37.324798" lon="-4.350309">
        <ele>803.098</ele>
        <time>2014-11-08T14:19:35Z</time>
      </trkpt>
      <trkpt lat="37.324828" lon="-4.350429">
        <ele>803.012</ele>
        <time>2014-11-08T14:19:41Z</time>
      </trkpt>
      <trkpt lat="37.324829" lon="-4.350497">
        <ele>807.081</ele>
        <time>2014-11-08T14:19:51Z</time>
      </trkpt>
      <trkpt lat="37.324860" lon="-4.350622">
        <ele>803.061</ele>
        <time>2014-11-08T14:19:58Z</time>
      </trkpt>
      <trkpt lat="37.324880" lon="-4.350734">
        <ele>803.017</ele>
        <time>2014-11-08T14:20:04Z</time>
      </trkpt>
      <trkpt lat="37.324927" lon="-4.350838">
        <ele>802.007</ele>
        <time>2014-11-08T14:20:10Z</time>
      </trkpt>
      <trkpt lat="37.324949" lon="-4.350963">
        <ele>803.026</ele>
        <time>2014-11-08T14:20:17Z</time>
      </trkpt>
      <trkpt lat="37.324972" lon="-4.351084">
        <ele>800.050</ele>
        <time>2014-11-08T14:20:23Z</time>
      </trkpt>
      <trkpt lat="37.325014" lon="-4.351193">
        <ele>804.028</ele>
        <time>2014-11-08T14:20:30Z</time>
      </trkpt>
      <trkpt lat="37.325034" lon="-4.351317">
        <ele>810.027</ele>
        <time>2014-11-08T14:20:37Z</time>
      </trkpt>
      <trkpt lat="37.325004" lon="-4.351422">
        <ele>802.010</ele>
        <time>2014-11-08T14:20:47Z</time>
      </trkpt>
      <trkpt lat="37.325029" lon="-4.351526">
        <ele>810.068</ele>
        <time>2014-11-08T14:20:58Z</time>
      </trkpt>
      <trkpt lat="37.325067" lon="-4.351632">
        <ele>809.042</ele>
        <time>2014-11-08T14:21:04Z</time>
      </trkpt>
      <trkpt lat="37.325114" lon="-4.351731">
        <ele>812.051</ele>
        <time>2014-11-08T14:21:12Z</time>
      </trkpt>
      <trkpt lat="37.325173" lon="-4.351838">
        <ele>809.001</ele>
        <time>2014-11-08T14:21:19Z</time>
      </trkpt>
      <trkpt lat="37.325224" lon="-4.351946">
        <ele>806.011</ele>
        <time>2014-11-08T14:21:25Z</time>
      </trkpt>
      <trkpt lat="37.325256" lon="-4.352068">
        <ele>805.007</ele>
        <time>2014-11-08T14:21:30Z</time>
      </trkpt>
      <trkpt lat="37.325308" lon="-4.352163">
        <ele>807.043</ele>
        <time>2014-11-08T14:21:35Z</time>
      </trkpt>
      <trkpt lat="37.325330" lon="-4.352281">
        <ele>807.087</ele>
        <time>2014-11-08T14:21:40Z</time>
      </trkpt>
      <trkpt lat="37.325358" lon="-4.352394">
        <ele>806.085</ele>
        <time>2014-11-08T14:21:46Z</time>
      </trkpt>
      <trkpt lat="37.325387" lon="-4.352517">
        <ele>805.074</ele>
        <time>2014-11-08T14:21:53Z</time>
      </trkpt>
      <trkpt lat="37.325413" lon="-4.352628">
        <ele>805.017</ele>
        <time>2014-11-08T14:22:00Z</time>
      </trkpt>
      <trkpt lat="37.325462" lon="-4.352734">
        <ele>803.075</ele>
        <time>2014-11-08T14:22:06Z</time>
      </trkpt>
      <trkpt lat="37.325458" lon="-4.352868">
        <ele>805.099</ele>
        <time>2014-11-08T14:22:12Z</time>
      </trkpt>
      <trkpt lat="37.325486" lon="-4.352982">
        <ele>807.029</ele>
        <time>2014-11-08T14:22:18Z</time>
      </trkpt>
      <trkpt lat="37.325495" lon="-4.353105">
        <ele>801.000</ele>
        <time>2014-11-08T14:22:27Z</time>
      </trkpt>
      <trkpt lat="37.325542" lon="-4.353204">
        <ele>794.020</ele>
        <time>2014-11-08T14:22:36Z</time>
      </trkpt>
      <trkpt lat="37.325559" lon="-4.353317">
        <ele>798.007</ele>
        <time>2014-11-08T14:22:43Z</time>
      </trkpt>
      <trkpt lat="37.325573" lon="-4.353439">
        <ele>803.060</ele>
        <time>2014-11-08T14:22:49Z</time>
      </trkpt>
      <trkpt lat="37.325602" lon="-4.353547">
        <ele>802.094</ele>
        <time>2014-11-08T14:22:57Z</time>
      </trkpt>
      <trkpt lat="37.325682" lon="-4.353602">
        <ele>804.052</ele>
        <time>2014-11-08T14:23:04Z</time>
      </trkpt>
      <trkpt lat="37.325749" lon="-4.353696">
        <ele>804.011</ele>
        <time>2014-11-08T14:23:11Z</time>
      </trkpt>
      <trkpt lat="37.325796" lon="-4.353806">
        <ele>801.044</ele>
        <time>2014-11-08T14:23:18Z</time>
      </trkpt>
      <trkpt lat="37.325864" lon="-4.353886">
        <ele>800.022</ele>
        <time>2014-11-08T14:23:24Z</time>
      </trkpt>
      <trkpt lat="37.325923" lon="-4.353975">
        <ele>800.046</ele>
        <time>2014-11-08T14:23:30Z</time>
      </trkpt>
      <trkpt lat="37.326010" lon="-4.354035">
        <ele>807.016</ele>
        <time>2014-11-08T14:23:38Z</time>
      </trkpt>
      <trkpt lat="37.326057" lon="-4.354135">
        <ele>806.076</ele>
        <time>2014-11-08T14:23:45Z</time>
      </trkpt>
      <trkpt lat="37.326125" lon="-4.354215">
        <ele>809.013</ele>
        <time>2014-11-08T14:23:54Z</time>
      </trkpt>
      <trkpt lat="37.326207" lon="-4.354266">
        <ele>809.007</ele>
        <time>2014-11-08T14:24:04Z</time>
      </trkpt>
      <trkpt lat="37.326276" lon="-4.354235">
        <ele>811.069</ele>
        <time>2014-11-08T14:24:14Z</time>
      </trkpt>
      <trkpt lat="37.326282" lon="-4.354228">
        <ele>813.043</ele>
        <time>2014-11-08T14:24:55Z</time>
      </trkpt>
      <trkpt lat="37.326298" lon="-4.354227">
        <ele>813.041</ele>
        <time>2014-11-08T14:25:35Z</time>
      </trkpt>
      <trkpt lat="37.326396" lon="-4.354224">
        <ele>814.040</ele>
        <time>2014-11-08T14:25:46Z</time>
      </trkpt>
      <trkpt lat="37.326479" lon="-4.354219">
        <ele>815.083</ele>
        <time>2014-11-08T14:25:56Z</time>
      </trkpt>
      <trkpt lat="37.326530" lon="-4.354265">
        <ele>814.021</ele>
        <time>2014-11-08T14:26:06Z</time>
      </trkpt>
      <trkpt lat="37.326561" lon="-4.354233">
        <ele>814.085</ele>
        <time>2014-11-08T14:26:46Z</time>
      </trkpt>
      <trkpt lat="37.326611" lon="-4.354191">
        <ele>816.029</ele>
        <time>2014-11-08T14:26:56Z</time>
      </trkpt>
      <trkpt lat="37.326680" lon="-4.354122">
        <ele>816.000</ele>
        <time>2014-11-08T14:27:07Z</time>
      </trkpt>
      <trkpt lat="37.326732" lon="-4.354121">
        <ele>814.020</ele>
        <time>2014-11-08T14:27:20Z</time>
      </trkpt>
      <trkpt lat="37.326766" lon="-4.354178">
        <ele>816.007</ele>
        <time>2014-11-08T14:27:30Z</time>
      </trkpt>
      <trkpt lat="37.326816" lon="-4.354196">
        <ele>758.030</ele>
        <time>2014-11-08T14:27:47Z</time>
      </trkpt>
      <trkpt lat="37.326864" lon="-4.354274">
        <ele>758.014</ele>
        <time>2014-11-08T14:27:57Z</time>
      </trkpt>
      <trkpt lat="37.326909" lon="-4.354230">
        <ele>759.092</ele>
        <time>2014-11-08T14:28:13Z</time>
      </trkpt>
      <trkpt lat="37.326974" lon="-4.354237">
        <ele>762.041</ele>
        <time>2014-11-08T14:28:23Z</time>
      </trkpt>
      <trkpt lat="37.327038" lon="-4.354244">
        <ele>807.024</ele>
        <time>2014-11-08T14:28:34Z</time>
      </trkpt>
      <trkpt lat="37.327095" lon="-4.354245">
        <ele>804.052</ele>
        <time>2014-11-08T14:28:44Z</time>
      </trkpt>
      <trkpt lat="37.326873" lon="-4.354218">
        <ele>818.036</ele>
        <time>2014-11-08T14:29:12Z</time>
      </trkpt>
      <trkpt lat="37.326929" lon="-4.354308">
        <ele>817.074</ele>
        <time>2014-11-08T14:29:14Z</time>
      </trkpt>
      <trkpt lat="37.327008" lon="-4.354362">
        <ele>818.056</ele>
        <time>2014-11-08T14:29:16Z</time>
      </trkpt>
      <trkpt lat="37.327103" lon="-4.354447">
        <ele>817.021</ele>
        <time>2014-11-08T14:29:21Z</time>
      </trkpt>
      <trkpt lat="37.327009" lon="-4.354217">
        <ele>818.007</ele>
        <time>2014-11-08T14:29:26Z</time>
      </trkpt>
      <trkpt lat="37.326941" lon="-4.354160">
        <ele>817.085</ele>
        <time>2014-11-08T14:29:36Z</time>
      </trkpt>
      <trkpt lat="37.326622" lon="-4.354095">
        <ele>821.029</ele>
        <time>2014-11-08T14:30:37Z</time>
      </trkpt>
      <trkpt lat="37.326670" lon="-4.354106">
        <ele>816.017</ele>
        <time>2014-11-08T14:30:47Z</time>
      </trkpt>
      <trkpt lat="37.326711" lon="-4.354133">
        <ele>820.036</ele>
        <time>2014-11-08T14:31:00Z</time>
      </trkpt>
      <trkpt lat="37.326735" lon="-4.354181">
        <ele>826.059</ele>
        <time>2014-11-08T14:31:15Z</time>
      </trkpt>
      <trkpt lat="37.326842" lon="-4.354183">
        <ele>823.077</ele>
        <time>2014-11-08T14:31:23Z</time>
      </trkpt>
      <trkpt lat="37.326922" lon="-4.354190">
        <ele>818.031</ele>
        <time>2014-11-08T14:31:33Z</time>
      </trkpt>
      <trkpt lat="37.326970" lon="-4.354191">
        <ele>816.069</ele>
        <time>2014-11-08T14:31:44Z</time>
      </trkpt>
      <trkpt lat="37.326960" lon="-4.354168">
        <ele>820.004</ele>
        <time>2014-11-08T14:32:24Z</time>
      </trkpt>
      <trkpt lat="37.326962" lon="-4.354164">
        <ele>820.024</ele>
        <time>2014-11-08T14:33:04Z</time>
      </trkpt>
      <trkpt lat="37.326935" lon="-4.354210">
        <ele>815.007</ele>
        <time>2014-11-08T14:33:20Z</time>
      </trkpt>
      <trkpt lat="37.326859" lon="-4.354272">
        <ele>818.074</ele>
        <time>2014-11-08T14:33:29Z</time>
      </trkpt>
      <trkpt lat="37.326815" lon="-4.354290">
        <ele>820.018</ele>
        <time>2014-11-08T14:33:39Z</time>
      </trkpt>
      <trkpt lat="37.326777" lon="-4.354363">
        <ele>822.056</ele>
        <time>2014-11-08T14:33:49Z</time>
      </trkpt>
      <trkpt lat="37.326749" lon="-4.354495">
        <ele>820.035</ele>
        <time>2014-11-08T14:33:59Z</time>
      </trkpt>
      <trkpt lat="37.326661" lon="-4.354556">
        <ele>821.098</ele>
        <time>2014-11-08T14:34:06Z</time>
      </trkpt>
      <trkpt lat="37.326599" lon="-4.354645">
        <ele>820.026</ele>
        <time>2014-11-08T14:34:16Z</time>
      </trkpt>
      <trkpt lat="37.326559" lon="-4.354760">
        <ele>765.020</ele>
        <time>2014-11-08T14:34:25Z</time>
      </trkpt>
      <trkpt lat="37.326561" lon="-4.354867">
        <ele>760.065</ele>
        <time>2014-11-08T14:34:35Z</time>
      </trkpt>
      <trkpt lat="37.326522" lon="-4.354900">
        <ele>761.068</ele>
        <time>2014-11-08T14:34:45Z</time>
      </trkpt>
      <trkpt lat="37.326482" lon="-4.354925">
        <ele>766.014</ele>
        <time>2014-11-08T14:34:58Z</time>
      </trkpt>
      <trkpt lat="37.326475" lon="-4.354983">
        <ele>789.007</ele>
        <time>2014-11-08T14:35:13Z</time>
      </trkpt>
      <trkpt lat="37.326425" lon="-4.355023">
        <ele>799.064</ele>
        <time>2014-11-08T14:35:23Z</time>
      </trkpt>
      <trkpt lat="37.326454" lon="-4.355070">
        <ele>798.028</ele>
        <time>2014-11-08T14:35:47Z</time>
      </trkpt>
      <trkpt lat="37.326410" lon="-4.355055">
        <ele>804.066</ele>
        <time>2014-11-08T14:36:10Z</time>
      </trkpt>
      <trkpt lat="37.326322" lon="-4.355062">
        <ele>803.035</ele>
        <time>2014-11-08T14:36:20Z</time>
      </trkpt>
      <trkpt lat="37.326225" lon="-4.355055">
        <ele>800.018</ele>
        <time>2014-11-08T14:36:28Z</time>
      </trkpt>
      <trkpt lat="37.326134" lon="-4.355084">
        <ele>792.066</ele>
        <time>2014-11-08T14:36:36Z</time>
      </trkpt>
      <trkpt lat="37.326044" lon="-4.355103">
        <ele>798.020</ele>
        <time>2014-11-08T14:36:42Z</time>
      </trkpt>
      <trkpt lat="37.325954" lon="-4.355116">
        <ele>800.015</ele>
        <time>2014-11-08T14:36:49Z</time>
      </trkpt>
      <trkpt lat="37.325864" lon="-4.355115">
        <ele>798.065</ele>
        <time>2014-11-08T14:36:57Z</time>
      </trkpt>
      <trkpt lat="37.325776" lon="-4.355135">
        <ele>797.011</ele>
        <time>2014-11-08T14:37:07Z</time>
      </trkpt>
      <trkpt lat="37.325714" lon="-4.355105">
        <ele>792.007</ele>
        <time>2014-11-08T14:37:17Z</time>
      </trkpt>
      <trkpt lat="37.325662" lon="-4.355093">
        <ele>791.099</ele>
        <time>2014-11-08T14:37:27Z</time>
      </trkpt>
      <trkpt lat="37.325617" lon="-4.355159">
        <ele>792.063</ele>
        <time>2014-11-08T14:37:37Z</time>
      </trkpt>
      <trkpt lat="37.325621" lon="-4.355238">
        <ele>793.081</ele>
        <time>2014-11-08T14:37:47Z</time>
      </trkpt>
      <trkpt lat="37.325552" lon="-4.355318">
        <ele>787.060</ele>
        <time>2014-11-08T14:37:57Z</time>
      </trkpt>
      <trkpt lat="37.325485" lon="-4.355403">
        <ele>786.053</ele>
        <time>2014-11-08T14:38:07Z</time>
      </trkpt>
      <trkpt lat="37.325400" lon="-4.355455">
        <ele>788.091</ele>
        <time>2014-11-08T14:38:16Z</time>
      </trkpt>
      <trkpt lat="37.325310" lon="-4.355505">
        <ele>785.035</ele>
        <time>2014-11-08T14:38:25Z</time>
      </trkpt>
      <trkpt lat="37.325225" lon="-4.355542">
        <ele>787.074</ele>
        <time>2014-11-08T14:38:32Z</time>
      </trkpt>
      <trkpt lat="37.325138" lon="-4.355600">
        <ele>785.056</ele>
        <time>2014-11-08T14:38:39Z</time>
      </trkpt>
      <trkpt lat="37.325072" lon="-4.355618">
        <ele>783.021</ele>
        <time>2014-11-08T14:38:49Z</time>
      </trkpt>
      <trkpt lat="37.325027" lon="-4.355625">
        <ele>781.007</ele>
        <time>2014-11-08T14:39:01Z</time>
      </trkpt>
      <trkpt lat="37.324953" lon="-4.355671">
        <ele>776.085</ele>
        <time>2014-11-08T14:39:11Z</time>
      </trkpt>
      <trkpt lat="37.324887" lon="-4.355763">
        <ele>780.029</ele>
        <time>2014-11-08T14:39:19Z</time>
      </trkpt>
      <trkpt lat="37.324833" lon="-4.355860">
        <ele>778.077</ele>
        <time>2014-11-08T14:39:27Z</time>
      </trkpt>
      <trkpt lat="37.324799" lon="-4.355975">
        <ele>775.086</ele>
        <time>2014-11-08T14:39:33Z</time>
      </trkpt>
      <trkpt lat="37.324764" lon="-4.356080">
        <ele>775.099</ele>
        <time>2014-11-08T14:39:39Z</time>
      </trkpt>
      <trkpt lat="37.324741" lon="-4.356192">
        <ele>775.047</ele>
        <time>2014-11-08T14:39:46Z</time>
      </trkpt>
      <trkpt lat="37.324721" lon="-4.356315">
        <ele>773.021</ele>
        <time>2014-11-08T14:39:54Z</time>
      </trkpt>
      <trkpt lat="37.324718" lon="-4.356433">
        <ele>771.053</ele>
        <time>2014-11-08T14:40:04Z</time>
      </trkpt>
      <trkpt lat="37.324720" lon="-4.356514">
        <ele>764.004</ele>
        <time>2014-11-08T14:40:15Z</time>
      </trkpt>
      <trkpt lat="37.324713" lon="-4.356630">
        <ele>766.014</ele>
        <time>2014-11-08T14:40:23Z</time>
      </trkpt>
      <trkpt lat="37.324711" lon="-4.356756">
        <ele>770.007</ele>
        <time>2014-11-08T14:40:31Z</time>
      </trkpt>
      <trkpt lat="37.324715" lon="-4.356880">
        <ele>768.053</ele>
        <time>2014-11-08T14:40:38Z</time>
      </trkpt>
      <trkpt lat="37.324702" lon="-4.357002">
        <ele>765.087</ele>
        <time>2014-11-08T14:40:44Z</time>
      </trkpt>
      <trkpt lat="37.324713" lon="-4.357117">
        <ele>761.015</ele>
        <time>2014-11-08T14:40:51Z</time>
      </trkpt>
      <trkpt lat="37.324699" lon="-4.357241">
        <ele>761.014</ele>
        <time>2014-11-08T14:40:59Z</time>
      </trkpt>
      <trkpt lat="37.324692" lon="-4.357358">
        <ele>760.077</ele>
        <time>2014-11-08T14:41:06Z</time>
      </trkpt>
      <trkpt lat="37.324713" lon="-4.357481">
        <ele>760.075</ele>
        <time>2014-11-08T14:41:13Z</time>
      </trkpt>
      <trkpt lat="37.324763" lon="-4.357588">
        <ele>759.029</ele>
        <time>2014-11-08T14:41:20Z</time>
      </trkpt>
      <trkpt lat="37.324808" lon="-4.357686">
        <ele>757.057</ele>
        <time>2014-11-08T14:41:26Z</time>
      </trkpt>
      <trkpt lat="37.324861" lon="-4.357778">
        <ele>757.000</ele>
        <time>2014-11-08T14:41:32Z</time>
      </trkpt>
      <trkpt lat="37.324898" lon="-4.357888">
        <ele>755.020</ele>
        <time>2014-11-08T14:41:39Z</time>
      </trkpt>
      <trkpt lat="37.324913" lon="-4.358009">
        <ele>755.007</ele>
        <time>2014-11-08T14:41:46Z</time>
      </trkpt>
      <trkpt lat="37.324932" lon="-4.358121">
        <ele>755.033</ele>
        <time>2014-11-08T14:41:52Z</time>
      </trkpt>
      <trkpt lat="37.324970" lon="-4.358228">
        <ele>755.057</ele>
        <time>2014-11-08T14:41:59Z</time>
      </trkpt>
      <trkpt lat="37.325024" lon="-4.358321">
        <ele>753.055</ele>
        <time>2014-11-08T14:42:06Z</time>
      </trkpt>
      <trkpt lat="37.325078" lon="-4.358419">
        <ele>753.064</ele>
        <time>2014-11-08T14:42:12Z</time>
      </trkpt>
      <trkpt lat="37.325154" lon="-4.358490">
        <ele>749.057</ele>
        <time>2014-11-08T14:42:19Z</time>
      </trkpt>
      <trkpt lat="37.325233" lon="-4.358554">
        <ele>750.075</ele>
        <time>2014-11-08T14:42:26Z</time>
      </trkpt>
      <trkpt lat="37.325319" lon="-4.358602">
        <ele>750.079</ele>
        <time>2014-11-08T14:42:33Z</time>
      </trkpt>
      <trkpt lat="37.325418" lon="-4.358638">
        <ele>751.084</ele>
        <time>2014-11-08T14:42:40Z</time>
      </trkpt>
      <trkpt lat="37.325505" lon="-4.358678">
        <ele>752.007</ele>
        <time>2014-11-08T14:42:46Z</time>
      </trkpt>
      <trkpt lat="37.325589" lon="-4.358734">
        <ele>758.017</ele>
        <time>2014-11-08T14:42:53Z</time>
      </trkpt>
      <trkpt lat="37.325654" lon="-4.358819">
        <ele>759.007</ele>
        <time>2014-11-08T14:43:00Z</time>
      </trkpt>
      <trkpt lat="37.325689" lon="-4.358934">
        <ele>756.066</ele>
        <time>2014-11-08T14:43:06Z</time>
      </trkpt>
      <trkpt lat="37.325687" lon="-4.359065">
        <ele>753.080</ele>
        <time>2014-11-08T14:43:13Z</time>
      </trkpt>
      <trkpt lat="37.325667" lon="-4.359186">
        <ele>751.018</ele>
        <time>2014-11-08T14:43:20Z</time>
      </trkpt>
      <trkpt lat="37.325650" lon="-4.359301">
        <ele>750.097</ele>
        <time>2014-11-08T14:43:26Z</time>
      </trkpt>
      <trkpt lat="37.325626" lon="-4.359419">
        <ele>751.090</ele>
        <time>2014-11-08T14:43:33Z</time>
      </trkpt>
      <trkpt lat="37.325627" lon="-4.359536">
        <ele>747.058</ele>
        <time>2014-11-08T14:43:41Z</time>
      </trkpt>
      <trkpt lat="37.325624" lon="-4.359664">
        <ele>750.012</ele>
        <time>2014-11-08T14:43:48Z</time>
      </trkpt>
      <trkpt lat="37.325627" lon="-4.359796">
        <ele>751.074</ele>
        <time>2014-11-08T14:43:55Z</time>
      </trkpt>
      <trkpt lat="37.325635" lon="-4.359924">
        <ele>751.056</ele>
        <time>2014-11-08T14:44:02Z</time>
      </trkpt>
      <trkpt lat="37.325637" lon="-4.360048">
        <ele>748.021</ele>
        <time>2014-11-08T14:44:09Z</time>
      </trkpt>
      <trkpt lat="37.325648" lon="-4.360169">
        <ele>748.007</ele>
        <time>2014-11-08T14:44:16Z</time>
      </trkpt>
      <trkpt lat="37.325658" lon="-4.360289">
        <ele>748.055</ele>
        <time>2014-11-08T14:44:24Z</time>
      </trkpt>
      <trkpt lat="37.325669" lon="-4.360405">
        <ele>747.059</ele>
        <time>2014-11-08T14:44:31Z</time>
      </trkpt>
      <trkpt lat="37.325689" lon="-4.360524">
        <ele>750.057</ele>
        <time>2014-11-08T14:44:39Z</time>
      </trkpt>
      <trkpt lat="37.325699" lon="-4.360648">
        <ele>748.086</ele>
        <time>2014-11-08T14:44:49Z</time>
      </trkpt>
      <trkpt lat="37.325695" lon="-4.360770">
        <ele>748.079</ele>
        <time>2014-11-08T14:44:58Z</time>
      </trkpt>
      <trkpt lat="37.325725" lon="-4.360829">
        <ele>745.097</ele>
        <time>2014-11-08T14:45:08Z</time>
      </trkpt>
      <trkpt lat="37.325774" lon="-4.360885">
        <ele>742.051</ele>
        <time>2014-11-08T14:45:18Z</time>
      </trkpt>
      <trkpt lat="37.325805" lon="-4.361026">
        <ele>741.063</ele>
        <time>2014-11-08T14:45:24Z</time>
      </trkpt>
      <trkpt lat="37.325856" lon="-4.361137">
        <ele>742.044</ele>
        <time>2014-11-08T14:45:28Z</time>
      </trkpt>
      <trkpt lat="37.325887" lon="-4.361264">
        <ele>741.018</ele>
        <time>2014-11-08T14:45:33Z</time>
      </trkpt>
      <trkpt lat="37.325911" lon="-4.361388">
        <ele>739.007</ele>
        <time>2014-11-08T14:45:38Z</time>
      </trkpt>
      <trkpt lat="37.325977" lon="-4.361487">
        <ele>743.044</ele>
        <time>2014-11-08T14:45:43Z</time>
      </trkpt>
      <trkpt lat="37.326048" lon="-4.361587">
        <ele>743.048</ele>
        <time>2014-11-08T14:45:48Z</time>
      </trkpt>
      <trkpt lat="37.326127" lon="-4.361680">
        <ele>747.076</ele>
        <time>2014-11-08T14:45:53Z</time>
      </trkpt>
      <trkpt lat="37.326205" lon="-4.361778">
        <ele>749.085</ele>
        <time>2014-11-08T14:45:57Z</time>
      </trkpt>
      <trkpt lat="37.326273" lon="-4.361886">
        <ele>751.078</ele>
        <time>2014-11-08T14:46:02Z</time>
      </trkpt>
      <trkpt lat="37.326293" lon="-4.362019">
        <ele>750.046</ele>
        <time>2014-11-08T14:46:07Z</time>
      </trkpt>
      <trkpt lat="37.326329" lon="-4.362123">
        <ele>754.060</ele>
        <time>2014-11-08T14:46:12Z</time>
      </trkpt>
      <trkpt lat="37.326340" lon="-4.362228">
        <ele>754.063</ele>
        <time>2014-11-08T14:46:22Z</time>
      </trkpt>
      <trkpt lat="37.326438" lon="-4.362244">
        <ele>754.044</ele>
        <time>2014-11-08T14:46:32Z</time>
      </trkpt>
      <trkpt lat="37.326517" lon="-4.362303">
        <ele>750.018</ele>
        <time>2014-11-08T14:46:39Z</time>
      </trkpt>
      <trkpt lat="37.326608" lon="-4.362369">
        <ele>745.007</ele>
        <time>2014-11-08T14:46:47Z</time>
      </trkpt>
      <trkpt lat="37.326676" lon="-4.362443">
        <ele>748.084</ele>
        <time>2014-11-08T14:46:53Z</time>
      </trkpt>
      <trkpt lat="37.326765" lon="-4.362475">
        <ele>743.088</ele>
        <time>2014-11-08T14:47:01Z</time>
      </trkpt>
      <trkpt lat="37.326863" lon="-4.362469">
        <ele>740.066</ele>
        <time>2014-11-08T14:47:09Z</time>
      </trkpt>
      <trkpt lat="37.326960" lon="-4.362465">
        <ele>743.015</ele>
        <time>2014-11-08T14:47:16Z</time>
      </trkpt>
      <trkpt lat="37.327055" lon="-4.362469">
        <ele>737.068</ele>
        <time>2014-11-08T14:47:24Z</time>
      </trkpt>
      <trkpt lat="37.327153" lon="-4.362497">
        <ele>735.096</ele>
        <time>2014-11-08T14:47:30Z</time>
      </trkpt>
      <trkpt lat="37.327267" lon="-4.362526">
        <ele>737.050</ele>
        <time>2014-11-08T14:47:34Z</time>
      </trkpt>
      <trkpt lat="37.327371" lon="-4.362512">
        <ele>734.078</ele>
        <time>2014-11-08T14:47:38Z</time>
      </trkpt>
      <trkpt lat="37.327481" lon="-4.362516">
        <ele>732.033</ele>
        <time>2014-11-08T14:47:46Z</time>
      </trkpt>
      <trkpt lat="37.327549" lon="-4.362522">
        <ele>732.026</ele>
        <time>2014-11-08T14:47:56Z</time>
      </trkpt>
      <trkpt lat="37.328174" lon="-4.362946">
        <ele>719.292</ele>
        <time>2010-04-01T10:52:01Z</time>
      </trkpt>
      <trkpt lat="37.327702" lon="-4.363589">
        <ele>684.673</ele>
        <time>2010-04-01T10:52:52Z</time>
      </trkpt>
      <trkpt lat="37.327616" lon="-4.364147">
        <ele>673.120</ele>
        <time>2010-04-01T10:58:15Z</time>
      </trkpt>
      <trkpt lat="37.327509" lon="-4.363203">
        <ele>684.606</ele>
        <time>2010-04-01T10:58:36Z</time>
      </trkpt>
      <trkpt lat="37.327380" lon="-4.363074">
        <ele>686.037</ele>
        <time>2010-04-01T10:58:55Z</time>
      </trkpt>
      <trkpt lat="37.327123" lon="-4.362667">
        <ele>691.370</ele>
        <time>2010-04-01T11:00:01Z</time>
      </trkpt>
      <trkpt lat="37.327187" lon="-4.362645">
        <ele>691.868</ele>
        <time>2010-04-01T11:00:53Z</time>
      </trkpt>
      <trkpt lat="37.326951" lon="-4.362602">
        <ele>692.351</ele>
        <time>2010-04-01T11:01:20Z</time>
      </trkpt>
      <trkpt lat="37.326522" lon="-4.362431">
        <ele>692.383</ele>
        <time>2010-04-01T11:02:18Z</time>
      </trkpt>
      <trkpt lat="37.326222" lon="-4.361851">
        <ele>700.589</ele>
        <time>2010-04-01T11:02:31Z</time>
      </trkpt>
      <trkpt lat="37.326264" lon="-4.361594">
        <ele>705.399</ele>
        <time>2010-04-01T11:02:58Z</time>
      </trkpt>
      <trkpt lat="37.326200" lon="-4.361529">
        <ele>705.307</ele>
        <time>2010-04-01T11:03:09Z</time>
      </trkpt>
      <trkpt lat="37.326071" lon="-4.360950">
        <ele>704.827</ele>
        <time>2010-04-01T11:03:56Z</time>
      </trkpt>
      <trkpt lat="37.325985" lon="-4.360693">
        <ele>704.806</ele>
        <time>2010-04-01T11:04:35Z</time>
      </trkpt>
      <trkpt lat="37.325814" lon="-4.360907">
        <ele>701.427</ele>
        <time>2010-04-01T11:05:04Z</time>
      </trkpt>
      <trkpt lat="37.325664" lon="-4.360972">
        <ele>701.440</ele>
        <time>2010-04-01T11:05:19Z</time>
      </trkpt>
      <trkpt lat="37.325599" lon="-4.360929">
        <ele>699.078</ele>
        <time>2010-04-01T11:05:37Z</time>
      </trkpt>
      <trkpt lat="37.325320" lon="-4.359942">
        <ele>691.311</ele>
        <time>2010-04-01T11:07:10Z</time>
      </trkpt>
      <trkpt lat="37.325256" lon="-4.359555">
        <ele>688.493</ele>
        <time>2010-04-01T11:07:50Z</time>
      </trkpt>
      <trkpt lat="37.325234" lon="-4.359577">
        <ele>689.489</ele>
        <time>2010-04-01T11:08:14Z</time>
      </trkpt>
      <trkpt lat="37.325213" lon="-4.359427">
        <ele>691.389</ele>
        <time>2010-04-01T11:08:36Z</time>
      </trkpt>
      <trkpt lat="37.325149" lon="-4.359255">
        <ele>690.406</ele>
        <time>2010-04-01T11:08:52Z</time>
      </trkpt>
      <trkpt lat="37.324891" lon="-4.358826">
        <ele>688.926</ele>
        <time>2010-04-01T11:09:27Z</time>
      </trkpt>
      <trkpt lat="37.324698" lon="-4.358289">
        <ele>686.506</ele>
        <time>2010-04-01T11:10:08Z</time>
      </trkpt>
      <trkpt lat="37.324398" lon="-4.357753">
        <ele>689.436</ele>
        <time>2010-04-01T11:10:52Z</time>
      </trkpt>
      <trkpt lat="37.324119" lon="-4.357367">
        <ele>690.829</ele>
        <time>2010-04-01T11:11:28Z</time>
      </trkpt>
      <trkpt lat="37.323732" lon="-4.356916">
        <ele>692.837</ele>
        <time>2010-04-01T11:12:13Z</time>
      </trkpt>
      <trkpt lat="37.323539" lon="-4.356830">
        <ele>693.270</ele>
        <time>2010-04-01T11:12:35Z</time>
      </trkpt>
      <trkpt lat="37.323389" lon="-4.356616">
        <ele>694.762</ele>
        <time>2010-04-01T11:13:07Z</time>
      </trkpt>
      <trkpt lat="37.322938" lon="-4.356229">
        <ele>690.458</ele>
        <time>2010-04-01T11:14:06Z</time>
      </trkpt>
      <trkpt lat="37.322767" lon="-4.355972">
        <ele>688.036</ele>
        <time>2010-04-01T11:14:35Z</time>
      </trkpt>
      <trkpt lat="37.322788" lon="-4.355564">
        <ele>684.117</ele>
        <time>2010-04-01T11:15:12Z</time>
      </trkpt>
      <trkpt lat="37.322767" lon="-4.355521">
        <ele>684.118</ele>
        <time>2010-04-01T11:15:14Z</time>
      </trkpt>
      <trkpt lat="37.322853" lon="-4.355092">
        <ele>675.906</ele>
        <time>2010-04-01T11:15:52Z</time>
      </trkpt>
      <trkpt lat="37.322874" lon="-4.354599">
        <ele>669.731</ele>
        <time>2010-04-01T11:16:36Z</time>
      </trkpt>
      <trkpt lat="37.322810" lon="-4.354427">
        <ele>668.384</ele>
        <time>2010-04-01T11:16:53Z</time>
      </trkpt>
      <trkpt lat="37.322681" lon="-4.354234">
        <ele>665.972</ele>
        <time>2010-04-01T11:17:12Z</time>
      </trkpt>
      <trkpt lat="37.322552" lon="-4.354105">
        <ele>664.465</ele>
        <time>2010-04-01T11:17:29Z</time>
      </trkpt>
      <trkpt lat="37.322381" lon="-4.353740">
        <ele>657.277</ele>
        <time>2010-04-01T11:18:17Z</time>
      </trkpt>
      <trkpt lat="37.322381" lon="-4.353633">
        <ele>656.293</ele>
        <time>2010-04-01T11:18:29Z</time>
      </trkpt>
      <trkpt lat="37.322166" lon="-4.353354">
        <ele>655.859</ele>
        <time>2010-04-01T11:19:12Z</time>
      </trkpt>
      <trkpt lat="37.321672" lon="-4.353032">
        <ele>655.303</ele>
        <time>2010-04-01T11:20:05Z</time>
      </trkpt>
      <trkpt lat="37.321672" lon="-4.352989">
        <ele>654.323</ele>
        <time>2010-04-01T11:20:20Z</time>
      </trkpt>
      <trkpt lat="37.321544" lon="-4.352946">
        <ele>650.006</ele>
        <time>2010-04-01T11:21:55Z</time>
      </trkpt>
      <trkpt lat="37.321372" lon="-4.352775">
        <ele>650.033</ele>
        <time>2010-04-01T11:22:16Z</time>
      </trkpt>
      <trkpt lat="37.320943" lon="-4.352560">
        <ele>644.236</ele>
        <time>2010-04-01T11:23:08Z</time>
      </trkpt>
      <trkpt lat="37.320793" lon="-4.352303">
        <ele>642.844</ele>
        <time>2010-04-01T11:23:46Z</time>
      </trkpt>
      <trkpt lat="37.320836" lon="-4.352217">
        <ele>639.447</ele>
        <time>2010-04-01T11:24:44Z</time>
      </trkpt>
      <trkpt lat="37.320836" lon="-4.352088">
        <ele>637.589</ele>
        <time>2010-04-01T11:25:18Z</time>
      </trkpt>
      <trkpt lat="37.320857" lon="-4.352109">
        <ele>637.075</ele>
        <time>2010-04-01T11:25:46Z</time>
      </trkpt>
      <trkpt lat="37.320836" lon="-4.352109">
        <ele>638.023</ele>
        <time>2010-04-01T11:25:51Z</time>
      </trkpt>
      <trkpt lat="37.320814" lon="-4.351788">
        <ele>638.583</ele>
        <time>2010-04-01T11:26:11Z</time>
      </trkpt>
      <trkpt lat="37.320707" lon="-4.351573">
        <ele>638.911</ele>
        <time>2010-04-01T11:26:28Z</time>
      </trkpt>
      <trkpt lat="37.320578" lon="-4.351401">
        <ele>640.906</ele>
        <time>2010-04-01T11:26:44Z</time>
      </trkpt>
      <trkpt lat="37.320106" lon="-4.350972">
        <ele>635.130</ele>
        <time>2010-04-01T11:27:38Z</time>
      </trkpt>
      <trkpt lat="37.320020" lon="-4.350801">
        <ele>635.173</ele>
        <time>2010-04-01T11:27:56Z</time>
      </trkpt>
      <trkpt lat="37.319999" lon="-4.350522">
        <ele>635.131</ele>
        <time>2010-04-01T11:28:16Z</time>
      </trkpt>
      <trkpt lat="37.319892" lon="-4.350286">
        <ele>636.584</ele>
        <time>2010-04-01T11:28:35Z</time>
      </trkpt>
      <trkpt lat="37.319634" lon="-4.350135">
        <ele>631.296</ele>
        <time>2010-04-01T11:29:14Z</time>
      </trkpt>
      <trkpt lat="37.319655" lon="-4.350114">
        <ele>631.732</ele>
        <time>2010-04-01T11:29:40Z</time>
      </trkpt>
      <trkpt lat="37.319334" lon="-4.350071">
        <ele>626.978</ele>
        <time>2010-04-01T11:30:16Z</time>
      </trkpt>
      <trkpt lat="37.319269" lon="-4.349942">
        <ele>623.633</ele>
        <time>2010-04-01T11:30:32Z</time>
      </trkpt>
      <trkpt lat="37.319248" lon="-4.349749">
        <ele>620.226</ele>
        <time>2010-04-01T11:30:52Z</time>
      </trkpt>
      <trkpt lat="37.319162" lon="-4.349427">
        <ele>615.906</ele>
        <time>2010-04-01T11:31:31Z</time>
      </trkpt>
      <trkpt lat="37.318990" lon="-4.349234">
        <ele>613.025</ele>
        <time>2010-04-01T11:31:55Z</time>
      </trkpt>
      <trkpt lat="37.318497" lon="-4.348848">
        <ele>603.878</ele>
        <time>2010-04-01T11:33:15Z</time>
      </trkpt>
      <trkpt lat="37.318347" lon="-4.348676">
        <ele>601.416</ele>
        <time>2010-04-01T11:33:36Z</time>
      </trkpt>
      <trkpt lat="37.318089" lon="-4.348290">
        <ele>596.699</ele>
        <time>2010-04-01T11:35:12Z</time>
      </trkpt>
      <trkpt lat="37.317939" lon="-4.348011">
        <ele>589.431</ele>
        <time>2010-04-01T11:35:46Z</time>
      </trkpt>
      <trkpt lat="37.317359" lon="-4.346638">
        <ele>568.377</ele>
        <time>2010-04-01T11:38:29Z</time>
      </trkpt>
      <trkpt lat="37.317209" lon="-4.346509">
        <ele>567.371</ele>
        <time>2010-04-01T11:38:48Z</time>
      </trkpt>
      <trkpt lat="37.316887" lon="-4.346359">
        <ele>566.441</ele>
        <time>2010-04-01T11:39:21Z</time>
      </trkpt>
      <trkpt lat="37.316716" lon="-4.346230">
        <ele>566.815</ele>
        <time>2010-04-01T11:39:43Z</time>
      </trkpt>
      <trkpt lat="37.316587" lon="-4.346187">
        <ele>570.206</ele>
        <time>2010-04-01T11:40:01Z</time>
      </trkpt>
      <trkpt lat="37.316608" lon="-4.346187">
        <ele>573.165</ele>
        <time>2010-04-01T11:40:18Z</time>
      </trkpt>
      <trkpt lat="37.316523" lon="-4.345887">
        <ele>568.888</ele>
        <time>2010-04-01T11:40:47Z</time>
      </trkpt>
      <trkpt lat="37.316651" lon="-4.345608">
        <ele>566.826</ele>
        <time>2010-04-01T11:41:35Z</time>
      </trkpt>
      <trkpt lat="37.316716" lon="-4.345307">
        <ele>564.939</ele>
        <time>2010-04-01T11:42:01Z</time>
      </trkpt>
      <trkpt lat="37.316716" lon="-4.344986">
        <ele>564.921</ele>
        <time>2010-04-01T11:42:26Z</time>
      </trkpt>
      <trkpt lat="37.316630" lon="-4.344599">
        <ele>559.667</ele>
        <time>2010-04-01T11:42:57Z</time>
      </trkpt>
      <trkpt lat="37.316587" lon="-4.344213">
        <ele>553.984</ele>
        <time>2010-04-01T11:43:27Z</time>
      </trkpt>
      <trkpt lat="37.316523" lon="-4.343977">
        <ele>551.507</ele>
        <time>2010-04-01T11:43:46Z</time>
      </trkpt>
      <trkpt lat="37.316415" lon="-4.343805">
        <ele>549.017</ele>
        <time>2010-04-01T11:44:07Z</time>
      </trkpt>
      <trkpt lat="37.316287" lon="-4.343677">
        <ele>550.506</ele>
        <time>2010-04-01T11:44:31Z</time>
      </trkpt>
      <trkpt lat="37.315922" lon="-4.343398">
        <ele>544.216</ele>
        <time>2010-04-01T11:45:20Z</time>
      </trkpt>
      <trkpt lat="37.315579" lon="-4.343097">
        <ele>534.639</ele>
        <time>2010-04-01T11:46:04Z</time>
      </trkpt>
      <trkpt lat="37.315428" lon="-4.342926">
        <ele>534.647</ele>
        <time>2010-04-01T11:46:26Z</time>
      </trkpt>
      <trkpt lat="37.315342" lon="-4.342561">
        <ele>527.920</ele>
        <time>2010-04-01T11:46:59Z</time>
      </trkpt>
      <trkpt lat="37.315278" lon="-4.341810">
        <ele>517.342</ele>
        <time>2010-04-01T11:48:07Z</time>
      </trkpt>
      <trkpt lat="37.314978" lon="-4.341638">
        <ele>512.588</ele>
        <time>2010-04-01T11:48:55Z</time>
      </trkpt>
      <trkpt lat="37.314956" lon="-4.341574">
        <ele>505.891</ele>
        <time>2010-04-01T11:49:57Z</time>
      </trkpt>
      <trkpt lat="37.315042" lon="-4.341595">
        <ele>506.881</ele>
        <time>2010-04-01T11:51:37Z</time>
      </trkpt>
      <trkpt lat="37.314806" lon="-4.341509">
        <ele>500.519</ele>
        <time>2010-04-01T11:53:45Z</time>
      </trkpt>
      <trkpt lat="37.314742" lon="-4.341338">
        <ele>501.006</ele>
        <time>2010-04-01T11:54:03Z</time>
      </trkpt>
      <trkpt lat="37.314613" lon="-4.341188">
        <ele>502.427</ele>
        <time>2010-04-01T11:54:22Z</time>
      </trkpt>
      <trkpt lat="37.314313" lon="-4.340737">
        <ele>503.440</ele>
        <time>2010-04-01T11:55:09Z</time>
      </trkpt>
      <trkpt lat="37.314248" lon="-4.340479">
        <ele>503.488</ele>
        <time>2010-04-01T11:55:30Z</time>
      </trkpt>
      <trkpt lat="37.314248" lon="-4.340243">
        <ele>504.351</ele>
        <time>2010-04-01T11:55:48Z</time>
      </trkpt>
      <trkpt lat="37.314313" lon="-4.339964">
        <ele>505.353</ele>
        <time>2010-04-01T11:56:10Z</time>
      </trkpt>
      <trkpt lat="37.314291" lon="-4.339728">
        <ele>499.569</ele>
        <time>2010-04-01T11:56:31Z</time>
      </trkpt>
      <trkpt lat="37.314012" lon="-4.339342">
        <ele>493.813</ele>
        <time>2010-04-01T11:57:09Z</time>
      </trkpt>
      <trkpt lat="37.313969" lon="-4.339256">
        <ele>489.043</ele>
        <time>2010-04-01T11:57:29Z</time>
      </trkpt>
      <trkpt lat="37.313969" lon="-4.339192">
        <ele>491.407</ele>
        <time>2010-04-01T11:57:50Z</time>
      </trkpt>
      <trkpt lat="37.313926" lon="-4.339321">
        <ele>484.206</ele>
        <time>2010-04-01T11:59:54Z</time>
      </trkpt>
      <trkpt lat="37.313840" lon="-4.339106">
        <ele>488.529</ele>
        <time>2010-04-01T12:00:19Z</time>
      </trkpt>
      <trkpt lat="37.313926" lon="-4.339106">
        <ele>489.992</ele>
        <time>2010-04-01T12:01:35Z</time>
      </trkpt>
      <trkpt lat="37.313755" lon="-4.338849">
        <ele>487.520</ele>
        <time>2010-04-01T12:01:53Z</time>
      </trkpt>
      <trkpt lat="37.313540" lon="-4.338398">
        <ele>480.883</ele>
        <time>2010-04-01T12:02:32Z</time>
      </trkpt>
      <trkpt lat="37.313626" lon="-4.337776">
        <ele>478.465</ele>
        <time>2010-04-01T12:03:43Z</time>
      </trkpt>
      <trkpt lat="37.313712" lon="-4.337432">
        <ele>475.541</ele>
        <time>2010-04-01T12:04:10Z</time>
      </trkpt>
      <trkpt lat="37.313712" lon="-4.336896">
        <ele>475.554</ele>
        <time>2010-04-01T12:04:47Z</time>
      </trkpt>
      <trkpt lat="37.313669" lon="-4.336639">
        <ele>473.156</ele>
        <time>2010-04-01T12:05:08Z</time>
      </trkpt>
      <trkpt lat="37.313669" lon="-4.336317">
        <ele>472.111</ele>
        <time>2010-04-01T12:05:33Z</time>
      </trkpt>
      <trkpt lat="37.313840" lon="-4.335287">
        <ele>475.506</ele>
        <time>2010-04-01T12:06:50Z</time>
      </trkpt>
      <trkpt lat="37.313690" lon="-4.334428">
        <ele>473.113</ele>
        <time>2010-04-01T12:07:58Z</time>
      </trkpt>
      <trkpt lat="37.313540" lon="-4.334064">
        <ele>471.786</ele>
        <time>2010-04-01T12:08:44Z</time>
      </trkpt>
      <trkpt lat="37.313476" lon="-4.333506">
        <ele>466.424</ele>
        <time>2010-04-01T12:09:43Z</time>
      </trkpt>
      <trkpt lat="37.313454" lon="-4.333484">
        <ele>466.427</ele>
        <time>2010-04-01T12:09:50Z</time>
      </trkpt>
      <trkpt lat="37.313497" lon="-4.333098">
        <ele>464.999</ele>
        <time>2010-04-01T12:10:17Z</time>
      </trkpt>
      <trkpt lat="37.313476" lon="-4.332969">
        <ele>464.545</ele>
        <time>2010-04-01T12:10:38Z</time>
      </trkpt>
      <trkpt lat="37.313497" lon="-4.332776">
        <ele>466.427</ele>
        <time>2010-04-01T12:11:27Z</time>
      </trkpt>
      <trkpt lat="37.313690" lon="-4.332240">
        <ele>461.168</ele>
        <time>2010-04-01T12:12:11Z</time>
      </trkpt>
      <trkpt lat="37.313883" lon="-4.332047">
        <ele>462.114</ele>
        <time>2010-04-01T12:12:32Z</time>
      </trkpt>
      <trkpt lat="37.313969" lon="-4.332047">
        <ele>458.706</ele>
        <time>2010-04-01T12:12:50Z</time>
      </trkpt>
      <trkpt lat="37.314076" lon="-4.331982">
        <ele>456.310</ele>
        <time>2010-04-01T12:13:33Z</time>
      </trkpt>
      <trkpt lat="37.314055" lon="-4.332004">
        <ele>452.993</ele>
        <time>2010-04-01T12:13:49Z</time>
      </trkpt>
      <trkpt lat="37.314205" lon="-4.332004">
        <ele>452.471</ele>
        <time>2010-04-01T12:14:48Z</time>
      </trkpt>
      <trkpt lat="37.314527" lon="-4.332089">
        <ele>453.484</ele>
        <time>2010-04-01T12:15:50Z</time>
      </trkpt>
      <trkpt lat="37.314870" lon="-4.332111">
        <ele>453.936</ele>
        <time>2010-04-01T12:16:20Z</time>
      </trkpt>
      <trkpt lat="37.314892" lon="-4.332068">
        <ele>454.882</ele>
        <time>2010-04-01T12:17:08Z</time>
      </trkpt>
      <trkpt lat="37.315106" lon="-4.332089">
        <ele>451.518</ele>
        <time>2010-04-01T12:17:30Z</time>
      </trkpt>
      <trkpt lat="37.315278" lon="-4.332047">
        <ele>451.098</ele>
        <time>2010-04-01T12:17:44Z</time>
      </trkpt>
      <trkpt lat="37.315364" lon="-4.332004">
        <ele>451.017</ele>
        <time>2010-04-01T12:17:52Z</time>
      </trkpt>
      <trkpt lat="37.315536" lon="-4.331832">
        <ele>453.906</ele>
        <time>2010-04-01T12:18:11Z</time>
      </trkpt>
      <trkpt lat="37.315815" lon="-4.331703">
        <ele>451.059</ele>
        <time>2010-04-01T12:18:39Z</time>
      </trkpt>
      <trkpt lat="37.316136" lon="-4.331446">
        <ele>454.412</ele>
        <time>2010-04-01T12:19:11Z</time>
      </trkpt>
      <trkpt lat="37.316330" lon="-4.331338">
        <ele>455.890</ele>
        <time>2010-04-01T12:19:32Z</time>
      </trkpt>
      <trkpt lat="37.316544" lon="-4.331081">
        <ele>455.843</ele>
        <time>2010-04-01T12:20:05Z</time>
      </trkpt>
      <trkpt lat="37.316308" lon="-4.331296">
        <ele>455.885</ele>
        <time>2010-04-01T12:20:29Z</time>
      </trkpt>
      <trkpt lat="37.316136" lon="-4.331381">
        <ele>455.891</ele>
        <time>2010-04-01T12:20:44Z</time>
      </trkpt>
      <trkpt lat="37.316072" lon="-4.331446">
        <ele>455.814</ele>
        <time>2010-04-01T12:20:59Z</time>
      </trkpt>
      <trkpt lat="37.316351" lon="-4.331317">
        <ele>456.854</ele>
        <time>2010-04-01T12:21:52Z</time>
      </trkpt>
      <trkpt lat="37.316802" lon="-4.330716">
        <ele>454.809</ele>
        <time>2010-04-01T12:23:24Z</time>
      </trkpt>
      <trkpt lat="37.316780" lon="-4.330587">
        <ele>456.306</ele>
        <time>2010-04-01T12:23:45Z</time>
      </trkpt>
      <trkpt lat="37.316866" lon="-4.330223">
        <ele>454.899</ele>
        <time>2010-04-01T12:24:23Z</time>
      </trkpt>
      <trkpt lat="37.316995" lon="-4.329987">
        <ele>457.742</ele>
        <time>2010-04-01T12:24:58Z</time>
      </trkpt>
      <trkpt lat="37.317295" lon="-4.329579">
        <ele>454.410</ele>
        <time>2010-04-01T12:25:48Z</time>
      </trkpt>
      <trkpt lat="37.317317" lon="-4.329493">
        <ele>459.693</ele>
        <time>2010-04-01T12:26:16Z</time>
      </trkpt>
      <trkpt lat="37.317917" lon="-4.329150">
        <ele>452.945</ele>
        <time>2010-04-01T12:28:03Z</time>
      </trkpt>
      <trkpt lat="37.317939" lon="-4.328849">
        <ele>451.071</ele>
        <time>2010-04-01T12:28:27Z</time>
      </trkpt>
      <trkpt lat="37.317917" lon="-4.328785">
        <ele>452.955</ele>
        <time>2010-04-01T12:29:27Z</time>
      </trkpt>
      <trkpt lat="37.317853" lon="-4.328806">
        <ele>456.307</ele>
        <time>2010-04-01T12:30:18Z</time>
      </trkpt>
      <trkpt lat="37.317917" lon="-4.328742">
        <ele>455.317</ele>
        <time>2010-04-01T12:30:57Z</time>
      </trkpt>
      <trkpt lat="37.317982" lon="-4.328742">
        <ele>457.706</ele>
        <time>2010-04-01T12:31:23Z</time>
      </trkpt>
      <trkpt lat="37.317874" lon="-4.329000">
        <ele>439.533</ele>
        <time>2010-04-01T12:33:14Z</time>
      </trkpt>
      <trkpt lat="37.318068" lon="-4.329021">
        <ele>441.956</ele>
        <time>2010-04-01T12:33:35Z</time>
      </trkpt>
      <trkpt lat="37.318583" lon="-4.328764">
        <ele>450.014</ele>
        <time>2010-04-01T12:34:20Z</time>
      </trkpt>
      <trkpt lat="37.318733" lon="-4.328549">
        <ele>451.597</ele>
        <time>2010-04-01T12:34:42Z</time>
      </trkpt>
      <trkpt lat="37.318711" lon="-4.328549">
        <ele>459.299</ele>
        <time>2010-04-01T12:34:58Z</time>
      </trkpt>
      <trkpt lat="37.318926" lon="-4.328055">
        <ele>468.335</ele>
        <time>2010-04-01T12:36:14Z</time>
      </trkpt>
      <trkpt lat="37.319055" lon="-4.327905">
        <ele>469.732</ele>
        <time>2010-04-01T12:36:36Z</time>
      </trkpt>
      <trkpt lat="37.319269" lon="-4.327734">
        <ele>464.592</ele>
        <time>2010-04-01T12:37:17Z</time>
      </trkpt>
      <trkpt lat="37.319076" lon="-4.327691">
        <ele>464.911</ele>
        <time>2010-04-01T12:38:04Z</time>
      </trkpt>
      <trkpt lat="37.319248" lon="-4.327819">
        <ele>460.106</ele>
        <time>2010-04-01T12:40:00Z</time>
      </trkpt>
      <trkpt lat="37.319956" lon="-4.327433">
        <ele>456.331</ele>
        <time>2010-04-01T12:41:23Z</time>
      </trkpt>
      <trkpt lat="37.319999" lon="-4.327326">
        <ele>458.254</ele>
        <time>2010-04-01T12:42:03Z</time>
      </trkpt>
      <trkpt lat="37.320020" lon="-4.327369">
        <ele>447.622</ele>
        <time>2010-04-01T12:42:42Z</time>
      </trkpt>
      <trkpt lat="37.320106" lon="-4.327304">
        <ele>446.255</ele>
        <time>2010-04-01T12:43:53Z</time>
      </trkpt>
      <trkpt lat="37.320321" lon="-4.327498">
        <ele>455.377</ele>
        <time>2010-04-01T12:44:33Z</time>
      </trkpt>
      <trkpt lat="37.320685" lon="-4.327583">
        <ele>436.173</ele>
        <time>2010-04-01T12:47:01Z</time>
      </trkpt>
      <trkpt lat="37.321265" lon="-4.327498">
        <ele>435.626</ele>
        <time>2010-04-01T12:48:10Z</time>
      </trkpt>
      <trkpt lat="37.321458" lon="-4.327412">
        <ele>437.547</ele>
        <time>2010-04-01T12:51:08Z</time>
      </trkpt>
      <trkpt lat="37.321672" lon="-4.327455">
        <ele>444.711</ele>
        <time>2010-04-01T12:52:06Z</time>
      </trkpt>
      <trkpt lat="37.321844" lon="-4.327369">
        <ele>442.306</ele>
        <time>2010-04-01T12:53:22Z</time>
      </trkpt>
      <trkpt lat="37.321866" lon="-4.327412">
        <ele>452.440</ele>
        <time>2010-04-01T12:53:46Z</time>
      </trkpt>
      <trkpt lat="37.321866" lon="-4.327369">
        <ele>469.323</ele>
        <time>2010-04-01T12:54:12Z</time>
      </trkpt>
      <trkpt lat="37.321930" lon="-4.327326">
        <ele>473.131</ele>
        <time>2010-04-01T12:57:21Z</time>
      </trkpt>
      <trkpt lat="37.322145" lon="-4.327261">
        <ele>475.534</ele>
        <time>2010-04-01T12:59:20Z</time>
      </trkpt>
      <trkpt lat="37.322123" lon="-4.327219">
        <ele>472.686</ele>
        <time>2010-04-01T13:00:26Z</time>
      </trkpt>
      <trkpt lat="37.322295" lon="-4.327304">
        <ele>472.612</ele>
        <time>2010-04-01T13:00:59Z</time>
      </trkpt>
      <trkpt lat="37.322252" lon="-4.327133">
        <ele>473.167</ele>
        <time>2010-04-01T13:02:34Z</time>
      </trkpt>
      <trkpt lat="37.322295" lon="-4.327347">
        <ele>473.181</ele>
        <time>2010-04-01T13:03:36Z</time>
      </trkpt>
      <trkpt lat="37.322230" lon="-4.327219">
        <ele>476.519</ele>
        <time>2010-04-01T13:04:19Z</time>
      </trkpt>
      <trkpt lat="37.322230" lon="-4.327154">
        <ele>471.706</ele>
        <time>2010-04-01T13:04:54Z</time>
      </trkpt>
      <trkpt lat="37.322080" lon="-4.326961">
        <ele>476.594</ele>
        <time>2010-04-01T13:09:12Z</time>
      </trkpt>
      <trkpt lat="37.322381" lon="-4.327004">
        <ele>488.537</ele>
        <time>2010-04-01T13:10:49Z</time>
      </trkpt>
      <trkpt lat="37.321866" lon="-4.326103">
        <ele>486.615</ele>
        <time>2010-04-01T13:14:13Z</time>
      </trkpt>
      <trkpt lat="37.322552" lon="-4.326768">
        <ele>486.668</ele>
        <time>2010-04-01T13:14:38Z</time>
      </trkpt>
      <trkpt lat="37.322960" lon="-4.326725">
        <ele>520.220</ele>
        <time>2010-04-01T13:14:53Z</time>
      </trkpt>
      <trkpt lat="37.323003" lon="-4.326854">
        <ele>508.276</ele>
        <time>2010-04-01T13:18:29Z</time>
      </trkpt>
      <trkpt lat="37.323089" lon="-4.326918">
        <ele>507.749</ele>
        <time>2010-04-01T13:19:20Z</time>
      </trkpt>
      <trkpt lat="37.322552" lon="-4.326038">
        <ele>514.902</ele>
        <time>2010-04-01T13:21:42Z</time>
      </trkpt>
      <trkpt lat="37.323411" lon="-4.326382">
        <ele>517.822</ele>
        <time>2010-04-01T13:22:47Z</time>
      </trkpt>
      <trkpt lat="37.323196" lon="-4.326060">
        <ele>540.406</ele>
        <time>2010-04-01T13:28:09Z</time>
      </trkpt>
      <trkpt lat="37.322595" lon="-4.325266">
        <ele>608.222</ele>
        <time>2010-04-01T13:28:44Z</time>
      </trkpt>
      <trkpt lat="37.323067" lon="-4.325416">
        <ele>609.195</ele>
        <time>2010-04-01T13:29:22Z</time>
      </trkpt>
      <trkpt lat="37.322424" lon="-4.325073">
        <ele>617.843</ele>
        <time>2010-04-01T13:30:54Z</time>
      </trkpt>
      <trkpt lat="37.323003" lon="-4.325502">
        <ele>608.296</ele>
        <time>2010-04-01T13:32:14Z</time>
      </trkpt>
      <trkpt lat="37.323003" lon="-4.325459">
        <ele>602.988</ele>
        <time>2010-04-01T13:33:03Z</time>
      </trkpt>
      <trkpt lat="37.323067" lon="-4.325438">
        <ele>604.374</ele>
        <time>2010-04-01T13:33:51Z</time>
      </trkpt>
      <trkpt lat="37.323175" lon="-4.325545">
        <ele>589.992</ele>
        <time>2010-04-01T13:34:04Z</time>
      </trkpt>
      <trkpt lat="37.323217" lon="-4.325545">
        <ele>584.673</ele>
        <time>2010-04-01T13:34:18Z</time>
      </trkpt>
      <trkpt lat="37.323368" lon="-4.325502">
        <ele>580.320</ele>
        <time>2010-04-01T13:35:17Z</time>
      </trkpt>
      <trkpt lat="37.323411" lon="-4.325459">
        <ele>579.306</ele>
        <time>2010-04-01T13:35:32Z</time>
      </trkpt>
      <trkpt lat="37.323518" lon="-4.325502">
        <ele>571.267</ele>
        <time>2010-04-01T13:36:00Z</time>
      </trkpt>
      <trkpt lat="37.323539" lon="-4.325459">
        <ele>569.210</ele>
        <time>2010-04-01T13:36:22Z</time>
      </trkpt>
      <trkpt lat="37.323561" lon="-4.325373">
        <ele>567.328</ele>
        <time>2010-04-01T13:37:00Z</time>
      </trkpt>
      <trkpt lat="37.323346" lon="-4.325180">
        <ele>574.061</ele>
        <time>2010-04-01T13:39:27Z</time>
      </trkpt>
      <trkpt lat="37.323690" lon="-4.325137">
        <ele>576.053</ele>
        <time>2010-04-01T13:41:24Z</time>
      </trkpt>
      <trkpt lat="37.323840" lon="-4.324880">
        <ele>569.219</ele>
        <time>2010-04-01T13:44:01Z</time>
      </trkpt>
      <trkpt lat="37.323990" lon="-4.324880">
        <ele>567.382</ele>
        <time>2010-04-01T13:46:06Z</time>
      </trkpt>
      <trkpt lat="37.323947" lon="-4.324772">
        <ele>563.543</ele>
        <time>2010-04-01T13:46:34Z</time>
      </trkpt>
      <trkpt lat="37.323861" lon="-4.324751">
        <ele>564.417</ele>
        <time>2010-04-01T13:46:58Z</time>
      </trkpt>
      <trkpt lat="37.323840" lon="-4.324708">
        <ele>560.106</ele>
        <time>2010-04-01T13:47:10Z</time>
      </trkpt>
      <trkpt lat="37.323840" lon="-4.324751">
        <ele>555.346</ele>
        <time>2010-04-01T13:47:21Z</time>
      </trkpt>
      <trkpt lat="37.323818" lon="-4.324708">
        <ele>553.959</ele>
        <time>2010-04-01T13:47:32Z</time>
      </trkpt>
      <trkpt lat="37.323797" lon="-4.324343">
        <ele>539.087</ele>
        <time>2010-04-01T13:49:30Z</time>
      </trkpt>
      <trkpt lat="37.323904" lon="-4.324193">
        <ele>545.770</ele>
        <time>2010-04-01T13:49:59Z</time>
      </trkpt>
      <trkpt lat="37.323947" lon="-4.324086">
        <ele>548.122</ele>
        <time>2010-04-01T13:50:21Z</time>
      </trkpt>
      <trkpt lat="37.324054" lon="-4.323957">
        <ele>547.688</ele>
        <time>2010-04-01T13:50:45Z</time>
      </trkpt>
      <trkpt lat="37.324054" lon="-4.323914">
        <ele>549.591</ele>
        <time>2010-04-01T13:51:08Z</time>
      </trkpt>
      <trkpt lat="37.323990" lon="-4.323871">
        <ele>550.581</ele>
        <time>2010-04-01T13:51:49Z</time>
      </trkpt>
      <trkpt lat="37.323947" lon="-4.323914">
        <ele>550.519</ele>
        <time>2010-04-01T13:52:08Z</time>
      </trkpt>
      <trkpt lat="37.323818" lon="-4.323871">
        <ele>550.006</ele>
        <time>2010-04-01T13:53:03Z</time>
      </trkpt>
      <trkpt lat="37.323818" lon="-4.323914">
        <ele>555.387</ele>
        <time>2010-04-01T13:53:39Z</time>
      </trkpt>
      <trkpt lat="37.323797" lon="-4.323893">
        <ele>555.860</ele>
        <time>2010-04-01T13:54:37Z</time>
      </trkpt>
      <trkpt lat="37.323797" lon="-4.323764">
        <ele>555.818</ele>
        <time>2010-04-01T13:55:01Z</time>
      </trkpt>
      <trkpt lat="37.323968" lon="-4.323614">
        <ele>552.441</ele>
        <time>2010-04-01T13:57:05Z</time>
      </trkpt>
      <trkpt lat="37.323926" lon="-4.323635">
        <ele>552.443</ele>
        <time>2010-04-01T13:57:30Z</time>
      </trkpt>
      <trkpt lat="37.323904" lon="-4.323592">
        <ele>554.319</ele>
        <time>2010-04-01T13:59:13Z</time>
      </trkpt>
      <trkpt lat="37.324033" lon="-4.323571">
        <ele>551.513</ele>
        <time>2010-04-01T14:01:15Z</time>
      </trkpt>
      <trkpt lat="37.324097" lon="-4.323356">
        <ele>551.943</ele>
        <time>2010-04-01T14:03:06Z</time>
      </trkpt>
      <trkpt lat="37.324719" lon="-4.321640">
        <ele>540.907</ele>
        <time>2010-04-01T14:18:43Z</time>
      </trkpt>
      <trkpt lat="37.324784" lon="-4.321768">
        <ele>524.106</ele>
        <time>2010-04-01T14:20:04Z</time>
      </trkpt>
      <trkpt lat="37.324762" lon="-4.321790">
        <ele>520.239</ele>
        <time>2010-04-01T14:22:00Z</time>
      </trkpt>
      <trkpt lat="37.324719" lon="-4.321661">
        <ele>541.422</ele>
        <time>2010-04-01T14:23:22Z</time>
      </trkpt>
      <trkpt lat="37.325084" lon="-4.321189">
        <ele>596.670</ele>
        <time>2010-04-01T14:31:26Z</time>
      </trkpt>
      <trkpt lat="37.325771" lon="-4.321017">
        <ele>616.323</ele>
        <time>2010-04-01T14:33:28Z</time>
      </trkpt>
      <trkpt lat="37.325578" lon="-4.320738">
        <ele>606.215</ele>
        <time>2010-04-01T14:34:30Z</time>
      </trkpt>
      <trkpt lat="37.325342" lon="-4.320610">
        <ele>592.321</ele>
        <time>2010-04-01T14:36:15Z</time>
      </trkpt>
      <trkpt lat="37.325342" lon="-4.320567">
        <ele>589.941</ele>
        <time>2010-04-01T14:37:34Z</time>
      </trkpt>
      <trkpt lat="37.325428" lon="-4.320588">
        <ele>590.981</ele>
        <time>2010-04-01T14:38:20Z</time>
      </trkpt>
      <trkpt lat="37.325363" lon="-4.320588">
        <ele>591.809</ele>
        <time>2010-04-01T14:40:06Z</time>
      </trkpt>
      <trkpt lat="37.325363" lon="-4.320481">
        <ele>587.006</ele>
        <time>2010-04-01T14:40:44Z</time>
      </trkpt>
      <trkpt lat="37.325835" lon="-4.319837">
        <ele>582.712</ele>
        <time>2010-04-01T14:48:04Z</time>
      </trkpt>
      <trkpt lat="37.325728" lon="-4.319837">
        <ele>581.775</ele>
        <time>2010-04-01T14:48:50Z</time>
      </trkpt>
      <trkpt lat="37.325535" lon="-4.319665">
        <ele>577.943</ele>
        <time>2010-04-01T14:49:32Z</time>
      </trkpt>
      <trkpt lat="37.326222" lon="-4.320674">
        <ele>605.866</ele>
        <time>2010-04-01T15:21:35Z</time>
      </trkpt>
      <trkpt lat="37.326415" lon="-4.320631">
        <ele>613.598</ele>
        <time>2010-04-01T15:22:28Z</time>
      </trkpt>
      <trkpt lat="37.326479" lon="-4.320567">
        <ele>623.654</ele>
        <time>2010-04-01T15:23:29Z</time>
      </trkpt>
      <trkpt lat="37.326779" lon="-4.320910">
        <ele>634.633</ele>
        <time>2010-04-01T15:26:31Z</time>
      </trkpt>
      <trkpt lat="37.326629" lon="-4.321039">
        <ele>626.423</ele>
        <time>2010-04-01T15:27:14Z</time>
      </trkpt>
      <trkpt lat="37.326672" lon="-4.320974">
        <ele>630.815</ele>
        <time>2010-04-01T15:27:34Z</time>
      </trkpt>
      <trkpt lat="37.326608" lon="-4.320953">
        <ele>631.206</ele>
        <time>2010-04-01T15:27:51Z</time>
      </trkpt>
      <trkpt lat="37.326522" lon="-4.321125">
        <ele>632.771</ele>
        <time>2010-04-01T15:28:33Z</time>
      </trkpt>
      <trkpt lat="37.326586" lon="-4.321168">
        <ele>642.894</ele>
        <time>2010-04-01T15:29:19Z</time>
      </trkpt>
      <trkpt lat="37.326565" lon="-4.321253">
        <ele>649.032</ele>
        <time>2010-04-01T15:29:41Z</time>
      </trkpt>
      <trkpt lat="37.326629" lon="-4.321318">
        <ele>650.075</ele>
        <time>2010-04-01T15:30:10Z</time>
      </trkpt>
      <trkpt lat="37.326651" lon="-4.321404">
        <ele>651.487</ele>
        <time>2010-04-01T15:30:33Z</time>
      </trkpt>
      <trkpt lat="37.326629" lon="-4.321511">
        <ele>651.023</ele>
        <time>2010-04-01T15:31:03Z</time>
      </trkpt>
      <trkpt lat="37.326715" lon="-4.321575">
        <ele>653.499</ele>
        <time>2010-04-01T15:31:19Z</time>
      </trkpt>
      <trkpt lat="37.326672" lon="-4.321640">
        <ele>651.907</ele>
        <time>2010-04-01T15:31:42Z</time>
      </trkpt>
      <trkpt lat="37.326629" lon="-4.321661">
        <ele>650.527</ele>
        <time>2010-04-01T15:31:58Z</time>
      </trkpt>
      <trkpt lat="37.326694" lon="-4.321768">
        <ele>654.306</ele>
        <time>2010-04-01T15:32:31Z</time>
      </trkpt>
      <trkpt lat="37.326651" lon="-4.321811">
        <ele>654.877</ele>
        <time>2010-04-01T15:32:52Z</time>
      </trkpt>
      <trkpt lat="37.326672" lon="-4.321876">
        <ele>660.180</ele>
        <time>2010-04-01T15:33:08Z</time>
      </trkpt>
      <trkpt lat="37.326629" lon="-4.321961">
        <ele>660.668</ele>
        <time>2010-04-01T15:34:22Z</time>
      </trkpt>
      <trkpt lat="37.326694" lon="-4.322133">
        <ele>663.991</ele>
        <time>2010-04-01T15:34:53Z</time>
      </trkpt>
      <trkpt lat="37.326672" lon="-4.322155">
        <ele>663.413</ele>
        <time>2010-04-01T15:35:42Z</time>
      </trkpt>
      <trkpt lat="37.326758" lon="-4.322176">
        <ele>664.999</ele>
        <time>2010-04-01T15:54:30Z</time>
      </trkpt>
      <trkpt lat="37.326822" lon="-4.322262">
        <ele>666.331</ele>
        <time>2010-04-01T15:55:00Z</time>
      </trkpt>
      <trkpt lat="37.326887" lon="-4.322455">
        <ele>667.361</ele>
        <time>2010-04-01T15:55:31Z</time>
      </trkpt>
      <trkpt lat="37.327058" lon="-4.322734">
        <ele>677.407</ele>
        <time>2010-04-01T15:56:45Z</time>
      </trkpt>
      <trkpt lat="37.327187" lon="-4.322884">
        <ele>681.206</ele>
        <time>2010-04-01T15:57:28Z</time>
      </trkpt>
      <trkpt lat="37.327380" lon="-4.323335">
        <ele>690.451</ele>
        <time>2010-04-01T15:59:04Z</time>
      </trkpt>
      <trkpt lat="37.327445" lon="-4.323421">
        <ele>690.874</ele>
        <time>2010-04-01T15:59:22Z</time>
      </trkpt>
      <trkpt lat="37.327530" lon="-4.323463">
        <ele>693.732</ele>
        <time>2010-04-01T15:59:40Z</time>
      </trkpt>
      <trkpt lat="37.327659" lon="-4.323785">
        <ele>693.725</ele>
        <time>2010-04-01T16:00:44Z</time>
      </trkpt>
      <trkpt lat="37.327724" lon="-4.324257">
        <ele>698.537</ele>
        <time>2010-04-01T16:02:01Z</time>
      </trkpt>
      <trkpt lat="37.327724" lon="-4.324472">
        <ele>698.113</ele>
        <time>2010-04-01T16:02:32Z</time>
      </trkpt>
      <trkpt lat="37.327766" lon="-4.324644">
        <ele>700.926</ele>
        <time>2010-04-01T16:03:15Z</time>
      </trkpt>
      <trkpt lat="37.327831" lon="-4.324687">
        <ele>703.347</ele>
        <time>2010-04-01T16:03:26Z</time>
      </trkpt>
      <trkpt lat="37.327874" lon="-4.324944">
        <ele>706.211</ele>
        <time>2010-04-01T16:04:12Z</time>
      </trkpt>
      <trkpt lat="37.327938" lon="-4.325137">
        <ele>705.706</ele>
        <time>2010-04-01T16:04:40Z</time>
      </trkpt>
      <trkpt lat="37.327917" lon="-4.325202">
        <ele>706.280</ele>
        <time>2010-04-01T16:04:57Z</time>
      </trkpt>
      <trkpt lat="37.327917" lon="-4.325695">
        <ele>709.143</ele>
        <time>2010-04-01T16:06:07Z</time>
      </trkpt>
      <trkpt lat="37.327960" lon="-4.325931">
        <ele>708.671</ele>
        <time>2010-04-01T16:06:39Z</time>
      </trkpt>
      <trkpt lat="37.328024" lon="-4.326103">
        <ele>710.694</ele>
        <time>2010-04-01T16:07:11Z</time>
      </trkpt>
      <trkpt lat="37.328131" lon="-4.326274">
        <ele>714.986</ele>
        <time>2010-04-01T16:07:41Z</time>
      </trkpt>
      <trkpt lat="37.328153" lon="-4.326425">
        <ele>713.962</ele>
        <time>2010-04-01T16:08:10Z</time>
      </trkpt>
      <trkpt lat="37.328217" lon="-4.326553">
        <ele>719.738</ele>
        <time>2010-04-01T16:08:54Z</time>
      </trkpt>
      <trkpt lat="37.328217" lon="-4.326661">
        <ele>720.670</ele>
        <time>2010-04-01T16:09:09Z</time>
      </trkpt>
      <trkpt lat="37.328131" lon="-4.326918">
        <ele>726.417</ele>
        <time>2010-04-01T16:09:53Z</time>
      </trkpt>
      <trkpt lat="37.328174" lon="-4.327240">
        <ele>735.106</ele>
        <time>2010-04-01T16:12:03Z</time>
      </trkpt>
      <trkpt lat="37.328153" lon="-4.327369">
        <ele>738.961</ele>
        <time>2010-04-01T16:12:33Z</time>
      </trkpt>
      <trkpt lat="37.328196" lon="-4.327455">
        <ele>736.054</ele>
        <time>2010-04-01T16:12:47Z</time>
      </trkpt>
      <trkpt lat="37.328153" lon="-4.327798">
        <ele>743.762</ele>
        <time>2010-04-01T16:13:34Z</time>
      </trkpt>
      <trkpt lat="37.328239" lon="-4.327884">
        <ele>746.175</ele>
        <time>2010-04-01T16:13:50Z</time>
      </trkpt>
      <trkpt lat="37.328239" lon="-4.328120">
        <ele>747.617</ele>
        <time>2010-04-01T16:14:35Z</time>
      </trkpt>
      <trkpt lat="37.328346" lon="-4.328485">
        <ele>750.023</ele>
        <time>2010-04-01T16:15:51Z</time>
      </trkpt>
      <trkpt lat="37.328367" lon="-4.328935">
        <ele>763.466</ele>
        <time>2010-04-01T16:18:06Z</time>
      </trkpt>
      <trkpt lat="37.328453" lon="-4.329193">
        <ele>760.529</ele>
        <time>2010-04-01T16:18:55Z</time>
      </trkpt>
      <trkpt lat="37.328432" lon="-4.329236">
        <ele>761.521</ele>
        <time>2010-04-01T16:19:19Z</time>
      </trkpt>
      <trkpt lat="37.328453" lon="-4.329236">
        <ele>761.006</ele>
        <time>2010-04-01T16:19:29Z</time>
      </trkpt>
      <trkpt lat="37.328496" lon="-4.329300">
        <ele>760.554</ele>
        <time>2010-04-01T16:19:39Z</time>
      </trkpt>
      <trkpt lat="37.328496" lon="-4.329343">
        <ele>758.647</ele>
        <time>2010-04-01T16:19:45Z</time>
      </trkpt>
      <trkpt lat="37.328603" lon="-4.329515">
        <ele>760.585</ele>
        <time>2010-04-01T16:20:14Z</time>
      </trkpt>
      <trkpt lat="37.328582" lon="-4.329557">
        <ele>761.068</ele>
        <time>2010-04-01T16:20:31Z</time>
      </trkpt>
      <trkpt lat="37.328603" lon="-4.329622">
        <ele>762.970</ele>
        <time>2010-04-01T16:20:43Z</time>
      </trkpt>
      <trkpt lat="37.328818" lon="-4.329772">
        <ele>769.746</ele>
        <time>2010-04-01T16:21:33Z</time>
      </trkpt>
      <trkpt lat="37.328882" lon="-4.329858">
        <ele>768.218</ele>
        <time>2010-04-01T16:21:47Z</time>
      </trkpt>
      <trkpt lat="37.328968" lon="-4.330051">
        <ele>773.598</ele>
        <time>2010-04-01T16:22:25Z</time>
      </trkpt>
      <trkpt lat="37.329054" lon="-4.330137">
        <ele>776.917</ele>
        <time>2010-04-01T16:22:44Z</time>
      </trkpt>
      <trkpt lat="37.329075" lon="-4.330180">
        <ele>774.506</ele>
        <time>2010-04-01T16:22:59Z</time>
      </trkpt>
      <trkpt lat="37.329054" lon="-4.330244">
        <ele>776.419</ele>
        <time>2010-04-01T16:23:16Z</time>
      </trkpt>
      <trkpt lat="37.329183" lon="-4.330437">
        <ele>776.982</ele>
        <time>2010-04-01T16:23:54Z</time>
      </trkpt>
      <trkpt lat="37.329290" lon="-4.330695">
        <ele>783.640</ele>
        <time>2010-04-01T16:24:44Z</time>
      </trkpt>
      <trkpt lat="37.329462" lon="-4.330823">
        <ele>787.073</ele>
        <time>2010-04-01T16:25:19Z</time>
      </trkpt>
      <trkpt lat="37.329526" lon="-4.330952">
        <ele>790.825</ele>
        <time>2010-04-01T16:25:49Z</time>
      </trkpt>
      <trkpt lat="37.329741" lon="-4.331253">
        <ele>794.771</ele>
        <time>2010-04-01T16:27:47Z</time>
      </trkpt>
      <trkpt lat="37.329783" lon="-4.331467">
        <ele>793.765</ele>
        <time>2010-04-01T16:28:14Z</time>
      </trkpt>
      <trkpt lat="37.329762" lon="-4.331703">
        <ele>793.768</ele>
        <time>2010-04-01T16:30:05Z</time>
      </trkpt>
      <trkpt lat="37.329869" lon="-4.331875">
        <ele>797.114</ele>
        <time>2010-04-01T16:30:34Z</time>
      </trkpt>
      <trkpt lat="37.329869" lon="-4.331918">
        <ele>802.806</ele>
        <time>2010-04-01T16:31:00Z</time>
      </trkpt>
      <trkpt lat="37.329762" lon="-4.332004">
        <ele>806.764</ele>
        <time>2010-04-01T16:32:51Z</time>
      </trkpt>
      <trkpt lat="37.329912" lon="-4.332068">
        <ele>806.297</ele>
        <time>2010-04-01T16:33:12Z</time>
      </trkpt>
      <trkpt lat="37.329955" lon="-4.332132">
        <ele>804.895</ele>
        <time>2010-04-01T16:33:30Z</time>
      </trkpt>
      <trkpt lat="37.329977" lon="-4.332368">
        <ele>803.838</ele>
        <time>2010-04-01T16:33:50Z</time>
      </trkpt>
      <trkpt lat="37.330234" lon="-4.332819">
        <ele>803.330</ele>
        <time>2010-04-01T16:34:30Z</time>
      </trkpt>
      <trkpt lat="37.330213" lon="-4.332840">
        <ele>805.226</ele>
        <time>2010-04-01T16:35:01Z</time>
      </trkpt>
      <trkpt lat="37.330148" lon="-4.332755">
        <ele>807.254</ele>
        <time>2010-04-01T16:35:24Z</time>
      </trkpt>
      <trkpt lat="37.330256" lon="-4.332948">
        <ele>812.956</ele>
        <time>2010-04-01T16:36:34Z</time>
      </trkpt>
      <trkpt lat="37.330813" lon="-4.333527">
        <ele>819.711</ele>
        <time>2010-04-01T16:38:37Z</time>
      </trkpt>
      <trkpt lat="37.331157" lon="-4.333656">
        <ele>820.606</ele>
        <time>2010-04-01T16:39:49Z</time>
      </trkpt>
      <trkpt lat="37.331328" lon="-4.333999">
        <ele>823.563</ele>
        <time>2010-04-01T16:40:59Z</time>
      </trkpt>
      <trkpt lat="37.331500" lon="-4.334042">
        <ele>826.956</ele>
        <time>2010-04-01T16:42:22Z</time>
      </trkpt>
      <trkpt lat="37.331371" lon="-4.334192">
        <ele>846.114</ele>
        <time>2010-04-01T16:43:31Z</time>
      </trkpt>
      <trkpt lat="37.331543" lon="-4.334407">
        <ele>846.177</ele>
        <time>2010-04-01T16:44:16Z</time>
      </trkpt>
      <trkpt lat="37.331586" lon="-4.334557">
        <ele>846.619</ele>
        <time>2010-04-01T16:44:53Z</time>
      </trkpt>
      <trkpt lat="37.331586" lon="-4.334815">
        <ele>847.145</ele>
        <time>2010-04-01T16:45:37Z</time>
      </trkpt>
      <trkpt lat="37.331607" lon="-4.334729">
        <ele>887.928</ele>
        <time>2010-04-01T16:46:17Z</time>
      </trkpt>
      <trkpt lat="37.331715" lon="-4.334793">
        <ele>857.689</ele>
        <time>2010-04-01T16:47:12Z</time>
      </trkpt>
      <trkpt lat="37.331736" lon="-4.334986">
        <ele>857.617</ele>
        <time>2010-04-01T16:48:23Z</time>
      </trkpt>
      <trkpt lat="37.331629" lon="-4.335201">
        <ele>858.606</ele>
        <time>2010-04-01T16:49:27Z</time>
      </trkpt>
      <trkpt lat="37.331564" lon="-4.335136">
        <ele>863.490</ele>
        <time>2010-04-01T16:49:40Z</time>
      </trkpt>
      <trkpt lat="37.331586" lon="-4.335287">
        <ele>873.583</ele>
        <time>2010-04-01T16:50:18Z</time>
      </trkpt>
      <trkpt lat="37.331564" lon="-4.335458">
        <ele>875.421</ele>
        <time>2010-04-01T16:51:12Z</time>
      </trkpt>
      <trkpt lat="37.331629" lon="-4.335523">
        <ele>875.454</ele>
        <time>2010-04-01T16:52:56Z</time>
      </trkpt>
      <trkpt lat="37.331607" lon="-4.335609">
        <ele>874.056</ele>
        <time>2010-04-01T16:53:53Z</time>
      </trkpt>
      <trkpt lat="37.331350" lon="-4.335759">
        <ele>876.452</ele>
        <time>2010-04-01T16:54:42Z</time>
      </trkpt>
      <trkpt lat="37.331200" lon="-4.335909">
        <ele>879.767</ele>
        <time>2010-04-01T16:55:05Z</time>
      </trkpt>
      <trkpt lat="37.331071" lon="-4.336445">
        <ele>883.681</ele>
        <time>2010-04-01T16:56:02Z</time>
      </trkpt>
      <trkpt lat="37.330964" lon="-4.336574">
        <ele>884.519</ele>
        <time>2010-04-01T16:56:27Z</time>
      </trkpt>
      <trkpt lat="37.330899" lon="-4.336703">
        <ele>885.506</ele>
        <time>2010-04-01T16:57:21Z</time>
      </trkpt>
      <trkpt lat="37.330749" lon="-4.337068">
        <ele>881.724</ele>
        <time>2010-04-01T16:58:13Z</time>
      </trkpt>
      <trkpt lat="37.330577" lon="-4.337604">
        <ele>882.637</ele>
        <time>2010-04-01T17:00:09Z</time>
      </trkpt>
      <trkpt lat="37.330492" lon="-4.337776">
        <ele>881.265</ele>
        <time>2010-04-01T17:00:33Z</time>
      </trkpt>
      <trkpt lat="37.330470" lon="-4.338055">
        <ele>865.878</ele>
        <time>2010-04-01T17:01:49Z</time>
      </trkpt>
      <trkpt lat="37.330427" lon="-4.338183">
        <ele>866.350</ele>
        <time>2010-04-01T17:02:15Z</time>
      </trkpt>
      <trkpt lat="37.330363" lon="-4.338248">
        <ele>866.896</ele>
        <time>2010-04-01T17:02:39Z</time>
      </trkpt>
      <trkpt lat="37.330213" lon="-4.338634">
        <ele>866.816</ele>
        <time>2010-04-01T17:03:17Z</time>
      </trkpt>
      <trkpt lat="37.330041" lon="-4.338934">
        <ele>869.676</ele>
        <time>2010-04-01T17:03:47Z</time>
      </trkpt>
      <trkpt lat="37.329848" lon="-4.339407">
        <ele>868.713</ele>
        <time>2010-04-01T17:04:41Z</time>
      </trkpt>
      <trkpt lat="37.329419" lon="-4.340007">
        <ele>873.006</ele>
        <time>2010-04-01T17:08:09Z</time>
      </trkpt>
      <trkpt lat="37.329397" lon="-4.340351">
        <ele>872.529</ele>
        <time>2010-04-01T17:09:02Z</time>
      </trkpt>
      <trkpt lat="37.329161" lon="-4.341037">
        <ele>870.622</ele>
        <time>2010-04-01T17:09:56Z</time>
      </trkpt>
      <trkpt lat="37.329011" lon="-4.341252">
        <ele>870.180</ele>
        <time>2010-04-01T17:10:15Z</time>
      </trkpt>
      <trkpt lat="37.328925" lon="-4.341445">
        <ele>865.823</ele>
        <time>2010-04-01T17:10:32Z</time>
      </trkpt>
      <trkpt lat="37.328861" lon="-4.341681">
        <ele>862.975</ele>
        <time>2010-04-01T17:10:56Z</time>
      </trkpt>
      <trkpt lat="37.328603" lon="-4.342303">
        <ele>861.051</ele>
        <time>2010-04-01T17:11:59Z</time>
      </trkpt>
      <trkpt lat="37.328432" lon="-4.342539">
        <ele>862.054</ele>
        <time>2010-04-01T17:12:28Z</time>
      </trkpt>
      <trkpt lat="37.328260" lon="-4.343162">
        <ele>855.256</ele>
        <time>2010-04-01T17:13:29Z</time>
      </trkpt>
      <trkpt lat="37.328067" lon="-4.343462">
        <ele>853.311</ele>
        <time>2010-04-01T17:13:57Z</time>
      </trkpt>
      <trkpt lat="37.327960" lon="-4.344299">
        <ele>826.906</ele>
        <time>2010-04-01T17:15:21Z</time>
      </trkpt>
      <trkpt lat="37.327788" lon="-4.344599">
        <ele>824.063</ele>
        <time>2010-04-01T17:15:51Z</time>
      </trkpt>
      <trkpt lat="37.327638" lon="-4.345179">
        <ele>804.346</ele>
        <time>2010-04-01T17:16:46Z</time>
      </trkpt>
      <trkpt lat="37.327552" lon="-4.345179">
        <ele>820.664</ele>
        <time>2010-04-01T17:17:20Z</time>
      </trkpt>
      <trkpt lat="37.327445" lon="-4.345050">
        <ele>819.737</ele>
        <time>2010-04-01T17:18:17Z</time>
      </trkpt>
      <trkpt lat="37.327702" lon="-4.345908">
        <ele>817.739</ele>
        <time>2010-04-01T17:20:41Z</time>
      </trkpt>
      <trkpt lat="37.327445" lon="-4.346509">
        <ele>825.915</ele>
        <time>2010-04-01T17:21:46Z</time>
      </trkpt>
      <trkpt lat="37.327316" lon="-4.346960">
        <ele>829.336</ele>
        <time>2010-04-01T17:22:37Z</time>
      </trkpt>
      <trkpt lat="37.327209" lon="-4.347174">
        <ele>831.217</ele>
        <time>2010-04-01T17:23:24Z</time>
      </trkpt>
      <trkpt lat="37.327015" lon="-4.347432">
        <ele>835.518</ele>
        <time>2010-04-01T17:24:00Z</time>
      </trkpt>
      <trkpt lat="37.326887" lon="-4.347839">
        <ele>843.706</ele>
        <time>2010-04-01T17:24:30Z</time>
      </trkpt>
      <trkpt lat="37.326865" lon="-4.348590">
        <ele>849.961</ele>
        <time>2010-04-01T17:25:42Z</time>
      </trkpt>
      <trkpt lat="37.326908" lon="-4.349062">
        <ele>849.954</ele>
        <time>2010-04-01T17:26:37Z</time>
      </trkpt>
      <trkpt lat="37.327058" lon="-4.349599">
        <ele>859.632</ele>
        <time>2010-04-01T17:28:47Z</time>
      </trkpt>
      <trkpt lat="37.327230" lon="-4.349835">
        <ele>861.565</ele>
        <time>2010-04-01T17:29:12Z</time>
      </trkpt>
      <trkpt lat="37.327316" lon="-4.349878">
        <ele>860.027</ele>
        <time>2010-04-01T17:29:35Z</time>
      </trkpt>
      <trkpt lat="37.327552" lon="-4.349899">
        <ele>856.233</ele>
        <time>2010-04-01T17:30:39Z</time>
      </trkpt>
      <trkpt lat="37.327745" lon="-4.350050">
        <ele>857.266</ele>
        <time>2010-04-01T17:31:10Z</time>
      </trkpt>
      <trkpt lat="37.327831" lon="-4.350350">
        <ele>858.129</ele>
        <time>2010-04-01T17:31:45Z</time>
      </trkpt>
      <trkpt lat="37.328432" lon="-4.350650">
        <ele>855.221</ele>
        <time>2010-04-01T17:32:04Z</time>
      </trkpt>
      <trkpt lat="37.328281" lon="-4.350865">
        <ele>858.606</ele>
        <time>2010-04-01T17:32:23Z</time>
      </trkpt>
      <trkpt lat="37.328775" lon="-4.350994">
        <ele>871.674</ele>
        <time>2010-04-01T17:35:23Z</time>
      </trkpt>
      <trkpt lat="37.328775" lon="-4.351101">
        <ele>871.667</ele>
        <time>2010-04-01T17:36:04Z</time>
      </trkpt>
      <trkpt lat="37.328839" lon="-4.351358">
        <ele>873.075</ele>
        <time>2010-04-01T17:36:34Z</time>
      </trkpt>
      <trkpt lat="37.329011" lon="-4.351702">
        <ele>874.558</ele>
        <time>2010-04-01T17:37:23Z</time>
      </trkpt>
      <trkpt lat="37.329054" lon="-4.351852">
        <ele>874.560</ele>
        <time>2010-04-01T17:37:51Z</time>
      </trkpt>
      <trkpt lat="37.329097" lon="-4.352067">
        <ele>874.566</ele>
        <time>2010-04-01T17:38:28Z</time>
      </trkpt>
      <trkpt lat="37.329054" lon="-4.352131">
        <ele>874.563</ele>
        <time>2010-04-01T17:38:34Z</time>
      </trkpt>
      <trkpt lat="37.329333" lon="-4.352260">
        <ele>871.144</ele>
        <time>2010-04-01T17:38:53Z</time>
      </trkpt>
      <trkpt lat="37.329354" lon="-4.352689">
        <ele>873.518</ele>
        <time>2010-04-01T17:39:54Z</time>
      </trkpt>
      <trkpt lat="37.329311" lon="-4.352775">
        <ele>872.506</ele>
        <time>2010-04-01T17:40:11Z</time>
      </trkpt>
      <trkpt lat="37.329354" lon="-4.352861">
        <ele>873.044</ele>
        <time>2010-04-01T17:40:33Z</time>
      </trkpt>
      <trkpt lat="37.329311" lon="-4.353054">
        <ele>870.117</ele>
        <time>2010-04-01T17:40:52Z</time>
      </trkpt>
      <trkpt lat="37.329226" lon="-4.353247">
        <ele>865.835</ele>
        <time>2010-04-01T17:41:14Z</time>
      </trkpt>
      <trkpt lat="37.329226" lon="-4.353354">
        <ele>867.788</ele>
        <time>2010-04-01T17:41:32Z</time>
      </trkpt>
      <trkpt lat="37.329290" lon="-4.353504">
        <ele>865.890</ele>
        <time>2010-04-01T17:41:45Z</time>
      </trkpt>
      <trkpt lat="37.329333" lon="-4.353719">
        <ele>865.326</ele>
        <time>2010-04-01T17:42:16Z</time>
      </trkpt>
      <trkpt lat="37.329311" lon="-4.353955">
        <ele>864.831</ele>
        <time>2010-04-01T17:42:34Z</time>
      </trkpt>
      <trkpt lat="37.329333" lon="-4.353998">
        <ele>860.561</ele>
        <time>2010-04-01T17:42:38Z</time>
      </trkpt>
      <trkpt lat="37.329290" lon="-4.354019">
        <ele>860.007</ele>
        <time>2010-04-01T17:42:41Z</time>
      </trkpt>
      <trkpt lat="37.329333" lon="-4.354856">
        <ele>860.006</ele>
        <time>2010-04-01T17:44:05Z</time>
      </trkpt>
      <trkpt lat="37.329269" lon="-4.354127">
        <ele>749.011</ele>
        <time>2010-04-01T17:44:32Z</time>
      </trkpt>
      <trkpt lat="37.329655" lon="-4.355843">
        <ele>815.324</ele>
        <time>2010-04-01T17:47:06Z</time>
      </trkpt>
      <trkpt lat="37.329698" lon="-4.356337">
        <ele>814.472</ele>
        <time>2010-04-01T17:47:49Z</time>
      </trkpt>
      <trkpt lat="37.329698" lon="-4.356701">
        <ele>817.765</ele>
        <time>2010-04-01T17:48:35Z</time>
      </trkpt>
      <trkpt lat="37.329633" lon="-4.357216">
        <ele>818.267</ele>
        <time>2010-04-01T17:49:50Z</time>
      </trkpt>
      <trkpt lat="37.329547" lon="-4.357517">
        <ele>812.513</ele>
        <time>2010-04-01T17:50:37Z</time>
      </trkpt>
      <trkpt lat="37.329505" lon="-4.357495">
        <ele>793.286</ele>
        <time>2010-04-01T17:52:46Z</time>
      </trkpt>
      <trkpt lat="37.329419" lon="-4.357667">
        <ele>792.360</ele>
        <time>2010-04-01T17:53:06Z</time>
      </trkpt>
      <trkpt lat="37.329397" lon="-4.357903">
        <ele>791.826</ele>
        <time>2010-04-01T17:53:27Z</time>
      </trkpt>
      <trkpt lat="37.329462" lon="-4.358139">
        <ele>793.206</ele>
        <time>2010-04-01T17:53:53Z</time>
      </trkpt>
      <trkpt lat="37.329526" lon="-4.358268">
        <ele>791.866</ele>
        <time>2010-04-01T17:54:13Z</time>
      </trkpt>
      <trkpt lat="37.329526" lon="-4.358461">
        <ele>787.959</ele>
        <time>2010-04-01T17:54:36Z</time>
      </trkpt>
      <trkpt lat="37.329569" lon="-4.358676">
        <ele>784.667</ele>
        <time>2010-04-01T17:54:58Z</time>
      </trkpt>
      <trkpt lat="37.329526" lon="-4.358933">
        <ele>784.180</ele>
        <time>2010-04-01T17:55:16Z</time>
      </trkpt>
      <trkpt lat="37.329569" lon="-4.359427">
        <ele>781.712</ele>
        <time>2010-04-01T17:56:03Z</time>
      </trkpt>
      <trkpt lat="37.329612" lon="-4.359469">
        <ele>781.238</ele>
        <time>2010-04-01T17:56:10Z</time>
      </trkpt>
      <trkpt lat="37.329612" lon="-4.359555">
        <ele>780.762</ele>
        <time>2010-04-01T17:56:29Z</time>
      </trkpt>
      <trkpt lat="37.329762" lon="-4.359834">
        <ele>777.483</ele>
        <time>2010-04-01T17:57:06Z</time>
      </trkpt>
      <trkpt lat="37.329848" lon="-4.360306">
        <ele>771.611</ele>
        <time>2010-04-01T17:57:57Z</time>
      </trkpt>
      <trkpt lat="37.329805" lon="-4.360392">
        <ele>765.806</ele>
        <time>2010-04-01T17:58:19Z</time>
      </trkpt>
      <trkpt lat="37.329676" lon="-4.360478">
        <ele>762.924</ele>
        <time>2010-04-01T17:58:48Z</time>
      </trkpt>
      <trkpt lat="37.329719" lon="-4.360499">
        <ele>758.647</ele>
        <time>2010-04-01T17:58:54Z</time>
      </trkpt>
      <trkpt lat="37.329698" lon="-4.360478">
        <ele>752.495</ele>
        <time>2010-04-01T17:59:10Z</time>
      </trkpt>
      <trkpt lat="37.329505" lon="-4.360542">
        <ele>752.418</ele>
        <time>2010-04-01T17:59:54Z</time>
      </trkpt>
      <trkpt lat="37.329419" lon="-4.360499">
        <ele>749.010</ele>
        <time>2010-04-01T18:00:21Z</time>
      </trkpt>
      <trkpt lat="37.329333" lon="-4.360542">
        <ele>752.496</ele>
        <time>2010-04-01T18:00:47Z</time>
      </trkpt>
      <trkpt lat="37.329183" lon="-4.360693">
        <ele>748.556</ele>
        <time>2010-04-01T18:01:41Z</time>
      </trkpt>
      <trkpt lat="37.328925" lon="-4.360735">
        <ele>745.659</ele>
        <time>2010-04-01T18:02:13Z</time>
      </trkpt>
      <trkpt lat="37.328668" lon="-4.360886">
        <ele>740.414</ele>
        <time>2010-04-01T18:02:54Z</time>
      </trkpt>
      <trkpt lat="37.328453" lon="-4.361079">
        <ele>738.906</ele>
        <time>2010-04-01T18:03:29Z</time>
      </trkpt>
      <trkpt lat="37.328324" lon="-4.361036">
        <ele>729.853</ele>
        <time>2010-04-01T18:03:56Z</time>
      </trkpt>
      <trkpt lat="37.327917" lon="-4.361143">
        <ele>715.866</ele>
        <time>2010-04-01T18:05:04Z</time>
      </trkpt>
      <trkpt lat="37.327895" lon="-4.361208">
        <ele>714.464</ele>
        <time>2010-04-01T18:05:35Z</time>
      </trkpt>
      <trkpt lat="37.327874" lon="-4.361208">
        <ele>714.427</ele>
        <time>2010-04-01T18:05:36Z</time>
      </trkpt>
      <trkpt lat="37.327895" lon="-4.361272">
        <ele>715.879</ele>
        <time>2010-04-01T18:05:56Z</time>
      </trkpt>
      <trkpt lat="37.327852" lon="-4.361208">
        <ele>717.315</ele>
        <time>2010-04-01T18:07:12Z</time>
      </trkpt>
      <trkpt lat="37.328067" lon="-4.361572">
        <ele>717.855</ele>
        <time>2010-04-01T18:08:18Z</time>
      </trkpt>
      <trkpt lat="37.328239" lon="-4.361937">
        <ele>715.407</ele>
        <time>2010-04-01T18:08:55Z</time>
      </trkpt>
      <trkpt lat="37.328239" lon="-4.362431">
        <ele>713.017</ele>
        <time>2010-04-01T18:09:49Z</time>
      </trkpt>
      <trkpt lat="37.328174" lon="-4.362688">
        <ele>706.706</ele>
        <time>2010-04-01T18:10:14Z</time>
      </trkpt>
      <trkpt lat="37.328024" lon="-4.362731">
        <ele>705.373</ele>
        <time>2010-04-01T18:10:38Z</time>
      </trkpt>
      <trkpt lat="37.327917" lon="-4.362860">
        <ele>700.516</ele>
        <time>2010-04-01T18:10:57Z</time>
      </trkpt>
      <trkpt lat="37.327874" lon="-4.363031">
        <ele>700.974</ele>
        <time>2010-04-01T18:11:16Z</time>
      </trkpt>
      <trkpt lat="37.327831" lon="-4.363096">
        <ele>700.027</ele>
        <time>2010-04-01T18:11:35Z</time>
      </trkpt>
      <trkpt lat="37.327724" lon="-4.363117">
        <ele>691.369</ele>
        <time>2010-04-01T18:11:54Z</time>
      </trkpt>
      <trkpt lat="37.327745" lon="-4.363053">
        <ele>690.865</ele>
        <time>2010-04-01T18:12:06Z</time>
      </trkpt>
      <trkpt lat="37.327724" lon="-4.363546">
        <ele>690.477</ele>
        <time>2010-04-01T18:12:53Z</time>
      </trkpt>
    </trkseg>
  </trk>
</gpx>
